GEFSSGP_prec_meanprecacc_030.txt.gz
Total_Precipitation_Accumulation
0.00 0.00 0.01 0.03 0.07 0.16 0.14 0.02 0.00 0.00 0.00 0.00 0.00 0.00 0.00 0.00 0.02 0.05 0.00 0.00 0.00 0.00 0.00 0.00 0.00 0.00 0.00 0.00 0.00 0.00 0.00 0.00 0.00 0.00 0.00 0.01 0.01 0.00 0.00 0.00 0.00 0.00 0.01 0.01 0.02 0.02 0.02 0.01 0.01
0.00 0.00 0.02 0.05 0.07 0.15 0.15 0.03 0.01 0.00 0.00 0.00 0.00 0.00 0.00 0.00 0.00 0.00 0.00 0.00 0.00 0.00 0.00 0.00 0.00 0.00 0.00 0.00 0.00 0.00 0.00 0.00 0.00 0.00 0.00 0.00 0.00 0.00 0.00 0.00 0.01 0.01 0.01 0.02 0.02 0.02 0.02 0.01 0.00
0.00 0.00 0.00 0.01 0.03 0.11 0.18 0.07 0.03 0.01 0.00 0.00 0.00 0.00 0.00 0.00 0.00 0.00 0.00 0.00 0.00 0.00 0.00 0.00 0.00 0.00 0.00 0.00 0.00 0.00 0.00 0.00 0.00 0.00 0.00 0.00 0.01 0.01 0.01 0.01 0.01 0.01 0.02 0.03 0.02 0.02 0.02 0.01 0.01
0.00 0.00 0.00 0.00 0.04 0.10 0.16 0.07 0.06 0.03 0.02 0.01 0.00 0.00 0.00 0.00 0.00 0.00 0.00 0.00 0.00 0.00 0.00 0.00 0.00 0.00 0.00 0.00 0.00 0.00 0.00 0.00 0.00 0.00 0.00 0.01 0.01 0.01 0.02 0.02 0.02 0.02 0.03 0.03 0.03 0.02 0.02 0.01 0.01
0.00 0.00 0.00 0.00 0.01 0.03 0.03 0.03 0.05 0.04 0.02 0.01 0.01 0.00 0.00 0.00 0.00 0.00 0.00 0.00 0.00 0.00 0.00 0.00 0.01 0.00 0.00 0.00 0.00 0.00 0.00 0.00 0.00 0.00 0.00 0.00 0.01 0.01 0.01 0.02 0.01 0.01 0.02 0.02 0.02 0.02 0.02 0.02 0.02
0.00 0.00 0.00 0.00 0.00 0.01 0.02 0.02 0.05 0.07 0.03 0.01 0.00 0.00 0.00 0.00 0.00 0.00 0.00 0.00 0.00 0.00 0.00 0.00 0.01 0.01 0.01 0.01 0.00 0.00 0.01 0.01 0.01 0.00 0.00 0.00 0.00 0.01 0.01 0.01 0.01 0.01 0.01 0.01 0.01 0.01 0.01 0.01 0.02
0.00 0.00 0.00 0.00 0.00 0.00 0.01 0.02 0.05 0.06 0.04 0.02 0.02 0.01 0.01 0.01 0.00 0.00 0.00 0.00 0.00 0.00 0.00 0.01 0.01 0.02 0.02 0.01 0.01 0.01 0.01 0.01 0.01 0.00 0.00 0.00 0.00 0.00 0.00 0.01 0.01 0.01 0.01 0.01 0.01 0.01 0.00 0.01 0.02
0.00 0.00 0.00 0.00 0.00 0.00 0.00 0.02 0.04 0.03 0.07 0.05 0.02 0.03 0.08 0.04 0.00 0.00 0.00 0.00 0.00 0.00 0.01 0.01 0.02 0.03 0.04 0.04 0.03 0.02 0.02 0.02 0.01 0.01 0.00 0.00 0.00 0.00 0.00 0.00 0.01 0.02 0.02 0.02 0.01 0.01 0.01 0.02 0.04
0.00 0.00 0.00 0.00 0.00 0.00 0.00 0.01 0.02 0.02 0.02 0.03 0.04 0.05 0.03 0.01 0.00 0.00 0.00 0.00 0.00 0.01 0.01 0.02 0.04 0.05 0.07 0.08 0.08 0.08 0.08 0.07 0.05 0.03 0.02 0.01 0.01 0.02 0.05 0.07 0.08 0.08 0.10 0.10 0.10 0.09 0.09 0.09 0.06
0.00 0.00 0.00 0.00 0.00 0.00 0.00 0.00 0.00 0.00 0.01 0.03 0.07 0.11 0.04 0.01 0.00 0.00 0.00 0.00 0.01 0.01 0.02 0.03 0.04 0.06 0.08 0.10 0.15 0.20 0.19 0.22 0.20 0.19 0.19 0.18 0.14 0.09 0.08 0.19 0.22 0.29 0.37 0.34 0.35 0.48 0.41 0.24 0.13
0.00 0.00 0.00 0.00 0.00 0.00 0.00 0.00 0.00 0.00 0.00 0.01 0.03 0.06 0.03 0.00 0.00 0.01 0.01 0.01 0.01 0.01 0.02 0.03 0.03 0.05 0.08 0.12 0.15 0.19 0.20 0.29 0.34 0.42 0.52 0.56 0.47 0.34 0.27 0.42 0.51 0.52 0.52 0.40 0.55 0.77 0.47 0.34 0.34
0.00 0.00 0.00 0.00 0.00 0.00 0.00 0.00 0.00 0.00 0.00 0.00 0.03 0.10 0.05 0.01 0.01 0.01 0.02 0.02 0.04 0.08 0.12 0.14 0.09 0.07 0.08 0.11 0.12 0.13 0.14 0.20 0.26 0.43 0.66 0.82 0.78 0.64 0.64 0.70 0.56 0.50 0.48 0.59 0.62 0.69 0.52 0.44 0.43
0.00 0.00 0.00 0.00 0.00 0.00 0.00 0.00 0.00 0.00 0.00 0.00 0.01 0.06 0.17 0.12 0.06 0.05 0.07 0.09 0.14 0.26 0.39 0.41 0.34 0.27 0.21 0.16 0.15 0.14 0.17 0.20 0.29 0.45 0.74 0.95 0.99 0.98 1.05 0.90 0.73 0.54 0.68 0.88 0.84 0.70 0.70 0.73 0.81
0.00 0.00 0.00 0.00 0.00 0.00 0.00 0.00 0.00 0.00 0.00 0.00 0.01 0.05 0.11 0.19 0.22 0.20 0.26 0.35 0.39 0.51 0.68 0.73 0.77 0.73 0.60 0.47 0.40 0.42 0.44 0.48 0.57 0.65 0.78 1.00 1.08 1.12 1.12 1.03 0.90 0.81 0.88 1.00 0.94 0.81 0.88 0.87 0.84
0.00 0.00 0.00 0.00 0.00 0.00 0.00 0.00 0.00 0.01 0.00 0.00 0.01 0.02 0.06 0.09 0.15 0.27 0.37 0.49 0.67 0.91 1.17 1.33 1.36 1.34 1.30 1.17 0.96 0.83 0.74 0.74 0.78 0.84 0.80 0.86 0.96 0.97 1.05 1.02 0.97 0.99 1.01 1.00 0.90 0.83 0.89 0.77 0.62
0.00 0.00 0.00 0.00 0.00 0.00 0.00 0.03 0.01 0.02 0.01 0.01 0.02 0.06 0.10 0.16 0.27 0.41 0.56 0.79 1.16 1.60 2.04 2.28 2.27 2.12 1.80 1.51 1.32 1.18 1.10 1.05 0.93 0.86 0.75 0.64 0.70 0.76 0.83 0.79 0.82 0.83 0.86 0.85 0.77 0.69 0.70 0.69 0.66
0.00 0.00 0.02 0.05 0.04 0.01 0.01 0.02 0.01 0.01 0.02 0.03 0.06 0.12 0.19 0.29 0.44 0.67 0.90 1.30 1.98 2.79 3.32 3.26 2.85 2.54 2.02 1.56 1.34 1.31 1.35 1.27 1.11 0.99 0.85 0.70 0.65 0.68 0.74 0.72 0.70 0.67 0.67 0.66 0.60 0.59 0.59 0.58 0.57
0.01 0.03 0.07 0.07 0.05 0.04 0.02 0.01 0.02 0.02 0.02 0.03 0.06 0.11 0.18 0.33 0.54 0.72 0.98 1.50 2.33 3.33 4.01 3.97 3.33 2.64 2.12 1.78 1.55 1.39 1.34 1.22 1.06 0.97 0.84 0.69 0.61 0.60 0.59 0.56 0.52 0.48 0.46 0.45 0.46 0.51 0.53 0.48 0.46
0.01 0.02 0.05 0.05 0.03 0.05 0.01 0.00 0.01 0.01 0.02 0.03 0.04 0.08 0.15 0.33 0.57 0.83 1.16 1.55 2.06 2.65 3.11 3.14 2.52 2.02 1.71 1.43 1.07 0.91 0.88 0.80 0.71 0.69 0.64 0.60 0.56 0.51 0.46 0.40 0.39 0.35 0.32 0.32 0.32 0.35 0.38 0.35 0.34
0.00 0.00 0.01 0.04 0.04 0.01 0.01 0.01 0.01 0.01 0.01 0.03 0.05 0.09 0.22 0.52 0.81 1.11 1.47 1.62 1.54 1.66 1.75 1.38 1.10 0.92 0.78 0.68 0.51 0.41 0.37 0.35 0.34 0.34 0.35 0.33 0.36 0.40 0.38 0.36 0.35 0.33 0.30 0.26 0.27 0.28 0.26 0.24 0.24
0.00 0.00 0.02 0.08 0.05 0.01 0.01 0.07 0.05 0.02 0.02 0.04 0.12 0.29 0.70 1.13 1.35 1.52 1.36 1.15 1.07 1.04 0.90 0.61 0.47 0.47 0.41 0.33 0.25 0.22 0.21 0.21 0.21 0.21 0.22 0.22 0.23 0.26 0.29 0.32 0.35 0.34 0.30 0.27 0.26 0.24 0.21 0.18 0.16
0.01 0.01 0.01 0.00 0.01 0.04 0.07 0.25 0.24 0.15 0.11 0.08 0.21 0.60 1.12 1.39 1.59 1.39 0.75 0.47 0.46 0.47 0.48 0.51 0.52 0.41 0.30 0.26 0.19 0.14 0.13 0.13 0.13 0.14 0.15 0.17 0.16 0.16 0.18 0.23 0.29 0.29 0.30 0.29 0.22 0.21 0.24 0.21 0.14
0.01 0.00 0.00 0.00 0.01 0.06 0.24 0.57 0.62 0.41 0.32 0.18 0.17 0.35 0.72 0.92 0.82 0.47 0.19 0.13 0.18 0.28 0.47 0.68 0.66 0.45 0.31 0.27 0.23 0.21 0.19 0.18 0.17 0.17 0.18 0.20 0.20 0.20 0.17 0.17 0.22 0.26 0.32 0.36 0.32 0.29 0.26 0.23 0.17
0.01 0.00 0.01 0.05 0.09 0.24 0.43 0.58 0.62 0.48 0.43 0.27 0.16 0.26 0.50 0.52 0.32 0.16 0.10 0.14 0.21 0.26 0.33 0.42 0.49 0.56 0.51 0.46 0.37 0.34 0.33 0.31 0.28 0.26 0.25 0.25 0.26 0.28 0.27 0.27 0.29 0.33 0.32 0.33 0.34 0.36 0.33 0.29 0.25
0.01 0.01 0.09 0.27 0.37 0.43 0.36 0.37 0.42 0.32 0.25 0.15 0.09 0.11 0.14 0.15 0.16 0.18 0.19 0.22 0.19 0.16 0.15 0.15 0.19 0.29 0.36 0.40 0.42 0.42 0.41 0.36 0.32 0.28 0.24 0.27 0.25 0.27 0.29 0.29 0.33 0.37 0.36 0.34 0.32 0.32 0.36 0.40 0.37
0.01 0.01 0.03 0.07 0.10 0.15 0.20 0.39 0.44 0.34 0.17 0.06 0.02 0.02 0.02 0.03 0.04 0.07 0.08 0.07 0.07 0.07 0.07 0.07 0.07 0.08 0.11 0.14 0.18 0.22 0.28 0.27 0.26 0.30 0.24 0.25 0.29 0.29 0.27 0.25 0.25 0.27 0.31 0.32 0.29 0.26 0.27 0.32 0.39
0.01 0.01 0.01 0.02 0.02 0.06 0.18 0.36 0.31 0.21 0.12 0.05 0.02 0.01 0.01 0.01 0.01 0.01 0.02 0.03 0.04 0.03 0.04 0.04 0.04 0.04 0.04 0.05 0.05 0.06 0.11 0.15 0.16 0.17 0.16 0.17 0.24 0.26 0.24 0.22 0.20 0.19 0.22 0.26 0.27 0.25 0.26 0.26 0.27
0.01 0.01 0.01 0.02 0.03 0.03 0.11 0.39 0.47 0.26 0.16 0.07 0.03 0.01 0.01 0.01 0.01 0.00 0.01 0.01 0.01 0.02 0.02 0.03 0.04 0.03 0.03 0.02 0.02 0.02 0.04 0.08 0.10 0.11 0.12 0.14 0.18 0.21 0.19 0.16 0.13 0.13 0.13 0.16 0.20 0.23 0.27 0.31 0.34
0.01 0.01 0.02 0.03 0.03 0.03 0.05 0.19 0.22 0.18 0.12 0.05 0.02 0.00 0.00 0.00 0.00 0.01 0.00 0.00 0.01 0.01 0.01 0.02 0.02 0.02 0.02 0.02 0.01 0.01 0.01 0.02 0.06 0.10 0.15 0.18 0.19 0.20 0.18 0.16 0.13 0.11 0.11 0.13 0.16 0.19 0.25 0.31 0.40
0.02 0.02 0.02 0.03 0.03 0.03 0.05 0.10 0.12 0.11 0.08 0.04 0.01 0.00 0.00 0.00 0.00 0.00 0.00 0.00 0.01 0.01 0.01 0.01 0.01 0.01 0.01 0.00 0.00 0.00 0.00 0.00 0.01 0.03 0.07 0.14 0.19 0.20 0.20 0.18 0.16 0.11 0.09 0.10 0.12 0.14 0.18 0.26 0.36

GEFSSGP_prec_meanprecacc_036.txt.gz
Total_Precipitation_Accumulation
0.00 0.00 0.02 0.06 0.15 0.23 0.19 0.04 0.02 0.01 0.01 0.01 0.01 0.00 0.00 0.00 0.02 0.05 0.01 0.00 0.00 0.00 0.00 0.00 0.00 0.00 0.00 0.00 0.00 0.00 0.00 0.00 0.00 0.00 0.00 0.01 0.01 0.00 0.00 0.00 0.00 0.00 0.01 0.01 0.02 0.02 0.02 0.01 0.01
0.00 0.00 0.02 0.07 0.13 0.22 0.16 0.03 0.01 0.00 0.01 0.01 0.02 0.01 0.00 0.00 0.00 0.00 0.00 0.00 0.00 0.00 0.00 0.00 0.00 0.00 0.00 0.00 0.00 0.00 0.00 0.00 0.00 0.00 0.00 0.00 0.00 0.00 0.01 0.01 0.01 0.01 0.02 0.02 0.02 0.02 0.02 0.01 0.00
0.00 0.00 0.00 0.02 0.06 0.15 0.18 0.07 0.03 0.01 0.01 0.01 0.03 0.01 0.00 0.00 0.00 0.00 0.00 0.00 0.00 0.00 0.00 0.00 0.00 0.00 0.00 0.00 0.00 0.00 0.00 0.00 0.00 0.00 0.00 0.00 0.01 0.01 0.01 0.01 0.01 0.01 0.02 0.03 0.03 0.03 0.02 0.01 0.01
0.00 0.00 0.00 0.00 0.04 0.10 0.16 0.07 0.06 0.03 0.02 0.02 0.03 0.02 0.01 0.00 0.00 0.00 0.00 0.00 0.00 0.00 0.00 0.00 0.00 0.00 0.00 0.00 0.00 0.00 0.00 0.00 0.00 0.00 0.00 0.01 0.01 0.02 0.02 0.02 0.02 0.02 0.03 0.04 0.03 0.02 0.02 0.01 0.01
0.00 0.00 0.00 0.00 0.01 0.03 0.03 0.03 0.05 0.04 0.02 0.02 0.02 0.02 0.01 0.01 0.00 0.00 0.00 0.00 0.00 0.00 0.00 0.00 0.01 0.00 0.00 0.00 0.00 0.00 0.00 0.00 0.00 0.00 0.00 0.01 0.01 0.01 0.02 0.02 0.02 0.02 0.02 0.03 0.02 0.02 0.02 0.02 0.02
0.00 0.00 0.00 0.00 0.00 0.01 0.02 0.02 0.05 0.07 0.03 0.02 0.03 0.04 0.03 0.01 0.00 0.01 0.01 0.00 0.00 0.00 0.00 0.00 0.01 0.01 0.01 0.01 0.00 0.00 0.01 0.01 0.01 0.00 0.00 0.00 0.01 0.01 0.01 0.02 0.01 0.01 0.02 0.02 0.02 0.01 0.01 0.01 0.02
0.00 0.00 0.00 0.00 0.00 0.00 0.01 0.02 0.05 0.06 0.04 0.03 0.05 0.10 0.07 0.04 0.01 0.02 0.01 0.01 0.01 0.01 0.00 0.01 0.01 0.02 0.02 0.01 0.01 0.01 0.01 0.01 0.01 0.00 0.00 0.00 0.00 0.00 0.01 0.01 0.02 0.02 0.02 0.02 0.01 0.02 0.01 0.01 0.02
0.00 0.00 0.00 0.00 0.00 0.00 0.00 0.02 0.04 0.03 0.07 0.06 0.05 0.14 0.21 0.10 0.03 0.03 0.03 0.04 0.04 0.02 0.01 0.01 0.02 0.03 0.04 0.04 0.03 0.02 0.02 0.02 0.01 0.01 0.01 0.01 0.00 0.00 0.00 0.01 0.02 0.03 0.03 0.03 0.03 0.02 0.02 0.03 0.05
0.00 0.00 0.00 0.00 0.00 0.00 0.00 0.01 0.02 0.02 0.02 0.03 0.07 0.14 0.11 0.05 0.04 0.07 0.05 0.05 0.05 0.04 0.03 0.04 0.06 0.08 0.09 0.09 0.10 0.10 0.09 0.08 0.06 0.04 0.02 0.01 0.01 0.02 0.05 0.08 0.10 0.11 0.12 0.12 0.12 0.11 0.11 0.11 0.07
0.00 0.00 0.00 0.00 0.00 0.00 0.00 0.00 0.00 0.00 0.01 0.03 0.09 0.18 0.12 0.10 0.06 0.05 0.05 0.06 0.06 0.07 0.10 0.08 0.09 0.10 0.12 0.13 0.22 0.25 0.24 0.27 0.23 0.20 0.21 0.19 0.15 0.10 0.10 0.22 0.28 0.37 0.47 0.43 0.40 0.54 0.47 0.28 0.15
0.00 0.00 0.00 0.00 0.00 0.00 0.00 0.00 0.00 0.00 0.01 0.02 0.05 0.13 0.15 0.18 0.10 0.08 0.08 0.10 0.10 0.12 0.12 0.10 0.10 0.12 0.14 0.20 0.25 0.28 0.30 0.41 0.47 0.53 0.59 0.61 0.52 0.38 0.31 0.45 0.58 0.60 0.63 0.51 0.66 0.90 0.58 0.43 0.39
0.00 0.00 0.00 0.00 0.00 0.00 0.00 0.00 0.00 0.00 0.01 0.01 0.04 0.13 0.11 0.12 0.14 0.15 0.16 0.17 0.20 0.20 0.21 0.21 0.17 0.16 0.18 0.22 0.24 0.24 0.24 0.30 0.40 0.58 0.77 0.89 0.83 0.69 0.69 0.75 0.63 0.58 0.60 0.75 0.80 0.87 0.70 0.59 0.54
0.00 0.00 0.00 0.00 0.00 0.00 0.00 0.00 0.00 0.00 0.00 0.01 0.02 0.09 0.21 0.20 0.17 0.20 0.26 0.25 0.29 0.38 0.50 0.53 0.48 0.42 0.36 0.30 0.27 0.24 0.24 0.26 0.35 0.51 0.79 0.99 1.01 1.01 1.08 0.94 0.79 0.63 0.81 1.06 1.07 0.95 0.95 0.94 0.99
0.00 0.00 0.00 0.00 0.00 0.00 0.00 0.00 0.00 0.01 0.01 0.01 0.02 0.07 0.15 0.25 0.29 0.29 0.38 0.48 0.53 0.64 0.83 0.87 0.94 0.90 0.75 0.58 0.47 0.47 0.47 0.51 0.60 0.68 0.81 1.02 1.10 1.13 1.13 1.05 0.94 0.88 1.00 1.16 1.18 1.12 1.25 1.24 1.17
0.00 0.00 0.00 0.00 0.00 0.00 0.00 0.01 0.01 0.03 0.02 0.01 0.01 0.03 0.08 0.12 0.20 0.34 0.46 0.60 0.80 1.04 1.32 1.49 1.51 1.46 1.38 1.22 0.99 0.85 0.76 0.76 0.80 0.86 0.82 0.88 0.97 0.98 1.06 1.03 0.98 1.02 1.08 1.11 1.09 1.09 1.23 1.16 1.02
0.00 0.00 0.00 0.01 0.01 0.02 0.03 0.07 0.05 0.06 0.06 0.05 0.04 0.07 0.11 0.18 0.30 0.45 0.61 0.85 1.23 1.69 2.14 2.38 2.36 2.18 1.83 1.52 1.33 1.19 1.10 1.06 0.94 0.87 0.76 0.65 0.71 0.77 0.83 0.80 0.82 0.87 0.93 0.93 0.89 0.90 0.98 1.01 1.06
0.00 0.00 0.02 0.07 0.06 0.05 0.08 0.14 0.10 0.09 0.12 0.11 0.10 0.13 0.20 0.30 0.45 0.68 0.92 1.33 2.01 2.82 3.35 3.30 2.88 2.56 2.04 1.57 1.34 1.32 1.36 1.27 1.11 0.99 0.86 0.70 0.65 0.69 0.74 0.72 0.70 0.69 0.72 0.73 0.70 0.75 0.82 0.86 0.90
0.01 0.03 0.08 0.11 0.09 0.15 0.21 0.19 0.16 0.17 0.21 0.17 0.12 0.13 0.19 0.34 0.54 0.73 0.98 1.51 2.34 3.34 4.03 3.98 3.34 2.65 2.12 1.78 1.55 1.39 1.34 1.22 1.06 0.97 0.85 0.70 0.62 0.61 0.59 0.57 0.53 0.50 0.51 0.54 0.57 0.64 0.72 0.74 0.77
0.01 0.03 0.08 0.14 0.11 0.19 0.24 0.26 0.28 0.36 0.41 0.28 0.16 0.13 0.17 0.33 0.58 0.83 1.16 1.55 2.06 2.65 3.12 3.14 2.52 2.02 1.71 1.43 1.07 0.91 0.88 0.80 0.71 0.69 0.64 0.61 0.56 0.52 0.47 0.41 0.39 0.35 0.34 0.36 0.38 0.46 0.53 0.56 0.62
0.02 0.03 0.07 0.11 0.10 0.09 0.18 0.36 0.46 0.45 0.47 0.33 0.22 0.16 0.24 0.54 0.82 1.12 1.47 1.62 1.54 1.66 1.75 1.38 1.10 0.92 0.78 0.68 0.51 0.41 0.37 0.35 0.34 0.35 0.35 0.33 0.37 0.40 0.39 0.37 0.36 0.34 0.33 0.31 0.34 0.39 0.42 0.45 0.51
0.03 0.04 0.06 0.12 0.11 0.13 0.23 0.45 0.61 0.55 0.49 0.35 0.31 0.37 0.73 1.16 1.37 1.53 1.36 1.15 1.07 1.04 0.90 0.61 0.47 0.47 0.41 0.33 0.25 0.22 0.21 0.21 0.21 0.22 0.22 0.22 0.23 0.26 0.29 0.33 0.36 0.35 0.31 0.29 0.30 0.32 0.32 0.32 0.35
0.04 0.03 0.02 0.02 0.06 0.19 0.34 0.66 0.81 0.70 0.57 0.35 0.37 0.67 1.15 1.40 1.60 1.39 0.75 0.47 0.46 0.47 0.48 0.51 0.52 0.41 0.30 0.26 0.19 0.14 0.13 0.13 0.13 0.15 0.15 0.17 0.16 0.16 0.18 0.24 0.29 0.30 0.31 0.30 0.24 0.24 0.29 0.29 0.26
0.02 0.02 0.01 0.02 0.04 0.13 0.40 0.83 1.00 0.78 0.59 0.38 0.30 0.40 0.74 0.93 0.83 0.47 0.19 0.13 0.18 0.28 0.47 0.68 0.66 0.45 0.31 0.27 0.23 0.21 0.19 0.18 0.17 0.17 0.18 0.20 0.20 0.20 0.17 0.17 0.22 0.27 0.33 0.38 0.34 0.31 0.29 0.27 0.23
0.02 0.02 0.04 0.07 0.12 0.29 0.49 0.69 0.86 0.70 0.57 0.43 0.25 0.29 0.52 0.53 0.32 0.16 0.10 0.14 0.21 0.26 0.33 0.42 0.49 0.56 0.51 0.46 0.37 0.34 0.33 0.31 0.28 0.26 0.25 0.25 0.26 0.28 0.27 0.27 0.30 0.33 0.33 0.34 0.36 0.39 0.37 0.35 0.31
0.02 0.02 0.11 0.31 0.41 0.50 0.42 0.57 0.79 0.49 0.37 0.27 0.14 0.13 0.15 0.16 0.16 0.18 0.19 0.22 0.19 0.16 0.15 0.15 0.19 0.29 0.36 0.40 0.42 0.42 0.41 0.36 0.32 0.28 0.24 0.27 0.25 0.27 0.29 0.29 0.33 0.37 0.37 0.34 0.32 0.33 0.38 0.44 0.43
0.01 0.01 0.04 0.09 0.13 0.20 0.29 0.60 0.71 0.42 0.21 0.09 0.04 0.02 0.02 0.03 0.05 0.07 0.09 0.08 0.07 0.07 0.07 0.07 0.07 0.08 0.11 0.14 0.18 0.22 0.28 0.27 0.26 0.30 0.24 0.25 0.29 0.29 0.27 0.25 0.25 0.27 0.31 0.32 0.29 0.26 0.27 0.33 0.42
0.01 0.01 0.01 0.02 0.02 0.10 0.30 0.53 0.43 0.24 0.13 0.05 0.03 0.02 0.01 0.01 0.01 0.01 0.02 0.03 0.04 0.03 0.04 0.04 0.04 0.04 0.04 0.05 0.05 0.06 0.11 0.15 0.16 0.17 0.16 0.17 0.24 0.26 0.24 0.22 0.20 0.19 0.22 0.26 0.27 0.25 0.26 0.26 0.28
0.01 0.01 0.01 0.02 0.03 0.05 0.19 0.51 0.56 0.28 0.17 0.07 0.03 0.02 0.02 0.01 0.01 0.00 0.01 0.01 0.01 0.02 0.02 0.03 0.04 0.03 0.03 0.02 0.02 0.02 0.04 0.08 0.10 0.11 0.12 0.15 0.18 0.21 0.19 0.16 0.13 0.13 0.14 0.16 0.20 0.23 0.27 0.32 0.35
0.01 0.01 0.02 0.03 0.03 0.03 0.07 0.23 0.23 0.19 0.12 0.05 0.02 0.00 0.00 0.00 0.00 0.01 0.00 0.00 0.01 0.01 0.01 0.02 0.02 0.02 0.02 0.02 0.01 0.01 0.01 0.02 0.06 0.10 0.15 0.18 0.19 0.20 0.19 0.16 0.14 0.11 0.11 0.13 0.16 0.20 0.25 0.32 0.41
0.02 0.02 0.02 0.03 0.03 0.03 0.05 0.10 0.12 0.11 0.08 0.04 0.01 0.00 0.00 0.00 0.00 0.00 0.00 0.00 0.01 0.01 0.01 0.01 0.01 0.01 0.01 0.00 0.00 0.00 0.00 0.00 0.01 0.03 0.08 0.14 0.19 0.20 0.20 0.18 0.16 0.11 0.09 0.10 0.12 0.14 0.19 0.27 0.37

GEFSSGP_prec_meanprecacc_042.txt.gz
Total_Precipitation_Accumulation
0.00 0.00 0.02 0.07 0.16 0.24 0.19 0.05 0.03 0.02 0.01 0.01 0.01 0.01 0.01 0.00 0.03 0.06 0.01 0.00 0.00 0.00 0.00 0.00 0.00 0.00 0.00 0.00 0.00 0.00 0.00 0.00 0.00 0.00 0.00 0.01 0.01 0.01 0.00 0.00 0.00 0.00 0.01 0.01 0.02 0.02 0.02 0.01 0.01
0.00 0.00 0.02 0.07 0.13 0.22 0.16 0.04 0.01 0.01 0.01 0.02 0.03 0.01 0.00 0.00 0.00 0.00 0.00 0.00 0.00 0.00 0.00 0.00 0.00 0.00 0.00 0.00 0.00 0.00 0.00 0.00 0.00 0.00 0.00 0.00 0.00 0.00 0.01 0.01 0.01 0.01 0.02 0.02 0.02 0.02 0.02 0.01 0.00
0.00 0.00 0.00 0.02 0.06 0.15 0.18 0.07 0.03 0.02 0.02 0.03 0.04 0.02 0.00 0.00 0.00 0.00 0.00 0.00 0.00 0.00 0.00 0.00 0.00 0.00 0.00 0.00 0.00 0.00 0.00 0.00 0.00 0.00 0.00 0.01 0.01 0.01 0.01 0.01 0.01 0.02 0.03 0.03 0.03 0.03 0.03 0.01 0.01
0.00 0.00 0.00 0.00 0.04 0.10 0.16 0.08 0.06 0.04 0.03 0.03 0.04 0.02 0.01 0.00 0.00 0.00 0.00 0.00 0.00 0.00 0.00 0.00 0.00 0.00 0.00 0.00 0.00 0.00 0.01 0.01 0.01 0.01 0.01 0.01 0.01 0.02 0.02 0.02 0.02 0.02 0.04 0.04 0.04 0.04 0.03 0.02 0.01
0.00 0.00 0.00 0.00 0.01 0.03 0.03 0.03 0.05 0.05 0.03 0.03 0.03 0.02 0.02 0.01 0.00 0.00 0.01 0.00 0.00 0.00 0.00 0.00 0.01 0.01 0.00 0.00 0.00 0.00 0.01 0.01 0.01 0.01 0.01 0.01 0.01 0.02 0.02 0.03 0.02 0.02 0.03 0.04 0.04 0.04 0.04 0.04 0.03
0.00 0.00 0.00 0.00 0.00 0.01 0.02 0.02 0.05 0.08 0.04 0.02 0.03 0.04 0.03 0.01 0.01 0.02 0.01 0.01 0.00 0.00 0.00 0.01 0.01 0.01 0.01 0.01 0.01 0.01 0.01 0.01 0.01 0.01 0.01 0.01 0.01 0.02 0.02 0.03 0.03 0.03 0.03 0.03 0.03 0.04 0.03 0.03 0.04
0.00 0.00 0.00 0.00 0.00 0.01 0.02 0.03 0.05 0.07 0.05 0.03 0.06 0.10 0.07 0.04 0.02 0.02 0.02 0.02 0.01 0.01 0.01 0.01 0.02 0.02 0.02 0.01 0.01 0.01 0.01 0.01 0.01 0.01 0.01 0.01 0.01 0.01 0.01 0.02 0.03 0.03 0.03 0.03 0.04 0.03 0.03 0.04 0.05
0.00 0.00 0.00 0.00 0.00 0.01 0.02 0.02 0.04 0.04 0.08 0.06 0.05 0.14 0.21 0.12 0.04 0.05 0.04 0.05 0.04 0.03 0.01 0.02 0.03 0.04 0.04 0.04 0.03 0.03 0.03 0.02 0.02 0.01 0.01 0.01 0.01 0.01 0.01 0.01 0.03 0.04 0.05 0.06 0.06 0.06 0.06 0.08 0.09
0.00 0.00 0.00 0.00 0.00 0.00 0.01 0.02 0.02 0.02 0.03 0.03 0.07 0.14 0.11 0.06 0.07 0.10 0.08 0.07 0.06 0.04 0.04 0.06 0.08 0.10 0.10 0.10 0.11 0.12 0.12 0.12 0.08 0.05 0.04 0.03 0.02 0.03 0.06 0.10 0.13 0.15 0.18 0.20 0.19 0.20 0.20 0.21 0.15
0.00 0.00 0.00 0.00 0.00 0.00 0.01 0.01 0.01 0.02 0.02 0.04 0.10 0.18 0.14 0.14 0.12 0.10 0.11 0.10 0.10 0.12 0.17 0.17 0.18 0.17 0.17 0.18 0.27 0.31 0.31 0.35 0.30 0.26 0.25 0.22 0.17 0.12 0.12 0.24 0.35 0.45 0.57 0.56 0.55 0.72 0.65 0.43 0.24
0.00 0.00 0.00 0.00 0.00 0.00 0.00 0.01 0.01 0.02 0.03 0.04 0.06 0.15 0.19 0.24 0.17 0.17 0.17 0.21 0.21 0.23 0.22 0.21 0.24 0.27 0.30 0.35 0.41 0.43 0.44 0.58 0.67 0.71 0.71 0.69 0.57 0.42 0.35 0.49 0.63 0.66 0.73 0.61 0.79 1.08 0.75 0.61 0.54
0.00 0.00 0.00 0.00 0.00 0.00 0.00 0.01 0.01 0.02 0.04 0.04 0.08 0.17 0.18 0.21 0.27 0.29 0.32 0.33 0.35 0.33 0.36 0.39 0.38 0.40 0.42 0.46 0.46 0.44 0.43 0.51 0.60 0.76 0.93 1.01 0.92 0.76 0.75 0.80 0.68 0.63 0.66 0.81 0.88 0.96 0.82 0.76 0.72
0.00 0.00 0.00 0.00 0.00 0.00 0.00 0.01 0.02 0.03 0.04 0.06 0.09 0.16 0.30 0.30 0.30 0.36 0.42 0.41 0.46 0.56 0.70 0.74 0.70 0.67 0.60 0.53 0.50 0.47 0.45 0.44 0.47 0.62 0.92 1.09 1.10 1.08 1.14 0.98 0.83 0.66 0.85 1.09 1.10 1.01 1.04 1.06 1.13
0.00 0.00 0.00 0.00 0.00 0.00 0.01 0.01 0.02 0.04 0.04 0.06 0.08 0.14 0.23 0.35 0.43 0.45 0.54 0.66 0.71 0.82 1.03 1.06 1.13 1.10 0.91 0.73 0.62 0.59 0.56 0.60 0.68 0.76 0.88 1.07 1.14 1.17 1.17 1.09 0.96 0.91 1.03 1.19 1.20 1.14 1.29 1.31 1.26
0.00 0.00 0.00 0.01 0.01 0.01 0.01 0.02 0.04 0.06 0.06 0.06 0.08 0.11 0.18 0.24 0.33 0.48 0.60 0.74 0.94 1.19 1.47 1.63 1.65 1.59 1.48 1.29 1.05 0.88 0.80 0.79 0.84 0.88 0.83 0.89 0.98 1.00 1.08 1.05 1.00 1.03 1.09 1.11 1.09 1.09 1.24 1.19 1.06
0.00 0.00 0.00 0.01 0.02 0.02 0.04 0.09 0.09 0.11 0.10 0.11 0.12 0.16 0.22 0.29 0.42 0.57 0.73 0.96 1.32 1.78 2.24 2.47 2.43 2.23 1.87 1.55 1.34 1.20 1.12 1.07 0.95 0.87 0.76 0.65 0.71 0.78 0.84 0.80 0.83 0.87 0.93 0.93 0.89 0.91 0.98 1.02 1.08
0.00 0.00 0.02 0.07 0.06 0.05 0.09 0.17 0.14 0.14 0.18 0.19 0.19 0.22 0.29 0.38 0.53 0.75 0.98 1.38 2.06 2.87 3.39 3.34 2.91 2.58 2.04 1.57 1.35 1.32 1.36 1.27 1.11 0.99 0.86 0.71 0.66 0.69 0.74 0.72 0.70 0.69 0.72 0.73 0.70 0.75 0.82 0.86 0.92
0.01 0.03 0.08 0.12 0.10 0.16 0.22 0.22 0.21 0.23 0.28 0.27 0.24 0.22 0.26 0.39 0.58 0.75 1.00 1.53 2.36 3.37 4.04 3.99 3.35 2.65 2.12 1.78 1.55 1.39 1.34 1.22 1.06 0.97 0.85 0.70 0.62 0.61 0.59 0.57 0.53 0.50 0.51 0.54 0.57 0.64 0.72 0.74 0.80
0.02 0.03 0.08 0.14 0.11 0.19 0.24 0.28 0.32 0.42 0.48 0.37 0.24 0.19 0.22 0.37 0.60 0.85 1.17 1.56 2.07 2.66 3.12 3.14 2.52 2.02 1.71 1.43 1.07 0.91 0.88 0.80 0.71 0.69 0.64 0.61 0.56 0.52 0.47 0.41 0.39 0.35 0.34 0.36 0.39 0.46 0.53 0.57 0.64
0.02 0.03 0.07 0.12 0.10 0.09 0.19 0.39 0.49 0.51 0.53 0.39 0.29 0.22 0.27 0.56 0.84 1.13 1.47 1.63 1.54 1.66 1.75 1.38 1.10 0.92 0.78 0.68 0.51 0.41 0.37 0.35 0.34 0.35 0.35 0.33 0.37 0.40 0.39 0.37 0.36 0.34 0.33 0.31 0.34 0.39 0.43 0.45 0.52
0.04 0.05 0.07 0.13 0.12 0.14 0.24 0.48 0.64 0.58 0.53 0.38 0.36 0.43 0.76 1.17 1.38 1.53 1.37 1.16 1.07 1.04 0.90 0.61 0.47 0.47 0.41 0.33 0.25 0.22 0.21 0.21 0.21 0.22 0.22 0.22 0.23 0.26 0.29 0.33 0.36 0.35 0.31 0.29 0.30 0.32 0.32 0.33 0.37
0.05 0.04 0.03 0.03 0.07 0.20 0.35 0.67 0.82 0.72 0.60 0.38 0.40 0.70 1.17 1.41 1.60 1.39 0.75 0.48 0.46 0.47 0.48 0.51 0.52 0.41 0.30 0.26 0.19 0.14 0.13 0.13 0.13 0.15 0.15 0.17 0.16 0.16 0.18 0.24 0.29 0.30 0.31 0.30 0.24 0.24 0.29 0.29 0.26
0.03 0.03 0.02 0.03 0.05 0.14 0.40 0.83 1.01 0.78 0.60 0.39 0.31 0.41 0.74 0.93 0.83 0.47 0.19 0.13 0.18 0.28 0.47 0.68 0.66 0.45 0.31 0.27 0.23 0.21 0.19 0.18 0.17 0.17 0.18 0.20 0.20 0.20 0.17 0.17 0.22 0.27 0.33 0.38 0.34 0.31 0.29 0.28 0.24
0.03 0.03 0.05 0.09 0.13 0.30 0.50 0.69 0.86 0.70 0.57 0.43 0.25 0.30 0.52 0.53 0.32 0.16 0.10 0.14 0.21 0.26 0.33 0.42 0.49 0.56 0.51 0.46 0.37 0.34 0.33 0.31 0.28 0.26 0.25 0.25 0.26 0.28 0.27 0.27 0.30 0.33 0.33 0.34 0.36 0.39 0.37 0.35 0.31
0.02 0.03 0.12 0.32 0.41 0.50 0.42 0.57 0.79 0.50 0.37 0.27 0.15 0.13 0.15 0.16 0.16 0.18 0.19 0.22 0.19 0.16 0.15 0.15 0.19 0.29 0.36 0.40 0.42 0.42 0.41 0.36 0.32 0.28 0.24 0.27 0.25 0.27 0.29 0.29 0.33 0.37 0.37 0.34 0.32 0.33 0.38 0.44 0.43
0.02 0.02 0.04 0.09 0.13 0.20 0.29 0.61 0.71 0.42 0.21 0.09 0.04 0.03 0.02 0.03 0.05 0.07 0.09 0.08 0.07 0.07 0.07 0.07 0.07 0.08 0.11 0.14 0.18 0.22 0.28 0.27 0.26 0.30 0.24 0.25 0.29 0.29 0.27 0.25 0.25 0.27 0.31 0.32 0.29 0.26 0.27 0.33 0.42
0.01 0.01 0.01 0.02 0.02 0.10 0.30 0.53 0.43 0.24 0.13 0.05 0.03 0.02 0.01 0.01 0.01 0.01 0.02 0.03 0.04 0.03 0.04 0.04 0.04 0.04 0.04 0.05 0.05 0.06 0.11 0.15 0.16 0.17 0.16 0.17 0.24 0.26 0.24 0.22 0.20 0.19 0.22 0.26 0.27 0.25 0.26 0.26 0.28
0.01 0.01 0.01 0.02 0.03 0.05 0.19 0.51 0.56 0.28 0.17 0.07 0.03 0.02 0.02 0.01 0.01 0.00 0.01 0.01 0.01 0.02 0.02 0.03 0.04 0.03 0.03 0.02 0.02 0.02 0.04 0.08 0.10 0.11 0.12 0.15 0.18 0.21 0.19 0.16 0.13 0.13 0.14 0.16 0.20 0.23 0.27 0.32 0.35
0.01 0.01 0.02 0.03 0.03 0.03 0.07 0.23 0.23 0.19 0.12 0.05 0.02 0.00 0.00 0.00 0.00 0.01 0.00 0.00 0.01 0.01 0.01 0.02 0.02 0.02 0.02 0.02 0.01 0.01 0.01 0.02 0.06 0.10 0.15 0.18 0.19 0.20 0.19 0.16 0.14 0.11 0.11 0.13 0.16 0.20 0.25 0.32 0.41
0.02 0.02 0.02 0.03 0.03 0.03 0.05 0.10 0.12 0.11 0.08 0.04 0.01 0.00 0.00 0.00 0.00 0.00 0.00 0.00 0.01 0.01 0.01 0.01 0.01 0.01 0.01 0.00 0.00 0.00 0.00 0.00 0.01 0.03 0.08 0.14 0.19 0.20 0.20 0.18 0.16 0.11 0.09 0.10 0.12 0.14 0.19 0.27 0.37

GEFSSGP_prec_meanprecacc_048.txt.gz
Total_Precipitation_Accumulation
0.00 0.00 0.02 0.07 0.16 0.24 0.19 0.05 0.03 0.02 0.02 0.02 0.01 0.01 0.01 0.01 0.03 0.07 0.01 0.00 0.00 0.00 0.00 0.01 0.01 0.00 0.00 0.01 0.01 0.01 0.02 0.02 0.02 0.02 0.02 0.02 0.01 0.01 0.00 0.00 0.00 0.01 0.01 0.02 0.02 0.02 0.02 0.01 0.01
0.00 0.00 0.02 0.07 0.13 0.23 0.16 0.04 0.02 0.01 0.02 0.02 0.03 0.01 0.00 0.00 0.00 0.00 0.00 0.00 0.00 0.00 0.00 0.00 0.01 0.01 0.00 0.00 0.01 0.01 0.01 0.01 0.01 0.01 0.01 0.01 0.01 0.01 0.01 0.01 0.01 0.01 0.02 0.02 0.02 0.03 0.02 0.01 0.00
0.00 0.00 0.00 0.02 0.06 0.15 0.18 0.07 0.03 0.02 0.03 0.03 0.05 0.02 0.00 0.00 0.00 0.00 0.00 0.00 0.00 0.00 0.00 0.01 0.01 0.01 0.00 0.00 0.01 0.01 0.01 0.01 0.01 0.01 0.01 0.01 0.01 0.01 0.01 0.02 0.02 0.02 0.04 0.04 0.04 0.04 0.03 0.02 0.01
0.00 0.00 0.00 0.00 0.04 0.10 0.16 0.08 0.06 0.04 0.04 0.04 0.05 0.02 0.01 0.01 0.00 0.00 0.00 0.00 0.00 0.00 0.00 0.01 0.01 0.01 0.01 0.01 0.01 0.02 0.02 0.03 0.02 0.01 0.01 0.01 0.01 0.02 0.03 0.03 0.03 0.03 0.05 0.06 0.05 0.05 0.04 0.03 0.01
0.00 0.00 0.00 0.00 0.01 0.03 0.03 0.03 0.06 0.06 0.04 0.03 0.03 0.03 0.02 0.01 0.01 0.01 0.01 0.00 0.00 0.00 0.00 0.01 0.02 0.02 0.01 0.01 0.02 0.03 0.03 0.03 0.03 0.02 0.02 0.02 0.02 0.02 0.03 0.04 0.04 0.05 0.06 0.07 0.07 0.07 0.07 0.07 0.05
0.00 0.00 0.00 0.00 0.00 0.01 0.02 0.03 0.06 0.08 0.05 0.03 0.04 0.05 0.04 0.02 0.02 0.02 0.02 0.01 0.00 0.00 0.01 0.02 0.02 0.02 0.02 0.02 0.03 0.04 0.04 0.04 0.04 0.04 0.03 0.03 0.03 0.03 0.04 0.06 0.06 0.06 0.06 0.06 0.07 0.07 0.06 0.06 0.06
0.00 0.00 0.00 0.00 0.00 0.01 0.02 0.03 0.06 0.07 0.05 0.04 0.06 0.10 0.08 0.05 0.03 0.03 0.02 0.02 0.02 0.01 0.01 0.02 0.03 0.03 0.04 0.04 0.04 0.04 0.04 0.05 0.05 0.04 0.04 0.03 0.03 0.04 0.04 0.05 0.07 0.08 0.08 0.07 0.07 0.06 0.07 0.08 0.08
0.00 0.00 0.00 0.00 0.00 0.01 0.02 0.02 0.04 0.04 0.08 0.06 0.05 0.14 0.22 0.12 0.05 0.05 0.05 0.05 0.05 0.03 0.02 0.03 0.04 0.06 0.08 0.07 0.06 0.06 0.07 0.07 0.06 0.05 0.04 0.04 0.03 0.04 0.04 0.04 0.05 0.08 0.10 0.11 0.11 0.11 0.12 0.14 0.13
0.00 0.00 0.00 0.00 0.00 0.00 0.02 0.02 0.02 0.02 0.03 0.03 0.07 0.14 0.12 0.07 0.07 0.11 0.08 0.08 0.07 0.05 0.05 0.07 0.10 0.12 0.13 0.14 0.14 0.16 0.17 0.18 0.13 0.10 0.09 0.08 0.08 0.08 0.11 0.14 0.17 0.18 0.23 0.26 0.25 0.28 0.31 0.31 0.22
0.00 0.00 0.00 0.00 0.00 0.00 0.01 0.01 0.01 0.03 0.04 0.05 0.10 0.19 0.14 0.14 0.13 0.11 0.11 0.11 0.10 0.12 0.18 0.19 0.19 0.20 0.21 0.22 0.33 0.38 0.40 0.47 0.42 0.37 0.36 0.35 0.32 0.26 0.23 0.32 0.40 0.50 0.64 0.64 0.64 0.80 0.73 0.53 0.35
0.00 0.00 0.00 0.00 0.00 0.00 0.00 0.01 0.01 0.03 0.07 0.06 0.09 0.16 0.20 0.25 0.19 0.18 0.18 0.22 0.22 0.24 0.24 0.24 0.26 0.31 0.37 0.46 0.53 0.58 0.64 0.78 0.87 0.89 0.89 0.92 0.81 0.63 0.55 0.68 0.79 0.78 0.82 0.70 0.90 1.20 0.86 0.74 0.69
0.00 0.00 0.00 0.00 0.00 0.00 0.00 0.01 0.01 0.03 0.04 0.05 0.10 0.20 0.20 0.23 0.30 0.32 0.36 0.37 0.39 0.38 0.41 0.46 0.46 0.48 0.52 0.60 0.61 0.65 0.65 0.76 0.83 0.93 1.06 1.18 1.14 0.97 0.96 1.04 0.91 0.79 0.79 0.94 1.01 1.09 0.96 0.90 0.85
0.00 0.00 0.00 0.00 0.00 0.00 0.00 0.01 0.02 0.03 0.04 0.06 0.09 0.17 0.31 0.32 0.33 0.40 0.47 0.47 0.52 0.64 0.79 0.85 0.81 0.77 0.71 0.65 0.64 0.64 0.61 0.59 0.61 0.72 1.00 1.18 1.23 1.24 1.30 1.13 0.98 0.78 0.97 1.21 1.22 1.11 1.13 1.16 1.24
0.00 0.00 0.00 0.00 0.00 0.01 0.01 0.01 0.02 0.04 0.05 0.06 0.09 0.15 0.26 0.37 0.45 0.49 0.60 0.73 0.79 0.91 1.12 1.16 1.23 1.19 1.00 0.82 0.70 0.67 0.62 0.65 0.73 0.81 0.93 1.11 1.20 1.25 1.27 1.18 1.06 1.00 1.12 1.27 1.27 1.21 1.35 1.38 1.33
0.00 0.00 0.01 0.01 0.01 0.01 0.02 0.03 0.05 0.07 0.07 0.07 0.09 0.14 0.21 0.27 0.36 0.54 0.69 0.82 1.01 1.27 1.55 1.72 1.76 1.66 1.54 1.34 1.08 0.90 0.80 0.80 0.84 0.89 0.84 0.90 1.00 1.02 1.12 1.10 1.06 1.09 1.13 1.16 1.13 1.13 1.27 1.21 1.08
0.00 0.00 0.01 0.02 0.02 0.03 0.05 0.12 0.10 0.12 0.12 0.13 0.14 0.19 0.26 0.33 0.47 0.64 0.79 1.01 1.36 1.81 2.29 2.51 2.46 2.25 1.88 1.56 1.35 1.21 1.12 1.07 0.95 0.88 0.77 0.66 0.72 0.79 0.85 0.82 0.85 0.89 0.95 0.95 0.91 0.92 0.99 1.03 1.08
0.00 0.00 0.02 0.07 0.06 0.06 0.10 0.21 0.17 0.16 0.21 0.22 0.22 0.27 0.34 0.43 0.59 0.81 1.02 1.41 2.08 2.89 3.41 3.35 2.92 2.58 2.05 1.58 1.35 1.32 1.36 1.27 1.11 0.99 0.86 0.71 0.66 0.70 0.75 0.73 0.71 0.69 0.72 0.74 0.70 0.76 0.83 0.87 0.93
0.01 0.03 0.08 0.12 0.10 0.16 0.23 0.24 0.24 0.29 0.34 0.34 0.30 0.28 0.31 0.44 0.63 0.79 1.02 1.54 2.38 3.38 4.05 3.99 3.35 2.65 2.12 1.78 1.55 1.39 1.34 1.22 1.06 0.97 0.85 0.70 0.62 0.61 0.59 0.57 0.53 0.50 0.51 0.54 0.57 0.65 0.73 0.75 0.81
0.02 0.03 0.09 0.14 0.12 0.20 0.26 0.30 0.36 0.47 0.58 0.47 0.33 0.27 0.28 0.42 0.64 0.86 1.18 1.56 2.07 2.66 3.12 3.14 2.52 2.02 1.72 1.43 1.07 0.91 0.88 0.80 0.71 0.69 0.64 0.61 0.56 0.52 0.47 0.41 0.40 0.36 0.35 0.37 0.39 0.46 0.54 0.58 0.65
0.02 0.04 0.08 0.12 0.10 0.10 0.20 0.41 0.52 0.56 0.63 0.49 0.36 0.28 0.32 0.60 0.86 1.14 1.48 1.63 1.54 1.66 1.75 1.38 1.10 0.92 0.78 0.68 0.51 0.41 0.37 0.35 0.34 0.35 0.35 0.33 0.37 0.40 0.39 0.37 0.36 0.35 0.33 0.32 0.34 0.39 0.43 0.46 0.53
0.04 0.05 0.07 0.13 0.12 0.14 0.25 0.50 0.66 0.61 0.57 0.43 0.40 0.47 0.79 1.20 1.40 1.55 1.37 1.16 1.07 1.04 0.90 0.61 0.47 0.47 0.42 0.33 0.25 0.22 0.21 0.21 0.21 0.22 0.22 0.22 0.23 0.26 0.29 0.33 0.36 0.35 0.31 0.29 0.31 0.32 0.33 0.33 0.37
0.05 0.04 0.03 0.03 0.07 0.21 0.35 0.68 0.83 0.74 0.63 0.41 0.42 0.73 1.20 1.43 1.61 1.40 0.75 0.48 0.46 0.47 0.48 0.51 0.52 0.41 0.30 0.26 0.19 0.15 0.13 0.13 0.13 0.15 0.15 0.17 0.16 0.16 0.18 0.24 0.29 0.30 0.31 0.30 0.24 0.25 0.30 0.30 0.26
0.03 0.03 0.02 0.03 0.05 0.14 0.40 0.83 1.01 0.78 0.62 0.40 0.32 0.42 0.75 0.94 0.84 0.47 0.19 0.13 0.18 0.28 0.47 0.68 0.67 0.46 0.31 0.27 0.23 0.21 0.19 0.18 0.17 0.17 0.18 0.20 0.20 0.20 0.17 0.17 0.22 0.27 0.33 0.38 0.34 0.32 0.30 0.28 0.25
0.03 0.03 0.05 0.09 0.13 0.30 0.50 0.69 0.86 0.70 0.57 0.43 0.26 0.30 0.52 0.53 0.32 0.16 0.10 0.14 0.21 0.26 0.33 0.42 0.50 0.57 0.51 0.46 0.37 0.34 0.33 0.31 0.28 0.26 0.25 0.25 0.26 0.28 0.27 0.27 0.30 0.33 0.33 0.34 0.36 0.39 0.38 0.36 0.32
0.02 0.03 0.12 0.32 0.42 0.51 0.42 0.57 0.79 0.50 0.37 0.27 0.15 0.13 0.15 0.16 0.16 0.18 0.19 0.22 0.19 0.16 0.15 0.16 0.19 0.30 0.36 0.40 0.42 0.42 0.41 0.36 0.32 0.28 0.24 0.27 0.25 0.27 0.29 0.29 0.33 0.37 0.37 0.34 0.32 0.33 0.38 0.44 0.44
0.02 0.02 0.04 0.09 0.13 0.20 0.29 0.61 0.71 0.42 0.21 0.09 0.04 0.03 0.02 0.03 0.05 0.07 0.09 0.08 0.07 0.07 0.07 0.07 0.07 0.08 0.11 0.14 0.18 0.22 0.28 0.27 0.26 0.30 0.24 0.25 0.29 0.29 0.27 0.25 0.25 0.28 0.31 0.32 0.29 0.26 0.27 0.34 0.43
0.01 0.01 0.01 0.02 0.02 0.10 0.30 0.53 0.43 0.24 0.13 0.05 0.03 0.02 0.01 0.01 0.01 0.01 0.02 0.03 0.04 0.03 0.04 0.04 0.04 0.04 0.04 0.05 0.05 0.06 0.11 0.15 0.16 0.17 0.16 0.17 0.24 0.26 0.24 0.22 0.20 0.19 0.22 0.26 0.27 0.25 0.26 0.26 0.28
0.01 0.01 0.01 0.02 0.03 0.05 0.19 0.51 0.56 0.28 0.17 0.07 0.03 0.02 0.02 0.01 0.01 0.00 0.01 0.01 0.01 0.02 0.02 0.03 0.04 0.03 0.03 0.02 0.02 0.02 0.04 0.08 0.10 0.11 0.12 0.15 0.18 0.21 0.19 0.16 0.14 0.13 0.14 0.16 0.21 0.24 0.27 0.32 0.35
0.01 0.01 0.02 0.03 0.03 0.03 0.07 0.23 0.23 0.19 0.12 0.05 0.02 0.00 0.00 0.00 0.00 0.01 0.00 0.00 0.01 0.01 0.01 0.02 0.02 0.02 0.02 0.02 0.01 0.01 0.01 0.02 0.06 0.10 0.15 0.18 0.19 0.20 0.19 0.16 0.14 0.11 0.11 0.13 0.17 0.20 0.26 0.32 0.41
0.02 0.02 0.02 0.03 0.03 0.03 0.05 0.10 0.12 0.11 0.08 0.04 0.01 0.00 0.00 0.00 0.00 0.00 0.00 0.00 0.01 0.01 0.01 0.01 0.01 0.01 0.01 0.00 0.00 0.00 0.00 0.00 0.01 0.03 0.08 0.14 0.19 0.21 0.20 0.19 0.16 0.11 0.09 0.11 0.13 0.15 0.19 0.28 0.38

GEFSSGP_prec_meanprecacc_054.txt.gz
Total_Precipitation_Accumulation
0.00 0.00 0.02 0.07 0.17 0.33 0.42 0.16 0.04 0.03 0.03 0.02 0.01 0.01 0.01 0.02 0.10 0.12 0.01 0.00 0.00 0.00 0.00 0.01 0.01 0.00 0.00 0.01 0.03 0.05 0.06 0.08 0.08 0.08 0.08 0.06 0.03 0.02 0.01 0.01 0.00 0.01 0.01 0.02 0.02 0.02 0.02 0.01 0.01
0.00 0.00 0.02 0.07 0.15 0.40 0.51 0.16 0.04 0.02 0.02 0.02 0.03 0.01 0.00 0.00 0.00 0.00 0.00 0.00 0.00 0.00 0.00 0.00 0.01 0.01 0.00 0.01 0.02 0.03 0.05 0.06 0.06 0.06 0.06 0.04 0.02 0.02 0.02 0.01 0.01 0.01 0.02 0.03 0.03 0.03 0.02 0.01 0.01
0.00 0.00 0.00 0.02 0.07 0.20 0.26 0.11 0.05 0.02 0.03 0.04 0.05 0.02 0.00 0.00 0.00 0.00 0.00 0.00 0.00 0.00 0.00 0.01 0.01 0.01 0.00 0.01 0.01 0.02 0.03 0.04 0.04 0.04 0.03 0.03 0.02 0.02 0.02 0.02 0.02 0.03 0.04 0.05 0.04 0.04 0.03 0.02 0.01
0.00 0.00 0.00 0.00 0.04 0.11 0.17 0.09 0.07 0.04 0.04 0.04 0.05 0.02 0.01 0.01 0.01 0.00 0.00 0.00 0.00 0.00 0.00 0.01 0.01 0.01 0.01 0.01 0.02 0.02 0.03 0.03 0.03 0.03 0.02 0.02 0.02 0.02 0.03 0.03 0.03 0.04 0.06 0.07 0.06 0.06 0.05 0.03 0.01
0.00 0.00 0.00 0.00 0.01 0.04 0.05 0.04 0.06 0.06 0.07 0.06 0.03 0.03 0.02 0.02 0.01 0.01 0.01 0.00 0.00 0.00 0.00 0.01 0.02 0.02 0.02 0.02 0.03 0.04 0.04 0.04 0.04 0.03 0.03 0.02 0.02 0.03 0.04 0.04 0.04 0.05 0.07 0.09 0.08 0.08 0.08 0.07 0.05
0.00 0.00 0.00 0.00 0.01 0.02 0.03 0.03 0.06 0.09 0.07 0.06 0.08 0.06 0.04 0.02 0.02 0.02 0.02 0.01 0.00 0.00 0.01 0.02 0.03 0.03 0.03 0.03 0.04 0.05 0.05 0.05 0.05 0.04 0.03 0.03 0.03 0.04 0.05 0.06 0.07 0.07 0.08 0.08 0.08 0.08 0.07 0.07 0.07
0.00 0.00 0.00 0.00 0.01 0.02 0.05 0.05 0.08 0.12 0.11 0.10 0.15 0.15 0.08 0.05 0.03 0.03 0.02 0.02 0.02 0.01 0.01 0.02 0.03 0.04 0.04 0.05 0.05 0.05 0.06 0.06 0.06 0.05 0.04 0.03 0.03 0.04 0.04 0.06 0.08 0.09 0.10 0.08 0.08 0.07 0.08 0.09 0.09
0.00 0.00 0.00 0.00 0.00 0.01 0.04 0.07 0.07 0.11 0.22 0.20 0.12 0.18 0.23 0.13 0.05 0.05 0.05 0.05 0.05 0.04 0.03 0.03 0.07 0.12 0.12 0.10 0.08 0.07 0.08 0.08 0.07 0.05 0.04 0.04 0.04 0.05 0.06 0.05 0.07 0.09 0.12 0.12 0.13 0.13 0.15 0.16 0.14
0.00 0.00 0.00 0.00 0.00 0.02 0.08 0.14 0.12 0.09 0.12 0.10 0.12 0.19 0.12 0.07 0.07 0.11 0.09 0.08 0.07 0.06 0.06 0.09 0.14 0.16 0.19 0.20 0.19 0.19 0.20 0.20 0.15 0.15 0.13 0.11 0.13 0.17 0.26 0.24 0.24 0.23 0.26 0.29 0.28 0.30 0.34 0.33 0.23
0.00 0.00 0.00 0.00 0.00 0.03 0.07 0.13 0.19 0.12 0.10 0.16 0.21 0.24 0.15 0.14 0.13 0.11 0.12 0.11 0.11 0.13 0.20 0.21 0.23 0.23 0.24 0.26 0.39 0.46 0.49 0.55 0.49 0.49 0.48 0.45 0.44 0.38 0.35 0.47 0.51 0.58 0.70 0.70 0.70 0.85 0.77 0.57 0.38
0.00 0.00 0.00 0.00 0.00 0.01 0.02 0.05 0.06 0.11 0.24 0.37 0.30 0.21 0.20 0.26 0.19 0.18 0.20 0.24 0.23 0.25 0.25 0.26 0.28 0.33 0.41 0.52 0.58 0.64 0.72 0.86 0.95 0.99 1.00 1.04 0.92 0.73 0.65 0.86 0.96 0.92 0.95 0.85 1.07 1.33 0.96 0.87 0.86
0.00 0.00 0.00 0.00 0.00 0.00 0.01 0.05 0.09 0.18 0.42 0.49 0.40 0.27 0.23 0.26 0.31 0.34 0.40 0.46 0.45 0.39 0.43 0.47 0.47 0.50 0.56 0.64 0.65 0.70 0.72 0.81 0.89 1.00 1.13 1.29 1.29 1.15 1.14 1.26 1.11 1.04 1.04 1.18 1.27 1.39 1.21 1.12 1.04
0.00 0.00 0.00 0.00 0.00 0.01 0.03 0.08 0.14 0.19 0.32 0.29 0.22 0.20 0.34 0.33 0.34 0.42 0.50 0.52 0.55 0.66 0.81 0.87 0.84 0.81 0.75 0.69 0.68 0.69 0.67 0.65 0.67 0.79 1.06 1.24 1.33 1.37 1.45 1.29 1.13 0.96 1.19 1.42 1.44 1.31 1.36 1.35 1.42
0.00 0.00 0.01 0.01 0.01 0.01 0.01 0.03 0.09 0.13 0.13 0.11 0.13 0.18 0.29 0.40 0.48 0.53 0.65 0.77 0.83 0.94 1.15 1.19 1.26 1.23 1.04 0.85 0.73 0.70 0.65 0.69 0.75 0.83 0.95 1.13 1.24 1.30 1.34 1.27 1.17 1.11 1.26 1.41 1.41 1.35 1.50 1.54 1.49
0.00 0.03 0.08 0.06 0.03 0.02 0.02 0.08 0.18 0.21 0.13 0.10 0.11 0.16 0.26 0.33 0.44 0.65 0.78 0.88 1.07 1.32 1.61 1.77 1.80 1.71 1.58 1.37 1.10 0.91 0.81 0.80 0.85 0.90 0.85 0.90 1.01 1.03 1.14 1.14 1.12 1.16 1.21 1.24 1.21 1.20 1.34 1.28 1.16
0.01 0.06 0.19 0.14 0.05 0.04 0.08 0.42 0.51 0.32 0.19 0.16 0.17 0.25 0.37 0.45 0.59 0.77 0.95 1.09 1.41 1.85 2.33 2.55 2.49 2.28 1.90 1.57 1.36 1.21 1.13 1.07 0.96 0.88 0.77 0.66 0.72 0.79 0.86 0.84 0.88 0.93 0.99 0.99 0.95 0.97 1.04 1.09 1.15
0.02 0.05 0.15 0.14 0.10 0.07 0.14 0.55 0.57 0.29 0.29 0.28 0.27 0.34 0.47 0.58 0.73 0.93 1.16 1.50 2.13 2.92 3.44 3.38 2.94 2.59 2.06 1.58 1.36 1.32 1.36 1.27 1.11 0.99 0.86 0.71 0.66 0.70 0.76 0.74 0.73 0.71 0.73 0.76 0.72 0.78 0.87 0.91 0.97
0.02 0.05 0.11 0.17 0.12 0.17 0.25 0.35 0.45 0.42 0.47 0.45 0.39 0.36 0.42 0.57 0.78 0.93 1.13 1.63 2.41 3.40 4.07 4.01 3.36 2.66 2.13 1.78 1.55 1.40 1.35 1.22 1.06 0.97 0.85 0.70 0.62 0.61 0.59 0.57 0.54 0.50 0.51 0.55 0.58 0.67 0.75 0.77 0.83
0.02 0.04 0.10 0.18 0.14 0.20 0.28 0.36 0.48 0.56 0.70 0.65 0.51 0.40 0.42 0.60 0.79 0.98 1.26 1.65 2.10 2.67 3.13 3.15 2.53 2.03 1.72 1.44 1.08 0.91 0.89 0.80 0.71 0.69 0.64 0.61 0.56 0.52 0.47 0.41 0.40 0.37 0.36 0.38 0.40 0.47 0.55 0.59 0.66
0.03 0.05 0.10 0.14 0.11 0.10 0.21 0.44 0.56 0.62 0.71 0.61 0.52 0.39 0.40 0.74 1.05 1.26 1.53 1.66 1.56 1.67 1.76 1.38 1.11 0.93 0.79 0.68 0.52 0.42 0.38 0.36 0.34 0.35 0.35 0.33 0.37 0.40 0.39 0.37 0.36 0.35 0.34 0.33 0.36 0.41 0.44 0.47 0.54
0.06 0.06 0.08 0.13 0.13 0.16 0.29 0.58 0.70 0.63 0.60 0.47 0.45 0.51 0.83 1.25 1.49 1.62 1.40 1.17 1.07 1.04 0.90 0.62 0.48 0.48 0.43 0.34 0.26 0.23 0.21 0.21 0.21 0.22 0.22 0.22 0.23 0.26 0.29 0.33 0.36 0.35 0.31 0.30 0.32 0.34 0.35 0.35 0.38
0.06 0.05 0.03 0.03 0.08 0.26 0.40 0.78 0.88 0.75 0.67 0.44 0.44 0.74 1.22 1.47 1.65 1.44 0.77 0.48 0.46 0.47 0.48 0.52 0.53 0.43 0.32 0.27 0.20 0.15 0.13 0.13 0.13 0.15 0.15 0.17 0.16 0.16 0.18 0.24 0.29 0.30 0.31 0.31 0.25 0.25 0.31 0.31 0.28
0.04 0.03 0.02 0.04 0.08 0.21 0.45 0.87 1.04 0.79 0.62 0.40 0.32 0.42 0.76 0.95 0.84 0.48 0.19 0.13 0.18 0.28 0.47 0.68 0.70 0.49 0.33 0.28 0.24 0.22 0.20 0.18 0.17 0.17 0.18 0.20 0.20 0.20 0.17 0.17 0.22 0.27 0.33 0.38 0.34 0.32 0.30 0.29 0.26
0.03 0.03 0.08 0.14 0.21 0.45 0.55 0.71 0.87 0.72 0.58 0.43 0.26 0.30 0.52 0.53 0.32 0.16 0.10 0.14 0.21 0.26 0.33 0.43 0.52 0.59 0.52 0.47 0.37 0.34 0.33 0.31 0.28 0.26 0.25 0.25 0.26 0.28 0.27 0.27 0.30 0.33 0.33 0.34 0.36 0.39 0.38 0.36 0.33
0.02 0.03 0.21 0.49 0.62 0.61 0.44 0.57 0.79 0.50 0.37 0.27 0.15 0.13 0.15 0.16 0.16 0.18 0.19 0.22 0.19 0.16 0.15 0.16 0.20 0.31 0.37 0.40 0.42 0.42 0.41 0.37 0.32 0.28 0.24 0.27 0.25 0.27 0.29 0.29 0.33 0.37 0.37 0.34 0.32 0.33 0.38 0.45 0.45
0.02 0.02 0.06 0.12 0.17 0.22 0.30 0.61 0.71 0.42 0.21 0.09 0.04 0.03 0.02 0.03 0.05 0.07 0.09 0.08 0.07 0.07 0.07 0.07 0.07 0.09 0.12 0.14 0.18 0.22 0.28 0.27 0.26 0.30 0.24 0.25 0.29 0.29 0.27 0.25 0.25 0.28 0.31 0.32 0.30 0.26 0.27 0.34 0.43
0.01 0.01 0.01 0.02 0.02 0.11 0.31 0.53 0.43 0.24 0.13 0.05 0.03 0.02 0.01 0.01 0.01 0.01 0.02 0.03 0.04 0.03 0.04 0.04 0.04 0.04 0.04 0.05 0.05 0.06 0.11 0.15 0.16 0.17 0.16 0.17 0.24 0.26 0.24 0.22 0.20 0.20 0.23 0.26 0.27 0.26 0.27 0.27 0.28
0.01 0.01 0.01 0.02 0.03 0.06 0.23 0.54 0.56 0.28 0.17 0.07 0.03 0.02 0.02 0.01 0.01 0.00 0.01 0.01 0.01 0.02 0.02 0.03 0.04 0.03 0.03 0.02 0.02 0.02 0.04 0.08 0.10 0.11 0.12 0.15 0.18 0.21 0.20 0.17 0.14 0.14 0.15 0.17 0.22 0.25 0.28 0.33 0.36
0.02 0.01 0.02 0.03 0.03 0.04 0.13 0.29 0.24 0.19 0.12 0.05 0.02 0.00 0.00 0.00 0.00 0.01 0.00 0.00 0.01 0.01 0.01 0.02 0.02 0.02 0.02 0.02 0.01 0.01 0.01 0.02 0.06 0.11 0.15 0.18 0.20 0.20 0.19 0.17 0.15 0.12 0.12 0.15 0.18 0.21 0.27 0.33 0.42
0.02 0.02 0.02 0.03 0.03 0.03 0.06 0.12 0.12 0.11 0.08 0.04 0.01 0.00 0.00 0.00 0.00 0.00 0.00 0.00 0.01 0.01 0.01 0.01 0.01 0.01 0.01 0.00 0.00 0.00 0.00 0.00 0.01 0.03 0.08 0.14 0.20 0.21 0.21 0.20 0.17 0.12 0.10 0.12 0.14 0.16 0.20 0.29 0.39

GEFSSGP_prec_meanprecacc_060.txt.gz
Total_Precipitation_Accumulation
0.00 0.00 0.02 0.08 0.20 0.41 0.56 0.36 0.27 0.17 0.14 0.14 0.11 0.09 0.05 0.06 0.13 0.14 0.04 0.01 0.00 0.00 0.00 0.01 0.01 0.01 0.01 0.02 0.04 0.06 0.08 0.09 0.10 0.10 0.10 0.07 0.04 0.03 0.01 0.01 0.00 0.01 0.01 0.02 0.02 0.02 0.02 0.01 0.01
0.00 0.00 0.02 0.08 0.19 0.52 0.69 0.31 0.21 0.20 0.13 0.17 0.13 0.05 0.03 0.01 0.01 0.01 0.02 0.01 0.00 0.00 0.00 0.00 0.01 0.01 0.01 0.01 0.02 0.04 0.06 0.07 0.08 0.08 0.07 0.05 0.03 0.02 0.02 0.01 0.01 0.02 0.03 0.03 0.03 0.03 0.02 0.01 0.01
0.00 0.00 0.01 0.04 0.12 0.34 0.44 0.22 0.18 0.20 0.20 0.29 0.32 0.12 0.04 0.02 0.01 0.01 0.01 0.00 0.00 0.00 0.00 0.01 0.01 0.01 0.00 0.01 0.02 0.03 0.04 0.04 0.05 0.05 0.05 0.04 0.03 0.02 0.02 0.02 0.02 0.03 0.04 0.05 0.04 0.04 0.03 0.02 0.01
0.00 0.01 0.01 0.02 0.07 0.17 0.24 0.16 0.21 0.22 0.26 0.32 0.31 0.17 0.06 0.03 0.01 0.01 0.00 0.00 0.00 0.00 0.00 0.01 0.01 0.01 0.01 0.01 0.02 0.02 0.03 0.04 0.03 0.03 0.03 0.02 0.02 0.02 0.03 0.03 0.03 0.04 0.06 0.07 0.06 0.06 0.05 0.03 0.01
0.00 0.01 0.01 0.01 0.04 0.08 0.11 0.09 0.15 0.21 0.33 0.43 0.34 0.25 0.11 0.05 0.02 0.01 0.01 0.01 0.00 0.00 0.00 0.01 0.02 0.02 0.02 0.02 0.03 0.04 0.04 0.04 0.04 0.03 0.03 0.02 0.02 0.03 0.04 0.04 0.05 0.06 0.08 0.09 0.09 0.08 0.08 0.07 0.05
0.00 0.00 0.00 0.01 0.02 0.05 0.07 0.08 0.16 0.26 0.41 0.49 0.51 0.45 0.22 0.08 0.05 0.04 0.02 0.01 0.01 0.00 0.01 0.02 0.03 0.03 0.03 0.03 0.04 0.05 0.05 0.05 0.05 0.05 0.04 0.03 0.03 0.04 0.05 0.06 0.08 0.08 0.09 0.08 0.08 0.08 0.08 0.07 0.07
0.00 0.00 0.00 0.00 0.01 0.03 0.06 0.11 0.20 0.32 0.37 0.54 0.79 0.68 0.32 0.16 0.10 0.07 0.05 0.03 0.02 0.02 0.01 0.02 0.03 0.04 0.04 0.05 0.05 0.06 0.06 0.07 0.07 0.06 0.05 0.04 0.04 0.04 0.05 0.07 0.08 0.10 0.10 0.09 0.09 0.08 0.09 0.10 0.09
0.00 0.00 0.00 0.00 0.00 0.02 0.06 0.12 0.22 0.33 0.56 0.74 0.72 0.61 0.47 0.26 0.19 0.15 0.09 0.08 0.07 0.06 0.04 0.04 0.08 0.13 0.13 0.11 0.10 0.09 0.09 0.09 0.07 0.06 0.05 0.05 0.05 0.07 0.10 0.10 0.11 0.13 0.14 0.14 0.15 0.15 0.17 0.18 0.16
0.00 0.00 0.00 0.00 0.00 0.03 0.09 0.18 0.23 0.28 0.46 0.58 0.61 0.54 0.34 0.21 0.24 0.25 0.15 0.11 0.09 0.07 0.08 0.10 0.15 0.18 0.21 0.22 0.21 0.21 0.21 0.21 0.17 0.17 0.15 0.13 0.14 0.20 0.32 0.32 0.34 0.32 0.32 0.35 0.34 0.35 0.38 0.38 0.26
0.00 0.00 0.00 0.00 0.00 0.03 0.09 0.16 0.27 0.31 0.53 0.81 0.83 0.84 0.48 0.36 0.33 0.28 0.21 0.17 0.15 0.16 0.22 0.24 0.25 0.25 0.26 0.29 0.42 0.49 0.51 0.57 0.51 0.52 0.52 0.49 0.47 0.42 0.40 0.55 0.62 0.69 0.80 0.79 0.78 0.93 0.82 0.61 0.41
0.00 0.00 0.00 0.00 0.00 0.01 0.03 0.09 0.12 0.27 0.61 0.99 0.95 0.90 0.63 0.50 0.40 0.38 0.34 0.33 0.31 0.30 0.29 0.29 0.31 0.37 0.45 0.54 0.60 0.67 0.75 0.88 0.97 1.01 1.02 1.06 0.94 0.76 0.70 0.92 1.04 1.00 1.03 0.92 1.15 1.41 1.02 0.93 0.92
0.00 0.00 0.00 0.00 0.00 0.01 0.03 0.09 0.18 0.31 0.71 0.92 0.77 0.60 0.46 0.46 0.52 0.52 0.56 0.58 0.59 0.49 0.48 0.53 0.52 0.54 0.59 0.66 0.67 0.72 0.74 0.84 0.90 1.01 1.15 1.30 1.30 1.16 1.16 1.29 1.16 1.09 1.10 1.23 1.33 1.45 1.29 1.20 1.20
0.00 0.00 0.00 0.00 0.00 0.01 0.04 0.13 0.25 0.36 0.62 0.55 0.41 0.39 0.56 0.64 0.70 0.70 0.72 0.70 0.69 0.77 0.88 0.92 0.89 0.84 0.78 0.71 0.68 0.70 0.68 0.66 0.68 0.80 1.06 1.25 1.33 1.37 1.46 1.30 1.14 0.99 1.22 1.46 1.48 1.35 1.42 1.41 1.50
0.00 0.00 0.01 0.01 0.01 0.01 0.03 0.08 0.28 0.38 0.49 0.51 0.43 0.48 0.73 0.97 0.93 0.85 0.89 0.98 0.99 1.07 1.22 1.24 1.30 1.26 1.06 0.86 0.74 0.71 0.66 0.69 0.75 0.83 0.95 1.14 1.24 1.31 1.35 1.28 1.17 1.12 1.27 1.44 1.44 1.38 1.53 1.57 1.53
0.00 0.03 0.09 0.07 0.03 0.03 0.04 0.14 0.36 0.52 0.51 0.63 0.62 0.67 0.85 0.99 0.87 0.96 1.04 1.12 1.26 1.47 1.69 1.82 1.83 1.73 1.59 1.38 1.10 0.91 0.82 0.81 0.86 0.91 0.85 0.90 1.01 1.04 1.14 1.14 1.12 1.17 1.22 1.25 1.22 1.21 1.36 1.30 1.18
0.01 0.07 0.21 0.15 0.06 0.06 0.10 0.47 0.67 0.58 0.47 0.62 0.75 0.83 0.96 1.07 1.03 1.11 1.21 1.34 1.65 1.98 2.40 2.59 2.52 2.30 1.91 1.58 1.36 1.21 1.13 1.08 0.96 0.88 0.77 0.66 0.72 0.79 0.86 0.84 0.88 0.94 0.99 1.00 0.95 0.97 1.05 1.10 1.16
0.02 0.07 0.18 0.17 0.12 0.09 0.17 0.60 0.64 0.37 0.44 0.60 0.81 0.97 1.04 1.04 1.15 1.33 1.51 1.73 2.33 3.06 3.53 3.42 2.96 2.60 2.06 1.59 1.36 1.32 1.36 1.28 1.11 0.99 0.86 0.71 0.66 0.70 0.76 0.74 0.73 0.71 0.73 0.76 0.72 0.78 0.87 0.92 0.97
0.02 0.06 0.13 0.19 0.14 0.19 0.28 0.38 0.49 0.48 0.63 0.76 0.85 0.85 0.92 0.98 1.13 1.32 1.55 1.86 2.55 3.52 4.16 4.05 3.37 2.66 2.13 1.78 1.55 1.40 1.35 1.22 1.06 0.97 0.85 0.70 0.62 0.61 0.59 0.57 0.54 0.50 0.51 0.55 0.58 0.67 0.75 0.77 0.83
0.02 0.05 0.12 0.20 0.15 0.22 0.30 0.40 0.53 0.64 0.83 0.83 0.79 0.71 0.74 0.90 1.09 1.29 1.51 1.84 2.24 2.77 3.20 3.17 2.54 2.03 1.72 1.44 1.08 0.91 0.89 0.80 0.71 0.69 0.64 0.61 0.56 0.52 0.47 0.41 0.40 0.37 0.36 0.38 0.40 0.47 0.55 0.59 0.66
0.03 0.06 0.12 0.16 0.13 0.12 0.23 0.47 0.60 0.67 0.78 0.74 0.69 0.55 0.58 0.90 1.25 1.53 1.80 1.87 1.66 1.74 1.79 1.40 1.11 0.93 0.79 0.69 0.52 0.42 0.38 0.36 0.34 0.35 0.35 0.33 0.37 0.40 0.39 0.37 0.36 0.35 0.34 0.33 0.36 0.41 0.44 0.47 0.54
0.07 0.08 0.09 0.15 0.15 0.19 0.31 0.60 0.73 0.67 0.63 0.53 0.52 0.57 0.92 1.35 1.62 1.86 1.70 1.33 1.14 1.07 0.92 0.62 0.48 0.48 0.43 0.34 0.26 0.23 0.21 0.21 0.21 0.22 0.22 0.22 0.23 0.26 0.29 0.33 0.36 0.35 0.31 0.30 0.32 0.34 0.35 0.35 0.38
0.07 0.06 0.03 0.04 0.11 0.30 0.43 0.82 0.92 0.78 0.69 0.46 0.47 0.77 1.26 1.53 1.71 1.53 0.95 0.55 0.48 0.48 0.48 0.52 0.53 0.44 0.33 0.28 0.20 0.15 0.13 0.13 0.13 0.15 0.15 0.17 0.16 0.16 0.18 0.24 0.29 0.30 0.31 0.31 0.25 0.26 0.31 0.31 0.28
0.04 0.03 0.03 0.05 0.11 0.28 0.50 0.92 1.07 0.82 0.63 0.41 0.33 0.43 0.77 0.99 0.87 0.51 0.24 0.15 0.19 0.29 0.47 0.69 0.70 0.49 0.34 0.29 0.24 0.22 0.20 0.18 0.17 0.17 0.18 0.20 0.20 0.20 0.17 0.17 0.22 0.27 0.33 0.38 0.34 0.32 0.30 0.29 0.26
0.03 0.04 0.09 0.17 0.28 0.55 0.59 0.74 0.90 0.73 0.59 0.43 0.26 0.30 0.52 0.54 0.33 0.17 0.11 0.15 0.22 0.27 0.34 0.43 0.52 0.59 0.53 0.47 0.37 0.34 0.33 0.31 0.28 0.26 0.25 0.25 0.26 0.28 0.27 0.27 0.30 0.33 0.33 0.34 0.36 0.39 0.38 0.36 0.33
0.03 0.04 0.24 0.55 0.71 0.68 0.46 0.61 0.81 0.50 0.37 0.27 0.15 0.13 0.15 0.16 0.16 0.18 0.19 0.22 0.20 0.16 0.15 0.16 0.20 0.31 0.37 0.40 0.42 0.42 0.41 0.37 0.32 0.28 0.24 0.27 0.25 0.27 0.29 0.29 0.33 0.37 0.37 0.34 0.32 0.33 0.38 0.45 0.45
0.02 0.02 0.08 0.15 0.21 0.29 0.38 0.69 0.73 0.43 0.21 0.09 0.04 0.03 0.02 0.03 0.05 0.07 0.09 0.08 0.07 0.07 0.07 0.07 0.07 0.09 0.12 0.14 0.18 0.22 0.28 0.27 0.26 0.30 0.24 0.25 0.29 0.29 0.27 0.25 0.25 0.28 0.31 0.32 0.30 0.26 0.27 0.34 0.43
0.01 0.01 0.02 0.03 0.05 0.19 0.45 0.63 0.46 0.25 0.13 0.05 0.03 0.02 0.01 0.01 0.01 0.01 0.02 0.03 0.04 0.03 0.04 0.04 0.04 0.04 0.04 0.05 0.05 0.06 0.11 0.15 0.16 0.17 0.16 0.17 0.24 0.26 0.24 0.22 0.20 0.20 0.23 0.26 0.27 0.26 0.27 0.27 0.28
0.02 0.01 0.01 0.03 0.06 0.13 0.32 0.63 0.61 0.28 0.17 0.07 0.03 0.02 0.02 0.01 0.01 0.00 0.01 0.01 0.01 0.02 0.02 0.03 0.04 0.03 0.03 0.02 0.02 0.02 0.04 0.08 0.10 0.11 0.12 0.15 0.18 0.21 0.20 0.17 0.14 0.14 0.15 0.17 0.22 0.25 0.28 0.33 0.36
0.03 0.02 0.03 0.04 0.05 0.07 0.18 0.34 0.27 0.20 0.13 0.05 0.02 0.00 0.00 0.00 0.00 0.01 0.00 0.00 0.01 0.01 0.01 0.02 0.02 0.02 0.02 0.02 0.01 0.01 0.01 0.02 0.06 0.11 0.15 0.18 0.20 0.20 0.20 0.17 0.15 0.12 0.12 0.15 0.18 0.21 0.27 0.33 0.42
0.03 0.03 0.03 0.04 0.04 0.05 0.09 0.15 0.14 0.13 0.09 0.04 0.01 0.00 0.00 0.00 0.00 0.00 0.00 0.00 0.01 0.01 0.01 0.01 0.01 0.01 0.01 0.00 0.00 0.00 0.00 0.00 0.01 0.03 0.08 0.14 0.20 0.21 0.21 0.20 0.17 0.12 0.10 0.12 0.14 0.16 0.21 0.29 0.39

GEFSSGP_prec_meanprecacc_066.txt.gz
Total_Precipitation_Accumulation
0.00 0.00 0.02 0.09 0.22 0.42 0.58 0.39 0.31 0.23 0.23 0.26 0.35 0.34 0.27 0.27 0.25 0.22 0.07 0.02 0.00 0.00 0.01 0.04 0.08 0.07 0.04 0.04 0.06 0.07 0.10 0.11 0.11 0.11 0.11 0.08 0.04 0.03 0.01 0.01 0.01 0.01 0.02 0.02 0.02 0.02 0.02 0.02 0.01
0.00 0.00 0.03 0.09 0.20 0.53 0.71 0.34 0.24 0.25 0.22 0.33 0.38 0.27 0.19 0.19 0.13 0.07 0.05 0.02 0.01 0.01 0.00 0.01 0.05 0.06 0.04 0.04 0.05 0.06 0.07 0.08 0.09 0.09 0.08 0.05 0.03 0.02 0.02 0.01 0.01 0.02 0.03 0.03 0.03 0.03 0.02 0.01 0.01
0.00 0.00 0.02 0.05 0.12 0.35 0.46 0.26 0.22 0.28 0.37 0.51 0.54 0.31 0.22 0.16 0.13 0.08 0.03 0.01 0.01 0.01 0.01 0.02 0.04 0.04 0.03 0.03 0.03 0.04 0.05 0.05 0.06 0.06 0.06 0.04 0.03 0.02 0.02 0.02 0.02 0.03 0.04 0.05 0.04 0.04 0.03 0.02 0.01
0.00 0.01 0.02 0.02 0.08 0.17 0.26 0.18 0.25 0.33 0.56 0.63 0.60 0.41 0.28 0.24 0.17 0.11 0.03 0.01 0.01 0.01 0.01 0.03 0.04 0.04 0.03 0.03 0.04 0.04 0.04 0.04 0.04 0.04 0.04 0.03 0.02 0.03 0.03 0.03 0.03 0.05 0.06 0.07 0.06 0.06 0.05 0.03 0.02
0.00 0.01 0.02 0.02 0.04 0.09 0.12 0.10 0.17 0.27 0.46 0.61 0.56 0.51 0.40 0.38 0.24 0.10 0.03 0.01 0.01 0.01 0.02 0.03 0.05 0.05 0.04 0.04 0.04 0.05 0.05 0.05 0.04 0.04 0.03 0.03 0.03 0.04 0.05 0.05 0.05 0.06 0.08 0.09 0.09 0.08 0.08 0.07 0.05
0.00 0.01 0.01 0.01 0.03 0.06 0.08 0.09 0.19 0.34 0.51 0.61 0.67 0.64 0.47 0.32 0.18 0.08 0.03 0.02 0.02 0.02 0.02 0.04 0.05 0.05 0.05 0.05 0.05 0.06 0.06 0.05 0.06 0.05 0.04 0.04 0.05 0.05 0.06 0.08 0.09 0.09 0.10 0.09 0.09 0.09 0.09 0.08 0.08
0.00 0.00 0.00 0.00 0.01 0.03 0.07 0.12 0.23 0.36 0.43 0.60 0.85 0.76 0.45 0.31 0.20 0.12 0.07 0.04 0.03 0.03 0.03 0.04 0.05 0.06 0.07 0.07 0.07 0.07 0.07 0.08 0.08 0.07 0.06 0.05 0.05 0.05 0.07 0.09 0.11 0.12 0.12 0.11 0.11 0.10 0.10 0.11 0.11
0.00 0.00 0.00 0.00 0.00 0.02 0.06 0.13 0.24 0.36 0.59 0.77 0.75 0.65 0.55 0.36 0.29 0.24 0.13 0.09 0.08 0.07 0.06 0.05 0.08 0.14 0.14 0.13 0.12 0.11 0.11 0.10 0.08 0.07 0.06 0.06 0.06 0.09 0.13 0.13 0.15 0.18 0.19 0.18 0.18 0.19 0.21 0.22 0.20
0.00 0.00 0.00 0.00 0.00 0.03 0.10 0.19 0.25 0.31 0.49 0.61 0.63 0.57 0.39 0.31 0.36 0.33 0.20 0.14 0.11 0.08 0.09 0.12 0.17 0.19 0.22 0.23 0.23 0.23 0.23 0.23 0.19 0.19 0.19 0.16 0.16 0.22 0.35 0.36 0.41 0.39 0.39 0.41 0.40 0.41 0.44 0.43 0.31
0.00 0.00 0.00 0.00 0.00 0.03 0.09 0.17 0.29 0.35 0.59 0.85 0.86 0.87 0.56 0.50 0.49 0.41 0.31 0.21 0.18 0.18 0.24 0.26 0.26 0.26 0.27 0.29 0.43 0.50 0.52 0.59 0.52 0.53 0.53 0.50 0.48 0.43 0.42 0.59 0.71 0.78 0.88 0.87 0.86 0.99 0.88 0.64 0.43
0.00 0.00 0.00 0.00 0.00 0.01 0.04 0.09 0.13 0.30 0.68 1.03 0.96 0.93 0.75 0.66 0.61 0.55 0.51 0.47 0.40 0.37 0.33 0.32 0.34 0.40 0.48 0.57 0.62 0.68 0.76 0.89 0.98 1.03 1.03 1.07 0.95 0.78 0.72 0.93 1.08 1.07 1.10 0.97 1.21 1.46 1.06 0.97 0.94
0.00 0.00 0.00 0.00 0.00 0.01 0.03 0.10 0.18 0.32 0.73 0.95 0.80 0.66 0.61 0.69 0.77 0.76 0.84 0.81 0.78 0.64 0.59 0.60 0.59 0.62 0.66 0.71 0.70 0.74 0.76 0.87 0.93 1.05 1.17 1.31 1.31 1.18 1.18 1.30 1.18 1.12 1.12 1.27 1.36 1.47 1.32 1.24 1.23
0.00 0.00 0.00 0.00 0.00 0.01 0.04 0.14 0.26 0.37 0.63 0.59 0.46 0.47 0.74 0.88 0.97 1.03 1.06 1.03 0.95 0.99 1.06 1.05 0.99 0.93 0.86 0.76 0.72 0.72 0.71 0.69 0.69 0.81 1.06 1.25 1.34 1.38 1.46 1.30 1.15 1.00 1.23 1.48 1.50 1.37 1.44 1.44 1.53
0.00 0.00 0.01 0.02 0.01 0.02 0.04 0.08 0.30 0.40 0.51 0.56 0.50 0.59 0.93 1.26 1.29 1.26 1.27 1.35 1.34 1.36 1.45 1.41 1.42 1.36 1.14 0.92 0.79 0.74 0.68 0.70 0.75 0.83 0.96 1.14 1.24 1.31 1.35 1.28 1.17 1.12 1.28 1.44 1.45 1.40 1.55 1.59 1.55
0.00 0.03 0.09 0.07 0.03 0.03 0.04 0.15 0.38 0.54 0.54 0.69 0.71 0.80 1.07 1.30 1.25 1.38 1.43 1.52 1.66 1.81 1.99 2.06 2.00 1.85 1.67 1.43 1.14 0.93 0.83 0.82 0.87 0.91 0.86 0.90 1.01 1.04 1.14 1.14 1.12 1.17 1.22 1.25 1.22 1.22 1.37 1.32 1.19
0.01 0.07 0.21 0.15 0.06 0.06 0.10 0.48 0.69 0.60 0.51 0.70 0.87 0.99 1.21 1.41 1.37 1.51 1.61 1.74 2.05 2.32 2.66 2.81 2.67 2.39 1.98 1.62 1.38 1.22 1.14 1.09 0.97 0.89 0.77 0.66 0.72 0.79 0.86 0.84 0.88 0.94 0.99 1.00 0.95 0.97 1.05 1.10 1.16
0.02 0.07 0.18 0.17 0.12 0.09 0.17 0.61 0.64 0.39 0.49 0.68 0.93 1.16 1.26 1.31 1.47 1.73 1.89 2.15 2.72 3.39 3.76 3.59 3.09 2.69 2.12 1.61 1.36 1.33 1.37 1.28 1.11 1.00 0.86 0.71 0.66 0.70 0.76 0.74 0.73 0.71 0.73 0.76 0.72 0.78 0.87 0.92 0.97
0.03 0.06 0.13 0.19 0.14 0.19 0.28 0.39 0.49 0.50 0.65 0.81 0.95 1.01 1.15 1.23 1.40 1.67 1.90 2.31 2.97 3.85 4.40 4.22 3.47 2.72 2.15 1.79 1.56 1.40 1.35 1.22 1.06 0.97 0.85 0.70 0.62 0.61 0.59 0.57 0.54 0.50 0.51 0.55 0.58 0.67 0.75 0.77 0.83
0.03 0.06 0.12 0.20 0.15 0.22 0.30 0.40 0.53 0.66 0.86 0.86 0.85 0.83 0.92 1.13 1.33 1.53 1.81 2.24 2.64 3.08 3.44 3.34 2.63 2.06 1.73 1.44 1.08 0.91 0.89 0.80 0.71 0.69 0.64 0.61 0.56 0.52 0.47 0.41 0.40 0.37 0.36 0.38 0.40 0.47 0.55 0.59 0.66
0.04 0.07 0.12 0.17 0.13 0.12 0.23 0.48 0.60 0.68 0.81 0.77 0.74 0.62 0.67 1.06 1.42 1.72 2.01 2.16 1.96 1.96 1.96 1.49 1.16 0.95 0.80 0.69 0.52 0.42 0.38 0.36 0.34 0.35 0.35 0.33 0.37 0.40 0.39 0.37 0.36 0.35 0.34 0.33 0.36 0.41 0.44 0.47 0.54
0.07 0.08 0.09 0.15 0.16 0.19 0.32 0.60 0.74 0.67 0.65 0.55 0.54 0.60 0.96 1.41 1.69 1.95 1.85 1.57 1.35 1.23 1.01 0.67 0.50 0.50 0.43 0.35 0.26 0.23 0.21 0.21 0.21 0.22 0.22 0.22 0.23 0.26 0.29 0.33 0.36 0.35 0.31 0.30 0.32 0.34 0.35 0.35 0.38
0.07 0.06 0.04 0.04 0.11 0.30 0.43 0.82 0.92 0.78 0.69 0.47 0.49 0.78 1.28 1.57 1.76 1.60 1.04 0.68 0.60 0.55 0.52 0.54 0.54 0.44 0.33 0.28 0.20 0.15 0.13 0.13 0.13 0.15 0.15 0.17 0.16 0.16 0.18 0.24 0.29 0.30 0.31 0.31 0.25 0.26 0.31 0.31 0.28
0.04 0.03 0.03 0.05 0.12 0.28 0.50 0.92 1.07 0.82 0.63 0.41 0.33 0.43 0.78 1.02 0.90 0.54 0.29 0.19 0.23 0.31 0.48 0.70 0.71 0.50 0.34 0.29 0.24 0.22 0.20 0.18 0.17 0.17 0.18 0.20 0.20 0.20 0.17 0.17 0.22 0.27 0.33 0.38 0.34 0.32 0.30 0.29 0.26
0.03 0.04 0.09 0.17 0.28 0.55 0.59 0.74 0.91 0.73 0.59 0.43 0.26 0.30 0.53 0.54 0.34 0.18 0.13 0.16 0.23 0.27 0.35 0.44 0.53 0.60 0.53 0.47 0.37 0.34 0.33 0.31 0.28 0.26 0.25 0.25 0.26 0.28 0.27 0.27 0.30 0.33 0.33 0.34 0.36 0.39 0.38 0.36 0.33
0.03 0.04 0.24 0.55 0.71 0.68 0.46 0.61 0.81 0.50 0.37 0.27 0.15 0.13 0.15 0.16 0.16 0.18 0.20 0.22 0.20 0.16 0.15 0.17 0.21 0.31 0.37 0.40 0.42 0.42 0.41 0.37 0.32 0.28 0.24 0.27 0.25 0.27 0.29 0.29 0.33 0.37 0.37 0.34 0.32 0.33 0.38 0.45 0.45
0.03 0.03 0.08 0.15 0.21 0.29 0.38 0.69 0.73 0.43 0.21 0.09 0.04 0.03 0.02 0.03 0.05 0.07 0.09 0.08 0.07 0.07 0.08 0.07 0.08 0.09 0.12 0.14 0.18 0.22 0.28 0.27 0.26 0.30 0.24 0.25 0.29 0.29 0.27 0.25 0.25 0.28 0.31 0.32 0.30 0.26 0.27 0.34 0.43
0.02 0.02 0.02 0.03 0.06 0.19 0.45 0.63 0.46 0.25 0.13 0.05 0.03 0.02 0.01 0.01 0.01 0.01 0.02 0.03 0.04 0.03 0.04 0.04 0.04 0.04 0.04 0.05 0.05 0.06 0.11 0.15 0.16 0.17 0.16 0.17 0.24 0.26 0.24 0.22 0.20 0.20 0.23 0.26 0.27 0.26 0.27 0.27 0.28
0.02 0.02 0.02 0.03 0.06 0.13 0.32 0.63 0.61 0.28 0.17 0.07 0.03 0.02 0.02 0.01 0.01 0.00 0.01 0.01 0.01 0.02 0.02 0.03 0.04 0.03 0.03 0.02 0.02 0.02 0.04 0.08 0.10 0.11 0.12 0.15 0.18 0.21 0.20 0.17 0.14 0.14 0.15 0.17 0.22 0.25 0.28 0.33 0.36
0.03 0.02 0.03 0.04 0.05 0.07 0.18 0.34 0.27 0.20 0.13 0.06 0.02 0.00 0.00 0.00 0.00 0.01 0.00 0.00 0.01 0.01 0.01 0.02 0.02 0.02 0.02 0.02 0.01 0.01 0.01 0.02 0.06 0.11 0.15 0.18 0.20 0.20 0.20 0.17 0.15 0.12 0.12 0.15 0.18 0.21 0.27 0.33 0.42
0.03 0.04 0.03 0.04 0.04 0.05 0.09 0.15 0.14 0.13 0.09 0.04 0.01 0.00 0.00 0.00 0.00 0.00 0.00 0.00 0.01 0.01 0.01 0.01 0.01 0.01 0.01 0.00 0.00 0.00 0.00 0.00 0.01 0.03 0.08 0.14 0.20 0.21 0.21 0.20 0.17 0.12 0.10 0.12 0.14 0.16 0.21 0.29 0.39

GEFSSGP_prec_meanprecacc_072.txt.gz
Total_Precipitation_Accumulation
0.00 0.00 0.02 0.09 0.22 0.43 0.59 0.40 0.31 0.23 0.23 0.26 0.35 0.34 0.28 0.30 0.28 0.26 0.11 0.05 0.01 0.00 0.01 0.05 0.11 0.11 0.09 0.07 0.08 0.09 0.11 0.11 0.11 0.11 0.11 0.08 0.05 0.03 0.02 0.01 0.01 0.01 0.02 0.02 0.03 0.03 0.02 0.02 0.02
0.00 0.00 0.03 0.09 0.20 0.54 0.71 0.34 0.25 0.25 0.22 0.33 0.38 0.28 0.21 0.21 0.14 0.09 0.08 0.06 0.02 0.01 0.01 0.01 0.08 0.10 0.09 0.08 0.08 0.08 0.09 0.08 0.09 0.09 0.08 0.06 0.03 0.03 0.02 0.02 0.02 0.02 0.03 0.03 0.03 0.03 0.03 0.01 0.01
0.00 0.00 0.02 0.05 0.12 0.35 0.46 0.26 0.22 0.29 0.37 0.52 0.55 0.32 0.24 0.19 0.14 0.09 0.05 0.03 0.02 0.01 0.01 0.03 0.07 0.08 0.08 0.08 0.07 0.07 0.07 0.07 0.06 0.06 0.06 0.04 0.03 0.03 0.03 0.02 0.03 0.03 0.05 0.05 0.05 0.05 0.03 0.02 0.01
0.00 0.01 0.02 0.02 0.08 0.17 0.26 0.18 0.25 0.33 0.56 0.64 0.61 0.41 0.30 0.25 0.19 0.13 0.03 0.01 0.02 0.02 0.02 0.04 0.07 0.08 0.09 0.08 0.08 0.07 0.06 0.06 0.05 0.05 0.05 0.03 0.03 0.03 0.04 0.04 0.04 0.05 0.07 0.07 0.06 0.06 0.05 0.03 0.02
0.00 0.01 0.02 0.02 0.04 0.09 0.12 0.10 0.17 0.27 0.46 0.62 0.57 0.52 0.42 0.40 0.29 0.14 0.04 0.01 0.01 0.02 0.02 0.04 0.09 0.10 0.10 0.09 0.09 0.08 0.07 0.06 0.06 0.05 0.04 0.03 0.04 0.04 0.05 0.07 0.07 0.07 0.09 0.10 0.09 0.09 0.08 0.08 0.05
0.00 0.01 0.01 0.01 0.03 0.06 0.08 0.09 0.19 0.34 0.51 0.61 0.68 0.66 0.49 0.34 0.21 0.12 0.05 0.02 0.02 0.02 0.03 0.05 0.09 0.11 0.12 0.11 0.11 0.10 0.09 0.08 0.07 0.07 0.05 0.05 0.05 0.06 0.07 0.09 0.11 0.11 0.11 0.10 0.10 0.09 0.09 0.09 0.08
0.00 0.00 0.00 0.00 0.01 0.03 0.07 0.12 0.23 0.36 0.44 0.61 0.87 0.79 0.47 0.33 0.22 0.15 0.11 0.06 0.05 0.04 0.04 0.06 0.07 0.10 0.12 0.14 0.13 0.11 0.10 0.10 0.09 0.08 0.06 0.05 0.05 0.06 0.07 0.10 0.13 0.14 0.14 0.12 0.12 0.11 0.12 0.13 0.12
0.00 0.00 0.00 0.00 0.00 0.02 0.06 0.13 0.24 0.36 0.59 0.77 0.76 0.67 0.57 0.38 0.32 0.28 0.17 0.13 0.10 0.09 0.08 0.07 0.11 0.17 0.17 0.17 0.16 0.15 0.13 0.12 0.10 0.08 0.06 0.06 0.07 0.10 0.14 0.14 0.16 0.20 0.22 0.22 0.21 0.22 0.24 0.24 0.21
0.00 0.00 0.00 0.00 0.00 0.03 0.10 0.19 0.26 0.32 0.51 0.63 0.67 0.61 0.42 0.33 0.39 0.37 0.24 0.18 0.14 0.11 0.12 0.15 0.20 0.23 0.26 0.26 0.25 0.25 0.25 0.25 0.20 0.21 0.20 0.18 0.19 0.25 0.37 0.38 0.43 0.43 0.43 0.46 0.44 0.46 0.48 0.46 0.33
0.00 0.00 0.00 0.00 0.00 0.03 0.09 0.18 0.30 0.36 0.61 0.89 0.92 0.94 0.59 0.53 0.52 0.45 0.33 0.23 0.20 0.20 0.26 0.29 0.29 0.29 0.29 0.31 0.46 0.54 0.55 0.61 0.55 0.57 0.57 0.55 0.53 0.48 0.45 0.62 0.74 0.83 0.94 0.93 0.92 1.06 0.92 0.67 0.46
0.00 0.00 0.00 0.00 0.00 0.01 0.04 0.09 0.13 0.31 0.69 1.04 0.99 0.96 0.77 0.69 0.65 0.60 0.54 0.49 0.42 0.39 0.35 0.34 0.37 0.43 0.50 0.60 0.66 0.72 0.80 0.93 1.03 1.07 1.07 1.12 0.99 0.82 0.76 0.99 1.15 1.15 1.17 1.05 1.29 1.53 1.12 1.01 0.98
0.00 0.00 0.00 0.00 0.00 0.01 0.03 0.10 0.19 0.33 0.73 0.96 0.81 0.68 0.63 0.73 0.83 0.84 0.90 0.84 0.81 0.67 0.62 0.62 0.62 0.66 0.70 0.77 0.76 0.80 0.81 0.91 0.98 1.08 1.19 1.34 1.35 1.22 1.22 1.35 1.24 1.19 1.21 1.37 1.47 1.58 1.41 1.30 1.28
0.00 0.00 0.00 0.00 0.00 0.01 0.04 0.14 0.26 0.37 0.64 0.59 0.48 0.51 0.81 0.99 1.08 1.14 1.15 1.11 1.01 1.04 1.10 1.10 1.05 0.99 0.93 0.85 0.79 0.78 0.77 0.73 0.72 0.83 1.08 1.27 1.36 1.41 1.49 1.33 1.18 1.04 1.30 1.56 1.59 1.44 1.52 1.50 1.59
0.00 0.00 0.01 0.02 0.01 0.02 0.04 0.09 0.31 0.41 0.53 0.58 0.53 0.65 1.03 1.41 1.43 1.39 1.40 1.48 1.45 1.45 1.53 1.49 1.52 1.45 1.25 1.02 0.88 0.81 0.73 0.73 0.77 0.84 0.96 1.15 1.25 1.32 1.36 1.29 1.19 1.14 1.31 1.48 1.51 1.45 1.61 1.65 1.61
0.00 0.03 0.09 0.07 0.03 0.03 0.04 0.15 0.39 0.55 0.56 0.73 0.76 0.87 1.19 1.47 1.46 1.57 1.61 1.67 1.81 1.94 2.10 2.18 2.12 1.97 1.79 1.55 1.25 1.00 0.86 0.84 0.88 0.92 0.86 0.91 1.01 1.04 1.15 1.15 1.13 1.17 1.22 1.26 1.24 1.24 1.41 1.35 1.23
0.01 0.07 0.21 0.15 0.06 0.06 0.11 0.48 0.69 0.61 0.55 0.76 0.93 1.08 1.35 1.60 1.60 1.77 1.86 1.95 2.25 2.49 2.81 2.95 2.80 2.53 2.14 1.78 1.49 1.27 1.16 1.11 0.99 0.90 0.78 0.67 0.73 0.79 0.87 0.84 0.88 0.94 0.99 1.00 0.96 0.98 1.07 1.12 1.19
0.02 0.07 0.18 0.17 0.12 0.09 0.17 0.61 0.65 0.40 0.51 0.73 1.00 1.24 1.38 1.46 1.67 1.98 2.15 2.42 2.98 3.60 3.97 3.77 3.24 2.88 2.31 1.75 1.45 1.38 1.40 1.30 1.13 1.01 0.87 0.71 0.66 0.70 0.76 0.74 0.73 0.71 0.74 0.76 0.72 0.79 0.88 0.93 0.99
0.03 0.06 0.13 0.19 0.14 0.19 0.28 0.39 0.50 0.50 0.66 0.84 1.01 1.10 1.24 1.34 1.54 1.88 2.15 2.55 3.24 4.08 4.62 4.44 3.67 2.95 2.32 1.91 1.62 1.44 1.37 1.24 1.08 0.98 0.85 0.71 0.62 0.61 0.60 0.57 0.54 0.50 0.52 0.55 0.59 0.67 0.76 0.78 0.83
0.03 0.06 0.12 0.20 0.15 0.22 0.30 0.40 0.53 0.66 0.87 0.89 0.90 0.89 0.99 1.22 1.44 1.67 2.01 2.47 2.88 3.32 3.65 3.56 2.82 2.25 1.88 1.53 1.13 0.94 0.90 0.81 0.72 0.70 0.64 0.61 0.56 0.52 0.47 0.41 0.40 0.37 0.36 0.38 0.40 0.47 0.55 0.59 0.67
0.04 0.07 0.12 0.17 0.13 0.12 0.23 0.48 0.60 0.68 0.82 0.78 0.76 0.65 0.73 1.13 1.50 1.83 2.18 2.38 2.18 2.16 2.17 1.67 1.31 1.07 0.88 0.75 0.56 0.43 0.39 0.36 0.35 0.35 0.35 0.33 0.37 0.40 0.39 0.37 0.36 0.35 0.34 0.34 0.36 0.41 0.45 0.47 0.54
0.07 0.08 0.09 0.15 0.16 0.19 0.32 0.60 0.74 0.67 0.65 0.56 0.55 0.62 1.00 1.46 1.75 2.02 1.94 1.68 1.48 1.35 1.16 0.80 0.60 0.58 0.48 0.38 0.28 0.23 0.21 0.21 0.21 0.22 0.22 0.22 0.23 0.26 0.29 0.33 0.36 0.35 0.31 0.30 0.32 0.34 0.35 0.35 0.38
0.07 0.06 0.04 0.04 0.11 0.31 0.43 0.82 0.92 0.78 0.69 0.47 0.49 0.81 1.33 1.60 1.80 1.65 1.10 0.73 0.66 0.63 0.60 0.63 0.61 0.49 0.35 0.30 0.21 0.16 0.13 0.13 0.13 0.15 0.15 0.17 0.16 0.16 0.18 0.24 0.29 0.30 0.31 0.31 0.25 0.26 0.31 0.32 0.28
0.04 0.03 0.03 0.05 0.12 0.28 0.50 0.92 1.07 0.82 0.63 0.41 0.33 0.45 0.82 1.04 0.92 0.59 0.34 0.23 0.27 0.35 0.52 0.74 0.74 0.52 0.35 0.29 0.24 0.23 0.20 0.19 0.17 0.17 0.18 0.20 0.20 0.20 0.17 0.17 0.22 0.27 0.33 0.38 0.34 0.32 0.30 0.29 0.26
0.03 0.04 0.09 0.17 0.28 0.55 0.59 0.74 0.91 0.73 0.59 0.43 0.26 0.31 0.53 0.55 0.35 0.20 0.16 0.20 0.26 0.30 0.37 0.46 0.54 0.61 0.54 0.48 0.37 0.35 0.34 0.31 0.28 0.26 0.25 0.25 0.26 0.28 0.27 0.27 0.30 0.33 0.33 0.34 0.36 0.39 0.38 0.36 0.33
0.03 0.04 0.24 0.55 0.71 0.68 0.46 0.61 0.81 0.50 0.37 0.27 0.15 0.13 0.15 0.16 0.16 0.19 0.21 0.24 0.21 0.17 0.16 0.18 0.22 0.32 0.38 0.41 0.43 0.43 0.42 0.37 0.32 0.28 0.24 0.27 0.25 0.27 0.29 0.29 0.33 0.37 0.37 0.34 0.32 0.33 0.39 0.45 0.45
0.03 0.03 0.08 0.15 0.21 0.29 0.38 0.69 0.73 0.43 0.21 0.09 0.04 0.03 0.02 0.03 0.05 0.07 0.09 0.08 0.07 0.08 0.08 0.08 0.08 0.10 0.12 0.15 0.18 0.23 0.29 0.27 0.26 0.30 0.24 0.25 0.29 0.29 0.27 0.25 0.25 0.28 0.31 0.32 0.30 0.26 0.27 0.34 0.43
0.02 0.02 0.02 0.03 0.06 0.19 0.45 0.63 0.46 0.25 0.13 0.05 0.03 0.02 0.01 0.01 0.01 0.01 0.02 0.03 0.04 0.04 0.04 0.05 0.04 0.04 0.04 0.05 0.06 0.07 0.12 0.15 0.16 0.17 0.16 0.17 0.24 0.26 0.24 0.22 0.20 0.20 0.23 0.26 0.28 0.26 0.27 0.27 0.28
0.02 0.02 0.02 0.03 0.06 0.13 0.32 0.63 0.61 0.28 0.17 0.07 0.03 0.02 0.02 0.01 0.01 0.00 0.01 0.01 0.01 0.02 0.02 0.03 0.04 0.04 0.03 0.03 0.03 0.02 0.04 0.08 0.10 0.11 0.12 0.15 0.18 0.21 0.20 0.17 0.14 0.14 0.15 0.17 0.22 0.25 0.28 0.33 0.36
0.03 0.02 0.03 0.04 0.05 0.08 0.19 0.34 0.27 0.20 0.13 0.06 0.02 0.00 0.00 0.00 0.00 0.01 0.00 0.00 0.01 0.01 0.01 0.02 0.02 0.02 0.02 0.02 0.01 0.01 0.01 0.02 0.06 0.11 0.15 0.18 0.20 0.20 0.20 0.17 0.15 0.12 0.12 0.15 0.18 0.21 0.27 0.33 0.42
0.03 0.04 0.03 0.04 0.04 0.05 0.09 0.15 0.14 0.13 0.09 0.05 0.01 0.00 0.00 0.00 0.00 0.00 0.00 0.00 0.01 0.01 0.01 0.01 0.01 0.01 0.01 0.01 0.00 0.00 0.00 0.00 0.01 0.03 0.08 0.14 0.20 0.21 0.21 0.20 0.17 0.12 0.10 0.12 0.14 0.16 0.21 0.29 0.39

GEFSSGP_prec_meanprecacc_078.txt.gz
Total_Precipitation_Accumulation
0.00 0.00 0.02 0.09 0.26 0.51 0.68 0.45 0.35 0.24 0.23 0.26 0.35 0.34 0.30 0.33 0.33 0.45 0.19 0.05 0.01 0.00 0.01 0.05 0.11 0.12 0.10 0.09 0.10 0.11 0.13 0.12 0.12 0.11 0.11 0.08 0.05 0.03 0.02 0.02 0.02 0.02 0.02 0.03 0.03 0.04 0.03 0.03 0.02
0.00 0.00 0.03 0.09 0.24 0.59 0.75 0.40 0.30 0.27 0.23 0.33 0.38 0.28 0.21 0.24 0.16 0.13 0.10 0.06 0.02 0.01 0.01 0.01 0.08 0.11 0.10 0.10 0.11 0.11 0.11 0.10 0.09 0.09 0.08 0.06 0.04 0.03 0.03 0.02 0.02 0.03 0.03 0.03 0.04 0.04 0.03 0.02 0.02
0.00 0.00 0.02 0.05 0.14 0.36 0.47 0.27 0.25 0.30 0.37 0.52 0.55 0.32 0.25 0.24 0.17 0.09 0.05 0.03 0.02 0.01 0.01 0.03 0.07 0.09 0.09 0.09 0.10 0.10 0.09 0.08 0.07 0.07 0.06 0.04 0.03 0.03 0.03 0.03 0.03 0.04 0.05 0.05 0.05 0.05 0.04 0.02 0.01
0.00 0.01 0.02 0.03 0.08 0.17 0.26 0.18 0.25 0.33 0.56 0.64 0.62 0.42 0.30 0.27 0.20 0.13 0.04 0.01 0.02 0.02 0.02 0.04 0.07 0.09 0.10 0.10 0.10 0.09 0.08 0.07 0.06 0.06 0.05 0.03 0.03 0.04 0.04 0.04 0.04 0.05 0.07 0.07 0.07 0.07 0.06 0.04 0.02
0.00 0.01 0.02 0.02 0.04 0.09 0.12 0.10 0.17 0.27 0.47 0.62 0.57 0.54 0.45 0.41 0.29 0.15 0.04 0.02 0.01 0.02 0.02 0.04 0.09 0.11 0.12 0.11 0.12 0.11 0.09 0.08 0.07 0.07 0.05 0.04 0.04 0.05 0.05 0.07 0.07 0.07 0.09 0.10 0.09 0.09 0.09 0.08 0.06
0.00 0.01 0.01 0.01 0.03 0.06 0.08 0.09 0.19 0.35 0.52 0.64 0.69 0.68 0.54 0.35 0.22 0.12 0.06 0.03 0.03 0.03 0.03 0.05 0.10 0.13 0.14 0.14 0.14 0.13 0.11 0.10 0.09 0.08 0.06 0.06 0.06 0.07 0.08 0.10 0.11 0.11 0.11 0.10 0.10 0.09 0.09 0.09 0.09
0.00 0.00 0.00 0.00 0.01 0.03 0.07 0.12 0.23 0.37 0.46 0.63 0.88 0.82 0.51 0.36 0.23 0.15 0.11 0.07 0.08 0.05 0.05 0.06 0.08 0.11 0.14 0.17 0.17 0.15 0.13 0.12 0.11 0.09 0.07 0.06 0.06 0.07 0.08 0.11 0.13 0.14 0.15 0.13 0.12 0.12 0.12 0.13 0.12
0.00 0.00 0.00 0.00 0.00 0.02 0.07 0.13 0.24 0.36 0.62 0.80 0.77 0.71 0.64 0.41 0.33 0.29 0.20 0.15 0.13 0.11 0.09 0.08 0.11 0.18 0.19 0.18 0.18 0.18 0.16 0.14 0.11 0.09 0.07 0.07 0.07 0.11 0.15 0.15 0.17 0.21 0.23 0.22 0.22 0.23 0.24 0.24 0.21
0.00 0.00 0.00 0.00 0.00 0.03 0.10 0.19 0.26 0.32 0.51 0.64 0.68 0.62 0.45 0.34 0.41 0.42 0.31 0.24 0.20 0.15 0.14 0.16 0.21 0.24 0.29 0.29 0.26 0.27 0.26 0.26 0.22 0.22 0.21 0.19 0.25 0.33 0.45 0.42 0.47 0.45 0.45 0.47 0.46 0.47 0.49 0.47 0.33
0.00 0.00 0.00 0.00 0.00 0.03 0.09 0.18 0.30 0.36 0.62 0.89 0.94 0.96 0.60 0.55 0.56 0.52 0.41 0.32 0.28 0.28 0.35 0.33 0.32 0.30 0.31 0.34 0.50 0.59 0.59 0.65 0.60 0.65 0.63 0.61 0.62 0.59 0.56 0.70 0.79 0.85 0.96 0.95 0.95 1.07 0.93 0.68 0.48
0.00 0.00 0.00 0.00 0.00 0.01 0.04 0.09 0.13 0.31 0.69 1.05 1.01 0.99 0.80 0.73 0.72 0.68 0.62 0.57 0.49 0.49 0.48 0.40 0.41 0.46 0.53 0.66 0.72 0.80 0.89 1.02 1.11 1.16 1.14 1.20 1.05 0.89 0.83 1.08 1.22 1.20 1.21 1.11 1.37 1.57 1.16 1.05 1.07
0.00 0.00 0.00 0.00 0.00 0.01 0.03 0.10 0.19 0.33 0.74 0.98 0.83 0.70 0.69 0.80 0.93 0.94 0.98 0.93 0.92 0.78 0.71 0.69 0.67 0.72 0.77 0.83 0.82 0.86 0.87 0.97 1.06 1.15 1.24 1.39 1.41 1.29 1.30 1.43 1.31 1.27 1.31 1.48 1.57 1.69 1.50 1.39 1.36
0.00 0.00 0.00 0.00 0.00 0.01 0.04 0.14 0.26 0.38 0.64 0.60 0.49 0.53 0.85 1.06 1.17 1.26 1.28 1.25 1.18 1.24 1.25 1.23 1.13 1.08 1.03 0.94 0.86 0.83 0.82 0.78 0.77 0.87 1.11 1.29 1.39 1.45 1.55 1.38 1.22 1.08 1.36 1.64 1.68 1.54 1.62 1.61 1.68
0.00 0.00 0.01 0.02 0.01 0.02 0.04 0.09 0.31 0.41 0.53 0.58 0.54 0.70 1.09 1.50 1.53 1.50 1.55 1.70 1.67 1.69 1.75 1.65 1.62 1.54 1.34 1.09 0.94 0.87 0.76 0.77 0.80 0.86 0.98 1.15 1.26 1.34 1.39 1.33 1.22 1.17 1.34 1.53 1.57 1.54 1.72 1.77 1.72
0.00 0.03 0.10 0.08 0.04 0.03 0.05 0.17 0.40 0.55 0.57 0.74 0.78 0.92 1.29 1.64 1.59 1.72 1.76 1.90 2.07 2.24 2.35 2.35 2.22 2.06 1.88 1.64 1.30 1.04 0.91 0.87 0.90 0.94 0.87 0.91 1.02 1.05 1.16 1.17 1.15 1.19 1.24 1.29 1.27 1.29 1.48 1.44 1.32
0.01 0.07 0.22 0.17 0.07 0.06 0.11 0.50 0.70 0.61 0.55 0.78 0.97 1.14 1.45 1.76 1.76 1.96 2.06 2.18 2.52 2.81 3.05 3.13 2.89 2.63 2.24 1.86 1.56 1.32 1.20 1.13 1.00 0.91 0.79 0.67 0.73 0.80 0.87 0.85 0.89 0.94 1.00 1.01 0.97 1.00 1.11 1.17 1.25
0.03 0.07 0.18 0.18 0.12 0.10 0.17 0.61 0.65 0.40 0.52 0.76 1.04 1.31 1.47 1.58 1.84 2.17 2.38 2.67 3.25 3.91 4.22 3.95 3.39 3.01 2.42 1.84 1.51 1.42 1.42 1.32 1.14 1.02 0.87 0.71 0.67 0.71 0.76 0.74 0.74 0.71 0.74 0.76 0.73 0.80 0.90 0.96 1.02
0.03 0.06 0.13 0.20 0.15 0.19 0.28 0.39 0.50 0.51 0.67 0.86 1.03 1.15 1.33 1.45 1.69 2.05 2.33 2.73 3.46 4.31 4.83 4.59 3.82 3.09 2.43 1.99 1.69 1.48 1.40 1.25 1.08 0.98 0.86 0.71 0.62 0.61 0.60 0.58 0.54 0.51 0.52 0.55 0.59 0.69 0.78 0.80 0.85
0.03 0.06 0.13 0.20 0.15 0.22 0.30 0.40 0.54 0.67 0.88 0.91 0.92 0.92 1.05 1.31 1.55 1.82 2.18 2.62 3.06 3.49 3.79 3.68 2.97 2.40 1.98 1.60 1.18 0.98 0.93 0.82 0.73 0.70 0.65 0.61 0.56 0.52 0.47 0.41 0.40 0.37 0.36 0.39 0.41 0.48 0.56 0.59 0.67
0.04 0.07 0.12 0.17 0.13 0.12 0.23 0.48 0.60 0.68 0.83 0.79 0.78 0.68 0.77 1.18 1.58 1.93 2.29 2.51 2.35 2.32 2.31 1.79 1.46 1.19 0.99 0.84 0.61 0.47 0.40 0.37 0.35 0.35 0.35 0.33 0.37 0.40 0.39 0.37 0.36 0.35 0.34 0.34 0.36 0.42 0.45 0.47 0.54
0.07 0.09 0.09 0.15 0.16 0.19 0.32 0.61 0.75 0.68 0.65 0.56 0.57 0.65 1.03 1.49 1.80 2.09 2.03 1.77 1.60 1.47 1.28 0.93 0.72 0.69 0.59 0.48 0.33 0.26 0.22 0.21 0.21 0.22 0.22 0.22 0.23 0.26 0.29 0.33 0.36 0.35 0.31 0.30 0.32 0.34 0.35 0.36 0.38
0.07 0.06 0.04 0.04 0.11 0.31 0.44 0.83 0.93 0.79 0.69 0.47 0.51 0.83 1.35 1.62 1.83 1.70 1.17 0.81 0.75 0.72 0.70 0.74 0.70 0.59 0.43 0.38 0.27 0.19 0.15 0.14 0.14 0.15 0.15 0.17 0.16 0.16 0.18 0.24 0.29 0.30 0.31 0.31 0.25 0.26 0.31 0.32 0.28
0.04 0.03 0.03 0.05 0.13 0.32 0.54 0.93 1.08 0.82 0.64 0.42 0.35 0.47 0.84 1.06 0.94 0.64 0.40 0.31 0.34 0.44 0.59 0.81 0.81 0.59 0.41 0.35 0.30 0.26 0.23 0.20 0.18 0.18 0.19 0.20 0.20 0.20 0.17 0.17 0.22 0.27 0.33 0.38 0.34 0.32 0.30 0.29 0.26
0.03 0.04 0.10 0.19 0.32 0.67 0.68 0.76 0.92 0.74 0.59 0.43 0.26 0.32 0.55 0.56 0.36 0.25 0.24 0.30 0.35 0.38 0.43 0.50 0.58 0.64 0.57 0.51 0.42 0.38 0.37 0.35 0.30 0.27 0.26 0.26 0.26 0.29 0.27 0.27 0.30 0.33 0.33 0.34 0.36 0.39 0.38 0.36 0.33
0.03 0.04 0.25 0.58 0.80 0.82 0.52 0.63 0.82 0.51 0.37 0.27 0.15 0.13 0.15 0.16 0.18 0.22 0.26 0.30 0.28 0.24 0.21 0.21 0.24 0.34 0.40 0.44 0.47 0.45 0.45 0.41 0.35 0.30 0.25 0.27 0.26 0.27 0.29 0.29 0.33 0.37 0.37 0.34 0.32 0.33 0.39 0.45 0.45
0.03 0.03 0.08 0.17 0.24 0.32 0.41 0.72 0.75 0.44 0.21 0.09 0.04 0.03 0.03 0.03 0.05 0.08 0.11 0.10 0.10 0.11 0.12 0.11 0.10 0.11 0.14 0.17 0.22 0.26 0.32 0.29 0.28 0.32 0.25 0.26 0.29 0.29 0.27 0.25 0.25 0.28 0.31 0.32 0.30 0.26 0.27 0.34 0.43
0.02 0.02 0.02 0.03 0.06 0.20 0.49 0.69 0.50 0.26 0.14 0.05 0.03 0.02 0.01 0.01 0.01 0.02 0.03 0.04 0.04 0.05 0.07 0.07 0.06 0.06 0.06 0.07 0.08 0.09 0.14 0.18 0.19 0.20 0.17 0.18 0.24 0.26 0.24 0.22 0.20 0.20 0.23 0.26 0.28 0.26 0.27 0.27 0.29
0.02 0.02 0.02 0.03 0.07 0.15 0.36 0.72 0.74 0.37 0.19 0.07 0.03 0.02 0.02 0.01 0.01 0.01 0.01 0.01 0.02 0.02 0.04 0.05 0.05 0.05 0.05 0.05 0.04 0.04 0.07 0.10 0.12 0.12 0.13 0.16 0.19 0.21 0.20 0.17 0.14 0.14 0.15 0.17 0.22 0.25 0.28 0.33 0.36
0.04 0.02 0.03 0.04 0.05 0.09 0.24 0.40 0.35 0.26 0.15 0.06 0.02 0.00 0.00 0.00 0.00 0.01 0.00 0.00 0.01 0.01 0.02 0.02 0.02 0.03 0.03 0.03 0.03 0.03 0.03 0.04 0.07 0.12 0.16 0.19 0.20 0.21 0.20 0.18 0.15 0.12 0.12 0.15 0.18 0.21 0.27 0.33 0.42
0.05 0.04 0.04 0.04 0.05 0.05 0.11 0.18 0.17 0.15 0.12 0.05 0.01 0.00 0.00 0.00 0.00 0.00 0.00 0.00 0.01 0.01 0.01 0.01 0.01 0.01 0.01 0.01 0.02 0.02 0.02 0.02 0.03 0.05 0.09 0.16 0.21 0.22 0.21 0.20 0.17 0.12 0.10 0.12 0.14 0.16 0.21 0.29 0.39

GEFSSGP_prec_meanprecacc_084.txt.gz
Total_Precipitation_Accumulation
0.00 0.00 0.04 0.15 0.44 0.72 0.84 0.53 0.41 0.31 0.30 0.32 0.38 0.36 0.33 0.38 0.40 0.61 0.32 0.10 0.02 0.01 0.01 0.06 0.12 0.12 0.10 0.09 0.11 0.12 0.13 0.13 0.12 0.11 0.11 0.08 0.05 0.04 0.02 0.02 0.02 0.02 0.03 0.03 0.04 0.04 0.03 0.03 0.03
0.00 0.01 0.05 0.20 0.43 0.78 0.83 0.43 0.33 0.30 0.25 0.36 0.42 0.31 0.25 0.27 0.22 0.18 0.15 0.12 0.03 0.01 0.01 0.02 0.09 0.11 0.10 0.10 0.11 0.12 0.11 0.10 0.10 0.09 0.08 0.06 0.04 0.04 0.03 0.03 0.02 0.03 0.04 0.04 0.04 0.04 0.03 0.02 0.02
0.00 0.02 0.06 0.14 0.26 0.45 0.49 0.28 0.26 0.32 0.40 0.58 0.65 0.40 0.29 0.33 0.25 0.13 0.09 0.06 0.04 0.02 0.01 0.03 0.07 0.09 0.10 0.10 0.10 0.10 0.09 0.08 0.08 0.07 0.07 0.05 0.04 0.04 0.04 0.03 0.03 0.04 0.05 0.06 0.06 0.05 0.04 0.03 0.03
0.00 0.03 0.06 0.08 0.12 0.19 0.26 0.18 0.26 0.36 0.63 0.75 0.77 0.54 0.37 0.32 0.23 0.16 0.07 0.05 0.04 0.03 0.02 0.04 0.07 0.09 0.10 0.10 0.10 0.09 0.08 0.07 0.07 0.07 0.06 0.04 0.03 0.04 0.04 0.04 0.05 0.06 0.07 0.08 0.07 0.07 0.06 0.05 0.04
0.00 0.02 0.04 0.05 0.06 0.09 0.12 0.10 0.18 0.29 0.52 0.72 0.72 0.67 0.56 0.45 0.33 0.19 0.08 0.05 0.03 0.02 0.02 0.04 0.09 0.12 0.13 0.12 0.12 0.11 0.10 0.08 0.07 0.07 0.06 0.04 0.04 0.05 0.06 0.07 0.07 0.08 0.10 0.10 0.09 0.09 0.09 0.09 0.07
0.00 0.02 0.02 0.02 0.03 0.06 0.08 0.09 0.19 0.36 0.55 0.71 0.81 0.82 0.65 0.42 0.27 0.17 0.09 0.07 0.07 0.04 0.03 0.05 0.10 0.13 0.15 0.15 0.15 0.14 0.12 0.10 0.09 0.08 0.07 0.06 0.07 0.07 0.08 0.10 0.11 0.11 0.12 0.10 0.10 0.10 0.09 0.09 0.09
0.00 0.01 0.01 0.00 0.01 0.03 0.07 0.13 0.23 0.38 0.49 0.76 1.00 0.92 0.63 0.46 0.30 0.22 0.18 0.13 0.20 0.12 0.06 0.06 0.08 0.11 0.15 0.18 0.18 0.16 0.13 0.12 0.11 0.09 0.07 0.06 0.06 0.07 0.08 0.11 0.13 0.15 0.15 0.13 0.12 0.12 0.12 0.13 0.13
0.00 0.00 0.00 0.00 0.00 0.02 0.07 0.13 0.24 0.37 0.64 0.88 0.86 0.79 0.76 0.51 0.43 0.39 0.31 0.26 0.29 0.21 0.12 0.09 0.12 0.18 0.19 0.19 0.19 0.19 0.16 0.14 0.11 0.09 0.07 0.07 0.07 0.11 0.15 0.16 0.18 0.21 0.23 0.22 0.22 0.23 0.25 0.25 0.22
0.00 0.00 0.00 0.00 0.00 0.03 0.10 0.19 0.26 0.32 0.52 0.66 0.70 0.65 0.50 0.43 0.50 0.54 0.48 0.41 0.35 0.26 0.20 0.20 0.23 0.25 0.29 0.29 0.27 0.27 0.27 0.26 0.22 0.22 0.21 0.20 0.25 0.34 0.46 0.44 0.48 0.45 0.45 0.47 0.46 0.47 0.50 0.47 0.35
0.00 0.00 0.00 0.00 0.00 0.03 0.09 0.18 0.30 0.37 0.63 0.92 0.97 1.02 0.68 0.66 0.67 0.65 0.59 0.50 0.49 0.51 0.46 0.41 0.38 0.33 0.32 0.35 0.51 0.60 0.60 0.65 0.61 0.66 0.64 0.63 0.64 0.61 0.58 0.75 0.83 0.88 0.96 0.96 0.95 1.08 0.94 0.69 0.50
0.00 0.00 0.00 0.00 0.00 0.01 0.04 0.09 0.13 0.32 0.72 1.11 1.14 1.14 0.95 0.87 0.84 0.79 0.74 0.73 0.68 0.76 0.66 0.52 0.50 0.52 0.58 0.69 0.73 0.81 0.90 1.02 1.12 1.17 1.16 1.21 1.07 0.91 0.85 1.10 1.25 1.22 1.22 1.12 1.39 1.59 1.18 1.08 1.11
0.00 0.00 0.00 0.00 0.00 0.01 0.03 0.10 0.19 0.34 0.77 1.03 0.91 0.79 0.79 0.95 1.04 1.05 1.14 1.12 1.12 1.05 1.05 0.97 0.86 0.85 0.89 0.90 0.85 0.87 0.88 0.98 1.06 1.16 1.25 1.41 1.42 1.30 1.32 1.44 1.32 1.28 1.31 1.49 1.58 1.70 1.51 1.42 1.41
0.00 0.00 0.00 0.00 0.00 0.01 0.05 0.14 0.26 0.39 0.66 0.63 0.52 0.57 0.92 1.16 1.27 1.41 1.50 1.48 1.45 1.54 1.61 1.77 1.49 1.28 1.18 1.02 0.89 0.85 0.83 0.79 0.78 0.88 1.12 1.30 1.40 1.46 1.55 1.39 1.23 1.09 1.36 1.64 1.69 1.55 1.64 1.64 1.72
0.00 0.00 0.01 0.02 0.01 0.02 0.05 0.10 0.32 0.44 0.54 0.60 0.56 0.73 1.15 1.60 1.67 1.70 1.84 2.03 2.05 2.10 2.11 2.15 2.09 1.79 1.47 1.19 0.99 0.90 0.79 0.79 0.81 0.88 0.98 1.16 1.26 1.34 1.39 1.33 1.23 1.18 1.34 1.53 1.57 1.55 1.73 1.79 1.75
0.00 0.03 0.10 0.09 0.05 0.04 0.06 0.19 0.42 0.57 0.58 0.77 0.82 0.98 1.39 1.80 1.80 1.96 2.02 2.25 2.43 2.61 2.70 2.71 2.63 2.33 2.04 1.74 1.36 1.07 0.95 0.89 0.92 0.95 0.88 0.92 1.02 1.05 1.16 1.18 1.15 1.19 1.25 1.30 1.28 1.29 1.48 1.45 1.33
0.01 0.08 0.22 0.18 0.08 0.08 0.12 0.51 0.71 0.63 0.57 0.82 1.02 1.20 1.59 2.00 2.02 2.22 2.37 2.57 2.93 3.18 3.48 3.47 3.16 2.85 2.40 1.96 1.63 1.38 1.26 1.16 1.01 0.92 0.79 0.68 0.73 0.80 0.87 0.85 0.89 0.95 1.00 1.01 0.98 1.01 1.11 1.17 1.26
0.03 0.07 0.19 0.19 0.14 0.11 0.18 0.63 0.66 0.42 0.55 0.79 1.10 1.37 1.57 1.78 2.11 2.50 2.82 3.12 3.67 4.32 4.69 4.36 3.67 3.20 2.57 1.95 1.61 1.50 1.48 1.34 1.15 1.03 0.87 0.71 0.67 0.71 0.76 0.74 0.74 0.72 0.74 0.76 0.73 0.81 0.91 0.96 1.03
0.03 0.06 0.13 0.21 0.16 0.20 0.30 0.40 0.51 0.54 0.70 0.89 1.08 1.20 1.40 1.58 1.91 2.43 2.83 3.20 3.88 4.74 5.23 4.92 4.10 3.28 2.58 2.09 1.78 1.55 1.44 1.28 1.09 0.99 0.86 0.71 0.62 0.61 0.60 0.58 0.54 0.51 0.52 0.55 0.59 0.69 0.78 0.80 0.85
0.03 0.06 0.13 0.21 0.16 0.23 0.32 0.42 0.55 0.69 0.91 0.92 0.94 0.94 1.10 1.40 1.72 2.15 2.66 2.99 3.43 3.88 4.21 4.04 3.27 2.61 2.11 1.67 1.22 1.01 0.95 0.84 0.74 0.71 0.65 0.61 0.57 0.52 0.47 0.41 0.40 0.37 0.36 0.39 0.41 0.48 0.56 0.59 0.67
0.04 0.07 0.13 0.17 0.14 0.13 0.25 0.50 0.63 0.71 0.86 0.80 0.79 0.69 0.79 1.24 1.73 2.28 2.75 2.85 2.64 2.60 2.60 2.08 1.71 1.39 1.09 0.89 0.65 0.49 0.42 0.38 0.36 0.35 0.35 0.34 0.37 0.40 0.39 0.37 0.36 0.35 0.34 0.34 0.36 0.42 0.45 0.47 0.54
0.07 0.09 0.09 0.15 0.16 0.21 0.35 0.65 0.80 0.72 0.68 0.58 0.58 0.66 1.03 1.51 1.85 2.24 2.27 2.07 1.86 1.71 1.48 1.13 0.91 0.85 0.69 0.53 0.36 0.28 0.23 0.22 0.22 0.22 0.22 0.22 0.23 0.26 0.29 0.33 0.36 0.35 0.31 0.30 0.32 0.34 0.36 0.36 0.38
0.07 0.06 0.04 0.04 0.12 0.34 0.49 0.88 0.99 0.84 0.73 0.50 0.53 0.84 1.36 1.64 1.87 1.76 1.27 1.00 0.99 1.01 0.92 0.93 0.86 0.73 0.54 0.43 0.30 0.20 0.16 0.15 0.14 0.15 0.16 0.17 0.16 0.16 0.18 0.24 0.29 0.30 0.31 0.31 0.25 0.26 0.31 0.32 0.28
0.04 0.03 0.03 0.05 0.14 0.38 0.63 1.03 1.17 0.90 0.70 0.46 0.37 0.49 0.86 1.08 0.98 0.71 0.49 0.42 0.52 0.69 0.81 0.99 0.96 0.75 0.53 0.40 0.32 0.29 0.25 0.22 0.19 0.18 0.19 0.20 0.20 0.20 0.17 0.17 0.22 0.27 0.33 0.38 0.35 0.32 0.30 0.29 0.26
0.03 0.04 0.10 0.20 0.37 0.78 0.81 0.90 1.09 0.89 0.66 0.47 0.29 0.33 0.57 0.59 0.41 0.36 0.37 0.41 0.50 0.61 0.61 0.66 0.71 0.77 0.69 0.58 0.44 0.40 0.39 0.36 0.30 0.27 0.26 0.26 0.26 0.29 0.27 0.27 0.30 0.33 0.33 0.34 0.36 0.39 0.38 0.36 0.33
0.03 0.05 0.25 0.59 0.85 0.92 0.64 0.78 1.04 0.65 0.42 0.30 0.17 0.14 0.18 0.20 0.22 0.30 0.33 0.37 0.36 0.38 0.34 0.33 0.36 0.44 0.47 0.49 0.50 0.48 0.46 0.42 0.35 0.30 0.26 0.27 0.26 0.27 0.29 0.29 0.33 0.37 0.37 0.34 0.32 0.33 0.39 0.45 0.45
0.03 0.03 0.09 0.19 0.27 0.39 0.54 0.92 0.96 0.52 0.24 0.12 0.06 0.04 0.05 0.06 0.09 0.11 0.13 0.12 0.14 0.20 0.22 0.20 0.21 0.19 0.19 0.20 0.25 0.29 0.33 0.30 0.29 0.33 0.25 0.26 0.29 0.29 0.27 0.25 0.25 0.28 0.31 0.32 0.30 0.26 0.27 0.34 0.43
0.03 0.03 0.03 0.04 0.07 0.26 0.61 0.83 0.61 0.31 0.16 0.09 0.06 0.04 0.02 0.02 0.02 0.03 0.04 0.06 0.06 0.08 0.10 0.12 0.13 0.12 0.10 0.10 0.11 0.11 0.15 0.18 0.19 0.20 0.18 0.18 0.24 0.26 0.24 0.22 0.20 0.20 0.23 0.26 0.28 0.26 0.27 0.27 0.29
0.04 0.03 0.03 0.04 0.09 0.19 0.46 0.85 0.84 0.44 0.22 0.11 0.07 0.04 0.02 0.02 0.02 0.01 0.02 0.02 0.03 0.03 0.05 0.07 0.08 0.08 0.07 0.06 0.05 0.04 0.07 0.11 0.13 0.13 0.14 0.16 0.19 0.22 0.20 0.17 0.14 0.14 0.15 0.17 0.22 0.25 0.28 0.33 0.36
0.05 0.04 0.05 0.06 0.07 0.14 0.32 0.50 0.42 0.34 0.22 0.13 0.07 0.03 0.01 0.02 0.02 0.02 0.01 0.01 0.01 0.02 0.03 0.03 0.04 0.04 0.04 0.04 0.04 0.04 0.03 0.05 0.08 0.13 0.17 0.20 0.21 0.21 0.20 0.18 0.15 0.12 0.12 0.15 0.18 0.21 0.27 0.33 0.42
0.07 0.07 0.07 0.07 0.07 0.09 0.16 0.24 0.23 0.21 0.21 0.21 0.10 0.03 0.02 0.03 0.03 0.03 0.02 0.02 0.01 0.02 0.02 0.01 0.02 0.02 0.02 0.02 0.02 0.03 0.03 0.04 0.05 0.07 0.10 0.17 0.22 0.23 0.22 0.20 0.17 0.12 0.10 0.12 0.14 0.16 0.21 0.29 0.39

GEFSSGP_prec_meanprecacc_090.txt.gz
Total_Precipitation_Accumulation
0.00 0.00 0.05 0.16 0.44 0.73 0.85 0.54 0.42 0.33 0.32 0.35 0.42 0.40 0.35 0.39 0.41 0.62 0.33 0.10 0.03 0.01 0.01 0.07 0.15 0.13 0.11 0.10 0.11 0.12 0.13 0.13 0.12 0.12 0.11 0.09 0.05 0.04 0.03 0.03 0.02 0.03 0.04 0.03 0.04 0.05 0.04 0.04 0.05
0.00 0.01 0.06 0.20 0.44 0.79 0.83 0.44 0.33 0.31 0.28 0.38 0.44 0.35 0.27 0.28 0.23 0.18 0.16 0.13 0.04 0.01 0.01 0.02 0.11 0.12 0.11 0.11 0.12 0.12 0.11 0.10 0.10 0.09 0.09 0.06 0.04 0.04 0.04 0.03 0.03 0.04 0.04 0.04 0.05 0.05 0.04 0.03 0.03
0.00 0.02 0.06 0.15 0.27 0.46 0.50 0.30 0.27 0.33 0.41 0.60 0.68 0.44 0.33 0.34 0.25 0.13 0.09 0.07 0.05 0.03 0.02 0.04 0.09 0.10 0.10 0.10 0.10 0.10 0.09 0.08 0.08 0.08 0.07 0.05 0.04 0.04 0.04 0.04 0.04 0.05 0.06 0.06 0.06 0.06 0.05 0.04 0.04
0.00 0.03 0.07 0.10 0.13 0.19 0.27 0.19 0.27 0.36 0.65 0.77 0.78 0.58 0.42 0.35 0.25 0.17 0.08 0.05 0.05 0.04 0.03 0.06 0.09 0.10 0.11 0.10 0.10 0.09 0.08 0.07 0.07 0.07 0.06 0.04 0.04 0.04 0.05 0.05 0.05 0.06 0.08 0.08 0.07 0.07 0.07 0.06 0.06
0.00 0.03 0.05 0.05 0.06 0.10 0.12 0.11 0.18 0.30 0.53 0.73 0.73 0.70 0.61 0.48 0.36 0.21 0.09 0.05 0.03 0.03 0.04 0.06 0.11 0.12 0.13 0.12 0.12 0.11 0.10 0.08 0.08 0.08 0.06 0.05 0.05 0.05 0.06 0.07 0.08 0.08 0.10 0.10 0.10 0.10 0.10 0.10 0.09
0.00 0.02 0.02 0.02 0.04 0.06 0.08 0.10 0.19 0.36 0.56 0.72 0.83 0.83 0.67 0.45 0.30 0.20 0.10 0.07 0.07 0.04 0.04 0.07 0.12 0.14 0.15 0.15 0.15 0.14 0.12 0.10 0.10 0.09 0.07 0.07 0.07 0.07 0.08 0.10 0.12 0.11 0.12 0.11 0.11 0.10 0.10 0.10 0.11
0.01 0.01 0.01 0.01 0.02 0.04 0.07 0.13 0.24 0.38 0.49 0.77 1.01 0.93 0.65 0.51 0.36 0.27 0.22 0.15 0.22 0.14 0.08 0.08 0.09 0.12 0.15 0.19 0.18 0.16 0.13 0.12 0.11 0.10 0.08 0.07 0.07 0.08 0.09 0.11 0.14 0.15 0.15 0.13 0.13 0.12 0.13 0.14 0.14
0.00 0.00 0.00 0.00 0.01 0.03 0.07 0.14 0.25 0.37 0.64 0.89 0.86 0.80 0.77 0.57 0.52 0.49 0.43 0.35 0.38 0.30 0.19 0.13 0.13 0.19 0.20 0.19 0.19 0.19 0.17 0.14 0.12 0.10 0.08 0.08 0.08 0.12 0.16 0.16 0.18 0.22 0.24 0.23 0.23 0.24 0.26 0.26 0.24
0.00 0.00 0.00 0.00 0.00 0.03 0.10 0.19 0.26 0.32 0.52 0.67 0.71 0.65 0.52 0.50 0.63 0.66 0.60 0.55 0.51 0.41 0.39 0.31 0.28 0.27 0.30 0.30 0.27 0.29 0.28 0.27 0.23 0.23 0.22 0.21 0.26 0.34 0.47 0.45 0.49 0.46 0.46 0.48 0.47 0.48 0.51 0.49 0.36
0.00 0.00 0.00 0.00 0.00 0.03 0.09 0.18 0.30 0.37 0.63 0.92 0.98 1.03 0.72 0.73 0.82 0.78 0.69 0.61 0.61 0.61 0.58 0.54 0.46 0.38 0.34 0.37 0.51 0.61 0.60 0.66 0.61 0.66 0.65 0.64 0.65 0.61 0.60 0.77 0.86 0.89 0.98 0.97 0.97 1.11 0.97 0.71 0.51
0.00 0.00 0.00 0.00 0.00 0.01 0.04 0.10 0.14 0.32 0.72 1.11 1.15 1.16 0.99 0.94 0.96 0.92 0.90 0.89 0.82 0.85 0.74 0.60 0.58 0.59 0.62 0.72 0.75 0.81 0.91 1.03 1.12 1.17 1.16 1.22 1.07 0.91 0.86 1.11 1.26 1.24 1.25 1.14 1.42 1.62 1.20 1.11 1.12
0.00 0.00 0.00 0.00 0.00 0.01 0.03 0.10 0.19 0.34 0.77 1.03 0.92 0.80 0.81 1.00 1.14 1.17 1.33 1.35 1.29 1.17 1.15 1.04 0.92 0.91 0.94 0.93 0.88 0.89 0.89 0.99 1.07 1.16 1.26 1.41 1.43 1.31 1.33 1.45 1.33 1.30 1.33 1.51 1.60 1.72 1.54 1.45 1.43
0.00 0.00 0.00 0.00 0.01 0.01 0.05 0.14 0.27 0.39 0.66 0.63 0.53 0.58 0.96 1.19 1.34 1.52 1.65 1.68 1.68 1.77 1.80 1.91 1.61 1.37 1.24 1.07 0.93 0.87 0.85 0.80 0.79 0.88 1.13 1.30 1.41 1.48 1.57 1.41 1.24 1.10 1.38 1.66 1.71 1.56 1.66 1.67 1.76
0.00 0.00 0.01 0.02 0.01 0.02 0.05 0.10 0.33 0.44 0.55 0.60 0.57 0.77 1.22 1.68 1.78 1.86 2.05 2.32 2.39 2.49 2.42 2.38 2.25 1.90 1.55 1.25 1.04 0.93 0.81 0.80 0.82 0.89 0.99 1.16 1.28 1.35 1.40 1.34 1.23 1.19 1.36 1.55 1.59 1.56 1.75 1.82 1.80
0.00 0.03 0.10 0.09 0.05 0.05 0.06 0.19 0.42 0.58 0.59 0.78 0.86 1.04 1.48 1.95 1.97 2.15 2.23 2.51 2.75 2.92 3.00 3.00 2.87 2.48 2.15 1.83 1.43 1.12 0.98 0.91 0.94 0.96 0.90 0.94 1.04 1.06 1.17 1.18 1.16 1.20 1.26 1.31 1.29 1.30 1.50 1.46 1.35
0.01 0.08 0.23 0.18 0.08 0.08 0.13 0.52 0.72 0.64 0.58 0.84 1.07 1.27 1.70 2.16 2.22 2.46 2.61 2.81 3.22 3.49 3.75 3.73 3.41 3.05 2.57 2.10 1.73 1.46 1.31 1.19 1.03 0.93 0.81 0.69 0.74 0.80 0.87 0.85 0.89 0.95 1.00 1.02 0.99 1.02 1.12 1.18 1.26
0.03 0.07 0.19 0.19 0.14 0.11 0.19 0.63 0.67 0.43 0.56 0.82 1.14 1.43 1.66 1.94 2.36 2.81 3.17 3.44 4.01 4.70 5.00 4.64 3.92 3.43 2.77 2.11 1.74 1.61 1.56 1.39 1.19 1.05 0.89 0.72 0.67 0.71 0.76 0.74 0.74 0.72 0.75 0.77 0.73 0.81 0.91 0.97 1.03
0.03 0.06 0.13 0.21 0.16 0.21 0.30 0.40 0.51 0.54 0.71 0.91 1.11 1.25 1.48 1.72 2.12 2.68 3.10 3.53 4.26 5.21 5.65 5.26 4.43 3.58 2.81 2.29 1.93 1.68 1.55 1.35 1.14 1.03 0.88 0.72 0.63 0.62 0.60 0.58 0.55 0.51 0.52 0.56 0.60 0.69 0.78 0.80 0.85
0.03 0.06 0.13 0.21 0.16 0.24 0.32 0.42 0.55 0.69 0.92 0.93 0.96 0.97 1.14 1.47 1.84 2.37 2.88 3.32 3.83 4.37 4.70 4.42 3.59 2.91 2.35 1.86 1.38 1.14 1.04 0.91 0.79 0.75 0.67 0.62 0.57 0.52 0.47 0.41 0.41 0.37 0.37 0.39 0.41 0.48 0.56 0.59 0.67
0.04 0.07 0.13 0.17 0.14 0.14 0.25 0.50 0.63 0.71 0.87 0.80 0.79 0.70 0.80 1.26 1.82 2.46 2.96 3.12 2.99 2.98 3.00 2.42 2.01 1.64 1.29 1.06 0.80 0.62 0.53 0.46 0.42 0.40 0.37 0.34 0.37 0.40 0.39 0.37 0.36 0.35 0.35 0.34 0.36 0.42 0.45 0.47 0.54
0.07 0.09 0.09 0.15 0.16 0.21 0.35 0.65 0.81 0.72 0.68 0.59 0.59 0.66 1.04 1.53 1.91 2.32 2.40 2.27 2.11 1.95 1.75 1.41 1.20 1.11 0.87 0.71 0.52 0.40 0.33 0.30 0.27 0.24 0.23 0.22 0.23 0.26 0.29 0.33 0.36 0.35 0.31 0.30 0.33 0.34 0.36 0.36 0.38
0.07 0.06 0.04 0.04 0.12 0.34 0.50 0.88 0.99 0.85 0.73 0.51 0.53 0.85 1.37 1.66 1.89 1.81 1.39 1.15 1.20 1.21 1.09 1.14 1.13 1.00 0.76 0.62 0.42 0.28 0.21 0.19 0.17 0.16 0.16 0.18 0.17 0.16 0.18 0.24 0.29 0.30 0.31 0.31 0.25 0.26 0.31 0.32 0.28
0.04 0.04 0.03 0.05 0.14 0.38 0.64 1.03 1.17 0.90 0.70 0.46 0.37 0.49 0.86 1.09 0.99 0.74 0.56 0.52 0.65 0.84 0.95 1.15 1.15 0.94 0.71 0.57 0.46 0.40 0.31 0.26 0.21 0.19 0.20 0.20 0.20 0.20 0.17 0.17 0.22 0.27 0.33 0.38 0.35 0.32 0.30 0.29 0.26
0.03 0.04 0.10 0.20 0.37 0.78 0.81 0.90 1.09 0.89 0.66 0.47 0.29 0.33 0.58 0.60 0.42 0.39 0.41 0.47 0.58 0.73 0.75 0.82 0.87 0.92 0.83 0.74 0.59 0.51 0.46 0.41 0.33 0.28 0.26 0.26 0.26 0.29 0.27 0.27 0.30 0.33 0.33 0.34 0.36 0.39 0.38 0.36 0.33
0.03 0.05 0.25 0.59 0.85 0.92 0.64 0.78 1.04 0.65 0.42 0.30 0.18 0.14 0.18 0.20 0.24 0.34 0.38 0.43 0.42 0.47 0.45 0.45 0.49 0.56 0.61 0.63 0.61 0.56 0.53 0.47 0.38 0.31 0.26 0.27 0.26 0.27 0.29 0.29 0.33 0.37 0.37 0.34 0.32 0.33 0.39 0.45 0.45
0.04 0.03 0.10 0.20 0.27 0.40 0.54 0.93 0.96 0.52 0.24 0.12 0.06 0.04 0.05 0.07 0.10 0.13 0.17 0.17 0.18 0.25 0.28 0.27 0.30 0.30 0.28 0.29 0.33 0.35 0.38 0.34 0.30 0.33 0.26 0.26 0.29 0.29 0.27 0.25 0.25 0.28 0.31 0.32 0.30 0.26 0.27 0.34 0.43
0.03 0.03 0.04 0.05 0.08 0.26 0.61 0.83 0.61 0.31 0.16 0.09 0.07 0.04 0.03 0.03 0.03 0.05 0.07 0.09 0.11 0.13 0.15 0.18 0.20 0.20 0.17 0.16 0.17 0.16 0.19 0.21 0.21 0.21 0.18 0.18 0.25 0.26 0.24 0.22 0.20 0.20 0.23 0.26 0.28 0.26 0.27 0.27 0.29
0.04 0.03 0.03 0.05 0.09 0.20 0.46 0.85 0.84 0.44 0.22 0.11 0.07 0.04 0.03 0.03 0.02 0.02 0.04 0.04 0.06 0.06 0.10 0.13 0.13 0.14 0.15 0.13 0.11 0.09 0.11 0.13 0.14 0.14 0.15 0.16 0.19 0.22 0.20 0.17 0.14 0.14 0.15 0.17 0.22 0.25 0.28 0.33 0.36
0.05 0.04 0.05 0.06 0.07 0.14 0.33 0.50 0.43 0.34 0.22 0.14 0.07 0.03 0.01 0.02 0.02 0.02 0.02 0.02 0.02 0.04 0.06 0.07 0.08 0.10 0.11 0.10 0.09 0.07 0.07 0.07 0.10 0.14 0.18 0.20 0.21 0.21 0.20 0.18 0.15 0.12 0.12 0.15 0.18 0.21 0.27 0.33 0.42
0.07 0.07 0.07 0.08 0.08 0.10 0.17 0.24 0.23 0.22 0.21 0.21 0.11 0.03 0.02 0.03 0.04 0.04 0.03 0.03 0.02 0.03 0.04 0.05 0.06 0.06 0.06 0.07 0.07 0.06 0.07 0.08 0.08 0.09 0.12 0.18 0.23 0.23 0.22 0.20 0.17 0.13 0.10 0.12 0.14 0.16 0.21 0.29 0.39

GEFSSGP_prec_meanprecacc_096.txt.gz
Total_Precipitation_Accumulation
0.00 0.00 0.05 0.16 0.45 0.73 0.86 0.54 0.42 0.33 0.32 0.35 0.42 0.40 0.35 0.39 0.41 0.63 0.33 0.10 0.03 0.01 0.01 0.08 0.16 0.14 0.12 0.10 0.11 0.12 0.13 0.13 0.12 0.12 0.11 0.09 0.06 0.04 0.03 0.03 0.03 0.04 0.04 0.04 0.05 0.06 0.05 0.05 0.06
0.00 0.01 0.06 0.20 0.44 0.79 0.83 0.44 0.33 0.31 0.28 0.38 0.44 0.35 0.27 0.28 0.23 0.18 0.16 0.13 0.04 0.01 0.01 0.03 0.11 0.13 0.11 0.11 0.12 0.12 0.11 0.10 0.10 0.10 0.09 0.07 0.05 0.04 0.04 0.04 0.04 0.04 0.05 0.05 0.05 0.06 0.05 0.03 0.05
0.00 0.02 0.06 0.15 0.27 0.46 0.50 0.30 0.27 0.33 0.42 0.60 0.68 0.44 0.33 0.34 0.25 0.13 0.09 0.07 0.05 0.03 0.02 0.04 0.09 0.11 0.11 0.10 0.11 0.10 0.09 0.08 0.08 0.08 0.07 0.06 0.05 0.05 0.05 0.04 0.05 0.06 0.06 0.07 0.07 0.07 0.06 0.05 0.05
0.00 0.03 0.07 0.10 0.13 0.19 0.27 0.19 0.27 0.37 0.65 0.77 0.79 0.58 0.42 0.35 0.25 0.17 0.08 0.05 0.05 0.04 0.03 0.06 0.09 0.11 0.11 0.10 0.11 0.10 0.09 0.08 0.07 0.07 0.07 0.05 0.04 0.05 0.05 0.06 0.06 0.07 0.08 0.09 0.09 0.09 0.08 0.08 0.08
0.00 0.03 0.05 0.05 0.06 0.10 0.12 0.11 0.18 0.30 0.53 0.73 0.73 0.70 0.61 0.49 0.37 0.21 0.09 0.05 0.03 0.03 0.04 0.06 0.12 0.13 0.13 0.12 0.12 0.12 0.10 0.09 0.08 0.08 0.06 0.05 0.05 0.06 0.07 0.08 0.09 0.09 0.10 0.11 0.11 0.11 0.11 0.13 0.13
0.00 0.02 0.02 0.02 0.04 0.07 0.08 0.10 0.20 0.36 0.56 0.72 0.83 0.83 0.67 0.45 0.31 0.20 0.10 0.07 0.07 0.04 0.04 0.07 0.12 0.15 0.16 0.15 0.15 0.14 0.12 0.11 0.10 0.09 0.08 0.07 0.08 0.08 0.09 0.11 0.12 0.12 0.12 0.11 0.12 0.11 0.11 0.13 0.15
0.01 0.01 0.01 0.01 0.02 0.04 0.07 0.13 0.24 0.38 0.49 0.77 1.01 0.93 0.65 0.52 0.38 0.28 0.23 0.16 0.22 0.14 0.08 0.09 0.10 0.13 0.17 0.19 0.19 0.16 0.14 0.13 0.12 0.10 0.09 0.08 0.08 0.08 0.10 0.12 0.15 0.15 0.16 0.14 0.14 0.14 0.15 0.17 0.18
0.00 0.00 0.00 0.00 0.01 0.03 0.07 0.14 0.25 0.37 0.64 0.89 0.86 0.80 0.78 0.58 0.56 0.53 0.48 0.37 0.39 0.31 0.21 0.16 0.17 0.22 0.22 0.21 0.20 0.20 0.18 0.15 0.12 0.11 0.09 0.08 0.09 0.12 0.17 0.17 0.19 0.22 0.25 0.24 0.23 0.25 0.28 0.29 0.27
0.00 0.00 0.00 0.00 0.00 0.03 0.10 0.19 0.26 0.32 0.52 0.67 0.71 0.65 0.52 0.52 0.68 0.71 0.65 0.59 0.56 0.48 0.47 0.37 0.34 0.33 0.35 0.33 0.29 0.30 0.29 0.28 0.24 0.25 0.24 0.22 0.27 0.36 0.48 0.46 0.50 0.47 0.46 0.49 0.48 0.49 0.52 0.51 0.39
0.00 0.00 0.00 0.00 0.00 0.03 0.09 0.18 0.30 0.37 0.63 0.92 0.98 1.03 0.73 0.77 0.89 0.87 0.74 0.64 0.66 0.71 0.71 0.66 0.57 0.45 0.40 0.40 0.55 0.65 0.64 0.68 0.64 0.68 0.68 0.66 0.67 0.63 0.61 0.77 0.87 0.90 0.99 0.98 0.98 1.12 0.98 0.73 0.54
0.00 0.00 0.00 0.00 0.00 0.01 0.04 0.10 0.14 0.32 0.72 1.11 1.15 1.16 0.99 0.96 1.02 1.04 1.00 0.99 0.92 0.98 0.90 0.72 0.71 0.67 0.68 0.76 0.79 0.85 0.95 1.06 1.15 1.20 1.20 1.25 1.09 0.92 0.87 1.13 1.29 1.27 1.28 1.17 1.44 1.63 1.22 1.13 1.16
0.00 0.00 0.00 0.00 0.00 0.01 0.03 0.10 0.19 0.34 0.77 1.03 0.92 0.80 0.82 1.01 1.15 1.23 1.47 1.53 1.45 1.34 1.35 1.23 1.05 1.01 1.02 0.99 0.92 0.91 0.91 1.01 1.09 1.19 1.28 1.43 1.45 1.34 1.36 1.49 1.38 1.35 1.38 1.56 1.64 1.75 1.57 1.48 1.45
0.00 0.00 0.00 0.00 0.01 0.01 0.05 0.14 0.27 0.39 0.66 0.63 0.53 0.58 0.96 1.21 1.36 1.54 1.73 1.83 1.83 1.94 1.96 2.14 1.79 1.49 1.35 1.17 1.00 0.91 0.87 0.82 0.82 0.91 1.15 1.34 1.47 1.54 1.63 1.46 1.30 1.16 1.43 1.72 1.75 1.59 1.70 1.72 1.79
0.00 0.00 0.01 0.02 0.01 0.02 0.05 0.10 0.33 0.44 0.55 0.60 0.57 0.77 1.23 1.70 1.80 1.89 2.14 2.42 2.50 2.66 2.59 2.54 2.45 2.04 1.67 1.37 1.13 0.98 0.83 0.84 0.86 0.92 1.02 1.21 1.34 1.42 1.47 1.40 1.29 1.23 1.39 1.59 1.62 1.60 1.79 1.88 1.85
0.00 0.03 0.10 0.09 0.05 0.05 0.06 0.19 0.42 0.58 0.59 0.78 0.86 1.05 1.51 1.98 2.00 2.20 2.31 2.61 2.84 3.08 3.16 3.11 2.99 2.60 2.26 1.95 1.54 1.20 1.03 0.95 0.97 0.99 0.93 0.98 1.09 1.11 1.22 1.23 1.19 1.23 1.28 1.34 1.32 1.33 1.53 1.50 1.40
0.01 0.08 0.23 0.18 0.08 0.08 0.13 0.52 0.72 0.64 0.58 0.84 1.07 1.29 1.71 2.20 2.26 2.52 2.70 2.91 3.33 3.66 3.93 3.87 3.53 3.18 2.68 2.22 1.86 1.58 1.40 1.25 1.07 0.96 0.83 0.72 0.78 0.85 0.92 0.89 0.92 0.97 1.03 1.04 1.01 1.03 1.14 1.22 1.31
0.03 0.07 0.19 0.19 0.14 0.11 0.19 0.63 0.67 0.43 0.56 0.82 1.14 1.44 1.68 1.98 2.40 2.86 3.25 3.55 4.12 4.86 5.21 4.84 4.07 3.56 2.89 2.24 1.89 1.74 1.67 1.48 1.24 1.08 0.92 0.76 0.71 0.74 0.81 0.78 0.77 0.74 0.77 0.78 0.75 0.82 0.93 1.00 1.07
0.03 0.06 0.13 0.21 0.16 0.21 0.30 0.40 0.51 0.54 0.71 0.91 1.11 1.27 1.51 1.75 2.16 2.74 3.21 3.66 4.38 5.35 5.85 5.52 4.67 3.76 2.98 2.46 2.10 1.81 1.66 1.44 1.21 1.08 0.94 0.77 0.66 0.65 0.63 0.60 0.56 0.52 0.53 0.58 0.62 0.71 0.80 0.82 0.87
0.03 0.06 0.13 0.21 0.16 0.24 0.32 0.42 0.55 0.70 0.92 0.93 0.96 0.98 1.16 1.49 1.87 2.42 2.97 3.42 3.95 4.51 4.88 4.68 3.87 3.13 2.49 1.99 1.51 1.26 1.14 0.99 0.86 0.81 0.74 0.67 0.60 0.54 0.49 0.42 0.42 0.38 0.38 0.41 0.43 0.50 0.58 0.61 0.68
0.04 0.07 0.13 0.17 0.14 0.14 0.25 0.50 0.63 0.71 0.87 0.81 0.80 0.71 0.81 1.28 1.84 2.49 3.01 3.19 3.08 3.12 3.13 2.60 2.23 1.84 1.43 1.19 0.93 0.75 0.64 0.55 0.50 0.46 0.42 0.38 0.40 0.42 0.40 0.39 0.37 0.36 0.35 0.34 0.37 0.43 0.46 0.48 0.55
0.07 0.09 0.09 0.15 0.16 0.21 0.35 0.65 0.81 0.72 0.68 0.59 0.59 0.67 1.05 1.54 1.92 2.35 2.43 2.32 2.21 2.10 1.88 1.56 1.37 1.27 1.02 0.86 0.66 0.50 0.42 0.38 0.33 0.29 0.27 0.26 0.25 0.27 0.30 0.33 0.36 0.35 0.32 0.30 0.33 0.35 0.36 0.36 0.39
0.07 0.06 0.04 0.04 0.12 0.34 0.50 0.88 0.99 0.85 0.73 0.51 0.53 0.85 1.37 1.66 1.90 1.83 1.42 1.20 1.30 1.32 1.20 1.27 1.26 1.12 0.90 0.78 0.55 0.36 0.29 0.26 0.23 0.22 0.21 0.21 0.18 0.17 0.19 0.24 0.30 0.31 0.31 0.31 0.25 0.26 0.31 0.32 0.28
0.04 0.04 0.03 0.05 0.14 0.38 0.64 1.03 1.17 0.90 0.70 0.46 0.37 0.49 0.86 1.09 0.99 0.75 0.60 0.59 0.77 0.94 1.04 1.24 1.26 1.05 0.84 0.71 0.61 0.53 0.43 0.37 0.30 0.25 0.24 0.23 0.21 0.20 0.18 0.18 0.22 0.27 0.34 0.38 0.35 0.33 0.31 0.30 0.26
0.03 0.04 0.10 0.20 0.37 0.78 0.81 0.90 1.09 0.89 0.66 0.47 0.29 0.34 0.58 0.60 0.42 0.40 0.43 0.53 0.67 0.81 0.82 0.90 0.97 1.03 0.95 0.86 0.74 0.69 0.60 0.51 0.41 0.33 0.29 0.28 0.28 0.29 0.28 0.27 0.30 0.33 0.33 0.34 0.37 0.40 0.38 0.36 0.33
0.03 0.05 0.25 0.59 0.85 0.92 0.64 0.78 1.04 0.65 0.42 0.30 0.18 0.15 0.18 0.21 0.24 0.35 0.39 0.46 0.47 0.54 0.51 0.53 0.57 0.66 0.71 0.74 0.72 0.71 0.65 0.56 0.46 0.36 0.29 0.30 0.27 0.27 0.29 0.29 0.34 0.37 0.37 0.34 0.32 0.34 0.39 0.45 0.45
0.04 0.03 0.10 0.20 0.27 0.40 0.54 0.93 0.96 0.52 0.24 0.12 0.06 0.05 0.05 0.07 0.10 0.14 0.18 0.20 0.22 0.31 0.34 0.34 0.37 0.38 0.37 0.37 0.40 0.44 0.46 0.41 0.37 0.37 0.29 0.28 0.30 0.30 0.27 0.25 0.25 0.28 0.31 0.32 0.30 0.26 0.28 0.34 0.43
0.03 0.03 0.04 0.05 0.08 0.26 0.61 0.83 0.61 0.31 0.16 0.09 0.07 0.04 0.03 0.03 0.03 0.05 0.08 0.11 0.14 0.16 0.21 0.23 0.24 0.25 0.24 0.24 0.24 0.22 0.25 0.28 0.26 0.25 0.22 0.20 0.26 0.27 0.25 0.22 0.20 0.20 0.23 0.26 0.28 0.26 0.27 0.27 0.29
0.04 0.03 0.03 0.05 0.10 0.20 0.46 0.85 0.84 0.44 0.22 0.11 0.07 0.04 0.03 0.03 0.02 0.03 0.05 0.07 0.09 0.09 0.13 0.17 0.17 0.18 0.20 0.20 0.19 0.14 0.16 0.20 0.20 0.18 0.19 0.20 0.21 0.22 0.20 0.17 0.15 0.14 0.15 0.17 0.22 0.25 0.28 0.33 0.36
0.05 0.04 0.05 0.06 0.07 0.14 0.33 0.50 0.43 0.34 0.22 0.14 0.07 0.03 0.01 0.02 0.02 0.02 0.03 0.06 0.05 0.06 0.09 0.11 0.12 0.13 0.15 0.16 0.17 0.15 0.14 0.14 0.16 0.19 0.22 0.23 0.23 0.23 0.21 0.19 0.16 0.13 0.13 0.15 0.19 0.22 0.27 0.34 0.42
0.07 0.07 0.07 0.08 0.08 0.10 0.17 0.24 0.23 0.22 0.21 0.21 0.11 0.03 0.02 0.04 0.04 0.04 0.05 0.07 0.05 0.05 0.07 0.09 0.09 0.09 0.10 0.13 0.15 0.14 0.15 0.15 0.15 0.15 0.17 0.22 0.27 0.27 0.25 0.23 0.20 0.15 0.11 0.13 0.16 0.17 0.21 0.30 0.40

GEFSSGP_prec_meanprecacc_102.txt.gz
Total_Precipitation_Accumulation
0.00 0.00 0.05 0.17 0.54 0.82 0.88 0.54 0.42 0.34 0.33 0.36 0.42 0.41 0.36 0.40 0.45 0.75 0.39 0.11 0.03 0.01 0.01 0.08 0.16 0.14 0.12 0.11 0.12 0.13 0.15 0.15 0.14 0.13 0.12 0.10 0.07 0.06 0.04 0.04 0.04 0.05 0.05 0.05 0.06 0.08 0.08 0.08 0.09
0.00 0.01 0.06 0.24 0.54 0.83 0.84 0.44 0.33 0.31 0.28 0.39 0.44 0.35 0.28 0.29 0.23 0.19 0.18 0.14 0.04 0.01 0.01 0.03 0.11 0.13 0.11 0.11 0.12 0.12 0.12 0.11 0.11 0.10 0.10 0.08 0.06 0.06 0.05 0.05 0.05 0.06 0.06 0.06 0.07 0.08 0.07 0.06 0.07
0.00 0.02 0.07 0.20 0.31 0.46 0.50 0.30 0.27 0.33 0.42 0.60 0.68 0.44 0.34 0.38 0.26 0.13 0.10 0.07 0.05 0.03 0.02 0.04 0.09 0.11 0.11 0.11 0.11 0.11 0.10 0.09 0.09 0.09 0.08 0.06 0.06 0.06 0.06 0.06 0.06 0.07 0.08 0.09 0.09 0.09 0.09 0.08 0.07
0.00 0.04 0.09 0.11 0.13 0.19 0.27 0.19 0.27 0.37 0.65 0.77 0.79 0.58 0.42 0.36 0.25 0.17 0.08 0.05 0.05 0.04 0.03 0.06 0.09 0.11 0.11 0.11 0.11 0.10 0.09 0.08 0.08 0.08 0.07 0.05 0.05 0.06 0.07 0.07 0.07 0.09 0.10 0.11 0.11 0.11 0.11 0.11 0.10
0.00 0.04 0.12 0.09 0.06 0.10 0.12 0.11 0.18 0.30 0.53 0.73 0.73 0.71 0.62 0.49 0.37 0.21 0.09 0.05 0.04 0.03 0.04 0.06 0.12 0.13 0.13 0.13 0.13 0.12 0.11 0.09 0.09 0.09 0.07 0.06 0.06 0.07 0.08 0.09 0.10 0.10 0.13 0.13 0.13 0.13 0.13 0.15 0.15
0.00 0.02 0.05 0.03 0.04 0.07 0.08 0.10 0.20 0.36 0.56 0.72 0.83 0.83 0.69 0.46 0.31 0.20 0.11 0.07 0.08 0.04 0.04 0.07 0.12 0.15 0.16 0.16 0.16 0.15 0.13 0.11 0.11 0.10 0.09 0.09 0.09 0.08 0.10 0.12 0.13 0.13 0.14 0.13 0.13 0.12 0.13 0.15 0.17
0.01 0.01 0.01 0.02 0.02 0.04 0.07 0.13 0.24 0.38 0.49 0.77 1.01 0.94 0.67 0.57 0.40 0.28 0.23 0.16 0.23 0.14 0.08 0.09 0.10 0.14 0.17 0.20 0.19 0.17 0.15 0.14 0.13 0.11 0.10 0.09 0.09 0.09 0.10 0.13 0.16 0.16 0.17 0.15 0.15 0.15 0.16 0.18 0.19
0.00 0.00 0.00 0.01 0.01 0.03 0.07 0.14 0.25 0.37 0.64 0.89 0.86 0.83 0.86 0.67 0.58 0.53 0.48 0.39 0.40 0.32 0.23 0.17 0.17 0.24 0.23 0.22 0.20 0.21 0.19 0.16 0.13 0.12 0.10 0.10 0.10 0.13 0.17 0.18 0.20 0.23 0.25 0.25 0.24 0.26 0.28 0.29 0.28
0.00 0.00 0.01 0.00 0.00 0.03 0.10 0.19 0.26 0.32 0.52 0.68 0.72 0.67 0.55 0.55 0.68 0.72 0.66 0.61 0.61 0.52 0.52 0.45 0.37 0.35 0.38 0.36 0.29 0.31 0.31 0.29 0.25 0.26 0.24 0.24 0.30 0.38 0.51 0.47 0.51 0.47 0.47 0.50 0.48 0.50 0.53 0.51 0.40
0.00 0.00 0.00 0.00 0.00 0.03 0.09 0.18 0.30 0.37 0.63 0.95 1.01 1.07 0.75 0.77 0.90 0.89 0.77 0.70 0.73 0.77 0.76 0.77 0.64 0.48 0.43 0.44 0.58 0.69 0.67 0.70 0.66 0.71 0.69 0.71 0.73 0.71 0.66 0.79 0.87 0.91 0.99 0.99 0.99 1.13 0.99 0.75 0.57
0.00 0.00 0.00 0.00 0.00 0.01 0.04 0.10 0.14 0.32 0.73 1.14 1.21 1.20 1.00 0.97 1.04 1.08 1.05 1.09 1.08 1.10 0.99 0.82 0.79 0.73 0.72 0.82 0.85 0.91 1.02 1.11 1.20 1.25 1.23 1.31 1.14 0.97 0.92 1.17 1.31 1.29 1.30 1.20 1.46 1.65 1.25 1.18 1.22
0.00 0.00 0.00 0.00 0.00 0.01 0.03 0.10 0.19 0.34 0.77 1.04 0.94 0.82 0.82 1.03 1.18 1.28 1.55 1.67 1.61 1.48 1.45 1.32 1.15 1.12 1.11 1.06 0.99 0.97 0.97 1.06 1.16 1.25 1.32 1.49 1.52 1.41 1.44 1.58 1.47 1.44 1.46 1.63 1.68 1.79 1.60 1.51 1.47
0.00 0.00 0.00 0.00 0.01 0.01 0.05 0.14 0.27 0.39 0.66 0.63 0.53 0.59 0.97 1.23 1.39 1.59 1.78 1.90 1.92 2.04 2.10 2.29 1.92 1.63 1.49 1.29 1.10 0.98 0.95 0.87 0.87 0.97 1.19 1.39 1.52 1.60 1.71 1.55 1.39 1.23 1.50 1.77 1.78 1.61 1.73 1.75 1.82
0.00 0.00 0.01 0.02 0.01 0.02 0.05 0.10 0.33 0.45 0.55 0.60 0.58 0.78 1.24 1.72 1.84 1.95 2.20 2.50 2.58 2.78 2.73 2.72 2.61 2.20 1.81 1.49 1.24 1.08 0.90 0.91 0.93 0.97 1.06 1.24 1.39 1.48 1.53 1.46 1.35 1.28 1.45 1.64 1.66 1.62 1.82 1.91 1.89
0.00 0.03 0.10 0.09 0.05 0.05 0.06 0.19 0.42 0.58 0.59 0.78 0.86 1.06 1.52 2.00 2.02 2.24 2.39 2.72 3.00 3.26 3.32 3.27 3.14 2.78 2.41 2.10 1.65 1.30 1.10 0.99 1.03 1.04 0.97 1.01 1.12 1.16 1.27 1.29 1.25 1.27 1.33 1.37 1.34 1.36 1.55 1.53 1.43
0.01 0.08 0.23 0.18 0.08 0.08 0.13 0.52 0.72 0.64 0.58 0.85 1.10 1.33 1.73 2.21 2.28 2.55 2.78 3.07 3.55 3.91 4.10 4.01 3.65 3.35 2.84 2.38 2.01 1.69 1.48 1.30 1.12 1.01 0.88 0.75 0.81 0.87 0.96 0.94 0.97 1.01 1.05 1.06 1.04 1.06 1.16 1.25 1.34
0.03 0.08 0.19 0.19 0.14 0.11 0.19 0.63 0.67 0.43 0.56 0.82 1.15 1.45 1.69 2.00 2.43 2.90 3.31 3.66 4.29 5.07 5.37 4.98 4.25 3.72 3.07 2.42 2.07 1.87 1.78 1.58 1.32 1.16 0.98 0.81 0.74 0.77 0.82 0.81 0.82 0.77 0.78 0.80 0.76 0.84 0.96 1.05 1.11
0.03 0.06 0.13 0.21 0.16 0.21 0.30 0.40 0.51 0.54 0.71 0.91 1.11 1.27 1.52 1.78 2.19 2.76 3.25 3.73 4.48 5.50 5.98 5.66 4.88 3.95 3.16 2.66 2.32 2.03 1.83 1.56 1.28 1.16 1.02 0.83 0.72 0.69 0.66 0.63 0.59 0.53 0.55 0.61 0.66 0.75 0.83 0.85 0.91
0.03 0.06 0.13 0.21 0.16 0.24 0.32 0.42 0.55 0.70 0.92 0.93 0.96 0.99 1.17 1.51 1.88 2.44 2.99 3.47 4.04 4.65 5.03 4.82 4.05 3.33 2.68 2.18 1.69 1.42 1.28 1.10 0.94 0.88 0.80 0.73 0.65 0.59 0.53 0.45 0.45 0.40 0.40 0.43 0.45 0.53 0.61 0.64 0.71
0.04 0.07 0.13 0.17 0.14 0.14 0.25 0.50 0.63 0.72 0.87 0.81 0.81 0.71 0.81 1.28 1.86 2.53 3.06 3.24 3.16 3.24 3.28 2.76 2.38 2.02 1.61 1.39 1.13 0.90 0.79 0.65 0.56 0.53 0.50 0.43 0.44 0.46 0.42 0.41 0.39 0.36 0.37 0.36 0.39 0.45 0.49 0.52 0.57
0.07 0.09 0.09 0.15 0.16 0.21 0.35 0.66 0.82 0.73 0.69 0.59 0.59 0.67 1.05 1.55 1.94 2.39 2.51 2.41 2.28 2.21 2.01 1.67 1.47 1.44 1.23 1.08 0.87 0.68 0.60 0.51 0.41 0.37 0.36 0.33 0.30 0.31 0.33 0.35 0.37 0.36 0.32 0.32 0.34 0.35 0.38 0.40 0.42
0.07 0.06 0.04 0.04 0.12 0.34 0.50 0.88 1.00 0.86 0.75 0.52 0.54 0.85 1.37 1.67 1.92 1.86 1.46 1.27 1.37 1.41 1.33 1.39 1.36 1.26 1.08 0.98 0.75 0.53 0.42 0.37 0.31 0.30 0.29 0.29 0.25 0.22 0.22 0.25 0.30 0.31 0.32 0.32 0.25 0.26 0.32 0.34 0.31
0.04 0.04 0.03 0.05 0.15 0.39 0.65 1.04 1.19 0.93 0.72 0.47 0.38 0.50 0.86 1.09 1.00 0.76 0.62 0.64 0.83 1.01 1.15 1.38 1.39 1.18 0.98 0.89 0.81 0.75 0.61 0.53 0.41 0.34 0.32 0.29 0.27 0.24 0.20 0.19 0.23 0.28 0.34 0.39 0.35 0.33 0.31 0.30 0.27
0.03 0.04 0.10 0.20 0.37 0.81 0.85 0.92 1.12 0.90 0.67 0.47 0.29 0.34 0.58 0.60 0.42 0.40 0.45 0.58 0.74 0.88 0.94 1.04 1.10 1.16 1.09 1.01 0.89 0.88 0.79 0.69 0.55 0.44 0.37 0.35 0.33 0.33 0.30 0.28 0.31 0.35 0.34 0.35 0.37 0.40 0.39 0.37 0.34
0.03 0.05 0.25 0.60 0.89 0.99 0.69 0.81 1.06 0.65 0.42 0.30 0.18 0.15 0.18 0.21 0.24 0.35 0.41 0.50 0.54 0.63 0.64 0.67 0.68 0.78 0.84 0.87 0.87 0.87 0.81 0.72 0.61 0.48 0.38 0.37 0.32 0.30 0.31 0.30 0.36 0.39 0.38 0.35 0.33 0.34 0.39 0.46 0.46
0.04 0.03 0.10 0.21 0.31 0.48 0.61 0.97 0.98 0.53 0.24 0.12 0.06 0.05 0.05 0.07 0.10 0.14 0.19 0.23 0.28 0.39 0.45 0.46 0.48 0.49 0.47 0.47 0.52 0.58 0.58 0.54 0.51 0.49 0.37 0.34 0.35 0.33 0.30 0.27 0.27 0.29 0.32 0.33 0.30 0.26 0.28 0.35 0.44
0.03 0.03 0.04 0.05 0.08 0.28 0.65 0.88 0.65 0.32 0.16 0.09 0.07 0.04 0.03 0.03 0.03 0.05 0.09 0.13 0.18 0.22 0.28 0.34 0.34 0.34 0.33 0.34 0.35 0.34 0.37 0.40 0.37 0.34 0.29 0.25 0.31 0.30 0.27 0.24 0.22 0.21 0.24 0.27 0.28 0.27 0.27 0.28 0.29
0.04 0.03 0.03 0.05 0.10 0.21 0.49 0.90 0.91 0.49 0.23 0.12 0.08 0.04 0.03 0.04 0.02 0.03 0.05 0.09 0.12 0.14 0.20 0.25 0.25 0.26 0.29 0.30 0.30 0.25 0.28 0.31 0.30 0.25 0.24 0.24 0.25 0.26 0.24 0.20 0.18 0.16 0.16 0.19 0.24 0.26 0.29 0.34 0.36
0.05 0.04 0.05 0.06 0.07 0.14 0.35 0.56 0.50 0.40 0.25 0.15 0.08 0.03 0.02 0.02 0.03 0.02 0.04 0.07 0.08 0.11 0.15 0.18 0.20 0.20 0.22 0.25 0.26 0.25 0.25 0.25 0.25 0.25 0.27 0.27 0.27 0.26 0.24 0.22 0.19 0.16 0.15 0.18 0.22 0.24 0.29 0.35 0.44
0.07 0.07 0.07 0.08 0.08 0.10 0.18 0.27 0.27 0.25 0.26 0.23 0.11 0.03 0.02 0.04 0.04 0.04 0.05 0.08 0.07 0.09 0.12 0.15 0.14 0.15 0.16 0.19 0.23 0.23 0.24 0.26 0.25 0.22 0.22 0.27 0.32 0.32 0.30 0.27 0.25 0.18 0.15 0.18 0.20 0.20 0.24 0.34 0.43

GEFSSGP_prec_meanprecacc_108.txt.gz
Total_Precipitation_Accumulation
0.00 0.01 0.08 0.24 0.74 0.93 0.92 0.55 0.42 0.34 0.33 0.36 0.43 0.41 0.39 0.43 0.48 0.79 0.43 0.14 0.05 0.01 0.01 0.08 0.16 0.14 0.12 0.11 0.12 0.13 0.15 0.15 0.15 0.13 0.13 0.10 0.07 0.06 0.05 0.05 0.05 0.05 0.06 0.05 0.07 0.10 0.09 0.10 0.11
0.01 0.03 0.12 0.41 0.76 0.90 0.85 0.44 0.33 0.31 0.28 0.39 0.45 0.36 0.31 0.33 0.25 0.20 0.19 0.16 0.06 0.01 0.01 0.03 0.11 0.13 0.11 0.11 0.12 0.12 0.13 0.11 0.11 0.11 0.10 0.08 0.06 0.06 0.06 0.05 0.05 0.07 0.07 0.07 0.08 0.10 0.08 0.07 0.09
0.01 0.05 0.19 0.43 0.46 0.51 0.51 0.30 0.27 0.33 0.42 0.60 0.69 0.46 0.37 0.43 0.28 0.15 0.12 0.10 0.07 0.03 0.02 0.04 0.09 0.11 0.11 0.11 0.11 0.11 0.10 0.09 0.09 0.09 0.09 0.07 0.06 0.06 0.06 0.06 0.07 0.08 0.08 0.09 0.10 0.12 0.11 0.09 0.08
0.02 0.09 0.22 0.29 0.19 0.20 0.27 0.20 0.27 0.37 0.65 0.77 0.79 0.60 0.47 0.42 0.29 0.20 0.10 0.08 0.07 0.04 0.03 0.06 0.09 0.11 0.11 0.11 0.11 0.10 0.09 0.09 0.08 0.08 0.08 0.06 0.06 0.06 0.07 0.08 0.08 0.09 0.11 0.12 0.12 0.13 0.13 0.12 0.11
0.02 0.11 0.21 0.16 0.08 0.10 0.13 0.11 0.18 0.30 0.54 0.74 0.75 0.75 0.68 0.53 0.42 0.28 0.15 0.08 0.06 0.04 0.04 0.06 0.12 0.14 0.14 0.13 0.13 0.12 0.11 0.10 0.09 0.09 0.08 0.07 0.07 0.08 0.08 0.10 0.11 0.11 0.14 0.14 0.14 0.14 0.14 0.16 0.16
0.02 0.08 0.15 0.10 0.06 0.07 0.09 0.10 0.20 0.36 0.56 0.73 0.86 0.90 0.75 0.52 0.41 0.29 0.19 0.17 0.18 0.06 0.04 0.07 0.13 0.15 0.16 0.16 0.16 0.15 0.13 0.12 0.11 0.10 0.09 0.09 0.09 0.09 0.10 0.12 0.14 0.13 0.15 0.14 0.14 0.13 0.14 0.16 0.18
0.02 0.03 0.07 0.07 0.04 0.05 0.08 0.13 0.24 0.38 0.49 0.78 1.03 1.02 0.74 0.65 0.52 0.35 0.34 0.29 0.46 0.23 0.10 0.09 0.10 0.14 0.17 0.20 0.19 0.17 0.15 0.14 0.13 0.12 0.10 0.10 0.09 0.09 0.10 0.14 0.16 0.17 0.18 0.16 0.15 0.16 0.17 0.19 0.20
0.00 0.01 0.02 0.02 0.01 0.03 0.07 0.14 0.25 0.37 0.64 0.90 0.89 0.93 0.94 0.71 0.62 0.57 0.58 0.51 0.56 0.41 0.26 0.19 0.19 0.24 0.23 0.22 0.21 0.21 0.19 0.16 0.14 0.12 0.10 0.10 0.10 0.14 0.18 0.19 0.20 0.23 0.26 0.26 0.25 0.27 0.29 0.30 0.29
0.00 0.01 0.02 0.01 0.01 0.03 0.10 0.19 0.26 0.32 0.52 0.69 0.76 0.73 0.58 0.57 0.70 0.76 0.74 0.71 0.73 0.65 0.57 0.48 0.40 0.36 0.38 0.36 0.30 0.32 0.31 0.30 0.25 0.26 0.25 0.25 0.31 0.39 0.51 0.47 0.51 0.47 0.47 0.50 0.49 0.50 0.53 0.53 0.42
0.00 0.00 0.01 0.00 0.00 0.03 0.09 0.18 0.30 0.37 0.63 0.97 1.04 1.09 0.77 0.78 0.92 0.92 0.88 0.77 0.86 0.98 0.86 0.83 0.70 0.52 0.45 0.45 0.58 0.70 0.68 0.70 0.66 0.71 0.69 0.71 0.74 0.73 0.67 0.80 0.88 0.92 1.00 0.99 1.00 1.14 1.01 0.78 0.60
0.00 0.00 0.00 0.00 0.00 0.01 0.04 0.10 0.14 0.32 0.73 1.16 1.22 1.21 1.02 0.99 1.07 1.11 1.12 1.16 1.20 1.35 1.14 0.90 0.85 0.78 0.76 0.84 0.86 0.92 1.03 1.12 1.21 1.26 1.24 1.32 1.16 0.99 0.94 1.17 1.32 1.30 1.30 1.21 1.47 1.67 1.28 1.22 1.29
0.00 0.00 0.00 0.00 0.00 0.01 0.03 0.10 0.19 0.34 0.77 1.04 0.95 0.83 0.85 1.06 1.22 1.32 1.60 1.76 1.77 1.75 1.65 1.51 1.27 1.19 1.18 1.10 1.01 0.98 0.97 1.07 1.16 1.26 1.34 1.50 1.54 1.43 1.45 1.58 1.47 1.45 1.47 1.64 1.69 1.82 1.65 1.58 1.56
0.00 0.00 0.00 0.00 0.01 0.01 0.05 0.14 0.27 0.39 0.67 0.64 0.55 0.62 1.00 1.26 1.44 1.66 1.85 2.00 2.08 2.31 2.26 2.47 2.10 1.78 1.60 1.37 1.16 1.02 0.97 0.88 0.88 0.98 1.21 1.40 1.53 1.62 1.72 1.56 1.41 1.25 1.52 1.78 1.80 1.64 1.77 1.80 1.89
0.00 0.00 0.01 0.02 0.01 0.02 0.05 0.10 0.33 0.45 0.56 0.62 0.59 0.83 1.30 1.77 1.91 2.08 2.31 2.61 2.76 3.06 2.98 2.95 2.86 2.35 1.93 1.61 1.34 1.14 0.94 0.94 0.95 0.98 1.07 1.26 1.40 1.48 1.54 1.48 1.37 1.30 1.46 1.65 1.67 1.64 1.84 1.94 1.94
0.00 0.03 0.10 0.09 0.05 0.05 0.06 0.19 0.43 0.59 0.60 0.79 0.87 1.08 1.57 2.09 2.13 2.38 2.54 2.87 3.17 3.52 3.66 3.63 3.46 2.97 2.57 2.26 1.82 1.38 1.16 1.04 1.07 1.07 0.99 1.03 1.13 1.17 1.28 1.30 1.25 1.28 1.34 1.38 1.35 1.38 1.57 1.55 1.48
0.01 0.08 0.23 0.18 0.09 0.08 0.13 0.52 0.72 0.65 0.59 0.86 1.11 1.34 1.76 2.27 2.37 2.64 2.94 3.28 3.72 4.10 4.37 4.35 3.97 3.56 3.01 2.54 2.18 1.79 1.55 1.36 1.19 1.07 0.91 0.78 0.83 0.89 0.98 0.95 0.97 1.02 1.06 1.06 1.04 1.06 1.18 1.27 1.38
0.03 0.08 0.19 0.19 0.14 0.12 0.19 0.63 0.67 0.43 0.57 0.84 1.16 1.46 1.71 2.03 2.49 2.99 3.43 3.80 4.43 5.26 5.59 5.25 4.50 3.93 3.26 2.59 2.25 2.07 1.92 1.68 1.42 1.27 1.05 0.86 0.77 0.80 0.84 0.81 0.83 0.78 0.79 0.81 0.77 0.85 0.97 1.06 1.13
0.03 0.06 0.14 0.21 0.16 0.21 0.31 0.41 0.51 0.55 0.72 0.93 1.13 1.30 1.55 1.81 2.24 2.88 3.35 3.84 4.60 5.64 6.17 5.88 5.09 4.15 3.34 2.83 2.51 2.31 2.04 1.71 1.41 1.27 1.10 0.88 0.75 0.71 0.69 0.64 0.61 0.55 0.57 0.62 0.66 0.76 0.83 0.86 0.91
0.03 0.06 0.13 0.21 0.16 0.24 0.32 0.42 0.56 0.71 0.93 0.95 1.00 1.07 1.24 1.55 1.95 2.51 3.07 3.55 4.13 4.76 5.18 5.00 4.27 3.57 2.88 2.35 1.85 1.63 1.48 1.28 1.08 0.99 0.86 0.77 0.68 0.62 0.56 0.48 0.47 0.42 0.41 0.44 0.45 0.53 0.61 0.64 0.71
0.04 0.07 0.13 0.17 0.14 0.14 0.25 0.50 0.64 0.73 0.88 0.83 0.83 0.77 0.93 1.33 1.91 2.57 3.12 3.34 3.25 3.36 3.44 2.94 2.59 2.24 1.80 1.56 1.30 1.07 0.97 0.82 0.68 0.62 0.57 0.47 0.46 0.48 0.44 0.43 0.40 0.38 0.38 0.37 0.39 0.45 0.50 0.52 0.58
0.07 0.09 0.09 0.15 0.16 0.21 0.35 0.66 0.84 0.76 0.72 0.62 0.62 0.73 1.19 1.60 1.98 2.43 2.57 2.55 2.44 2.33 2.16 1.80 1.58 1.58 1.39 1.26 1.09 0.88 0.80 0.71 0.59 0.49 0.46 0.39 0.33 0.33 0.36 0.38 0.39 0.39 0.34 0.33 0.35 0.36 0.38 0.40 0.42
0.07 0.06 0.04 0.04 0.12 0.34 0.50 0.89 1.03 0.90 0.80 0.55 0.56 0.88 1.41 1.71 1.96 1.90 1.50 1.32 1.46 1.51 1.45 1.49 1.45 1.35 1.19 1.15 0.90 0.66 0.52 0.47 0.41 0.39 0.37 0.36 0.30 0.26 0.26 0.28 0.33 0.33 0.33 0.33 0.26 0.27 0.32 0.34 0.31
0.04 0.04 0.03 0.05 0.15 0.39 0.65 1.05 1.22 0.96 0.76 0.52 0.42 0.52 0.89 1.13 1.03 0.79 0.65 0.67 0.87 1.07 1.23 1.46 1.46 1.27 1.08 1.01 0.92 0.86 0.73 0.64 0.53 0.47 0.45 0.40 0.37 0.31 0.24 0.22 0.26 0.30 0.36 0.40 0.35 0.33 0.31 0.30 0.28
0.03 0.04 0.10 0.20 0.37 0.82 0.86 0.94 1.15 0.95 0.73 0.53 0.34 0.37 0.61 0.64 0.45 0.43 0.48 0.61 0.77 0.91 1.00 1.13 1.19 1.25 1.19 1.12 1.00 0.98 0.90 0.80 0.68 0.56 0.47 0.43 0.39 0.38 0.34 0.32 0.35 0.37 0.35 0.36 0.37 0.40 0.39 0.37 0.34
0.03 0.05 0.25 0.60 0.89 1.00 0.71 0.85 1.14 0.75 0.48 0.35 0.23 0.20 0.22 0.24 0.29 0.41 0.44 0.53 0.56 0.66 0.69 0.74 0.77 0.88 0.94 0.97 0.95 0.95 0.91 0.83 0.72 0.59 0.47 0.44 0.37 0.34 0.34 0.34 0.38 0.40 0.39 0.36 0.34 0.34 0.40 0.46 0.46
0.04 0.03 0.10 0.21 0.31 0.49 0.64 1.04 1.10 0.68 0.33 0.18 0.11 0.08 0.09 0.11 0.13 0.15 0.20 0.24 0.30 0.41 0.50 0.53 0.57 0.58 0.57 0.57 0.62 0.67 0.68 0.65 0.63 0.63 0.48 0.41 0.41 0.38 0.34 0.30 0.30 0.31 0.33 0.34 0.31 0.27 0.28 0.35 0.44
0.03 0.03 0.04 0.05 0.08 0.30 0.71 0.97 0.83 0.47 0.27 0.17 0.12 0.08 0.06 0.06 0.05 0.06 0.09 0.14 0.21 0.25 0.33 0.42 0.43 0.43 0.43 0.44 0.45 0.43 0.46 0.50 0.51 0.49 0.41 0.35 0.38 0.37 0.34 0.30 0.26 0.25 0.26 0.29 0.29 0.27 0.27 0.28 0.29
0.04 0.03 0.03 0.05 0.10 0.23 0.53 0.97 1.07 0.66 0.37 0.22 0.16 0.11 0.07 0.07 0.05 0.04 0.06 0.09 0.14 0.17 0.26 0.34 0.35 0.33 0.37 0.41 0.41 0.34 0.38 0.42 0.41 0.36 0.36 0.34 0.32 0.32 0.31 0.27 0.24 0.21 0.20 0.21 0.25 0.27 0.30 0.34 0.37
0.05 0.04 0.05 0.06 0.07 0.15 0.38 0.60 0.55 0.50 0.35 0.23 0.17 0.10 0.07 0.07 0.07 0.05 0.05 0.07 0.09 0.14 0.19 0.24 0.28 0.28 0.29 0.31 0.34 0.34 0.35 0.38 0.37 0.35 0.37 0.37 0.35 0.33 0.31 0.29 0.26 0.20 0.19 0.21 0.24 0.25 0.30 0.35 0.44
0.07 0.07 0.07 0.08 0.08 0.10 0.19 0.30 0.30 0.29 0.33 0.33 0.20 0.12 0.10 0.13 0.11 0.07 0.07 0.10 0.08 0.11 0.16 0.20 0.20 0.22 0.23 0.25 0.30 0.29 0.31 0.33 0.35 0.33 0.34 0.37 0.40 0.40 0.37 0.34 0.32 0.26 0.22 0.24 0.26 0.25 0.28 0.36 0.45

GEFSSGP_prec_meanprecacc_114.txt.gz
Total_Precipitation_Accumulation
0.00 0.01 0.08 0.25 0.75 0.94 0.92 0.55 0.42 0.34 0.33 0.36 0.43 0.41 0.40 0.44 0.50 0.82 0.44 0.14 0.05 0.01 0.02 0.09 0.18 0.15 0.13 0.11 0.12 0.13 0.15 0.15 0.15 0.14 0.13 0.10 0.07 0.06 0.05 0.05 0.05 0.06 0.07 0.07 0.09 0.11 0.11 0.13 0.16
0.01 0.03 0.12 0.41 0.77 0.91 0.85 0.45 0.34 0.31 0.28 0.39 0.45 0.37 0.31 0.34 0.25 0.21 0.19 0.16 0.06 0.01 0.01 0.03 0.12 0.14 0.12 0.12 0.13 0.13 0.13 0.11 0.11 0.11 0.10 0.08 0.07 0.07 0.06 0.06 0.06 0.07 0.08 0.08 0.09 0.11 0.10 0.10 0.12
0.02 0.06 0.20 0.44 0.46 0.51 0.52 0.30 0.28 0.34 0.42 0.60 0.69 0.46 0.37 0.44 0.29 0.15 0.12 0.10 0.07 0.03 0.02 0.04 0.10 0.12 0.11 0.11 0.11 0.11 0.10 0.09 0.09 0.09 0.09 0.07 0.06 0.07 0.07 0.06 0.08 0.09 0.09 0.11 0.12 0.13 0.12 0.10 0.11
0.02 0.10 0.23 0.30 0.19 0.21 0.28 0.21 0.27 0.37 0.65 0.78 0.79 0.61 0.48 0.42 0.30 0.20 0.10 0.09 0.08 0.05 0.04 0.06 0.10 0.11 0.12 0.11 0.11 0.11 0.10 0.09 0.09 0.09 0.08 0.06 0.06 0.07 0.08 0.08 0.09 0.10 0.12 0.13 0.14 0.14 0.13 0.13 0.14
0.02 0.11 0.22 0.16 0.08 0.10 0.13 0.12 0.19 0.30 0.54 0.74 0.75 0.75 0.68 0.53 0.43 0.28 0.15 0.09 0.06 0.04 0.04 0.07 0.13 0.14 0.14 0.13 0.13 0.13 0.11 0.10 0.10 0.10 0.08 0.08 0.08 0.08 0.09 0.10 0.12 0.12 0.14 0.15 0.15 0.14 0.15 0.17 0.19
0.02 0.08 0.16 0.10 0.06 0.07 0.09 0.10 0.20 0.36 0.57 0.74 0.87 0.91 0.75 0.52 0.41 0.29 0.20 0.17 0.18 0.06 0.05 0.09 0.14 0.16 0.17 0.17 0.16 0.15 0.14 0.12 0.12 0.11 0.10 0.10 0.10 0.10 0.11 0.13 0.15 0.14 0.15 0.15 0.14 0.14 0.15 0.19 0.22
0.02 0.03 0.07 0.07 0.04 0.05 0.08 0.14 0.24 0.38 0.50 0.78 1.03 1.03 0.75 0.65 0.52 0.35 0.34 0.30 0.47 0.23 0.11 0.11 0.12 0.15 0.18 0.21 0.20 0.18 0.16 0.15 0.14 0.13 0.11 0.10 0.10 0.10 0.11 0.14 0.17 0.18 0.19 0.17 0.16 0.16 0.19 0.22 0.24
0.00 0.01 0.02 0.02 0.01 0.03 0.07 0.14 0.25 0.37 0.64 0.90 0.89 0.94 0.94 0.71 0.62 0.58 0.59 0.53 0.58 0.43 0.26 0.20 0.20 0.25 0.24 0.23 0.22 0.22 0.20 0.17 0.15 0.13 0.11 0.11 0.11 0.14 0.19 0.20 0.21 0.24 0.27 0.27 0.25 0.27 0.31 0.33 0.32
0.00 0.01 0.02 0.01 0.01 0.03 0.10 0.20 0.26 0.32 0.53 0.69 0.77 0.74 0.58 0.57 0.71 0.77 0.77 0.75 0.75 0.66 0.58 0.49 0.41 0.37 0.39 0.37 0.31 0.33 0.32 0.31 0.26 0.27 0.26 0.26 0.32 0.40 0.51 0.48 0.52 0.48 0.48 0.51 0.50 0.51 0.55 0.55 0.44
0.00 0.00 0.01 0.00 0.00 0.03 0.09 0.18 0.30 0.37 0.64 0.97 1.04 1.09 0.77 0.79 0.92 0.95 0.91 0.80 0.89 0.99 0.88 0.86 0.72 0.53 0.46 0.46 0.59 0.71 0.68 0.71 0.67 0.72 0.71 0.72 0.75 0.73 0.67 0.81 0.90 0.93 1.01 1.00 1.01 1.17 1.03 0.80 0.61
0.00 0.00 0.00 0.00 0.00 0.01 0.04 0.10 0.14 0.32 0.73 1.16 1.23 1.22 1.02 1.00 1.08 1.15 1.15 1.19 1.25 1.42 1.20 0.95 0.90 0.81 0.77 0.84 0.87 0.92 1.03 1.12 1.21 1.26 1.24 1.33 1.16 0.99 0.94 1.18 1.33 1.31 1.32 1.22 1.49 1.69 1.29 1.22 1.30
0.00 0.00 0.00 0.00 0.00 0.01 0.03 0.10 0.19 0.34 0.77 1.04 0.95 0.84 0.86 1.07 1.24 1.36 1.63 1.80 1.89 1.98 1.78 1.59 1.33 1.23 1.21 1.12 1.02 0.98 0.98 1.07 1.16 1.26 1.34 1.50 1.54 1.43 1.46 1.58 1.48 1.45 1.48 1.65 1.70 1.83 1.67 1.59 1.57
0.00 0.00 0.00 0.00 0.01 0.01 0.05 0.14 0.27 0.39 0.67 0.64 0.55 0.62 1.01 1.28 1.47 1.71 1.90 2.06 2.20 2.43 2.34 2.53 2.15 1.81 1.63 1.40 1.19 1.04 0.98 0.88 0.88 0.99 1.22 1.41 1.53 1.63 1.73 1.56 1.42 1.26 1.52 1.79 1.82 1.66 1.79 1.82 1.91
0.00 0.00 0.01 0.02 0.01 0.02 0.05 0.10 0.33 0.45 0.56 0.62 0.60 0.84 1.31 1.79 1.94 2.12 2.36 2.68 2.87 3.21 3.11 3.04 2.92 2.40 1.97 1.65 1.38 1.16 0.95 0.94 0.95 0.99 1.08 1.26 1.41 1.49 1.54 1.48 1.38 1.31 1.47 1.67 1.69 1.68 1.88 1.97 1.97
0.00 0.03 0.10 0.09 0.05 0.05 0.07 0.19 0.43 0.59 0.60 0.79 0.88 1.09 1.59 2.14 2.17 2.42 2.61 2.96 3.31 3.70 3.82 3.76 3.57 3.07 2.67 2.37 1.89 1.41 1.18 1.05 1.08 1.08 0.99 1.03 1.14 1.18 1.29 1.31 1.27 1.30 1.36 1.40 1.38 1.41 1.60 1.59 1.52
0.01 0.08 0.23 0.18 0.09 0.08 0.13 0.52 0.72 0.65 0.59 0.86 1.12 1.36 1.78 2.33 2.42 2.70 3.05 3.41 3.91 4.30 4.55 4.55 4.16 3.77 3.19 2.70 2.32 1.88 1.62 1.40 1.21 1.08 0.93 0.79 0.84 0.90 0.99 0.96 0.98 1.03 1.08 1.08 1.07 1.10 1.21 1.30 1.41
0.03 0.08 0.19 0.19 0.14 0.12 0.19 0.63 0.67 0.44 0.57 0.84 1.17 1.47 1.73 2.06 2.53 3.09 3.53 3.90 4.57 5.51 5.93 5.65 4.85 4.24 3.53 2.86 2.52 2.27 2.08 1.78 1.48 1.31 1.09 0.89 0.79 0.81 0.85 0.82 0.84 0.79 0.80 0.82 0.79 0.87 0.99 1.08 1.16
0.03 0.06 0.14 0.21 0.16 0.21 0.31 0.41 0.51 0.55 0.72 0.93 1.14 1.30 1.56 1.83 2.27 2.93 3.41 3.93 4.75 5.93 6.57 6.38 5.56 4.51 3.67 3.12 2.75 2.52 2.22 1.86 1.53 1.38 1.17 0.93 0.78 0.73 0.71 0.66 0.62 0.56 0.58 0.63 0.67 0.77 0.84 0.87 0.93
0.03 0.06 0.13 0.21 0.16 0.24 0.32 0.42 0.56 0.71 0.93 0.95 1.01 1.08 1.26 1.58 1.99 2.55 3.13 3.64 4.28 4.93 5.36 5.24 4.57 3.89 3.15 2.56 2.03 1.78 1.59 1.38 1.21 1.13 0.96 0.85 0.73 0.64 0.58 0.49 0.48 0.43 0.42 0.44 0.47 0.55 0.62 0.65 0.72
0.04 0.07 0.13 0.17 0.14 0.14 0.25 0.50 0.64 0.73 0.88 0.83 0.84 0.78 0.94 1.35 1.94 2.60 3.16 3.41 3.35 3.49 3.58 3.09 2.81 2.56 2.11 1.79 1.52 1.30 1.20 1.02 0.86 0.82 0.73 0.58 0.53 0.52 0.47 0.45 0.41 0.40 0.40 0.39 0.41 0.46 0.50 0.53 0.59
0.07 0.09 0.09 0.15 0.16 0.21 0.35 0.66 0.84 0.76 0.72 0.62 0.62 0.74 1.20 1.61 2.00 2.45 2.60 2.62 2.51 2.42 2.29 1.92 1.72 1.80 1.66 1.54 1.40 1.21 1.15 1.04 0.84 0.68 0.60 0.49 0.39 0.38 0.40 0.41 0.41 0.40 0.36 0.35 0.37 0.37 0.39 0.41 0.43
0.07 0.06 0.04 0.04 0.12 0.34 0.50 0.89 1.03 0.91 0.80 0.56 0.57 0.90 1.42 1.72 1.97 1.91 1.54 1.39 1.52 1.57 1.58 1.67 1.59 1.52 1.37 1.33 1.10 0.86 0.71 0.64 0.55 0.51 0.48 0.45 0.37 0.31 0.31 0.33 0.36 0.35 0.34 0.35 0.28 0.28 0.33 0.35 0.32
0.04 0.04 0.03 0.05 0.15 0.39 0.65 1.05 1.22 0.96 0.76 0.52 0.42 0.53 0.90 1.14 1.05 0.81 0.69 0.72 0.93 1.14 1.34 1.63 1.60 1.41 1.22 1.16 1.08 0.99 0.82 0.74 0.64 0.58 0.56 0.51 0.47 0.39 0.30 0.27 0.29 0.33 0.37 0.42 0.37 0.34 0.32 0.31 0.28
0.03 0.04 0.10 0.20 0.37 0.82 0.86 0.94 1.15 0.95 0.73 0.53 0.34 0.38 0.61 0.64 0.47 0.46 0.51 0.65 0.83 0.99 1.07 1.22 1.30 1.37 1.32 1.26 1.15 1.10 0.99 0.89 0.77 0.64 0.56 0.52 0.47 0.45 0.40 0.37 0.39 0.41 0.38 0.38 0.38 0.40 0.39 0.37 0.34
0.03 0.05 0.25 0.60 0.89 1.00 0.71 0.85 1.14 0.75 0.48 0.35 0.23 0.20 0.23 0.25 0.31 0.43 0.45 0.55 0.60 0.71 0.73 0.79 0.85 0.98 1.05 1.09 1.09 1.08 1.00 0.90 0.79 0.67 0.56 0.52 0.42 0.38 0.38 0.39 0.44 0.45 0.43 0.39 0.35 0.36 0.40 0.46 0.47
0.04 0.03 0.10 0.21 0.31 0.49 0.64 1.04 1.10 0.68 0.33 0.18 0.11 0.08 0.10 0.13 0.15 0.17 0.21 0.26 0.32 0.45 0.54 0.58 0.63 0.64 0.63 0.65 0.75 0.82 0.78 0.73 0.70 0.71 0.57 0.48 0.46 0.43 0.40 0.37 0.36 0.36 0.37 0.38 0.34 0.29 0.30 0.36 0.45
0.03 0.03 0.04 0.05 0.08 0.30 0.71 0.97 0.83 0.47 0.27 0.17 0.12 0.08 0.07 0.07 0.06 0.08 0.11 0.16 0.23 0.28 0.37 0.46 0.47 0.47 0.48 0.51 0.55 0.57 0.57 0.58 0.59 0.59 0.52 0.44 0.46 0.44 0.40 0.35 0.31 0.29 0.30 0.32 0.34 0.31 0.30 0.30 0.30
0.04 0.03 0.03 0.05 0.10 0.23 0.53 0.97 1.07 0.67 0.37 0.22 0.17 0.11 0.07 0.08 0.06 0.06 0.08 0.11 0.16 0.20 0.30 0.40 0.40 0.38 0.42 0.48 0.50 0.45 0.50 0.53 0.53 0.51 0.48 0.43 0.41 0.40 0.38 0.33 0.28 0.25 0.24 0.25 0.29 0.30 0.33 0.37 0.38
0.05 0.04 0.05 0.06 0.07 0.15 0.38 0.60 0.55 0.50 0.36 0.23 0.17 0.11 0.08 0.08 0.08 0.07 0.07 0.10 0.11 0.16 0.22 0.29 0.34 0.33 0.34 0.38 0.43 0.45 0.47 0.53 0.51 0.48 0.50 0.47 0.44 0.42 0.40 0.36 0.32 0.26 0.23 0.24 0.27 0.29 0.33 0.38 0.46
0.07 0.07 0.07 0.08 0.08 0.10 0.19 0.30 0.30 0.29 0.33 0.33 0.21 0.13 0.10 0.14 0.13 0.09 0.08 0.11 0.10 0.13 0.18 0.23 0.25 0.27 0.29 0.34 0.40 0.41 0.43 0.47 0.48 0.44 0.45 0.46 0.49 0.49 0.45 0.40 0.38 0.31 0.27 0.28 0.30 0.29 0.32 0.39 0.48

GEFSSGP_prec_meanprecacc_120.txt.gz
Total_Precipitation_Accumulation
0.00 0.01 0.08 0.25 0.75 0.94 0.92 0.55 0.42 0.34 0.34 0.36 0.43 0.42 0.40 0.44 0.51 0.83 0.44 0.14 0.05 0.01 0.02 0.10 0.18 0.16 0.13 0.11 0.12 0.14 0.16 0.15 0.15 0.14 0.13 0.10 0.08 0.06 0.06 0.06 0.06 0.07 0.09 0.08 0.10 0.13 0.14 0.17 0.21
0.01 0.03 0.12 0.41 0.77 0.91 0.85 0.45 0.34 0.31 0.28 0.39 0.45 0.37 0.31 0.34 0.25 0.21 0.20 0.16 0.06 0.01 0.01 0.03 0.13 0.14 0.12 0.12 0.13 0.13 0.13 0.12 0.12 0.11 0.10 0.08 0.07 0.07 0.07 0.07 0.08 0.09 0.09 0.09 0.11 0.14 0.14 0.14 0.18
0.02 0.06 0.20 0.44 0.47 0.51 0.52 0.30 0.28 0.34 0.42 0.60 0.69 0.46 0.37 0.44 0.29 0.15 0.12 0.10 0.07 0.03 0.02 0.05 0.11 0.12 0.12 0.11 0.11 0.11 0.10 0.10 0.10 0.10 0.09 0.08 0.07 0.07 0.08 0.08 0.10 0.11 0.11 0.12 0.14 0.17 0.16 0.14 0.15
0.02 0.10 0.23 0.30 0.19 0.21 0.28 0.21 0.27 0.37 0.65 0.78 0.79 0.61 0.48 0.42 0.30 0.20 0.10 0.09 0.08 0.05 0.04 0.07 0.11 0.12 0.12 0.12 0.12 0.11 0.10 0.09 0.09 0.09 0.09 0.07 0.07 0.08 0.09 0.10 0.11 0.12 0.14 0.14 0.16 0.16 0.16 0.16 0.17
0.02 0.11 0.22 0.16 0.08 0.10 0.13 0.12 0.19 0.30 0.54 0.74 0.75 0.75 0.68 0.53 0.43 0.28 0.15 0.09 0.06 0.04 0.05 0.07 0.13 0.15 0.14 0.13 0.14 0.13 0.12 0.10 0.10 0.10 0.09 0.08 0.09 0.10 0.10 0.12 0.13 0.13 0.16 0.17 0.16 0.16 0.19 0.21 0.23
0.02 0.08 0.16 0.10 0.06 0.07 0.09 0.10 0.20 0.36 0.57 0.74 0.87 0.91 0.75 0.52 0.41 0.29 0.20 0.17 0.18 0.06 0.05 0.09 0.15 0.17 0.17 0.17 0.17 0.16 0.14 0.13 0.12 0.12 0.11 0.11 0.11 0.11 0.12 0.14 0.15 0.15 0.17 0.16 0.17 0.17 0.19 0.24 0.27
0.02 0.03 0.07 0.07 0.04 0.05 0.08 0.14 0.24 0.38 0.50 0.78 1.03 1.03 0.75 0.65 0.52 0.35 0.34 0.30 0.47 0.24 0.12 0.12 0.13 0.17 0.20 0.22 0.21 0.18 0.16 0.16 0.15 0.14 0.12 0.11 0.11 0.11 0.13 0.16 0.19 0.19 0.20 0.18 0.18 0.19 0.22 0.26 0.29
0.00 0.01 0.02 0.02 0.01 0.03 0.07 0.14 0.25 0.37 0.64 0.90 0.89 0.94 0.94 0.71 0.63 0.58 0.59 0.53 0.58 0.44 0.29 0.22 0.22 0.28 0.27 0.25 0.23 0.23 0.21 0.18 0.16 0.14 0.12 0.12 0.12 0.16 0.21 0.22 0.23 0.25 0.27 0.27 0.27 0.29 0.33 0.36 0.37
0.00 0.01 0.02 0.01 0.01 0.03 0.10 0.20 0.26 0.32 0.53 0.69 0.77 0.74 0.58 0.57 0.71 0.77 0.78 0.77 0.77 0.69 0.62 0.54 0.44 0.40 0.42 0.39 0.32 0.34 0.34 0.33 0.28 0.28 0.28 0.29 0.35 0.42 0.54 0.50 0.54 0.50 0.49 0.51 0.52 0.54 0.58 0.59 0.50
0.00 0.00 0.01 0.00 0.00 0.03 0.09 0.18 0.30 0.37 0.64 0.97 1.04 1.09 0.77 0.79 0.93 0.95 0.92 0.81 0.91 1.02 0.92 0.91 0.78 0.58 0.50 0.47 0.60 0.73 0.71 0.74 0.70 0.75 0.74 0.76 0.79 0.76 0.69 0.83 0.92 0.95 1.03 1.02 1.04 1.20 1.06 0.83 0.66
0.00 0.00 0.00 0.00 0.00 0.01 0.04 0.10 0.14 0.32 0.73 1.16 1.23 1.22 1.02 1.00 1.09 1.16 1.16 1.21 1.29 1.46 1.25 1.00 0.97 0.90 0.85 0.87 0.89 0.95 1.07 1.16 1.25 1.30 1.29 1.36 1.18 1.01 0.97 1.22 1.38 1.35 1.34 1.24 1.51 1.71 1.31 1.25 1.36
0.00 0.00 0.00 0.00 0.00 0.01 0.03 0.10 0.19 0.34 0.77 1.04 0.95 0.84 0.86 1.07 1.24 1.37 1.64 1.81 1.92 2.03 1.88 1.70 1.46 1.36 1.32 1.19 1.05 1.01 1.00 1.10 1.19 1.30 1.38 1.53 1.56 1.45 1.48 1.63 1.52 1.49 1.51 1.69 1.73 1.86 1.69 1.61 1.59
0.00 0.00 0.00 0.00 0.01 0.01 0.05 0.14 0.27 0.39 0.67 0.64 0.55 0.62 1.01 1.28 1.48 1.72 1.91 2.07 2.22 2.47 2.43 2.71 2.41 2.03 1.76 1.50 1.26 1.07 1.00 0.90 0.90 1.02 1.25 1.43 1.55 1.64 1.74 1.59 1.45 1.28 1.54 1.81 1.84 1.68 1.83 1.86 1.94
0.00 0.00 0.01 0.02 0.01 0.02 0.05 0.10 0.33 0.45 0.56 0.62 0.60 0.84 1.32 1.81 1.98 2.14 2.38 2.70 2.91 3.25 3.16 3.17 3.26 2.66 2.10 1.74 1.45 1.21 0.98 0.97 0.97 1.01 1.10 1.28 1.42 1.50 1.55 1.50 1.40 1.33 1.49 1.69 1.72 1.71 1.93 2.03 2.03
0.00 0.03 0.10 0.09 0.05 0.05 0.07 0.19 0.43 0.59 0.60 0.79 0.88 1.09 1.61 2.24 2.22 2.44 2.64 2.98 3.34 3.76 3.88 3.82 3.78 3.26 2.77 2.44 1.95 1.46 1.22 1.08 1.10 1.10 1.01 1.05 1.15 1.19 1.31 1.33 1.28 1.32 1.39 1.42 1.41 1.47 1.65 1.64 1.58
0.01 0.08 0.23 0.18 0.09 0.08 0.13 0.52 0.72 0.65 0.59 0.86 1.12 1.36 1.80 2.42 2.45 2.72 3.07 3.43 3.95 4.36 4.64 4.62 4.29 3.93 3.29 2.80 2.40 1.96 1.68 1.44 1.24 1.11 0.95 0.81 0.86 0.92 1.01 0.99 1.01 1.06 1.11 1.11 1.12 1.18 1.28 1.36 1.48
0.03 0.08 0.19 0.19 0.14 0.12 0.19 0.63 0.67 0.44 0.57 0.84 1.17 1.47 1.73 2.07 2.54 3.09 3.54 3.92 4.60 5.56 6.02 5.78 5.02 4.42 3.64 2.95 2.63 2.40 2.20 1.87 1.53 1.35 1.12 0.92 0.82 0.84 0.89 0.87 0.89 0.82 0.84 0.87 0.82 0.93 1.06 1.17 1.23
0.03 0.06 0.14 0.21 0.16 0.21 0.31 0.41 0.52 0.55 0.72 0.93 1.14 1.30 1.56 1.84 2.27 2.93 3.42 3.94 4.78 5.98 6.66 6.53 5.76 4.71 3.80 3.22 2.87 2.66 2.35 1.98 1.61 1.43 1.22 0.98 0.84 0.79 0.76 0.71 0.67 0.59 0.62 0.69 0.74 0.86 0.92 0.93 0.99
0.03 0.06 0.13 0.21 0.16 0.24 0.32 0.42 0.56 0.71 0.93 0.95 1.01 1.08 1.26 1.58 1.99 2.55 3.13 3.66 4.31 4.97 5.42 5.32 4.66 3.99 3.24 2.64 2.11 1.88 1.66 1.44 1.27 1.17 1.01 0.92 0.80 0.72 0.66 0.55 0.55 0.48 0.47 0.52 0.53 0.60 0.67 0.69 0.75
0.04 0.07 0.13 0.17 0.14 0.14 0.25 0.50 0.64 0.73 0.88 0.83 0.84 0.78 0.94 1.35 1.94 2.60 3.17 3.42 3.37 3.51 3.62 3.14 2.87 2.63 2.17 1.86 1.61 1.39 1.30 1.11 0.93 0.86 0.79 0.64 0.59 0.60 0.54 0.53 0.49 0.47 0.48 0.44 0.45 0.51 0.55 0.57 0.61
0.07 0.09 0.09 0.15 0.16 0.21 0.35 0.66 0.84 0.76 0.72 0.62 0.63 0.75 1.20 1.62 2.01 2.46 2.61 2.63 2.52 2.43 2.32 1.97 1.78 1.87 1.74 1.63 1.51 1.35 1.31 1.19 0.94 0.75 0.66 0.54 0.45 0.45 0.48 0.50 0.51 0.49 0.43 0.40 0.43 0.42 0.44 0.45 0.47
0.07 0.06 0.04 0.04 0.12 0.34 0.50 0.89 1.03 0.91 0.80 0.56 0.57 0.90 1.43 1.73 1.97 1.92 1.54 1.40 1.53 1.59 1.61 1.74 1.68 1.63 1.49 1.43 1.20 1.00 0.88 0.76 0.64 0.59 0.55 0.52 0.44 0.39 0.39 0.42 0.47 0.44 0.40 0.42 0.33 0.32 0.38 0.40 0.36
0.04 0.04 0.03 0.05 0.15 0.39 0.65 1.05 1.22 0.96 0.76 0.52 0.42 0.53 0.90 1.14 1.05 0.82 0.70 0.74 0.94 1.16 1.38 1.71 1.70 1.51 1.36 1.27 1.17 1.13 0.99 0.88 0.73 0.66 0.65 0.60 0.55 0.46 0.37 0.33 0.37 0.41 0.44 0.49 0.41 0.38 0.36 0.34 0.31
0.03 0.04 0.10 0.20 0.37 0.82 0.86 0.94 1.15 0.95 0.73 0.53 0.34 0.38 0.62 0.65 0.47 0.46 0.51 0.66 0.84 1.01 1.11 1.30 1.39 1.46 1.41 1.36 1.23 1.19 1.08 0.98 0.85 0.71 0.63 0.60 0.55 0.52 0.48 0.44 0.47 0.49 0.45 0.45 0.44 0.46 0.43 0.41 0.37
0.03 0.05 0.25 0.60 0.89 1.00 0.71 0.85 1.14 0.75 0.48 0.35 0.23 0.20 0.23 0.25 0.31 0.44 0.46 0.56 0.60 0.72 0.75 0.83 0.92 1.04 1.11 1.15 1.16 1.16 1.09 1.00 0.86 0.74 0.63 0.60 0.51 0.45 0.45 0.45 0.50 0.52 0.51 0.47 0.42 0.41 0.44 0.50 0.50
0.04 0.03 0.10 0.21 0.31 0.49 0.64 1.04 1.10 0.68 0.33 0.18 0.11 0.08 0.10 0.13 0.15 0.18 0.22 0.26 0.32 0.45 0.56 0.61 0.66 0.68 0.68 0.70 0.81 0.91 0.88 0.83 0.78 0.78 0.64 0.57 0.54 0.50 0.47 0.43 0.42 0.43 0.44 0.43 0.39 0.33 0.34 0.40 0.49
0.03 0.03 0.04 0.05 0.08 0.30 0.71 0.97 0.83 0.47 0.27 0.17 0.12 0.08 0.07 0.07 0.06 0.08 0.11 0.16 0.23 0.29 0.39 0.49 0.51 0.51 0.52 0.56 0.61 0.63 0.65 0.68 0.69 0.67 0.58 0.50 0.54 0.51 0.47 0.41 0.37 0.35 0.37 0.39 0.40 0.36 0.35 0.35 0.34
0.04 0.03 0.03 0.05 0.10 0.23 0.53 0.97 1.07 0.67 0.37 0.22 0.17 0.11 0.07 0.08 0.06 0.06 0.08 0.12 0.17 0.21 0.31 0.42 0.43 0.41 0.45 0.52 0.55 0.51 0.58 0.62 0.62 0.60 0.55 0.49 0.49 0.49 0.46 0.41 0.36 0.32 0.31 0.33 0.38 0.37 0.40 0.44 0.43
0.05 0.04 0.05 0.06 0.07 0.15 0.38 0.60 0.55 0.50 0.36 0.23 0.17 0.11 0.08 0.08 0.08 0.07 0.07 0.10 0.12 0.16 0.23 0.31 0.37 0.36 0.36 0.41 0.47 0.51 0.54 0.61 0.63 0.59 0.61 0.55 0.52 0.50 0.47 0.45 0.43 0.36 0.31 0.32 0.35 0.37 0.40 0.46 0.53
0.07 0.07 0.07 0.08 0.08 0.10 0.19 0.30 0.30 0.29 0.33 0.33 0.21 0.13 0.11 0.14 0.13 0.09 0.09 0.11 0.10 0.13 0.19 0.25 0.27 0.30 0.31 0.37 0.46 0.48 0.49 0.54 0.60 0.57 0.58 0.60 0.59 0.57 0.53 0.48 0.46 0.38 0.33 0.34 0.35 0.35 0.38 0.47 0.57

GEFSSGP_prec_meanprecacc_126.txt.gz
Total_Precipitation_Accumulation
0.00 0.01 0.08 0.25 0.83 1.04 0.94 0.56 0.43 0.35 0.34 0.36 0.43 0.42 0.40 0.45 0.54 0.91 0.45 0.14 0.05 0.01 0.02 0.10 0.18 0.16 0.13 0.12 0.13 0.15 0.17 0.17 0.16 0.15 0.14 0.11 0.08 0.07 0.07 0.08 0.09 0.10 0.11 0.11 0.12 0.16 0.19 0.22 0.26
0.01 0.03 0.13 0.44 0.86 0.98 0.86 0.45 0.34 0.31 0.29 0.39 0.45 0.37 0.32 0.35 0.26 0.21 0.20 0.16 0.06 0.01 0.01 0.03 0.13 0.15 0.13 0.13 0.14 0.14 0.14 0.13 0.13 0.12 0.12 0.09 0.08 0.09 0.09 0.10 0.10 0.12 0.12 0.12 0.15 0.20 0.19 0.18 0.22
0.02 0.06 0.22 0.53 0.52 0.54 0.52 0.31 0.28 0.34 0.42 0.60 0.69 0.46 0.37 0.44 0.29 0.15 0.12 0.10 0.07 0.03 0.02 0.05 0.11 0.12 0.12 0.12 0.12 0.12 0.11 0.11 0.11 0.10 0.10 0.08 0.08 0.09 0.10 0.10 0.12 0.14 0.15 0.17 0.19 0.22 0.19 0.17 0.17
0.03 0.11 0.26 0.34 0.21 0.21 0.28 0.21 0.27 0.37 0.65 0.78 0.80 0.61 0.48 0.42 0.30 0.20 0.10 0.09 0.08 0.05 0.04 0.07 0.11 0.12 0.12 0.12 0.12 0.11 0.10 0.10 0.10 0.10 0.10 0.08 0.08 0.09 0.10 0.11 0.13 0.17 0.19 0.18 0.21 0.19 0.19 0.18 0.19
0.02 0.13 0.33 0.23 0.09 0.11 0.13 0.12 0.19 0.30 0.54 0.74 0.76 0.77 0.68 0.53 0.43 0.28 0.15 0.09 0.06 0.04 0.05 0.07 0.13 0.15 0.15 0.14 0.14 0.14 0.12 0.11 0.11 0.11 0.10 0.10 0.10 0.11 0.12 0.13 0.15 0.16 0.21 0.19 0.18 0.18 0.21 0.24 0.25
0.04 0.10 0.20 0.13 0.07 0.07 0.09 0.10 0.20 0.37 0.57 0.74 0.87 0.94 0.77 0.52 0.41 0.29 0.20 0.18 0.18 0.07 0.05 0.09 0.15 0.17 0.18 0.17 0.17 0.16 0.15 0.14 0.13 0.13 0.12 0.13 0.13 0.12 0.13 0.16 0.17 0.18 0.20 0.20 0.20 0.19 0.21 0.26 0.29
0.03 0.04 0.08 0.08 0.05 0.05 0.08 0.14 0.24 0.39 0.50 0.78 1.04 1.07 0.79 0.65 0.52 0.35 0.34 0.30 0.48 0.26 0.14 0.13 0.13 0.17 0.20 0.22 0.21 0.19 0.17 0.16 0.15 0.15 0.13 0.13 0.12 0.12 0.14 0.19 0.21 0.20 0.22 0.20 0.20 0.21 0.23 0.27 0.29
0.01 0.02 0.04 0.03 0.02 0.03 0.07 0.14 0.25 0.38 0.65 0.90 0.90 0.97 0.97 0.71 0.63 0.58 0.59 0.54 0.61 0.48 0.30 0.24 0.24 0.29 0.28 0.25 0.23 0.24 0.22 0.19 0.17 0.15 0.13 0.13 0.13 0.17 0.23 0.25 0.26 0.26 0.29 0.28 0.28 0.30 0.34 0.37 0.37
0.00 0.02 0.04 0.03 0.01 0.04 0.10 0.20 0.26 0.33 0.53 0.70 0.77 0.74 0.59 0.57 0.71 0.77 0.78 0.78 0.82 0.76 0.66 0.57 0.48 0.44 0.45 0.41 0.33 0.35 0.35 0.33 0.29 0.29 0.28 0.31 0.42 0.46 0.58 0.53 0.56 0.51 0.50 0.52 0.52 0.55 0.58 0.60 0.51
0.00 0.03 0.02 0.01 0.01 0.03 0.09 0.18 0.30 0.38 0.65 1.01 1.06 1.10 0.77 0.79 0.93 0.96 0.92 0.83 0.95 1.08 0.98 0.97 0.83 0.63 0.55 0.51 0.62 0.75 0.73 0.76 0.73 0.79 0.76 0.85 0.91 0.90 0.77 0.85 0.93 0.96 1.04 1.03 1.05 1.22 1.10 0.87 0.70
0.00 0.00 0.00 0.00 0.00 0.01 0.04 0.10 0.14 0.32 0.74 1.18 1.25 1.22 1.02 1.00 1.09 1.16 1.17 1.24 1.34 1.52 1.30 1.10 1.08 0.98 0.93 0.96 0.96 0.99 1.11 1.20 1.32 1.38 1.35 1.45 1.26 1.10 1.03 1.26 1.41 1.38 1.36 1.29 1.53 1.74 1.39 1.33 1.42
0.00 0.00 0.00 0.00 0.00 0.01 0.03 0.10 0.20 0.34 0.77 1.05 0.95 0.84 0.86 1.07 1.24 1.37 1.65 1.83 1.97 2.09 1.97 1.84 1.62 1.49 1.44 1.33 1.16 1.08 1.05 1.14 1.26 1.38 1.44 1.59 1.65 1.54 1.58 1.71 1.59 1.56 1.59 1.77 1.78 1.94 1.78 1.67 1.61
0.00 0.00 0.00 0.00 0.01 0.01 0.05 0.14 0.27 0.40 0.67 0.64 0.55 0.62 1.01 1.29 1.49 1.73 1.94 2.10 2.26 2.53 2.55 2.86 2.61 2.20 1.89 1.63 1.38 1.15 1.06 0.95 0.95 1.08 1.30 1.47 1.60 1.70 1.82 1.66 1.53 1.35 1.60 1.85 1.89 1.73 1.88 1.91 1.96
0.00 0.00 0.01 0.02 0.01 0.02 0.05 0.10 0.34 0.45 0.56 0.62 0.60 0.84 1.33 1.83 2.00 2.17 2.42 2.74 2.96 3.32 3.27 3.31 3.45 2.91 2.28 1.85 1.54 1.28 1.03 1.03 1.05 1.06 1.13 1.31 1.46 1.55 1.61 1.55 1.46 1.39 1.55 1.74 1.76 1.74 1.97 2.06 2.05
0.00 0.03 0.10 0.09 0.05 0.05 0.07 0.19 0.44 0.59 0.60 0.79 0.88 1.09 1.62 2.27 2.25 2.47 2.67 3.05 3.43 3.87 4.00 3.96 3.97 3.59 3.02 2.56 2.03 1.52 1.27 1.11 1.14 1.15 1.06 1.07 1.19 1.24 1.36 1.39 1.34 1.37 1.43 1.46 1.44 1.50 1.69 1.67 1.60
0.01 0.08 0.23 0.18 0.09 0.08 0.13 0.52 0.72 0.65 0.59 0.86 1.12 1.36 1.80 2.43 2.48 2.74 3.10 3.47 4.02 4.45 4.71 4.71 4.41 4.19 3.54 2.95 2.49 2.02 1.73 1.49 1.27 1.15 1.00 0.84 0.89 0.96 1.06 1.04 1.05 1.10 1.13 1.13 1.16 1.21 1.32 1.40 1.50
0.03 0.08 0.19 0.19 0.14 0.12 0.19 0.63 0.67 0.44 0.58 0.84 1.17 1.47 1.73 2.07 2.54 3.10 3.55 3.94 4.64 5.60 6.06 5.84 5.10 4.53 3.80 3.09 2.73 2.49 2.28 1.94 1.59 1.40 1.17 0.96 0.85 0.86 0.92 0.93 0.95 0.84 0.86 0.89 0.84 0.98 1.11 1.21 1.27
0.03 0.06 0.14 0.21 0.16 0.21 0.31 0.41 0.52 0.55 0.72 0.93 1.14 1.31 1.56 1.84 2.27 2.94 3.43 3.96 4.81 6.02 6.71 6.59 5.85 4.80 3.93 3.36 2.99 2.76 2.45 2.05 1.67 1.46 1.26 1.02 0.87 0.82 0.80 0.75 0.70 0.62 0.67 0.75 0.79 0.93 0.97 0.98 1.03
0.03 0.06 0.13 0.21 0.16 0.24 0.32 0.42 0.56 0.71 0.93 0.95 1.01 1.08 1.26 1.58 2.00 2.55 3.15 3.67 4.32 5.01 5.48 5.39 4.72 4.07 3.34 2.74 2.19 1.95 1.76 1.53 1.32 1.20 1.04 0.95 0.83 0.76 0.71 0.61 0.63 0.53 0.54 0.58 0.57 0.65 0.72 0.74 0.79
0.04 0.07 0.13 0.17 0.14 0.14 0.25 0.50 0.64 0.73 0.88 0.83 0.84 0.78 0.94 1.36 1.94 2.61 3.18 3.43 3.39 3.55 3.67 3.19 2.93 2.71 2.23 1.94 1.71 1.48 1.41 1.20 0.99 0.92 0.86 0.67 0.62 0.63 0.57 0.62 0.56 0.53 0.56 0.51 0.51 0.57 0.63 0.65 0.66
0.07 0.09 0.09 0.15 0.16 0.21 0.35 0.66 0.84 0.76 0.72 0.62 0.63 0.75 1.21 1.63 2.03 2.47 2.62 2.64 2.53 2.46 2.35 2.02 1.85 1.95 1.81 1.74 1.62 1.47 1.45 1.32 1.06 0.85 0.76 0.59 0.48 0.49 0.55 0.58 0.59 0.57 0.49 0.48 0.51 0.48 0.52 0.53 0.52
0.07 0.06 0.04 0.04 0.12 0.34 0.50 0.89 1.03 0.92 0.81 0.56 0.57 0.90 1.43 1.73 1.98 1.93 1.56 1.41 1.55 1.61 1.63 1.77 1.75 1.72 1.59 1.55 1.30 1.08 0.97 0.86 0.75 0.69 0.63 0.60 0.49 0.44 0.44 0.48 0.57 0.54 0.47 0.52 0.39 0.38 0.44 0.49 0.43
0.04 0.04 0.03 0.05 0.15 0.39 0.65 1.05 1.22 0.97 0.77 0.53 0.42 0.53 0.91 1.15 1.06 0.83 0.71 0.75 0.97 1.19 1.41 1.74 1.75 1.60 1.44 1.36 1.29 1.25 1.12 1.03 0.86 0.76 0.76 0.69 0.62 0.52 0.41 0.39 0.46 0.50 0.51 0.58 0.48 0.47 0.42 0.41 0.37
0.03 0.04 0.10 0.20 0.37 0.82 0.86 0.94 1.15 0.95 0.73 0.53 0.34 0.38 0.62 0.65 0.47 0.47 0.52 0.68 0.88 1.05 1.15 1.33 1.45 1.55 1.52 1.51 1.45 1.33 1.23 1.15 1.01 0.86 0.76 0.68 0.62 0.58 0.53 0.50 0.55 0.56 0.52 0.54 0.51 0.52 0.49 0.47 0.44
0.03 0.05 0.25 0.60 0.89 1.00 0.71 0.85 1.14 0.75 0.48 0.35 0.23 0.20 0.23 0.25 0.32 0.44 0.47 0.59 0.64 0.75 0.80 0.88 0.98 1.13 1.20 1.25 1.30 1.27 1.23 1.15 1.01 0.89 0.76 0.69 0.56 0.50 0.51 0.53 0.59 0.60 0.59 0.54 0.49 0.48 0.51 0.56 0.57
0.04 0.03 0.10 0.21 0.32 0.51 0.66 1.05 1.10 0.68 0.33 0.18 0.11 0.08 0.10 0.13 0.15 0.19 0.23 0.29 0.36 0.49 0.60 0.66 0.72 0.76 0.76 0.78 0.91 1.03 1.01 0.97 0.90 0.92 0.76 0.67 0.62 0.57 0.57 0.53 0.51 0.53 0.53 0.51 0.48 0.41 0.41 0.48 0.55
0.03 0.03 0.04 0.05 0.08 0.30 0.72 0.98 0.84 0.47 0.27 0.17 0.12 0.08 0.08 0.07 0.07 0.08 0.11 0.17 0.26 0.32 0.42 0.52 0.55 0.57 0.60 0.63 0.71 0.75 0.78 0.82 0.84 0.82 0.69 0.60 0.62 0.60 0.58 0.51 0.46 0.44 0.47 0.50 0.50 0.44 0.43 0.43 0.40
0.04 0.03 0.03 0.05 0.10 0.23 0.54 0.98 1.08 0.68 0.39 0.23 0.17 0.11 0.08 0.08 0.06 0.06 0.09 0.13 0.19 0.23 0.33 0.45 0.47 0.48 0.54 0.59 0.64 0.61 0.68 0.72 0.76 0.74 0.67 0.60 0.59 0.58 0.57 0.51 0.46 0.43 0.42 0.44 0.47 0.46 0.49 0.53 0.51
0.05 0.04 0.05 0.06 0.07 0.15 0.39 0.62 0.59 0.55 0.38 0.24 0.17 0.11 0.08 0.08 0.09 0.10 0.08 0.10 0.13 0.17 0.24 0.33 0.40 0.42 0.42 0.47 0.55 0.61 0.64 0.72 0.76 0.74 0.73 0.65 0.62 0.60 0.57 0.55 0.55 0.48 0.42 0.43 0.46 0.47 0.50 0.55 0.62
0.07 0.07 0.07 0.08 0.08 0.11 0.20 0.32 0.33 0.33 0.35 0.33 0.21 0.13 0.11 0.14 0.14 0.16 0.11 0.12 0.10 0.14 0.20 0.26 0.30 0.32 0.34 0.41 0.51 0.55 0.59 0.65 0.75 0.72 0.71 0.73 0.71 0.67 0.63 0.59 0.57 0.48 0.43 0.45 0.44 0.42 0.46 0.56 0.67

GEFSSGP_prec_meanprecacc_132.txt.gz
Total_Precipitation_Accumulation
0.01 0.05 0.14 0.32 0.90 1.11 0.97 0.57 0.43 0.35 0.34 0.36 0.43 0.42 0.41 0.46 0.55 0.94 0.48 0.15 0.05 0.01 0.02 0.10 0.19 0.16 0.14 0.12 0.13 0.15 0.17 0.17 0.17 0.15 0.14 0.11 0.08 0.08 0.07 0.09 0.10 0.11 0.12 0.11 0.13 0.18 0.22 0.26 0.28
0.03 0.07 0.20 0.54 0.95 1.03 0.88 0.45 0.34 0.32 0.29 0.40 0.46 0.37 0.33 0.35 0.26 0.22 0.21 0.17 0.06 0.02 0.01 0.03 0.13 0.15 0.13 0.13 0.14 0.14 0.15 0.13 0.13 0.13 0.12 0.10 0.09 0.10 0.10 0.11 0.11 0.13 0.13 0.14 0.17 0.23 0.21 0.19 0.24
0.05 0.10 0.34 0.70 0.61 0.57 0.54 0.31 0.28 0.34 0.42 0.61 0.70 0.47 0.38 0.45 0.30 0.16 0.13 0.10 0.07 0.03 0.02 0.05 0.11 0.12 0.12 0.12 0.12 0.12 0.12 0.11 0.11 0.11 0.11 0.09 0.09 0.10 0.11 0.12 0.13 0.16 0.17 0.19 0.22 0.25 0.21 0.19 0.20
0.06 0.16 0.36 0.44 0.26 0.23 0.30 0.21 0.28 0.38 0.66 0.79 0.81 0.64 0.49 0.43 0.31 0.21 0.11 0.09 0.08 0.05 0.04 0.07 0.11 0.12 0.12 0.12 0.12 0.12 0.11 0.10 0.10 0.11 0.10 0.09 0.09 0.10 0.12 0.13 0.15 0.18 0.21 0.20 0.22 0.21 0.21 0.20 0.21
0.05 0.19 0.41 0.30 0.13 0.12 0.14 0.12 0.19 0.31 0.55 0.77 0.79 0.83 0.71 0.56 0.44 0.29 0.16 0.09 0.06 0.04 0.05 0.07 0.14 0.15 0.15 0.14 0.14 0.14 0.13 0.11 0.11 0.12 0.11 0.11 0.11 0.12 0.13 0.14 0.16 0.17 0.22 0.20 0.19 0.20 0.23 0.25 0.27
0.10 0.20 0.30 0.22 0.13 0.09 0.10 0.11 0.20 0.38 0.59 0.76 0.92 1.00 0.80 0.56 0.43 0.30 0.21 0.19 0.20 0.07 0.06 0.10 0.16 0.18 0.18 0.18 0.18 0.17 0.15 0.14 0.13 0.14 0.13 0.13 0.14 0.13 0.14 0.16 0.19 0.19 0.21 0.20 0.21 0.20 0.22 0.28 0.31
0.08 0.12 0.15 0.13 0.11 0.08 0.09 0.14 0.25 0.39 0.51 0.80 1.06 1.11 0.81 0.67 0.53 0.36 0.36 0.34 0.58 0.30 0.17 0.14 0.14 0.18 0.20 0.23 0.21 0.19 0.18 0.17 0.16 0.15 0.14 0.13 0.13 0.13 0.15 0.19 0.21 0.22 0.23 0.22 0.22 0.23 0.25 0.29 0.31
0.05 0.05 0.08 0.09 0.05 0.05 0.08 0.15 0.25 0.38 0.65 0.92 0.92 1.01 0.99 0.73 0.64 0.60 0.63 0.58 0.70 0.55 0.33 0.26 0.25 0.30 0.28 0.26 0.24 0.24 0.22 0.20 0.17 0.16 0.14 0.13 0.14 0.18 0.24 0.26 0.26 0.26 0.30 0.30 0.30 0.32 0.35 0.39 0.39
0.03 0.06 0.09 0.08 0.03 0.05 0.11 0.20 0.27 0.33 0.54 0.72 0.80 0.76 0.60 0.58 0.72 0.79 0.82 0.83 0.89 0.85 0.72 0.62 0.53 0.46 0.47 0.42 0.34 0.36 0.36 0.34 0.30 0.30 0.30 0.32 0.43 0.47 0.59 0.54 0.57 0.51 0.51 0.53 0.53 0.56 0.60 0.61 0.53
0.02 0.05 0.03 0.02 0.01 0.04 0.10 0.18 0.31 0.38 0.67 1.04 1.08 1.11 0.78 0.80 0.94 0.98 0.95 0.89 1.02 1.14 1.04 1.02 0.86 0.66 0.57 0.53 0.64 0.77 0.74 0.76 0.74 0.80 0.77 0.86 0.92 0.91 0.78 0.86 0.95 0.97 1.05 1.04 1.06 1.24 1.11 0.88 0.72
0.01 0.01 0.01 0.00 0.00 0.01 0.04 0.10 0.14 0.33 0.75 1.20 1.26 1.23 1.02 1.00 1.10 1.19 1.20 1.29 1.40 1.57 1.36 1.15 1.12 1.02 0.97 0.99 0.99 1.01 1.13 1.21 1.32 1.39 1.36 1.47 1.28 1.12 1.04 1.26 1.42 1.38 1.37 1.29 1.54 1.76 1.43 1.36 1.47
0.00 0.00 0.00 0.00 0.00 0.01 0.03 0.11 0.20 0.35 0.78 1.06 0.98 0.85 0.87 1.08 1.26 1.39 1.68 1.88 2.02 2.14 2.06 1.95 1.73 1.57 1.53 1.41 1.22 1.12 1.08 1.15 1.27 1.39 1.45 1.61 1.66 1.56 1.59 1.72 1.60 1.57 1.59 1.78 1.80 1.96 1.84 1.73 1.67
0.00 0.00 0.00 0.01 0.01 0.01 0.05 0.15 0.28 0.40 0.67 0.66 0.58 0.64 1.03 1.29 1.50 1.77 1.97 2.14 2.31 2.58 2.67 3.10 2.86 2.36 2.01 1.74 1.46 1.19 1.09 0.97 0.97 1.09 1.31 1.49 1.61 1.72 1.83 1.67 1.54 1.37 1.61 1.86 1.91 1.76 1.93 1.94 1.99
0.00 0.00 0.01 0.02 0.01 0.03 0.05 0.10 0.35 0.46 0.56 0.63 0.62 0.91 1.36 1.85 2.02 2.20 2.46 2.78 3.01 3.38 3.36 3.44 3.66 3.14 2.42 1.92 1.62 1.34 1.07 1.06 1.06 1.08 1.15 1.33 1.48 1.57 1.62 1.57 1.48 1.42 1.57 1.76 1.78 1.77 1.99 2.09 2.08
0.00 0.03 0.11 0.09 0.05 0.05 0.07 0.20 0.44 0.59 0.60 0.80 0.90 1.13 1.66 2.29 2.28 2.50 2.73 3.12 3.53 3.96 4.08 4.06 4.12 3.79 3.19 2.65 2.12 1.61 1.34 1.15 1.16 1.17 1.08 1.09 1.22 1.27 1.38 1.41 1.36 1.40 1.46 1.47 1.46 1.52 1.71 1.69 1.63
0.01 0.08 0.23 0.19 0.09 0.09 0.13 0.52 0.73 0.66 0.60 0.88 1.13 1.37 1.82 2.46 2.50 2.77 3.16 3.57 4.16 4.55 4.78 4.76 4.50 4.33 3.76 3.11 2.60 2.19 1.87 1.58 1.31 1.18 1.03 0.87 0.93 0.99 1.08 1.06 1.08 1.12 1.15 1.14 1.17 1.23 1.34 1.43 1.53
0.03 0.08 0.20 0.19 0.14 0.12 0.19 0.63 0.67 0.44 0.58 0.87 1.19 1.49 1.79 2.12 2.59 3.13 3.58 3.99 4.76 5.68 6.11 5.88 5.18 4.62 3.98 3.30 2.85 2.68 2.45 2.04 1.65 1.46 1.21 0.99 0.88 0.89 0.95 0.95 0.97 0.86 0.88 0.90 0.85 0.99 1.13 1.24 1.30
0.03 0.07 0.14 0.22 0.17 0.21 0.31 0.41 0.52 0.55 0.73 0.93 1.14 1.32 1.58 1.86 2.30 2.96 3.46 4.00 4.89 6.08 6.76 6.64 5.90 4.86 4.04 3.54 3.11 2.92 2.61 2.19 1.77 1.53 1.32 1.06 0.91 0.84 0.82 0.77 0.73 0.64 0.69 0.77 0.81 0.96 0.99 0.99 1.05
0.03 0.06 0.13 0.21 0.16 0.24 0.32 0.42 0.56 0.71 0.93 0.96 1.02 1.10 1.28 1.60 2.03 2.59 3.18 3.71 4.37 5.07 5.56 5.48 4.79 4.14 3.42 2.84 2.27 2.09 1.90 1.69 1.50 1.32 1.12 1.00 0.88 0.80 0.75 0.65 0.67 0.56 0.56 0.60 0.58 0.68 0.74 0.76 0.82
0.04 0.07 0.13 0.17 0.14 0.14 0.25 0.50 0.64 0.73 0.89 0.84 0.85 0.81 0.98 1.40 2.00 2.67 3.25 3.49 3.44 3.62 3.77 3.31 3.02 2.79 2.31 2.02 1.81 1.62 1.54 1.35 1.19 1.09 0.99 0.76 0.68 0.68 0.62 0.66 0.60 0.55 0.57 0.53 0.53 0.60 0.66 0.67 0.68
0.07 0.09 0.09 0.15 0.16 0.21 0.35 0.66 0.84 0.77 0.74 0.65 0.64 0.78 1.26 1.69 2.11 2.56 2.70 2.68 2.57 2.50 2.41 2.09 1.92 2.02 1.89 1.82 1.72 1.60 1.60 1.51 1.32 1.07 0.93 0.73 0.57 0.54 0.58 0.62 0.62 0.61 0.51 0.50 0.53 0.51 0.55 0.56 0.54
0.07 0.06 0.04 0.04 0.12 0.34 0.50 0.89 1.04 0.93 0.83 0.58 0.60 0.95 1.50 1.79 2.06 2.01 1.60 1.43 1.57 1.63 1.66 1.80 1.80 1.78 1.66 1.62 1.39 1.18 1.06 0.96 0.88 0.84 0.79 0.75 0.62 0.51 0.48 0.51 0.60 0.58 0.49 0.54 0.41 0.41 0.48 0.52 0.45
0.04 0.04 0.03 0.05 0.15 0.39 0.65 1.05 1.23 0.99 0.79 0.55 0.45 0.58 0.99 1.18 1.11 0.87 0.73 0.78 0.99 1.20 1.42 1.75 1.78 1.64 1.50 1.43 1.36 1.33 1.21 1.13 0.97 0.88 0.90 0.84 0.79 0.66 0.49 0.43 0.50 0.55 0.55 0.61 0.51 0.49 0.44 0.43 0.40
0.03 0.04 0.10 0.20 0.37 0.82 0.86 0.94 1.16 0.96 0.75 0.56 0.36 0.41 0.65 0.67 0.50 0.49 0.55 0.71 0.92 1.10 1.19 1.37 1.48 1.59 1.58 1.57 1.52 1.40 1.30 1.25 1.12 0.95 0.85 0.80 0.77 0.72 0.63 0.56 0.61 0.62 0.58 0.59 0.54 0.54 0.51 0.49 0.46
0.03 0.05 0.25 0.60 0.89 1.00 0.71 0.86 1.15 0.76 0.50 0.37 0.25 0.22 0.25 0.28 0.34 0.48 0.53 0.67 0.79 0.91 0.91 0.98 1.06 1.21 1.27 1.31 1.38 1.37 1.33 1.26 1.10 0.97 0.84 0.80 0.69 0.61 0.62 0.65 0.67 0.67 0.65 0.59 0.53 0.51 0.54 0.59 0.60
0.04 0.03 0.10 0.21 0.32 0.51 0.67 1.06 1.13 0.72 0.38 0.22 0.14 0.11 0.12 0.16 0.20 0.25 0.29 0.36 0.49 0.66 0.81 0.89 0.89 0.89 0.88 0.89 1.02 1.16 1.15 1.11 1.03 1.00 0.83 0.75 0.71 0.68 0.68 0.69 0.63 0.61 0.60 0.57 0.55 0.49 0.47 0.52 0.59
0.03 0.03 0.04 0.05 0.08 0.31 0.73 1.00 0.90 0.54 0.35 0.24 0.18 0.14 0.13 0.13 0.16 0.16 0.17 0.24 0.33 0.38 0.49 0.64 0.63 0.65 0.67 0.71 0.80 0.86 0.91 0.97 0.99 0.91 0.75 0.65 0.68 0.69 0.69 0.62 0.56 0.55 0.55 0.57 0.57 0.55 0.54 0.52 0.48
0.04 0.03 0.03 0.05 0.10 0.23 0.56 1.02 1.14 0.74 0.49 0.36 0.28 0.20 0.15 0.16 0.16 0.16 0.16 0.19 0.24 0.27 0.37 0.50 0.53 0.54 0.59 0.63 0.70 0.68 0.78 0.84 0.87 0.83 0.76 0.66 0.65 0.68 0.69 0.62 0.57 0.55 0.51 0.52 0.56 0.56 0.60 0.64 0.60
0.05 0.04 0.05 0.06 0.07 0.15 0.41 0.65 0.62 0.61 0.47 0.31 0.27 0.22 0.17 0.18 0.20 0.21 0.18 0.19 0.18 0.20 0.28 0.38 0.46 0.47 0.46 0.51 0.59 0.66 0.71 0.82 0.85 0.83 0.82 0.73 0.69 0.68 0.67 0.64 0.66 0.61 0.55 0.56 0.56 0.55 0.59 0.63 0.70
0.07 0.07 0.07 0.08 0.08 0.11 0.20 0.33 0.36 0.37 0.41 0.44 0.36 0.30 0.29 0.29 0.23 0.22 0.17 0.16 0.14 0.17 0.24 0.30 0.35 0.37 0.39 0.46 0.56 0.60 0.64 0.73 0.83 0.80 0.81 0.82 0.81 0.76 0.71 0.68 0.70 0.62 0.55 0.55 0.53 0.51 0.55 0.65 0.76

GEFSSGP_prec_meanprecacc_138.txt.gz
Total_Precipitation_Accumulation
0.02 0.05 0.14 0.32 0.91 1.12 0.97 0.58 0.43 0.35 0.34 0.36 0.43 0.42 0.41 0.46 0.55 0.94 0.48 0.15 0.06 0.01 0.02 0.11 0.20 0.17 0.14 0.12 0.14 0.16 0.18 0.17 0.17 0.15 0.14 0.11 0.09 0.08 0.08 0.09 0.11 0.12 0.15 0.14 0.16 0.21 0.25 0.30 0.32
0.04 0.07 0.20 0.54 0.96 1.03 0.88 0.46 0.34 0.32 0.29 0.40 0.46 0.37 0.33 0.35 0.26 0.22 0.21 0.17 0.06 0.02 0.01 0.04 0.14 0.16 0.13 0.13 0.14 0.14 0.15 0.13 0.13 0.13 0.13 0.10 0.09 0.10 0.11 0.11 0.12 0.15 0.16 0.17 0.21 0.26 0.24 0.22 0.26
0.06 0.11 0.35 0.71 0.62 0.58 0.55 0.32 0.28 0.34 0.42 0.61 0.70 0.47 0.38 0.45 0.30 0.16 0.13 0.10 0.07 0.04 0.02 0.05 0.12 0.14 0.12 0.12 0.13 0.13 0.12 0.11 0.12 0.12 0.12 0.10 0.10 0.11 0.12 0.13 0.16 0.19 0.21 0.24 0.27 0.28 0.23 0.21 0.22
0.07 0.16 0.37 0.44 0.26 0.24 0.31 0.22 0.28 0.38 0.67 0.79 0.81 0.64 0.49 0.43 0.31 0.21 0.11 0.09 0.08 0.05 0.04 0.08 0.13 0.14 0.13 0.12 0.12 0.12 0.11 0.11 0.11 0.12 0.11 0.09 0.10 0.12 0.13 0.15 0.17 0.21 0.27 0.25 0.26 0.24 0.24 0.22 0.24
0.05 0.20 0.42 0.30 0.13 0.12 0.15 0.13 0.20 0.32 0.56 0.77 0.79 0.83 0.72 0.57 0.44 0.29 0.16 0.09 0.06 0.04 0.05 0.08 0.15 0.16 0.16 0.14 0.14 0.14 0.13 0.12 0.12 0.13 0.12 0.12 0.13 0.15 0.16 0.17 0.19 0.21 0.26 0.24 0.22 0.22 0.25 0.27 0.30
0.10 0.21 0.31 0.22 0.13 0.09 0.11 0.12 0.21 0.39 0.59 0.76 0.92 1.00 0.80 0.56 0.43 0.30 0.21 0.19 0.20 0.07 0.06 0.10 0.17 0.19 0.19 0.19 0.18 0.17 0.16 0.15 0.14 0.14 0.14 0.15 0.16 0.16 0.17 0.19 0.21 0.22 0.24 0.23 0.23 0.23 0.23 0.29 0.34
0.08 0.13 0.15 0.14 0.12 0.09 0.09 0.15 0.25 0.40 0.51 0.80 1.06 1.11 0.82 0.68 0.53 0.37 0.37 0.34 0.58 0.30 0.17 0.15 0.15 0.19 0.22 0.24 0.22 0.20 0.19 0.18 0.17 0.16 0.15 0.14 0.15 0.15 0.17 0.21 0.24 0.25 0.26 0.24 0.25 0.25 0.26 0.31 0.35
0.05 0.05 0.08 0.09 0.06 0.05 0.08 0.15 0.26 0.38 0.65 0.92 0.92 1.01 0.99 0.73 0.64 0.61 0.63 0.58 0.70 0.56 0.34 0.26 0.26 0.31 0.29 0.27 0.25 0.25 0.23 0.20 0.18 0.17 0.15 0.15 0.16 0.20 0.26 0.28 0.29 0.29 0.33 0.33 0.33 0.34 0.37 0.42 0.43
0.03 0.06 0.09 0.08 0.03 0.05 0.11 0.20 0.27 0.33 0.54 0.72 0.80 0.76 0.60 0.58 0.72 0.80 0.82 0.84 0.89 0.86 0.73 0.63 0.53 0.47 0.49 0.43 0.35 0.37 0.37 0.35 0.31 0.31 0.31 0.34 0.44 0.48 0.59 0.54 0.59 0.53 0.53 0.55 0.56 0.58 0.62 0.65 0.57
0.02 0.05 0.03 0.02 0.01 0.04 0.10 0.18 0.31 0.38 0.67 1.04 1.08 1.11 0.78 0.80 0.95 0.99 0.96 0.89 1.03 1.15 1.05 1.03 0.86 0.66 0.58 0.54 0.66 0.78 0.75 0.77 0.75 0.81 0.78 0.86 0.92 0.91 0.78 0.87 0.96 0.99 1.06 1.06 1.08 1.26 1.13 0.90 0.74
0.01 0.01 0.01 0.00 0.00 0.01 0.04 0.10 0.14 0.33 0.75 1.20 1.26 1.23 1.02 1.01 1.11 1.21 1.23 1.31 1.41 1.58 1.37 1.16 1.13 1.03 0.98 1.01 1.01 1.03 1.14 1.22 1.33 1.39 1.37 1.47 1.28 1.12 1.04 1.27 1.43 1.39 1.38 1.29 1.55 1.77 1.43 1.37 1.48
0.00 0.00 0.00 0.00 0.00 0.01 0.03 0.11 0.20 0.35 0.78 1.06 0.98 0.85 0.87 1.08 1.27 1.43 1.75 1.94 2.05 2.15 2.06 1.96 1.74 1.58 1.54 1.41 1.24 1.13 1.08 1.16 1.27 1.40 1.45 1.61 1.66 1.56 1.59 1.73 1.60 1.57 1.59 1.78 1.80 1.97 1.85 1.74 1.68
0.00 0.00 0.00 0.01 0.01 0.01 0.05 0.15 0.28 0.40 0.67 0.66 0.58 0.64 1.03 1.30 1.52 1.81 2.03 2.19 2.35 2.60 2.71 3.15 2.89 2.39 2.03 1.76 1.47 1.20 1.10 0.98 0.97 1.09 1.32 1.49 1.61 1.72 1.83 1.67 1.55 1.37 1.61 1.86 1.91 1.77 1.94 1.96 2.02
0.00 0.00 0.01 0.02 0.01 0.03 0.05 0.10 0.35 0.46 0.56 0.63 0.62 0.92 1.37 1.86 2.04 2.24 2.50 2.85 3.08 3.43 3.41 3.49 3.72 3.21 2.50 2.00 1.66 1.36 1.08 1.06 1.07 1.09 1.16 1.34 1.49 1.57 1.63 1.57 1.48 1.43 1.58 1.76 1.79 1.79 2.01 2.11 2.10
0.00 0.03 0.11 0.09 0.05 0.06 0.07 0.20 0.44 0.59 0.60 0.80 0.90 1.13 1.66 2.29 2.29 2.54 2.78 3.21 3.63 4.05 4.15 4.12 4.20 3.87 3.29 2.74 2.18 1.66 1.38 1.17 1.17 1.18 1.10 1.11 1.23 1.27 1.38 1.41 1.36 1.40 1.47 1.48 1.47 1.54 1.73 1.71 1.65
0.01 0.08 0.23 0.19 0.09 0.09 0.13 0.52 0.73 0.66 0.60 0.88 1.13 1.37 1.83 2.47 2.52 2.81 3.22 3.70 4.31 4.68 4.87 4.85 4.60 4.44 3.88 3.21 2.68 2.27 1.95 1.64 1.35 1.21 1.06 0.90 0.95 1.00 1.09 1.06 1.08 1.12 1.15 1.15 1.18 1.24 1.36 1.45 1.55
0.03 0.08 0.20 0.19 0.14 0.12 0.19 0.63 0.67 0.44 0.58 0.87 1.19 1.49 1.79 2.13 2.60 3.16 3.63 4.12 4.93 5.84 6.22 6.00 5.30 4.74 4.12 3.45 2.98 2.80 2.54 2.10 1.69 1.51 1.25 1.03 0.91 0.90 0.96 0.96 0.98 0.87 0.89 0.91 0.87 1.00 1.15 1.26 1.32
0.03 0.07 0.14 0.22 0.17 0.21 0.31 0.41 0.52 0.55 0.73 0.94 1.15 1.32 1.59 1.88 2.31 2.98 3.50 4.09 5.03 6.26 6.92 6.77 6.03 5.01 4.20 3.72 3.27 3.08 2.75 2.31 1.86 1.61 1.37 1.11 0.95 0.87 0.84 0.79 0.74 0.67 0.71 0.78 0.83 0.98 1.02 1.02 1.08
0.03 0.06 0.13 0.21 0.16 0.24 0.32 0.42 0.56 0.71 0.94 0.96 1.03 1.11 1.29 1.62 2.06 2.65 3.27 3.84 4.54 5.25 5.73 5.60 4.91 4.28 3.59 3.01 2.44 2.30 2.08 1.85 1.63 1.43 1.20 1.07 0.95 0.86 0.79 0.69 0.71 0.61 0.60 0.62 0.61 0.71 0.77 0.80 0.85
0.04 0.07 0.13 0.17 0.14 0.14 0.25 0.51 0.64 0.74 0.90 0.86 0.86 0.82 0.99 1.42 2.04 2.76 3.36 3.58 3.57 3.75 3.90 3.43 3.13 2.93 2.48 2.20 2.01 1.84 1.75 1.55 1.35 1.23 1.11 0.85 0.78 0.75 0.68 0.71 0.65 0.61 0.61 0.56 0.57 0.64 0.69 0.70 0.73
0.07 0.09 0.09 0.15 0.16 0.21 0.35 0.66 0.85 0.78 0.75 0.66 0.65 0.78 1.27 1.72 2.15 2.63 2.76 2.75 2.64 2.58 2.49 2.19 2.03 2.15 2.04 1.98 1.89 1.76 1.78 1.68 1.46 1.19 1.04 0.83 0.67 0.64 0.65 0.67 0.68 0.66 0.55 0.53 0.57 0.55 0.58 0.58 0.58
0.07 0.06 0.04 0.04 0.12 0.34 0.50 0.89 1.04 0.94 0.84 0.59 0.61 0.96 1.52 1.83 2.10 2.07 1.66 1.49 1.62 1.69 1.73 1.90 1.90 1.90 1.78 1.74 1.51 1.29 1.17 1.06 0.96 0.94 0.89 0.87 0.73 0.63 0.58 0.58 0.66 0.63 0.54 0.59 0.46 0.45 0.51 0.54 0.47
0.04 0.04 0.03 0.05 0.15 0.39 0.65 1.05 1.23 0.99 0.80 0.56 0.45 0.59 1.02 1.22 1.15 0.93 0.79 0.84 1.05 1.26 1.48 1.83 1.87 1.74 1.62 1.54 1.47 1.43 1.30 1.21 1.07 1.01 1.02 0.97 0.95 0.82 0.63 0.53 0.59 0.61 0.61 0.67 0.57 0.55 0.47 0.45 0.42
0.03 0.04 0.10 0.20 0.37 0.82 0.86 0.94 1.16 0.96 0.76 0.57 0.37 0.43 0.68 0.71 0.54 0.54 0.62 0.80 1.00 1.16 1.26 1.45 1.57 1.69 1.70 1.70 1.64 1.50 1.39 1.32 1.19 1.03 0.93 0.88 0.87 0.84 0.75 0.66 0.71 0.70 0.64 0.64 0.59 0.59 0.54 0.51 0.48
0.03 0.05 0.25 0.60 0.89 1.00 0.71 0.86 1.15 0.77 0.50 0.38 0.26 0.24 0.28 0.31 0.38 0.54 0.60 0.77 0.87 0.99 1.01 1.09 1.19 1.34 1.42 1.47 1.52 1.50 1.43 1.34 1.17 1.04 0.91 0.86 0.76 0.69 0.70 0.74 0.75 0.73 0.70 0.64 0.58 0.56 0.58 0.63 0.63
0.04 0.03 0.10 0.21 0.32 0.51 0.67 1.06 1.13 0.73 0.39 0.22 0.15 0.14 0.16 0.20 0.24 0.29 0.34 0.43 0.55 0.73 0.90 1.02 1.03 1.02 1.00 1.01 1.16 1.28 1.26 1.22 1.13 1.10 0.91 0.82 0.76 0.74 0.76 0.77 0.71 0.68 0.66 0.62 0.60 0.53 0.51 0.57 0.64
0.03 0.03 0.04 0.05 0.08 0.31 0.73 1.00 0.90 0.54 0.36 0.25 0.21 0.19 0.18 0.18 0.20 0.21 0.22 0.28 0.37 0.43 0.56 0.75 0.78 0.77 0.76 0.79 0.87 0.92 0.98 1.07 1.10 1.02 0.85 0.73 0.73 0.74 0.75 0.69 0.66 0.64 0.63 0.64 0.64 0.62 0.60 0.58 0.53
0.04 0.03 0.03 0.05 0.10 0.23 0.56 1.02 1.14 0.74 0.49 0.37 0.31 0.24 0.19 0.20 0.20 0.20 0.22 0.24 0.26 0.29 0.41 0.55 0.66 0.67 0.67 0.69 0.73 0.72 0.82 0.90 0.95 0.92 0.84 0.73 0.72 0.75 0.75 0.70 0.65 0.64 0.60 0.60 0.64 0.62 0.66 0.70 0.66
0.05 0.04 0.05 0.06 0.07 0.15 0.41 0.65 0.62 0.61 0.48 0.33 0.29 0.25 0.20 0.21 0.22 0.24 0.21 0.25 0.23 0.23 0.30 0.41 0.56 0.61 0.55 0.57 0.63 0.70 0.76 0.87 0.91 0.88 0.87 0.79 0.76 0.77 0.74 0.72 0.75 0.73 0.65 0.64 0.64 0.63 0.67 0.71 0.77
0.07 0.07 0.07 0.08 0.08 0.11 0.20 0.33 0.36 0.37 0.42 0.45 0.37 0.32 0.31 0.32 0.25 0.25 0.20 0.21 0.18 0.20 0.26 0.34 0.41 0.46 0.46 0.52 0.61 0.66 0.70 0.79 0.88 0.85 0.85 0.87 0.86 0.83 0.77 0.75 0.80 0.75 0.68 0.67 0.65 0.62 0.64 0.72 0.83

GEFSSGP_prec_meanprecacc_144.txt.gz
Total_Precipitation_Accumulation
0.02 0.05 0.14 0.32 0.91 1.12 0.97 0.58 0.43 0.35 0.34 0.36 0.43 0.42 0.41 0.46 0.55 0.95 0.48 0.15 0.06 0.02 0.03 0.12 0.22 0.18 0.15 0.14 0.15 0.16 0.19 0.18 0.17 0.16 0.15 0.12 0.10 0.11 0.10 0.12 0.13 0.15 0.20 0.18 0.20 0.26 0.30 0.35 0.36
0.04 0.07 0.20 0.54 0.96 1.03 0.88 0.46 0.34 0.32 0.29 0.40 0.46 0.37 0.33 0.35 0.26 0.22 0.21 0.17 0.06 0.02 0.02 0.04 0.15 0.16 0.13 0.14 0.15 0.15 0.15 0.14 0.14 0.14 0.13 0.11 0.11 0.12 0.13 0.14 0.16 0.19 0.22 0.23 0.26 0.31 0.28 0.24 0.28
0.06 0.11 0.35 0.71 0.62 0.58 0.55 0.32 0.28 0.34 0.42 0.61 0.70 0.47 0.38 0.45 0.30 0.16 0.13 0.10 0.07 0.04 0.02 0.07 0.13 0.15 0.13 0.13 0.13 0.13 0.12 0.12 0.13 0.13 0.13 0.11 0.11 0.13 0.15 0.17 0.20 0.24 0.28 0.31 0.32 0.31 0.27 0.24 0.26
0.07 0.16 0.37 0.44 0.26 0.24 0.31 0.22 0.28 0.38 0.67 0.79 0.81 0.64 0.49 0.44 0.31 0.21 0.11 0.09 0.08 0.05 0.04 0.09 0.14 0.16 0.15 0.13 0.13 0.12 0.12 0.12 0.12 0.13 0.12 0.11 0.12 0.15 0.18 0.20 0.22 0.25 0.31 0.30 0.31 0.28 0.28 0.25 0.28
0.05 0.20 0.42 0.30 0.13 0.12 0.15 0.13 0.20 0.32 0.56 0.77 0.79 0.83 0.72 0.57 0.44 0.29 0.16 0.09 0.06 0.05 0.05 0.08 0.16 0.18 0.18 0.16 0.15 0.15 0.14 0.13 0.13 0.14 0.14 0.14 0.16 0.19 0.21 0.22 0.22 0.24 0.31 0.30 0.27 0.27 0.29 0.32 0.36
0.10 0.21 0.31 0.22 0.13 0.09 0.11 0.12 0.21 0.39 0.59 0.76 0.92 1.00 0.80 0.56 0.43 0.30 0.21 0.19 0.20 0.07 0.06 0.11 0.18 0.20 0.21 0.20 0.19 0.18 0.17 0.16 0.15 0.15 0.16 0.18 0.19 0.19 0.21 0.21 0.25 0.26 0.28 0.27 0.28 0.27 0.27 0.34 0.40
0.08 0.13 0.15 0.14 0.12 0.09 0.09 0.15 0.25 0.40 0.51 0.80 1.06 1.11 0.82 0.68 0.54 0.37 0.37 0.34 0.59 0.30 0.17 0.15 0.16 0.20 0.23 0.26 0.24 0.22 0.20 0.19 0.18 0.18 0.17 0.17 0.17 0.18 0.20 0.25 0.28 0.28 0.29 0.28 0.29 0.28 0.29 0.34 0.39
0.05 0.05 0.08 0.09 0.06 0.05 0.08 0.15 0.26 0.38 0.65 0.92 0.92 1.01 0.99 0.73 0.64 0.61 0.63 0.60 0.72 0.57 0.34 0.27 0.26 0.31 0.30 0.28 0.27 0.27 0.25 0.22 0.19 0.19 0.17 0.18 0.19 0.22 0.29 0.32 0.34 0.32 0.36 0.36 0.37 0.38 0.40 0.44 0.47
0.03 0.06 0.09 0.08 0.03 0.05 0.11 0.20 0.27 0.33 0.54 0.72 0.80 0.76 0.60 0.58 0.72 0.81 0.83 0.85 0.90 0.87 0.74 0.64 0.54 0.48 0.50 0.44 0.36 0.39 0.38 0.36 0.34 0.35 0.34 0.39 0.51 0.52 0.64 0.58 0.62 0.55 0.56 0.60 0.61 0.63 0.65 0.67 0.60
0.02 0.05 0.03 0.02 0.01 0.04 0.10 0.18 0.31 0.38 0.67 1.04 1.08 1.11 0.78 0.80 0.95 0.99 0.96 0.90 1.03 1.15 1.06 1.04 0.87 0.67 0.59 0.55 0.68 0.81 0.77 0.79 0.78 0.86 0.84 0.92 0.98 0.97 0.82 0.90 0.99 1.01 1.09 1.09 1.13 1.31 1.15 0.93 0.78
0.01 0.01 0.01 0.00 0.00 0.01 0.04 0.10 0.14 0.33 0.75 1.20 1.26 1.23 1.02 1.01 1.11 1.21 1.23 1.33 1.43 1.60 1.38 1.16 1.14 1.05 1.00 1.03 1.03 1.06 1.17 1.24 1.36 1.43 1.41 1.52 1.32 1.16 1.08 1.31 1.47 1.44 1.40 1.32 1.57 1.79 1.45 1.39 1.53
0.00 0.00 0.00 0.00 0.00 0.01 0.03 0.11 0.20 0.35 0.78 1.06 0.98 0.85 0.87 1.08 1.27 1.43 1.75 1.95 2.09 2.18 2.08 1.97 1.76 1.60 1.57 1.44 1.25 1.16 1.11 1.18 1.29 1.42 1.48 1.64 1.69 1.58 1.62 1.76 1.64 1.61 1.63 1.82 1.82 2.01 1.89 1.77 1.71
0.00 0.00 0.00 0.01 0.01 0.01 0.05 0.15 0.28 0.40 0.67 0.66 0.58 0.64 1.03 1.30 1.52 1.82 2.03 2.20 2.38 2.63 2.73 3.17 2.92 2.44 2.07 1.79 1.50 1.23 1.12 1.00 0.99 1.11 1.33 1.51 1.63 1.74 1.86 1.70 1.58 1.38 1.62 1.88 1.94 1.80 1.99 1.99 2.04
0.00 0.00 0.01 0.02 0.01 0.03 0.05 0.10 0.35 0.46 0.56 0.63 0.62 0.92 1.37 1.86 2.04 2.24 2.51 2.87 3.12 3.48 3.46 3.52 3.78 3.28 2.56 2.05 1.70 1.39 1.11 1.09 1.09 1.11 1.18 1.36 1.51 1.59 1.65 1.60 1.51 1.45 1.59 1.78 1.81 1.82 2.06 2.15 2.13
0.00 0.03 0.11 0.09 0.05 0.06 0.07 0.20 0.44 0.59 0.60 0.80 0.90 1.13 1.66 2.29 2.29 2.55 2.80 3.25 3.69 4.14 4.24 4.21 4.32 3.95 3.37 2.84 2.26 1.72 1.42 1.22 1.21 1.21 1.12 1.13 1.26 1.31 1.41 1.44 1.39 1.44 1.50 1.51 1.49 1.57 1.77 1.76 1.69
0.01 0.08 0.23 0.19 0.09 0.09 0.13 0.52 0.73 0.66 0.60 0.88 1.13 1.37 1.83 2.47 2.53 2.82 3.24 3.73 4.38 4.80 5.02 5.01 4.72 4.53 4.01 3.36 2.77 2.33 2.00 1.69 1.41 1.27 1.10 0.92 0.99 1.03 1.12 1.08 1.11 1.16 1.19 1.19 1.23 1.29 1.42 1.52 1.61
0.03 0.08 0.20 0.19 0.14 0.12 0.19 0.63 0.67 0.44 0.58 0.87 1.19 1.49 1.80 2.14 2.62 3.17 3.65 4.17 5.03 5.95 6.39 6.14 5.40 4.84 4.26 3.62 3.08 2.86 2.61 2.16 1.75 1.57 1.32 1.08 0.95 0.94 1.00 0.99 1.01 0.91 0.94 0.96 0.91 1.05 1.21 1.34 1.41
0.03 0.07 0.14 0.22 0.17 0.21 0.31 0.41 0.52 0.55 0.73 0.94 1.15 1.32 1.60 1.89 2.32 2.99 3.52 4.16 5.10 6.32 7.00 6.84 6.11 5.10 4.35 3.88 3.37 3.15 2.83 2.38 1.92 1.67 1.46 1.19 1.01 0.91 0.89 0.84 0.78 0.71 0.77 0.85 0.90 1.06 1.10 1.11 1.17
0.03 0.06 0.13 0.21 0.16 0.24 0.32 0.42 0.56 0.71 0.94 0.97 1.03 1.11 1.29 1.63 2.07 2.67 3.30 3.89 4.58 5.30 5.79 5.65 4.97 4.37 3.70 3.13 2.56 2.39 2.17 1.94 1.70 1.48 1.27 1.14 1.00 0.92 0.86 0.76 0.78 0.67 0.67 0.70 0.69 0.77 0.84 0.87 0.93
0.04 0.07 0.13 0.17 0.14 0.14 0.25 0.51 0.64 0.74 0.90 0.86 0.86 0.82 0.99 1.42 2.05 2.79 3.39 3.61 3.59 3.79 3.96 3.47 3.21 3.04 2.58 2.29 2.11 1.94 1.83 1.65 1.44 1.31 1.18 0.93 0.86 0.83 0.74 0.79 0.74 0.68 0.69 0.65 0.66 0.72 0.77 0.78 0.81
0.07 0.09 0.09 0.15 0.16 0.21 0.35 0.66 0.85 0.78 0.75 0.66 0.65 0.79 1.27 1.72 2.15 2.64 2.78 2.78 2.66 2.61 2.55 2.25 2.10 2.26 2.14 2.08 1.98 1.85 1.87 1.81 1.56 1.26 1.13 0.91 0.78 0.75 0.75 0.75 0.77 0.75 0.62 0.61 0.66 0.64 0.66 0.67 0.67
0.07 0.06 0.04 0.04 0.12 0.34 0.50 0.89 1.04 0.94 0.84 0.59 0.61 0.96 1.52 1.83 2.11 2.08 1.67 1.50 1.64 1.72 1.77 1.94 1.94 1.96 1.86 1.82 1.59 1.39 1.26 1.16 1.05 1.03 0.99 0.97 0.84 0.76 0.70 0.68 0.77 0.74 0.62 0.68 0.54 0.52 0.60 0.64 0.56
0.04 0.04 0.03 0.05 0.15 0.39 0.65 1.05 1.23 0.99 0.80 0.56 0.45 0.59 1.02 1.22 1.15 0.94 0.80 0.85 1.06 1.28 1.51 1.86 1.90 1.79 1.68 1.61 1.55 1.52 1.38 1.31 1.19 1.16 1.18 1.13 1.08 0.95 0.76 0.64 0.71 0.73 0.71 0.76 0.66 0.65 0.57 0.54 0.50
0.03 0.04 0.10 0.20 0.37 0.82 0.86 0.94 1.16 0.96 0.76 0.57 0.38 0.43 0.68 0.71 0.54 0.55 0.63 0.80 1.01 1.17 1.28 1.47 1.60 1.72 1.75 1.76 1.74 1.63 1.50 1.43 1.31 1.18 1.08 1.05 1.01 0.95 0.85 0.77 0.82 0.81 0.74 0.75 0.70 0.71 0.66 0.62 0.58
0.03 0.05 0.25 0.60 0.89 1.00 0.71 0.86 1.15 0.77 0.50 0.38 0.26 0.25 0.28 0.31 0.38 0.54 0.61 0.78 0.88 1.00 1.03 1.11 1.21 1.38 1.47 1.53 1.60 1.60 1.54 1.45 1.26 1.16 1.03 0.98 0.87 0.79 0.79 0.82 0.86 0.82 0.81 0.74 0.68 0.66 0.69 0.74 0.74
0.04 0.03 0.10 0.21 0.32 0.51 0.67 1.06 1.13 0.73 0.39 0.22 0.15 0.14 0.17 0.20 0.25 0.30 0.35 0.44 0.56 0.74 0.92 1.03 1.05 1.05 1.04 1.06 1.21 1.35 1.34 1.29 1.21 1.19 1.00 0.91 0.85 0.82 0.85 0.87 0.80 0.76 0.75 0.71 0.70 0.62 0.59 0.66 0.74
0.03 0.03 0.04 0.05 0.08 0.31 0.73 1.00 0.90 0.54 0.36 0.25 0.21 0.19 0.19 0.18 0.21 0.22 0.23 0.29 0.38 0.43 0.57 0.76 0.80 0.80 0.79 0.83 0.92 0.98 1.04 1.13 1.18 1.09 0.92 0.80 0.81 0.82 0.81 0.76 0.74 0.72 0.72 0.74 0.76 0.73 0.69 0.68 0.62
0.04 0.03 0.03 0.05 0.10 0.23 0.56 1.02 1.14 0.74 0.49 0.37 0.31 0.24 0.19 0.20 0.20 0.21 0.22 0.25 0.28 0.31 0.42 0.57 0.69 0.71 0.72 0.73 0.78 0.76 0.87 0.95 1.01 0.99 0.90 0.79 0.77 0.81 0.82 0.76 0.71 0.71 0.66 0.66 0.71 0.70 0.73 0.77 0.74
0.05 0.04 0.05 0.06 0.07 0.15 0.41 0.65 0.62 0.61 0.48 0.33 0.29 0.25 0.20 0.21 0.22 0.24 0.22 0.27 0.25 0.24 0.31 0.43 0.59 0.65 0.60 0.60 0.66 0.72 0.80 0.92 0.97 0.94 0.94 0.86 0.83 0.83 0.81 0.78 0.82 0.79 0.72 0.70 0.71 0.69 0.73 0.77 0.85
0.07 0.07 0.07 0.08 0.08 0.11 0.20 0.33 0.36 0.37 0.42 0.45 0.37 0.32 0.31 0.32 0.25 0.25 0.22 0.24 0.19 0.21 0.27 0.36 0.43 0.49 0.51 0.55 0.64 0.69 0.73 0.84 0.95 0.91 0.92 0.94 0.92 0.87 0.82 0.80 0.86 0.81 0.73 0.73 0.70 0.68 0.70 0.79 0.89

GEFSSGP_prec_meanprecacc_150.txt.gz
Total_Precipitation_Accumulation
0.02 0.05 0.15 0.32 0.93 1.13 0.97 0.58 0.43 0.35 0.34 0.36 0.43 0.42 0.41 0.46 0.58 0.99 0.49 0.15 0.06 0.02 0.03 0.12 0.22 0.19 0.16 0.15 0.16 0.19 0.21 0.21 0.20 0.18 0.16 0.14 0.12 0.13 0.13 0.15 0.17 0.19 0.23 0.22 0.24 0.29 0.35 0.38 0.39
0.04 0.07 0.21 0.55 0.97 1.03 0.88 0.46 0.34 0.32 0.29 0.40 0.46 0.38 0.33 0.35 0.26 0.23 0.22 0.17 0.06 0.02 0.02 0.04 0.16 0.18 0.15 0.15 0.16 0.17 0.17 0.16 0.16 0.16 0.15 0.13 0.13 0.15 0.16 0.17 0.19 0.23 0.26 0.29 0.32 0.35 0.31 0.28 0.31
0.06 0.11 0.35 0.71 0.62 0.58 0.55 0.32 0.28 0.34 0.42 0.61 0.70 0.47 0.38 0.45 0.30 0.17 0.13 0.11 0.08 0.04 0.02 0.07 0.14 0.16 0.15 0.14 0.14 0.15 0.14 0.14 0.15 0.15 0.15 0.13 0.14 0.16 0.18 0.20 0.24 0.29 0.37 0.39 0.38 0.35 0.29 0.27 0.28
0.07 0.16 0.37 0.44 0.26 0.24 0.31 0.22 0.28 0.38 0.67 0.79 0.81 0.64 0.49 0.44 0.31 0.21 0.11 0.09 0.09 0.06 0.04 0.09 0.14 0.16 0.16 0.14 0.14 0.14 0.14 0.14 0.15 0.16 0.15 0.13 0.14 0.18 0.22 0.24 0.26 0.29 0.37 0.36 0.37 0.32 0.31 0.28 0.31
0.05 0.20 0.42 0.31 0.13 0.13 0.15 0.13 0.20 0.32 0.56 0.77 0.79 0.83 0.73 0.57 0.44 0.29 0.16 0.09 0.06 0.05 0.06 0.09 0.16 0.19 0.19 0.18 0.18 0.17 0.16 0.15 0.16 0.16 0.15 0.16 0.18 0.22 0.27 0.27 0.25 0.27 0.34 0.34 0.31 0.32 0.33 0.35 0.39
0.10 0.21 0.31 0.22 0.13 0.09 0.11 0.12 0.21 0.39 0.59 0.76 0.92 1.00 0.81 0.57 0.43 0.30 0.21 0.19 0.20 0.08 0.06 0.11 0.18 0.21 0.21 0.22 0.22 0.21 0.19 0.17 0.17 0.17 0.18 0.19 0.21 0.22 0.25 0.26 0.29 0.29 0.31 0.31 0.31 0.31 0.30 0.37 0.42
0.09 0.13 0.16 0.14 0.12 0.09 0.09 0.15 0.25 0.40 0.51 0.80 1.07 1.11 0.82 0.69 0.54 0.37 0.37 0.34 0.59 0.30 0.17 0.15 0.16 0.20 0.23 0.27 0.26 0.24 0.21 0.20 0.19 0.20 0.19 0.19 0.19 0.20 0.24 0.29 0.33 0.31 0.33 0.31 0.32 0.32 0.33 0.37 0.41
0.05 0.06 0.09 0.10 0.06 0.05 0.08 0.15 0.26 0.39 0.65 0.92 0.93 1.01 1.00 0.73 0.64 0.61 0.64 0.60 0.72 0.57 0.34 0.27 0.26 0.31 0.31 0.29 0.27 0.29 0.26 0.23 0.21 0.20 0.19 0.20 0.21 0.24 0.32 0.36 0.40 0.38 0.41 0.39 0.40 0.40 0.43 0.47 0.48
0.03 0.06 0.09 0.08 0.03 0.05 0.11 0.20 0.27 0.33 0.54 0.72 0.80 0.76 0.60 0.58 0.72 0.81 0.84 0.87 0.91 0.87 0.74 0.64 0.55 0.48 0.50 0.45 0.36 0.41 0.39 0.38 0.36 0.37 0.37 0.46 0.62 0.59 0.69 0.62 0.65 0.60 0.61 0.63 0.65 0.66 0.67 0.69 0.60
0.02 0.05 0.04 0.02 0.01 0.04 0.10 0.18 0.31 0.40 0.70 1.05 1.08 1.11 0.78 0.80 0.95 1.00 0.97 0.92 1.05 1.16 1.06 1.04 0.88 0.68 0.60 0.56 0.70 0.86 0.81 0.82 0.85 0.92 0.89 1.04 1.13 1.12 0.90 0.94 1.02 1.04 1.12 1.12 1.16 1.34 1.17 0.95 0.81
0.01 0.01 0.01 0.00 0.00 0.01 0.04 0.10 0.14 0.34 0.77 1.21 1.26 1.23 1.02 1.01 1.11 1.21 1.23 1.34 1.44 1.60 1.39 1.16 1.15 1.07 1.05 1.07 1.07 1.11 1.25 1.31 1.43 1.50 1.46 1.61 1.41 1.25 1.15 1.35 1.51 1.48 1.45 1.37 1.60 1.82 1.51 1.45 1.59
0.00 0.00 0.00 0.00 0.00 0.01 0.03 0.11 0.20 0.35 0.78 1.06 0.98 0.85 0.87 1.08 1.27 1.43 1.75 1.96 2.11 2.20 2.10 1.98 1.77 1.63 1.62 1.48 1.29 1.21 1.18 1.25 1.36 1.48 1.52 1.69 1.77 1.68 1.71 1.85 1.71 1.68 1.72 1.91 1.88 2.08 1.95 1.83 1.74
0.00 0.00 0.00 0.01 0.01 0.01 0.05 0.15 0.28 0.40 0.67 0.66 0.58 0.65 1.04 1.30 1.52 1.82 2.03 2.22 2.41 2.67 2.77 3.20 2.98 2.46 2.10 1.82 1.53 1.27 1.21 1.08 1.05 1.17 1.37 1.55 1.69 1.81 1.93 1.78 1.66 1.44 1.66 1.92 2.01 1.84 2.03 2.03 2.07
0.00 0.00 0.01 0.02 0.01 0.03 0.06 0.11 0.35 0.46 0.56 0.63 0.62 0.92 1.37 1.86 2.04 2.25 2.52 2.90 3.16 3.53 3.50 3.59 3.86 3.31 2.58 2.07 1.74 1.44 1.16 1.15 1.15 1.17 1.22 1.40 1.55 1.64 1.71 1.65 1.58 1.52 1.64 1.81 1.84 1.85 2.10 2.19 2.16
0.00 0.03 0.11 0.09 0.05 0.06 0.09 0.22 0.45 0.60 0.61 0.80 0.90 1.13 1.66 2.29 2.30 2.55 2.82 3.28 3.73 4.17 4.27 4.27 4.38 4.00 3.40 2.86 2.29 1.77 1.47 1.25 1.25 1.26 1.16 1.17 1.30 1.35 1.46 1.49 1.44 1.50 1.54 1.54 1.52 1.59 1.80 1.79 1.73
0.01 0.08 0.23 0.19 0.09 0.09 0.15 0.54 0.74 0.66 0.60 0.88 1.13 1.37 1.83 2.47 2.53 2.82 3.26 3.77 4.44 4.85 5.06 5.07 4.78 4.58 4.06 3.41 2.82 2.38 2.04 1.74 1.46 1.32 1.15 0.97 1.04 1.08 1.17 1.12 1.15 1.19 1.21 1.21 1.26 1.31 1.44 1.56 1.66
0.03 0.08 0.20 0.19 0.14 0.12 0.20 0.64 0.67 0.44 0.58 0.87 1.19 1.49 1.80 2.14 2.62 3.17 3.66 4.21 5.08 6.01 6.44 6.20 5.46 4.90 4.31 3.67 3.13 2.91 2.66 2.22 1.80 1.62 1.39 1.15 1.00 0.97 1.03 1.04 1.06 0.93 0.96 0.98 0.93 1.08 1.24 1.40 1.47
0.03 0.07 0.14 0.22 0.17 0.21 0.31 0.41 0.52 0.55 0.73 0.94 1.15 1.32 1.60 1.89 2.32 2.99 3.53 4.19 5.14 6.38 7.04 6.89 6.16 5.16 4.41 3.95 3.44 3.19 2.87 2.44 1.97 1.72 1.53 1.25 1.06 0.95 0.94 0.89 0.82 0.74 0.81 0.89 0.95 1.12 1.15 1.16 1.22
0.03 0.06 0.13 0.21 0.16 0.24 0.32 0.42 0.56 0.72 0.94 0.97 1.03 1.11 1.29 1.63 2.07 2.67 3.32 3.91 4.60 5.34 5.82 5.69 5.02 4.43 3.78 3.23 2.64 2.44 2.21 2.00 1.75 1.52 1.31 1.20 1.06 0.98 0.93 0.83 0.86 0.73 0.73 0.74 0.72 0.82 0.91 0.93 0.97
0.04 0.07 0.13 0.17 0.14 0.14 0.25 0.51 0.66 0.75 0.91 0.86 0.86 0.82 0.99 1.42 2.05 2.80 3.41 3.62 3.60 3.81 3.99 3.52 3.26 3.09 2.65 2.37 2.21 1.99 1.89 1.70 1.48 1.35 1.23 0.98 0.93 0.93 0.83 0.85 0.81 0.75 0.76 0.71 0.72 0.79 0.85 0.87 0.88
0.07 0.09 0.09 0.15 0.16 0.21 0.35 0.68 0.89 0.81 0.76 0.66 0.65 0.79 1.27 1.72 2.16 2.65 2.80 2.80 2.68 2.62 2.58 2.30 2.16 2.32 2.21 2.16 2.07 1.92 1.93 1.88 1.63 1.31 1.19 0.96 0.82 0.81 0.81 0.82 0.83 0.83 0.68 0.69 0.74 0.71 0.74 0.76 0.75
0.07 0.06 0.04 0.04 0.12 0.34 0.50 0.89 1.06 0.96 0.85 0.59 0.62 0.97 1.53 1.84 2.11 2.09 1.69 1.53 1.66 1.73 1.80 1.99 2.00 2.02 1.91 1.90 1.67 1.46 1.33 1.25 1.16 1.12 1.07 1.03 0.88 0.80 0.75 0.75 0.85 0.82 0.71 0.78 0.60 0.59 0.68 0.73 0.63
0.04 0.04 0.03 0.05 0.15 0.39 0.65 1.05 1.23 1.00 0.81 0.57 0.51 0.61 1.02 1.22 1.17 0.94 0.81 0.85 1.07 1.30 1.53 1.90 1.95 1.84 1.72 1.66 1.61 1.60 1.47 1.42 1.32 1.26 1.29 1.23 1.16 1.02 0.80 0.70 0.79 0.82 0.80 0.86 0.75 0.78 0.67 0.62 0.58
0.03 0.04 0.10 0.20 0.37 0.82 0.86 0.94 1.16 0.97 0.77 0.58 0.39 0.44 0.68 0.71 0.54 0.55 0.63 0.81 1.02 1.18 1.30 1.49 1.64 1.76 1.79 1.80 1.79 1.69 1.60 1.57 1.43 1.31 1.20 1.15 1.11 1.04 0.93 0.85 0.92 0.91 0.84 0.85 0.80 0.81 0.75 0.70 0.68
0.03 0.05 0.25 0.60 0.89 1.00 0.72 0.86 1.15 0.77 0.50 0.38 0.26 0.25 0.28 0.31 0.39 0.54 0.61 0.78 0.89 1.01 1.04 1.12 1.24 1.41 1.51 1.58 1.66 1.66 1.63 1.58 1.40 1.30 1.16 1.09 0.96 0.88 0.89 0.94 0.98 0.93 0.93 0.85 0.79 0.79 0.81 0.88 0.88
0.04 0.03 0.10 0.21 0.33 0.52 0.68 1.06 1.13 0.73 0.39 0.22 0.15 0.14 0.17 0.20 0.25 0.30 0.35 0.44 0.57 0.75 0.93 1.06 1.08 1.08 1.08 1.11 1.27 1.42 1.43 1.41 1.35 1.34 1.13 1.02 0.95 0.92 0.96 0.99 0.90 0.86 0.85 0.81 0.84 0.75 0.73 0.81 0.89
0.03 0.03 0.04 0.05 0.08 0.31 0.73 1.00 0.90 0.54 0.36 0.25 0.21 0.19 0.19 0.19 0.23 0.22 0.23 0.29 0.38 0.44 0.58 0.78 0.84 0.83 0.84 0.88 0.98 1.05 1.12 1.23 1.30 1.24 1.05 0.90 0.92 0.92 0.92 0.84 0.81 0.80 0.80 0.84 0.89 0.86 0.82 0.82 0.75
0.04 0.03 0.03 0.05 0.10 0.23 0.56 1.02 1.16 0.77 0.50 0.37 0.31 0.24 0.19 0.20 0.20 0.21 0.23 0.25 0.28 0.31 0.43 0.58 0.72 0.75 0.75 0.77 0.83 0.81 0.94 1.03 1.11 1.09 1.02 0.88 0.86 0.91 0.90 0.83 0.79 0.79 0.73 0.74 0.82 0.81 0.83 0.88 0.85
0.05 0.04 0.05 0.06 0.07 0.15 0.41 0.65 0.65 0.66 0.50 0.33 0.29 0.25 0.20 0.21 0.23 0.25 0.22 0.28 0.25 0.24 0.31 0.43 0.60 0.67 0.62 0.64 0.70 0.77 0.85 0.98 1.04 1.02 1.02 0.95 0.92 0.92 0.90 0.86 0.89 0.86 0.80 0.78 0.80 0.79 0.83 0.88 0.96
0.07 0.07 0.07 0.08 0.08 0.11 0.20 0.33 0.37 0.40 0.42 0.45 0.37 0.32 0.31 0.32 0.26 0.27 0.22 0.24 0.19 0.21 0.27 0.36 0.43 0.51 0.54 0.59 0.67 0.73 0.77 0.88 1.00 0.97 1.00 1.03 1.00 0.95 0.89 0.87 0.92 0.87 0.82 0.83 0.79 0.78 0.81 0.88 0.98

GEFSSGP_prec_meanprecacc_156.txt.gz
Total_Precipitation_Accumulation
0.02 0.06 0.16 0.34 0.95 1.15 0.98 0.58 0.43 0.35 0.34 0.37 0.43 0.42 0.41 0.47 0.59 1.00 0.52 0.17 0.06 0.02 0.03 0.13 0.23 0.20 0.16 0.16 0.17 0.19 0.22 0.21 0.21 0.19 0.18 0.16 0.14 0.14 0.14 0.17 0.19 0.21 0.24 0.23 0.25 0.31 0.36 0.41 0.44
0.06 0.09 0.22 0.57 0.99 1.04 0.89 0.46 0.35 0.32 0.29 0.40 0.46 0.39 0.33 0.36 0.26 0.23 0.23 0.18 0.07 0.02 0.02 0.04 0.16 0.18 0.15 0.16 0.17 0.18 0.18 0.16 0.16 0.16 0.16 0.14 0.14 0.16 0.17 0.19 0.21 0.25 0.28 0.31 0.34 0.37 0.33 0.30 0.35
0.08 0.12 0.36 0.74 0.63 0.58 0.55 0.32 0.29 0.35 0.43 0.61 0.71 0.48 0.38 0.45 0.30 0.17 0.14 0.11 0.08 0.04 0.02 0.07 0.14 0.16 0.15 0.14 0.15 0.16 0.15 0.14 0.15 0.16 0.16 0.14 0.15 0.18 0.19 0.23 0.26 0.31 0.39 0.41 0.40 0.37 0.31 0.28 0.32
0.08 0.17 0.39 0.46 0.27 0.24 0.31 0.23 0.29 0.39 0.67 0.79 0.81 0.64 0.49 0.44 0.31 0.21 0.12 0.09 0.09 0.06 0.04 0.09 0.15 0.16 0.16 0.15 0.15 0.14 0.14 0.15 0.16 0.16 0.15 0.14 0.16 0.20 0.24 0.28 0.30 0.32 0.39 0.38 0.39 0.34 0.33 0.31 0.34
0.07 0.21 0.44 0.32 0.14 0.13 0.15 0.13 0.20 0.32 0.57 0.78 0.79 0.84 0.73 0.58 0.44 0.29 0.17 0.10 0.07 0.05 0.06 0.09 0.16 0.19 0.20 0.18 0.18 0.17 0.16 0.15 0.16 0.16 0.16 0.17 0.20 0.24 0.30 0.32 0.29 0.28 0.35 0.36 0.32 0.34 0.36 0.39 0.41
0.12 0.23 0.35 0.25 0.14 0.10 0.11 0.12 0.21 0.39 0.60 0.77 0.93 1.01 0.81 0.57 0.43 0.31 0.22 0.20 0.21 0.08 0.06 0.11 0.18 0.21 0.22 0.23 0.22 0.21 0.19 0.17 0.17 0.17 0.18 0.20 0.22 0.23 0.27 0.29 0.30 0.30 0.32 0.32 0.33 0.33 0.32 0.39 0.44
0.10 0.17 0.22 0.17 0.13 0.10 0.10 0.15 0.25 0.40 0.52 0.81 1.09 1.13 0.83 0.69 0.54 0.37 0.38 0.35 0.60 0.31 0.17 0.15 0.16 0.20 0.23 0.27 0.26 0.24 0.22 0.20 0.19 0.20 0.20 0.19 0.19 0.21 0.25 0.32 0.34 0.32 0.34 0.32 0.35 0.34 0.34 0.39 0.43
0.06 0.08 0.12 0.12 0.07 0.06 0.09 0.16 0.26 0.39 0.66 0.93 0.95 1.02 1.00 0.73 0.65 0.62 0.64 0.61 0.73 0.58 0.35 0.27 0.26 0.31 0.31 0.29 0.27 0.29 0.26 0.23 0.21 0.21 0.19 0.21 0.23 0.24 0.33 0.38 0.41 0.39 0.43 0.41 0.42 0.42 0.44 0.48 0.49
0.04 0.08 0.12 0.10 0.04 0.05 0.11 0.21 0.28 0.34 0.55 0.73 0.81 0.77 0.60 0.58 0.72 0.81 0.85 0.88 0.92 0.88 0.74 0.64 0.55 0.48 0.50 0.45 0.36 0.41 0.40 0.38 0.36 0.38 0.38 0.47 0.63 0.60 0.70 0.62 0.66 0.62 0.63 0.65 0.67 0.68 0.68 0.70 0.62
0.02 0.07 0.06 0.03 0.02 0.04 0.10 0.19 0.32 0.41 0.70 1.06 1.08 1.11 0.78 0.80 0.95 1.00 0.98 0.93 1.06 1.17 1.07 1.04 0.89 0.68 0.60 0.56 0.70 0.87 0.82 0.83 0.85 0.92 0.90 1.05 1.14 1.13 0.91 0.95 1.04 1.06 1.15 1.15 1.19 1.36 1.19 0.96 0.82
0.01 0.02 0.01 0.01 0.01 0.01 0.05 0.11 0.15 0.35 0.77 1.21 1.26 1.23 1.03 1.01 1.12 1.22 1.25 1.36 1.47 1.64 1.41 1.19 1.18 1.09 1.07 1.09 1.09 1.13 1.27 1.33 1.46 1.52 1.48 1.62 1.42 1.27 1.16 1.36 1.53 1.49 1.47 1.38 1.61 1.84 1.52 1.47 1.61
0.00 0.00 0.01 0.01 0.01 0.01 0.04 0.11 0.21 0.36 0.79 1.07 0.98 0.86 0.89 1.09 1.28 1.44 1.78 1.99 2.16 2.27 2.19 2.06 1.83 1.66 1.65 1.50 1.33 1.26 1.26 1.30 1.40 1.51 1.55 1.71 1.79 1.70 1.72 1.86 1.72 1.69 1.73 1.92 1.90 2.11 1.99 1.85 1.78
0.00 0.00 0.00 0.01 0.01 0.02 0.06 0.15 0.29 0.42 0.68 0.66 0.58 0.66 1.05 1.31 1.53 1.82 2.04 2.25 2.45 2.78 2.99 3.39 3.15 2.52 2.15 1.86 1.57 1.30 1.27 1.12 1.08 1.19 1.40 1.58 1.72 1.84 1.96 1.80 1.67 1.47 1.68 1.96 2.05 1.87 2.06 2.06 2.09
0.00 0.00 0.02 0.03 0.02 0.03 0.07 0.12 0.36 0.48 0.57 0.64 0.62 0.92 1.38 1.87 2.05 2.26 2.54 2.93 3.23 3.65 3.66 3.76 4.07 3.44 2.67 2.13 1.78 1.47 1.20 1.19 1.18 1.19 1.24 1.43 1.58 1.67 1.74 1.67 1.60 1.55 1.66 1.85 1.87 1.89 2.13 2.22 2.19
0.00 0.03 0.11 0.10 0.05 0.06 0.09 0.22 0.46 0.61 0.62 0.82 0.91 1.14 1.68 2.31 2.31 2.57 2.85 3.33 3.78 4.24 4.34 4.36 4.54 4.13 3.51 2.92 2.33 1.80 1.49 1.28 1.28 1.29 1.20 1.21 1.34 1.38 1.49 1.52 1.46 1.53 1.56 1.56 1.55 1.64 1.83 1.83 1.77
0.01 0.08 0.24 0.19 0.09 0.09 0.15 0.55 0.74 0.67 0.65 0.91 1.15 1.38 1.84 2.49 2.54 2.84 3.29 3.82 4.49 4.90 5.11 5.13 4.89 4.66 4.12 3.45 2.87 2.41 2.06 1.76 1.49 1.36 1.21 1.02 1.09 1.12 1.22 1.17 1.18 1.20 1.23 1.22 1.28 1.33 1.48 1.60 1.69
0.03 0.09 0.21 0.20 0.14 0.12 0.21 0.65 0.69 0.47 0.62 0.91 1.22 1.51 1.81 2.15 2.62 3.19 3.68 4.24 5.11 6.04 6.48 6.24 5.53 4.95 4.36 3.72 3.19 2.96 2.70 2.27 1.84 1.67 1.46 1.23 1.10 1.05 1.07 1.08 1.09 0.95 0.98 1.00 0.96 1.11 1.28 1.45 1.51
0.03 0.07 0.15 0.22 0.17 0.22 0.32 0.42 0.54 0.59 0.77 0.98 1.20 1.37 1.64 1.90 2.33 3.01 3.54 4.21 5.15 6.40 7.07 6.93 6.21 5.21 4.46 4.02 3.53 3.27 2.94 2.50 2.02 1.77 1.59 1.37 1.26 1.07 0.99 0.92 0.85 0.76 0.84 0.93 0.99 1.20 1.21 1.20 1.25
0.03 0.06 0.14 0.21 0.17 0.25 0.32 0.43 0.58 0.75 0.97 1.01 1.09 1.20 1.41 1.68 2.09 2.69 3.34 3.93 4.62 5.36 5.85 5.72 5.07 4.48 3.83 3.30 2.71 2.54 2.27 2.04 1.80 1.57 1.36 1.32 1.26 1.06 0.96 0.85 0.90 0.77 0.77 0.78 0.76 0.87 0.96 0.97 1.01
0.04 0.07 0.13 0.18 0.14 0.14 0.26 0.52 0.67 0.76 0.93 0.89 0.90 0.93 1.12 1.47 2.07 2.82 3.43 3.63 3.61 3.83 4.01 3.54 3.29 3.13 2.70 2.43 2.29 2.11 1.94 1.74 1.53 1.40 1.31 1.10 1.07 0.99 0.88 0.89 0.84 0.79 0.81 0.77 0.76 0.83 0.89 0.90 0.93
0.07 0.09 0.09 0.15 0.16 0.22 0.36 0.68 0.89 0.83 0.81 0.70 0.69 0.90 1.37 1.77 2.19 2.68 2.82 2.82 2.70 2.65 2.61 2.34 2.20 2.38 2.26 2.21 2.14 2.03 1.98 1.91 1.67 1.37 1.25 1.03 0.89 0.87 0.87 0.84 0.86 0.86 0.73 0.74 0.78 0.75 0.78 0.80 0.80
0.07 0.06 0.04 0.04 0.12 0.34 0.50 0.90 1.06 0.98 0.92 0.64 0.69 1.07 1.58 1.90 2.16 2.12 1.71 1.55 1.70 1.77 1.85 2.04 2.05 2.08 1.96 1.94 1.73 1.53 1.39 1.28 1.20 1.17 1.11 1.08 0.94 0.85 0.79 0.78 0.89 0.86 0.75 0.82 0.63 0.64 0.73 0.78 0.68
0.04 0.04 0.03 0.05 0.15 0.39 0.65 1.06 1.24 1.02 0.83 0.60 0.57 0.66 1.04 1.25 1.22 0.99 0.83 0.88 1.11 1.34 1.58 1.93 1.98 1.88 1.76 1.70 1.65 1.65 1.52 1.47 1.38 1.33 1.34 1.27 1.22 1.08 0.86 0.75 0.83 0.87 0.84 0.90 0.79 0.85 0.73 0.66 0.61
0.03 0.04 0.10 0.20 0.37 0.82 0.86 0.95 1.17 0.98 0.78 0.60 0.41 0.45 0.70 0.74 0.59 0.60 0.66 0.83 1.04 1.22 1.32 1.51 1.66 1.78 1.80 1.82 1.82 1.73 1.64 1.62 1.49 1.35 1.23 1.19 1.16 1.10 1.00 0.91 0.99 0.97 0.90 0.90 0.86 0.89 0.82 0.76 0.73
0.03 0.05 0.25 0.60 0.89 1.01 0.72 0.86 1.16 0.78 0.52 0.40 0.28 0.26 0.29 0.34 0.43 0.59 0.64 0.83 0.93 1.04 1.06 1.14 1.25 1.43 1.53 1.59 1.68 1.71 1.68 1.64 1.47 1.35 1.20 1.13 1.01 0.93 0.96 1.01 1.07 1.01 1.00 0.92 0.89 0.89 0.90 0.96 0.96
0.04 0.03 0.10 0.21 0.33 0.52 0.68 1.07 1.15 0.74 0.40 0.24 0.19 0.19 0.18 0.22 0.29 0.34 0.37 0.47 0.60 0.76 0.94 1.08 1.11 1.10 1.11 1.13 1.31 1.48 1.49 1.48 1.40 1.39 1.19 1.09 1.00 0.97 1.02 1.06 0.96 0.91 0.92 0.89 0.92 0.83 0.79 0.87 0.95
0.03 0.03 0.04 0.05 0.08 0.31 0.73 1.00 0.92 0.58 0.40 0.28 0.24 0.24 0.21 0.21 0.28 0.25 0.24 0.31 0.40 0.45 0.59 0.80 0.87 0.87 0.87 0.91 1.03 1.11 1.17 1.28 1.35 1.27 1.11 0.97 0.99 0.99 0.99 0.91 0.88 0.88 0.90 0.94 0.97 0.94 0.89 0.90 0.81
0.04 0.03 0.03 0.05 0.10 0.23 0.56 1.03 1.17 0.80 0.55 0.39 0.32 0.25 0.21 0.21 0.23 0.26 0.26 0.27 0.29 0.31 0.44 0.59 0.73 0.76 0.77 0.79 0.86 0.85 0.98 1.08 1.15 1.14 1.08 0.95 0.93 0.98 0.97 0.90 0.86 0.87 0.82 0.83 0.92 0.90 0.92 0.96 0.92
0.05 0.04 0.05 0.06 0.07 0.15 0.41 0.66 0.65 0.67 0.52 0.34 0.31 0.26 0.21 0.21 0.25 0.29 0.25 0.29 0.25 0.24 0.32 0.44 0.61 0.68 0.64 0.65 0.73 0.82 0.89 1.03 1.09 1.05 1.06 0.99 0.97 0.97 0.96 0.93 0.97 0.93 0.88 0.86 0.90 0.89 0.93 0.98 1.05
0.07 0.07 0.07 0.08 0.08 0.11 0.20 0.33 0.37 0.40 0.43 0.47 0.39 0.33 0.31 0.32 0.27 0.28 0.23 0.25 0.20 0.21 0.28 0.36 0.44 0.52 0.54 0.60 0.70 0.77 0.82 0.93 1.04 1.00 1.04 1.09 1.04 0.99 0.93 0.94 1.00 0.94 0.90 0.91 0.86 0.85 0.90 0.98 1.07

GEFSSGP_prec_meanprecacc_162.txt.gz
Total_Precipitation_Accumulation
0.03 0.06 0.16 0.34 0.95 1.15 0.98 0.58 0.43 0.35 0.34 0.37 0.44 0.43 0.42 0.47 0.59 1.00 0.52 0.17 0.07 0.03 0.04 0.15 0.25 0.21 0.17 0.16 0.19 0.21 0.23 0.23 0.23 0.22 0.20 0.17 0.17 0.18 0.18 0.21 0.24 0.25 0.28 0.28 0.30 0.35 0.41 0.46 0.49
0.06 0.09 0.22 0.57 0.99 1.04 0.89 0.46 0.35 0.32 0.29 0.40 0.46 0.39 0.33 0.36 0.26 0.23 0.23 0.18 0.07 0.02 0.02 0.05 0.17 0.19 0.16 0.16 0.19 0.18 0.19 0.17 0.17 0.17 0.17 0.16 0.17 0.19 0.20 0.22 0.24 0.28 0.31 0.34 0.38 0.41 0.38 0.34 0.40
0.08 0.13 0.36 0.74 0.63 0.58 0.56 0.32 0.29 0.35 0.43 0.61 0.71 0.48 0.38 0.45 0.30 0.17 0.14 0.11 0.08 0.05 0.03 0.07 0.15 0.17 0.15 0.15 0.16 0.17 0.15 0.15 0.16 0.16 0.17 0.16 0.18 0.21 0.22 0.25 0.29 0.34 0.43 0.45 0.44 0.41 0.35 0.33 0.37
0.08 0.17 0.39 0.46 0.27 0.24 0.31 0.23 0.29 0.39 0.67 0.79 0.82 0.64 0.49 0.44 0.31 0.21 0.12 0.09 0.09 0.06 0.05 0.10 0.16 0.17 0.17 0.15 0.15 0.15 0.15 0.16 0.17 0.18 0.17 0.16 0.19 0.23 0.26 0.30 0.32 0.34 0.42 0.41 0.43 0.38 0.37 0.35 0.39
0.07 0.21 0.44 0.32 0.14 0.13 0.16 0.14 0.20 0.32 0.57 0.78 0.80 0.84 0.73 0.58 0.44 0.29 0.17 0.10 0.07 0.05 0.06 0.09 0.16 0.19 0.20 0.19 0.19 0.18 0.17 0.16 0.17 0.18 0.17 0.19 0.24 0.28 0.33 0.35 0.32 0.30 0.38 0.39 0.37 0.40 0.40 0.42 0.45
0.13 0.23 0.35 0.25 0.14 0.10 0.12 0.12 0.21 0.39 0.60 0.77 0.93 1.01 0.81 0.57 0.43 0.31 0.22 0.20 0.21 0.08 0.06 0.11 0.18 0.21 0.22 0.23 0.23 0.22 0.20 0.18 0.18 0.19 0.19 0.22 0.26 0.28 0.30 0.33 0.34 0.32 0.35 0.35 0.37 0.38 0.36 0.42 0.49
0.10 0.17 0.22 0.17 0.13 0.10 0.10 0.16 0.26 0.40 0.52 0.81 1.09 1.13 0.83 0.69 0.54 0.38 0.38 0.35 0.60 0.31 0.17 0.16 0.16 0.21 0.24 0.28 0.27 0.25 0.22 0.21 0.21 0.21 0.21 0.21 0.22 0.24 0.29 0.35 0.38 0.36 0.37 0.37 0.39 0.37 0.37 0.43 0.46
0.07 0.08 0.12 0.12 0.07 0.06 0.09 0.16 0.26 0.39 0.66 0.93 0.95 1.02 1.00 0.74 0.65 0.62 0.64 0.61 0.73 0.58 0.35 0.27 0.27 0.32 0.31 0.30 0.29 0.30 0.26 0.23 0.22 0.22 0.20 0.23 0.25 0.27 0.36 0.41 0.44 0.43 0.47 0.44 0.45 0.45 0.47 0.51 0.53
0.04 0.08 0.12 0.10 0.04 0.05 0.12 0.21 0.28 0.34 0.55 0.73 0.81 0.77 0.61 0.58 0.72 0.81 0.86 0.89 0.92 0.88 0.75 0.65 0.55 0.48 0.50 0.45 0.37 0.42 0.40 0.39 0.37 0.39 0.40 0.49 0.64 0.61 0.71 0.64 0.68 0.64 0.66 0.67 0.70 0.71 0.71 0.73 0.66
0.02 0.07 0.06 0.03 0.02 0.04 0.10 0.19 0.32 0.41 0.70 1.06 1.09 1.12 0.78 0.80 0.95 1.01 0.99 0.94 1.08 1.18 1.08 1.05 0.89 0.69 0.61 0.57 0.71 0.87 0.82 0.83 0.86 0.93 0.91 1.05 1.14 1.14 0.92 0.97 1.08 1.10 1.18 1.18 1.22 1.39 1.21 0.98 0.83
0.01 0.02 0.01 0.01 0.01 0.01 0.05 0.11 0.15 0.35 0.77 1.21 1.27 1.23 1.03 1.01 1.12 1.23 1.27 1.39 1.51 1.66 1.43 1.21 1.19 1.11 1.09 1.10 1.09 1.13 1.27 1.34 1.46 1.53 1.49 1.63 1.43 1.28 1.18 1.37 1.56 1.52 1.49 1.40 1.63 1.86 1.54 1.47 1.61
0.00 0.00 0.01 0.01 0.01 0.01 0.04 0.11 0.21 0.36 0.79 1.07 0.98 0.86 0.89 1.09 1.29 1.46 1.82 2.05 2.22 2.32 2.23 2.11 1.87 1.69 1.67 1.52 1.34 1.27 1.27 1.32 1.41 1.52 1.56 1.73 1.81 1.71 1.73 1.87 1.73 1.71 1.75 1.93 1.91 2.12 2.00 1.86 1.79
0.00 0.00 0.01 0.01 0.01 0.02 0.06 0.15 0.29 0.42 0.69 0.67 0.59 0.66 1.05 1.31 1.54 1.85 2.08 2.29 2.51 2.85 3.07 3.48 3.21 2.56 2.19 1.90 1.59 1.32 1.29 1.16 1.11 1.21 1.42 1.60 1.74 1.86 1.97 1.81 1.69 1.49 1.70 1.97 2.05 1.88 2.07 2.07 2.10
0.00 0.00 0.02 0.03 0.02 0.03 0.07 0.12 0.36 0.48 0.58 0.65 0.63 0.92 1.38 1.87 2.06 2.29 2.58 2.98 3.27 3.69 3.70 3.80 4.13 3.48 2.70 2.17 1.81 1.50 1.22 1.23 1.23 1.22 1.27 1.46 1.61 1.70 1.76 1.69 1.61 1.57 1.68 1.86 1.89 1.90 2.14 2.23 2.20
0.00 0.03 0.11 0.10 0.06 0.06 0.09 0.22 0.46 0.61 0.63 0.84 0.91 1.14 1.68 2.32 2.32 2.60 2.90 3.37 3.82 4.27 4.37 4.39 4.58 4.17 3.55 2.96 2.37 1.83 1.53 1.33 1.33 1.35 1.25 1.26 1.39 1.42 1.51 1.53 1.48 1.54 1.59 1.59 1.57 1.65 1.85 1.85 1.80
0.01 0.08 0.24 0.19 0.09 0.09 0.15 0.55 0.75 0.67 0.65 0.94 1.16 1.39 1.85 2.50 2.56 2.86 3.32 3.85 4.53 4.94 5.14 5.15 4.91 4.69 4.16 3.49 2.91 2.47 2.14 1.83 1.56 1.42 1.26 1.10 1.16 1.18 1.25 1.19 1.19 1.21 1.24 1.25 1.31 1.36 1.52 1.64 1.72
0.03 0.09 0.21 0.20 0.14 0.12 0.21 0.65 0.69 0.47 0.63 0.92 1.23 1.53 1.82 2.16 2.65 3.21 3.71 4.29 5.17 6.09 6.51 6.27 5.56 5.01 4.41 3.78 3.25 3.03 2.77 2.35 1.92 1.73 1.51 1.28 1.15 1.10 1.11 1.10 1.10 0.96 1.00 1.03 0.99 1.14 1.32 1.48 1.53
0.03 0.07 0.15 0.22 0.17 0.22 0.32 0.42 0.54 0.59 0.77 0.99 1.21 1.38 1.66 1.96 2.36 3.05 3.63 4.31 5.25 6.45 7.12 6.97 6.26 5.31 4.55 4.10 3.60 3.33 3.00 2.56 2.08 1.81 1.64 1.40 1.29 1.11 1.01 0.95 0.88 0.78 0.86 0.96 1.04 1.25 1.26 1.24 1.28
0.03 0.06 0.14 0.21 0.17 0.25 0.32 0.43 0.58 0.75 0.98 1.02 1.10 1.21 1.43 1.72 2.13 2.79 3.47 4.04 4.69 5.41 5.94 5.78 5.12 4.58 3.94 3.38 2.79 2.59 2.31 2.09 1.84 1.62 1.41 1.36 1.30 1.10 1.01 0.90 0.95 0.81 0.80 0.82 0.81 0.93 1.00 0.99 1.04
0.04 0.07 0.13 0.18 0.14 0.14 0.26 0.52 0.67 0.76 0.93 0.89 0.91 0.94 1.13 1.48 2.09 2.86 3.47 3.66 3.66 3.90 4.14 3.62 3.38 3.29 2.84 2.51 2.39 2.20 1.99 1.78 1.58 1.47 1.37 1.16 1.10 1.02 0.92 0.95 0.91 0.84 0.86 0.82 0.80 0.89 0.94 0.94 0.98
0.07 0.09 0.09 0.15 0.16 0.22 0.36 0.68 0.90 0.83 0.82 0.71 0.70 0.91 1.38 1.77 2.20 2.71 2.88 2.88 2.75 2.72 2.68 2.42 2.32 2.54 2.40 2.31 2.23 2.15 2.05 1.94 1.69 1.40 1.30 1.09 0.94 0.91 0.91 0.89 0.92 0.92 0.78 0.78 0.82 0.80 0.83 0.85 0.85
0.07 0.06 0.04 0.04 0.12 0.34 0.50 0.90 1.06 0.99 0.92 0.65 0.69 1.08 1.58 1.90 2.17 2.15 1.76 1.63 1.76 1.84 1.91 2.10 2.14 2.18 2.05 2.02 1.80 1.62 1.46 1.31 1.22 1.19 1.14 1.13 0.99 0.90 0.83 0.83 0.93 0.91 0.79 0.85 0.67 0.68 0.79 0.83 0.72
0.04 0.04 0.03 0.05 0.15 0.39 0.65 1.06 1.24 1.02 0.84 0.60 0.57 0.66 1.04 1.25 1.23 1.02 0.88 0.95 1.18 1.41 1.63 1.98 2.03 1.95 1.83 1.76 1.71 1.69 1.57 1.49 1.40 1.36 1.36 1.31 1.28 1.13 0.92 0.81 0.89 0.93 0.89 0.93 0.83 0.90 0.77 0.70 0.64
0.03 0.04 0.10 0.20 0.37 0.82 0.86 0.95 1.17 0.98 0.78 0.60 0.41 0.45 0.70 0.74 0.59 0.61 0.69 0.88 1.11 1.28 1.38 1.56 1.70 1.83 1.86 1.86 1.87 1.76 1.67 1.65 1.50 1.36 1.25 1.23 1.22 1.16 1.07 0.97 1.04 1.04 0.97 0.96 0.90 0.94 0.88 0.81 0.76
0.03 0.05 0.25 0.60 0.89 1.01 0.72 0.86 1.16 0.78 0.52 0.40 0.28 0.26 0.29 0.34 0.43 0.60 0.66 0.85 0.96 1.07 1.10 1.19 1.29 1.46 1.57 1.64 1.73 1.74 1.71 1.67 1.49 1.37 1.22 1.16 1.06 0.99 1.03 1.10 1.15 1.09 1.09 1.02 0.98 0.98 0.97 1.02 1.01
0.04 0.03 0.10 0.21 0.33 0.52 0.68 1.07 1.15 0.75 0.40 0.24 0.19 0.19 0.18 0.23 0.29 0.34 0.38 0.47 0.61 0.78 0.97 1.10 1.14 1.13 1.15 1.19 1.35 1.52 1.53 1.52 1.43 1.41 1.21 1.13 1.04 1.04 1.11 1.17 1.08 1.02 1.02 0.99 1.02 0.94 0.89 0.95 1.01
0.03 0.03 0.04 0.05 0.08 0.31 0.73 1.00 0.92 0.58 0.40 0.28 0.24 0.24 0.21 0.21 0.28 0.25 0.25 0.31 0.40 0.46 0.61 0.82 0.89 0.89 0.90 0.95 1.07 1.16 1.22 1.32 1.38 1.31 1.14 1.02 1.04 1.06 1.06 0.99 0.96 0.98 1.00 1.04 1.07 1.03 0.98 1.00 0.89
0.04 0.03 0.03 0.05 0.10 0.23 0.56 1.03 1.17 0.80 0.55 0.39 0.32 0.25 0.21 0.22 0.23 0.26 0.27 0.27 0.29 0.32 0.45 0.61 0.75 0.77 0.78 0.82 0.89 0.88 1.01 1.11 1.19 1.17 1.11 0.99 0.97 1.03 1.03 0.98 0.93 0.94 0.89 0.91 1.01 0.98 1.02 1.08 1.03
0.05 0.04 0.05 0.06 0.07 0.15 0.41 0.66 0.65 0.67 0.52 0.34 0.31 0.26 0.21 0.22 0.25 0.30 0.25 0.29 0.26 0.25 0.33 0.45 0.62 0.69 0.65 0.67 0.75 0.84 0.93 1.08 1.13 1.08 1.09 1.02 1.00 1.02 1.02 1.00 1.03 1.00 0.95 0.92 0.96 0.94 1.01 1.08 1.17
0.07 0.07 0.07 0.08 0.08 0.11 0.20 0.33 0.37 0.40 0.43 0.47 0.39 0.33 0.32 0.32 0.27 0.28 0.23 0.26 0.20 0.21 0.28 0.37 0.44 0.52 0.55 0.61 0.72 0.79 0.85 0.96 1.07 1.03 1.06 1.12 1.08 1.05 1.00 0.99 1.05 0.99 0.95 0.97 0.91 0.90 0.96 1.06 1.15

GEFSSGP_prec_meanprecacc_168.txt.gz
Total_Precipitation_Accumulation
0.03 0.06 0.16 0.34 0.95 1.15 0.98 0.58 0.43 0.35 0.34 0.37 0.44 0.43 0.42 0.48 0.59 1.01 0.53 0.17 0.07 0.04 0.05 0.18 0.29 0.25 0.20 0.20 0.22 0.23 0.26 0.26 0.26 0.26 0.24 0.22 0.22 0.24 0.23 0.28 0.31 0.33 0.35 0.34 0.36 0.42 0.48 0.52 0.55
0.06 0.09 0.22 0.57 0.99 1.04 0.89 0.46 0.35 0.32 0.29 0.40 0.46 0.39 0.33 0.36 0.26 0.23 0.23 0.18 0.08 0.03 0.03 0.07 0.19 0.21 0.18 0.20 0.22 0.21 0.22 0.20 0.20 0.20 0.21 0.20 0.21 0.23 0.25 0.27 0.32 0.36 0.37 0.39 0.43 0.46 0.42 0.40 0.45
0.08 0.13 0.36 0.74 0.63 0.58 0.56 0.32 0.29 0.35 0.43 0.61 0.71 0.48 0.38 0.45 0.30 0.17 0.14 0.11 0.09 0.05 0.04 0.09 0.17 0.19 0.17 0.18 0.21 0.20 0.17 0.17 0.18 0.18 0.21 0.20 0.22 0.25 0.26 0.31 0.37 0.42 0.49 0.49 0.48 0.45 0.38 0.36 0.40
0.08 0.17 0.39 0.46 0.27 0.24 0.31 0.23 0.29 0.39 0.67 0.79 0.82 0.64 0.49 0.44 0.31 0.21 0.12 0.09 0.09 0.07 0.05 0.11 0.18 0.19 0.18 0.17 0.17 0.18 0.18 0.19 0.21 0.22 0.23 0.21 0.24 0.28 0.31 0.36 0.39 0.39 0.47 0.48 0.51 0.44 0.40 0.37 0.42
0.07 0.21 0.44 0.32 0.14 0.13 0.16 0.14 0.20 0.32 0.57 0.78 0.80 0.84 0.73 0.58 0.44 0.29 0.17 0.10 0.07 0.05 0.07 0.10 0.18 0.21 0.21 0.20 0.20 0.20 0.19 0.19 0.20 0.22 0.23 0.25 0.33 0.35 0.40 0.42 0.38 0.35 0.42 0.45 0.46 0.48 0.47 0.47 0.49
0.13 0.23 0.35 0.25 0.14 0.10 0.12 0.12 0.21 0.39 0.60 0.77 0.93 1.01 0.82 0.58 0.43 0.31 0.22 0.20 0.21 0.08 0.07 0.12 0.20 0.23 0.23 0.24 0.24 0.24 0.22 0.21 0.21 0.23 0.25 0.29 0.35 0.35 0.37 0.40 0.42 0.39 0.42 0.41 0.44 0.45 0.44 0.49 0.54
0.10 0.17 0.22 0.17 0.13 0.10 0.10 0.16 0.26 0.40 0.52 0.82 1.09 1.13 0.84 0.70 0.54 0.38 0.38 0.35 0.60 0.31 0.18 0.16 0.17 0.22 0.25 0.29 0.29 0.27 0.24 0.23 0.24 0.27 0.28 0.28 0.30 0.32 0.36 0.43 0.46 0.45 0.45 0.42 0.44 0.43 0.45 0.51 0.53
0.07 0.08 0.12 0.12 0.07 0.06 0.09 0.16 0.26 0.39 0.66 0.93 0.95 1.02 1.00 0.74 0.65 0.62 0.65 0.61 0.73 0.58 0.35 0.28 0.28 0.34 0.33 0.32 0.31 0.32 0.28 0.26 0.26 0.28 0.28 0.31 0.32 0.34 0.42 0.48 0.53 0.51 0.52 0.48 0.49 0.50 0.52 0.58 0.58
0.04 0.08 0.12 0.10 0.04 0.06 0.12 0.21 0.28 0.34 0.55 0.73 0.81 0.77 0.61 0.58 0.73 0.82 0.86 0.89 0.93 0.89 0.75 0.65 0.56 0.50 0.52 0.47 0.39 0.44 0.43 0.41 0.42 0.46 0.47 0.57 0.72 0.69 0.79 0.72 0.75 0.68 0.70 0.73 0.75 0.76 0.74 0.77 0.70
0.02 0.07 0.06 0.03 0.02 0.04 0.10 0.19 0.32 0.41 0.70 1.06 1.09 1.12 0.78 0.80 0.95 1.01 0.99 0.95 1.09 1.19 1.08 1.06 0.90 0.70 0.63 0.58 0.74 0.92 0.86 0.87 0.92 1.00 0.98 1.14 1.22 1.23 0.99 1.05 1.15 1.16 1.24 1.26 1.30 1.44 1.24 0.99 0.85
0.01 0.02 0.01 0.01 0.01 0.01 0.05 0.11 0.15 0.35 0.77 1.21 1.27 1.23 1.03 1.01 1.12 1.23 1.27 1.39 1.51 1.67 1.43 1.21 1.21 1.12 1.11 1.12 1.12 1.18 1.32 1.38 1.50 1.57 1.55 1.72 1.49 1.34 1.24 1.44 1.63 1.59 1.55 1.45 1.70 1.91 1.56 1.49 1.64
0.00 0.01 0.01 0.01 0.01 0.01 0.04 0.11 0.21 0.36 0.79 1.07 0.98 0.86 0.89 1.09 1.29 1.46 1.82 2.05 2.23 2.33 2.24 2.11 1.88 1.71 1.69 1.55 1.37 1.31 1.32 1.37 1.45 1.56 1.62 1.80 1.87 1.77 1.78 1.93 1.78 1.76 1.80 1.98 1.97 2.17 2.05 1.90 1.80
0.00 0.00 0.01 0.01 0.01 0.02 0.06 0.15 0.29 0.42 0.69 0.67 0.59 0.66 1.05 1.31 1.54 1.85 2.09 2.30 2.52 2.86 3.09 3.50 3.23 2.59 2.22 1.92 1.63 1.36 1.33 1.19 1.15 1.25 1.47 1.66 1.81 1.92 2.02 1.86 1.73 1.52 1.73 2.01 2.10 1.92 2.12 2.13 2.13
0.00 0.01 0.02 0.03 0.02 0.03 0.07 0.12 0.36 0.48 0.58 0.65 0.63 0.92 1.38 1.87 2.07 2.30 2.59 2.99 3.29 3.71 3.72 3.82 4.16 3.51 2.73 2.20 1.85 1.54 1.27 1.27 1.26 1.27 1.32 1.51 1.69 1.76 1.81 1.74 1.67 1.61 1.72 1.91 1.93 1.93 2.18 2.28 2.24
0.00 0.03 0.11 0.10 0.06 0.06 0.09 0.22 0.46 0.61 0.63 0.85 0.91 1.14 1.68 2.32 2.32 2.61 2.91 3.39 3.85 4.30 4.39 4.41 4.63 4.21 3.59 3.00 2.40 1.87 1.59 1.37 1.38 1.41 1.30 1.31 1.45 1.49 1.58 1.59 1.54 1.59 1.62 1.64 1.63 1.69 1.89 1.89 1.84
0.01 0.08 0.24 0.19 0.09 0.09 0.15 0.55 0.75 0.67 0.65 0.94 1.16 1.39 1.85 2.50 2.56 2.87 3.33 3.86 4.55 4.97 5.17 5.18 4.94 4.72 4.20 3.54 2.94 2.51 2.18 1.87 1.61 1.47 1.32 1.15 1.22 1.24 1.31 1.23 1.24 1.27 1.29 1.29 1.37 1.42 1.58 1.70 1.78
0.03 0.09 0.21 0.20 0.14 0.12 0.21 0.65 0.69 0.47 0.63 0.92 1.23 1.53 1.82 2.16 2.65 3.22 3.72 4.30 5.23 6.15 6.55 6.30 5.58 5.05 4.46 3.83 3.31 3.07 2.81 2.39 1.97 1.78 1.58 1.34 1.19 1.15 1.17 1.16 1.16 1.03 1.07 1.08 1.03 1.20 1.40 1.58 1.65
0.03 0.07 0.15 0.22 0.17 0.22 0.32 0.42 0.54 0.59 0.77 0.99 1.21 1.38 1.66 1.96 2.36 3.05 3.63 4.32 5.30 6.48 7.15 7.01 6.29 5.36 4.62 4.16 3.66 3.39 3.05 2.61 2.12 1.85 1.71 1.48 1.35 1.16 1.08 1.01 0.96 0.86 0.94 1.05 1.12 1.35 1.35 1.32 1.39
0.03 0.06 0.14 0.21 0.17 0.25 0.32 0.43 0.58 0.75 0.98 1.02 1.10 1.21 1.43 1.73 2.13 2.79 3.48 4.05 4.71 5.45 5.97 5.83 5.17 4.63 4.03 3.46 2.86 2.67 2.38 2.14 1.89 1.67 1.47 1.43 1.35 1.13 1.07 0.96 1.03 0.89 0.88 0.91 0.90 1.03 1.09 1.07 1.11
0.04 0.07 0.13 0.18 0.14 0.14 0.26 0.52 0.67 0.76 0.93 0.89 0.91 0.94 1.13 1.48 2.09 2.87 3.48 3.68 3.68 3.93 4.17 3.67 3.44 3.38 2.97 2.62 2.47 2.29 2.05 1.83 1.62 1.49 1.41 1.20 1.14 1.07 0.97 1.03 1.00 0.92 0.94 0.90 0.89 1.00 1.05 1.02 1.05
0.07 0.09 0.09 0.15 0.16 0.22 0.36 0.68 0.90 0.83 0.82 0.71 0.70 0.91 1.38 1.77 2.21 2.72 2.89 2.90 2.79 2.75 2.72 2.47 2.39 2.64 2.53 2.42 2.32 2.23 2.12 1.99 1.72 1.43 1.33 1.13 0.97 0.95 0.96 0.97 1.00 1.00 0.84 0.87 0.93 0.91 0.95 0.95 0.93
0.07 0.06 0.04 0.04 0.12 0.34 0.50 0.90 1.06 0.99 0.92 0.65 0.69 1.08 1.58 1.90 2.17 2.16 1.77 1.65 1.79 1.87 1.95 2.16 2.22 2.30 2.16 2.14 1.92 1.71 1.53 1.36 1.25 1.22 1.18 1.18 1.04 0.93 0.87 0.89 1.02 1.00 0.87 0.95 0.76 0.77 0.90 0.95 0.82
0.04 0.04 0.03 0.05 0.15 0.39 0.65 1.06 1.24 1.02 0.84 0.60 0.57 0.66 1.04 1.25 1.23 1.02 0.89 0.97 1.19 1.43 1.66 2.01 2.09 2.06 1.93 1.83 1.78 1.78 1.65 1.57 1.44 1.39 1.40 1.37 1.34 1.18 0.97 0.89 0.99 1.05 0.99 1.02 0.92 1.01 0.90 0.82 0.75
0.03 0.04 0.10 0.20 0.37 0.82 0.86 0.95 1.17 0.98 0.78 0.60 0.41 0.45 0.70 0.74 0.59 0.61 0.70 0.89 1.12 1.28 1.38 1.57 1.72 1.88 1.91 1.90 1.90 1.82 1.74 1.75 1.57 1.41 1.30 1.28 1.29 1.23 1.15 1.05 1.14 1.15 1.06 1.06 1.00 1.03 0.98 0.92 0.88
0.03 0.05 0.25 0.60 0.89 1.01 0.72 0.86 1.16 0.78 0.52 0.40 0.28 0.26 0.29 0.34 0.43 0.60 0.66 0.86 0.97 1.08 1.10 1.19 1.30 1.48 1.59 1.67 1.76 1.78 1.77 1.76 1.55 1.41 1.27 1.23 1.13 1.07 1.13 1.17 1.24 1.18 1.17 1.10 1.07 1.07 1.06 1.13 1.12
0.04 0.03 0.10 0.21 0.33 0.52 0.68 1.07 1.15 0.75 0.40 0.24 0.19 0.19 0.18 0.23 0.29 0.34 0.38 0.48 0.61 0.78 0.97 1.12 1.15 1.15 1.17 1.22 1.39 1.56 1.57 1.57 1.48 1.46 1.26 1.18 1.10 1.09 1.18 1.24 1.15 1.10 1.10 1.06 1.10 1.01 0.96 1.03 1.10
0.03 0.03 0.04 0.05 0.08 0.31 0.73 1.00 0.92 0.58 0.40 0.28 0.24 0.24 0.21 0.21 0.28 0.25 0.25 0.31 0.40 0.46 0.61 0.83 0.90 0.90 0.91 0.97 1.10 1.20 1.26 1.35 1.41 1.35 1.21 1.08 1.09 1.11 1.12 1.05 1.02 1.04 1.06 1.11 1.16 1.09 1.04 1.06 0.96
0.04 0.03 0.03 0.05 0.10 0.23 0.56 1.03 1.17 0.80 0.55 0.39 0.32 0.25 0.21 0.22 0.23 0.26 0.27 0.27 0.29 0.32 0.45 0.61 0.75 0.78 0.80 0.84 0.92 0.90 1.03 1.13 1.23 1.23 1.19 1.05 1.01 1.08 1.09 1.04 1.01 1.01 0.95 0.98 1.10 1.06 1.08 1.13 1.10
0.05 0.04 0.05 0.06 0.07 0.15 0.41 0.66 0.65 0.67 0.52 0.34 0.31 0.26 0.21 0.22 0.25 0.30 0.25 0.29 0.26 0.25 0.33 0.45 0.62 0.70 0.65 0.69 0.76 0.86 0.94 1.09 1.16 1.12 1.13 1.07 1.04 1.06 1.07 1.06 1.09 1.05 1.00 1.00 1.05 1.03 1.08 1.14 1.24
0.07 0.07 0.07 0.08 0.08 0.11 0.20 0.33 0.37 0.40 0.43 0.47 0.39 0.33 0.32 0.32 0.27 0.28 0.23 0.26 0.20 0.22 0.28 0.37 0.44 0.52 0.56 0.62 0.72 0.80 0.86 0.98 1.10 1.05 1.09 1.15 1.11 1.09 1.04 1.02 1.09 1.03 1.01 1.04 0.99 0.99 1.06 1.16 1.24

GEFSSGP_prec_meanprecacc_174.txt.gz
Total_Precipitation_Accumulation
0.03 0.07 0.16 0.34 0.97 1.16 0.98 0.58 0.43 0.35 0.34 0.37 0.44 0.43 0.42 0.49 0.61 1.03 0.54 0.17 0.07 0.04 0.06 0.18 0.31 0.29 0.26 0.27 0.29 0.30 0.33 0.34 0.36 0.35 0.31 0.29 0.29 0.30 0.30 0.36 0.39 0.41 0.41 0.39 0.43 0.48 0.52 0.56 0.59
0.06 0.09 0.22 0.57 1.00 1.04 0.90 0.46 0.35 0.32 0.29 0.40 0.46 0.39 0.33 0.36 0.26 0.23 0.23 0.18 0.08 0.03 0.04 0.07 0.21 0.24 0.22 0.24 0.27 0.26 0.27 0.26 0.28 0.28 0.28 0.28 0.30 0.32 0.35 0.37 0.38 0.42 0.42 0.45 0.51 0.54 0.47 0.44 0.49
0.08 0.13 0.36 0.74 0.63 0.58 0.56 0.32 0.29 0.35 0.43 0.61 0.71 0.48 0.38 0.46 0.30 0.17 0.14 0.11 0.09 0.05 0.04 0.09 0.18 0.20 0.19 0.20 0.25 0.24 0.21 0.23 0.25 0.25 0.26 0.28 0.31 0.34 0.36 0.39 0.43 0.49 0.56 0.57 0.58 0.52 0.42 0.40 0.44
0.08 0.17 0.39 0.46 0.27 0.24 0.31 0.23 0.29 0.39 0.67 0.79 0.82 0.65 0.49 0.44 0.31 0.21 0.12 0.09 0.09 0.07 0.05 0.11 0.18 0.19 0.19 0.19 0.20 0.21 0.21 0.24 0.27 0.30 0.29 0.29 0.31 0.37 0.42 0.44 0.47 0.47 0.56 0.56 0.58 0.48 0.44 0.41 0.45
0.07 0.21 0.44 0.32 0.14 0.13 0.16 0.14 0.20 0.33 0.58 0.78 0.80 0.84 0.73 0.58 0.44 0.29 0.17 0.10 0.07 0.06 0.07 0.10 0.19 0.21 0.22 0.21 0.22 0.22 0.21 0.21 0.24 0.28 0.28 0.31 0.38 0.43 0.50 0.52 0.50 0.43 0.50 0.51 0.51 0.52 0.51 0.51 0.52
0.13 0.23 0.35 0.25 0.14 0.10 0.12 0.12 0.21 0.40 0.61 0.77 0.93 1.01 0.82 0.58 0.43 0.31 0.22 0.20 0.21 0.08 0.07 0.12 0.20 0.24 0.24 0.25 0.26 0.26 0.24 0.23 0.24 0.27 0.32 0.37 0.43 0.44 0.47 0.54 0.55 0.47 0.47 0.45 0.48 0.49 0.49 0.53 0.57
0.10 0.17 0.22 0.18 0.14 0.10 0.10 0.16 0.26 0.41 0.52 0.82 1.09 1.13 0.84 0.70 0.54 0.38 0.38 0.35 0.60 0.31 0.18 0.17 0.18 0.23 0.26 0.30 0.30 0.30 0.26 0.26 0.28 0.32 0.33 0.34 0.36 0.39 0.45 0.55 0.55 0.50 0.48 0.44 0.48 0.46 0.47 0.54 0.55
0.07 0.08 0.12 0.12 0.07 0.06 0.09 0.16 0.26 0.39 0.66 0.93 0.95 1.02 1.00 0.74 0.65 0.62 0.65 0.61 0.73 0.58 0.36 0.29 0.29 0.35 0.35 0.34 0.32 0.34 0.29 0.28 0.29 0.33 0.32 0.37 0.38 0.42 0.50 0.56 0.59 0.54 0.54 0.50 0.53 0.53 0.54 0.59 0.59
0.04 0.08 0.12 0.10 0.04 0.06 0.12 0.21 0.28 0.34 0.55 0.73 0.81 0.77 0.61 0.58 0.73 0.82 0.87 0.90 0.95 0.91 0.77 0.67 0.57 0.50 0.55 0.49 0.41 0.48 0.45 0.44 0.47 0.52 0.55 0.69 0.88 0.83 0.91 0.80 0.80 0.71 0.74 0.78 0.79 0.79 0.76 0.78 0.71
0.03 0.07 0.06 0.03 0.02 0.04 0.10 0.19 0.32 0.41 0.70 1.06 1.09 1.12 0.78 0.80 0.95 1.01 1.00 0.96 1.11 1.22 1.14 1.12 0.92 0.71 0.65 0.60 0.77 1.00 0.94 0.96 1.05 1.14 1.13 1.33 1.39 1.41 1.13 1.15 1.22 1.20 1.28 1.30 1.36 1.47 1.25 1.01 0.86
0.01 0.02 0.01 0.01 0.01 0.01 0.05 0.11 0.15 0.35 0.77 1.21 1.27 1.23 1.03 1.01 1.12 1.23 1.28 1.41 1.53 1.69 1.46 1.25 1.23 1.14 1.13 1.16 1.16 1.23 1.41 1.52 1.63 1.71 1.69 1.88 1.61 1.47 1.36 1.53 1.72 1.68 1.61 1.51 1.76 1.95 1.60 1.53 1.66
0.01 0.01 0.01 0.01 0.01 0.01 0.04 0.11 0.21 0.36 0.79 1.07 0.98 0.86 0.89 1.10 1.29 1.47 1.82 2.05 2.24 2.35 2.26 2.14 1.90 1.73 1.73 1.58 1.40 1.34 1.37 1.46 1.55 1.67 1.73 1.90 1.99 1.89 1.91 2.05 1.88 1.85 1.89 2.07 2.04 2.24 2.10 1.94 1.82
0.00 0.00 0.01 0.01 0.01 0.02 0.06 0.16 0.29 0.42 0.69 0.67 0.59 0.66 1.05 1.31 1.54 1.85 2.09 2.31 2.53 2.88 3.11 3.52 3.25 2.61 2.24 1.96 1.68 1.38 1.35 1.25 1.23 1.34 1.56 1.72 1.88 2.02 2.12 1.94 1.82 1.60 1.81 2.07 2.18 1.97 2.15 2.15 2.15
0.00 0.01 0.02 0.03 0.02 0.03 0.08 0.13 0.37 0.48 0.58 0.65 0.63 0.92 1.38 1.87 2.07 2.30 2.60 3.00 3.30 3.73 3.73 3.84 4.19 3.54 2.77 2.24 1.90 1.57 1.29 1.31 1.33 1.36 1.38 1.57 1.74 1.82 1.88 1.81 1.75 1.68 1.78 1.98 2.00 1.97 2.22 2.31 2.26
0.00 0.04 0.11 0.10 0.06 0.06 0.11 0.26 0.47 0.61 0.63 0.85 0.91 1.14 1.68 2.32 2.32 2.61 2.91 3.40 3.86 4.31 4.42 4.45 4.66 4.23 3.62 3.04 2.45 1.91 1.61 1.39 1.44 1.50 1.35 1.35 1.50 1.55 1.64 1.66 1.61 1.65 1.67 1.69 1.68 1.74 1.94 1.94 1.88
0.01 0.09 0.24 0.19 0.09 0.09 0.17 0.58 0.75 0.67 0.65 0.94 1.16 1.39 1.85 2.50 2.56 2.87 3.33 3.87 4.56 4.98 5.19 5.21 4.96 4.76 4.23 3.58 2.99 2.55 2.21 1.90 1.65 1.53 1.37 1.19 1.27 1.30 1.38 1.30 1.32 1.34 1.34 1.33 1.42 1.47 1.64 1.77 1.85
0.03 0.09 0.21 0.20 0.14 0.12 0.21 0.65 0.70 0.47 0.63 0.92 1.23 1.53 1.82 2.16 2.65 3.22 3.72 4.30 5.23 6.16 6.57 6.32 5.62 5.10 4.51 3.88 3.36 3.12 2.86 2.44 2.01 1.82 1.62 1.41 1.25 1.20 1.23 1.24 1.26 1.08 1.11 1.13 1.07 1.25 1.48 1.68 1.74
0.03 0.07 0.15 0.22 0.17 0.22 0.32 0.42 0.54 0.60 0.77 0.99 1.21 1.38 1.66 1.96 2.37 3.06 3.64 4.32 5.30 6.49 7.16 7.03 6.34 5.42 4.67 4.22 3.71 3.45 3.11 2.66 2.16 1.91 1.77 1.55 1.42 1.23 1.14 1.07 1.04 0.91 1.02 1.14 1.20 1.47 1.48 1.43 1.47
0.03 0.06 0.14 0.22 0.17 0.25 0.32 0.43 0.58 0.75 0.98 1.02 1.10 1.21 1.43 1.73 2.13 2.80 3.48 4.06 4.72 5.45 5.99 5.85 5.21 4.68 4.07 3.52 2.93 2.75 2.46 2.20 1.94 1.73 1.53 1.49 1.41 1.21 1.15 1.04 1.14 0.96 0.97 0.99 0.99 1.14 1.22 1.17 1.19
0.04 0.07 0.13 0.18 0.14 0.14 0.26 0.52 0.67 0.76 0.93 0.89 0.91 0.94 1.13 1.48 2.09 2.87 3.49 3.69 3.69 3.94 4.18 3.69 3.47 3.42 3.00 2.66 2.53 2.36 2.12 1.87 1.65 1.53 1.47 1.24 1.18 1.12 1.05 1.12 1.06 1.00 1.04 0.99 1.00 1.12 1.17 1.15 1.14
0.07 0.09 0.09 0.15 0.16 0.22 0.36 0.69 0.90 0.83 0.82 0.71 0.70 0.91 1.38 1.77 2.21 2.72 2.89 2.90 2.79 2.75 2.73 2.49 2.41 2.67 2.57 2.49 2.38 2.30 2.19 2.06 1.79 1.48 1.41 1.17 1.01 0.99 1.03 1.04 1.07 1.08 0.92 0.99 1.05 1.01 1.06 1.09 1.04
0.07 0.06 0.04 0.04 0.12 0.34 0.50 0.91 1.07 0.99 0.92 0.65 0.69 1.08 1.58 1.90 2.17 2.16 1.77 1.66 1.80 1.87 1.96 2.18 2.25 2.33 2.22 2.23 2.01 1.80 1.62 1.46 1.34 1.28 1.26 1.25 1.09 0.99 0.92 0.95 1.08 1.08 0.95 1.08 0.83 0.88 1.03 1.08 0.94
0.04 0.04 0.03 0.05 0.15 0.39 0.65 1.06 1.25 1.03 0.84 0.60 0.57 0.66 1.04 1.25 1.23 1.03 0.89 0.97 1.20 1.44 1.66 2.02 2.10 2.10 1.98 1.91 1.88 1.87 1.75 1.68 1.53 1.46 1.50 1.47 1.43 1.25 1.01 0.95 1.07 1.14 1.09 1.12 1.02 1.15 1.02 0.93 0.86
0.03 0.04 0.10 0.20 0.37 0.82 0.86 0.95 1.18 0.99 0.78 0.60 0.41 0.45 0.70 0.74 0.59 0.61 0.70 0.89 1.12 1.29 1.39 1.58 1.74 1.91 1.96 1.97 1.99 1.91 1.84 1.85 1.67 1.51 1.42 1.39 1.39 1.30 1.21 1.12 1.23 1.24 1.18 1.18 1.10 1.14 1.10 1.04 1.00
0.03 0.05 0.25 0.60 0.89 1.01 0.72 0.87 1.16 0.78 0.52 0.40 0.28 0.26 0.29 0.34 0.43 0.60 0.66 0.86 0.97 1.08 1.10 1.19 1.31 1.51 1.63 1.72 1.83 1.85 1.84 1.84 1.65 1.52 1.39 1.34 1.23 1.14 1.20 1.24 1.33 1.26 1.25 1.18 1.16 1.17 1.18 1.24 1.24
0.04 0.03 0.10 0.21 0.33 0.52 0.68 1.07 1.15 0.75 0.40 0.24 0.19 0.19 0.18 0.23 0.29 0.34 0.38 0.48 0.62 0.79 0.98 1.12 1.16 1.17 1.20 1.26 1.45 1.62 1.63 1.64 1.57 1.57 1.36 1.27 1.19 1.15 1.24 1.31 1.22 1.17 1.16 1.11 1.17 1.07 1.04 1.11 1.17
0.03 0.03 0.04 0.05 0.08 0.31 0.73 1.01 0.92 0.58 0.40 0.28 0.24 0.24 0.21 0.21 0.28 0.25 0.25 0.31 0.41 0.46 0.61 0.83 0.91 0.92 0.94 1.01 1.15 1.25 1.30 1.40 1.49 1.44 1.29 1.14 1.15 1.17 1.19 1.13 1.09 1.11 1.12 1.17 1.23 1.16 1.10 1.14 1.04
0.04 0.03 0.03 0.05 0.10 0.23 0.56 1.03 1.17 0.80 0.55 0.39 0.32 0.25 0.21 0.22 0.23 0.26 0.27 0.27 0.29 0.32 0.45 0.62 0.76 0.79 0.82 0.87 0.93 0.93 1.06 1.16 1.28 1.29 1.24 1.11 1.06 1.14 1.17 1.13 1.09 1.08 1.01 1.04 1.17 1.14 1.16 1.22 1.19
0.05 0.04 0.05 0.06 0.07 0.15 0.41 0.66 0.65 0.68 0.53 0.34 0.31 0.26 0.21 0.22 0.25 0.30 0.25 0.29 0.26 0.25 0.33 0.45 0.62 0.71 0.67 0.71 0.78 0.87 0.96 1.12 1.19 1.16 1.18 1.13 1.10 1.13 1.15 1.14 1.15 1.11 1.06 1.07 1.13 1.09 1.16 1.23 1.33
0.07 0.07 0.07 0.08 0.08 0.11 0.20 0.34 0.38 0.40 0.43 0.47 0.39 0.33 0.33 0.34 0.27 0.28 0.23 0.26 0.20 0.22 0.28 0.37 0.45 0.53 0.57 0.64 0.74 0.81 0.87 1.00 1.12 1.09 1.13 1.21 1.18 1.16 1.12 1.10 1.16 1.09 1.07 1.11 1.05 1.04 1.13 1.24 1.31

GEFSSGP_prec_meanprecacc_180.txt.gz
Total_Precipitation_Accumulation
0.03 0.07 0.18 0.36 0.99 1.18 0.99 0.59 0.44 0.35 0.34 0.37 0.44 0.43 0.43 0.49 0.62 1.05 0.58 0.20 0.08 0.04 0.06 0.20 0.36 0.34 0.32 0.34 0.35 0.37 0.40 0.41 0.43 0.41 0.38 0.35 0.33 0.35 0.36 0.43 0.46 0.47 0.47 0.44 0.48 0.53 0.56 0.60 0.62
0.07 0.10 0.23 0.59 1.02 1.06 0.91 0.47 0.35 0.32 0.29 0.40 0.47 0.39 0.33 0.36 0.26 0.24 0.25 0.21 0.09 0.04 0.04 0.08 0.23 0.27 0.25 0.27 0.31 0.29 0.30 0.32 0.36 0.35 0.35 0.34 0.35 0.36 0.38 0.40 0.42 0.46 0.46 0.48 0.54 0.58 0.52 0.49 0.53
0.08 0.13 0.37 0.75 0.65 0.59 0.57 0.33 0.29 0.35 0.43 0.62 0.71 0.48 0.38 0.46 0.30 0.18 0.15 0.13 0.11 0.05 0.04 0.10 0.20 0.22 0.21 0.23 0.28 0.27 0.24 0.28 0.35 0.33 0.32 0.33 0.36 0.39 0.41 0.44 0.48 0.53 0.61 0.60 0.61 0.56 0.46 0.44 0.48
0.09 0.18 0.40 0.47 0.27 0.25 0.32 0.23 0.29 0.39 0.67 0.80 0.82 0.65 0.50 0.44 0.31 0.22 0.12 0.10 0.10 0.07 0.06 0.11 0.19 0.20 0.20 0.20 0.22 0.23 0.23 0.27 0.32 0.35 0.33 0.34 0.36 0.43 0.50 0.52 0.53 0.53 0.60 0.59 0.61 0.51 0.46 0.43 0.47
0.07 0.21 0.45 0.33 0.14 0.13 0.16 0.14 0.21 0.34 0.59 0.79 0.80 0.84 0.73 0.58 0.45 0.30 0.18 0.11 0.08 0.07 0.09 0.11 0.19 0.22 0.23 0.22 0.23 0.24 0.23 0.23 0.27 0.31 0.32 0.36 0.43 0.51 0.60 0.60 0.57 0.49 0.54 0.54 0.52 0.53 0.52 0.53 0.55
0.13 0.24 0.36 0.26 0.14 0.10 0.12 0.13 0.21 0.40 0.62 0.78 0.93 1.01 0.82 0.59 0.45 0.32 0.24 0.22 0.22 0.09 0.08 0.12 0.20 0.24 0.25 0.26 0.27 0.28 0.25 0.24 0.25 0.29 0.34 0.40 0.47 0.53 0.55 0.61 0.62 0.54 0.51 0.47 0.49 0.50 0.49 0.55 0.59
0.12 0.19 0.23 0.18 0.14 0.10 0.11 0.16 0.26 0.41 0.52 0.82 1.09 1.13 0.84 0.72 0.56 0.40 0.40 0.37 0.61 0.32 0.19 0.18 0.19 0.23 0.26 0.31 0.31 0.31 0.27 0.27 0.30 0.34 0.34 0.36 0.40 0.50 0.52 0.61 0.62 0.55 0.51 0.47 0.51 0.48 0.48 0.55 0.57
0.07 0.10 0.13 0.13 0.07 0.07 0.10 0.16 0.27 0.39 0.66 0.93 0.95 1.02 1.01 0.74 0.66 0.63 0.67 0.63 0.76 0.61 0.37 0.31 0.31 0.36 0.37 0.37 0.36 0.37 0.31 0.29 0.31 0.35 0.34 0.41 0.44 0.51 0.58 0.64 0.65 0.57 0.57 0.54 0.58 0.55 0.55 0.60 0.61
0.04 0.09 0.13 0.11 0.04 0.06 0.12 0.21 0.28 0.34 0.55 0.73 0.81 0.77 0.61 0.59 0.73 0.82 0.89 0.94 0.99 0.94 0.80 0.72 0.61 0.53 0.57 0.51 0.42 0.51 0.48 0.47 0.50 0.56 0.59 0.72 0.91 0.90 0.99 0.86 0.84 0.75 0.77 0.82 0.82 0.81 0.78 0.80 0.73
0.03 0.08 0.07 0.03 0.02 0.05 0.10 0.19 0.32 0.41 0.70 1.06 1.09 1.12 0.78 0.80 0.95 1.01 1.03 0.99 1.15 1.26 1.17 1.19 0.96 0.74 0.68 0.62 0.78 1.01 0.97 1.02 1.09 1.16 1.16 1.35 1.42 1.47 1.18 1.19 1.25 1.22 1.32 1.35 1.40 1.50 1.27 1.03 0.88
0.02 0.03 0.02 0.01 0.01 0.02 0.05 0.11 0.15 0.35 0.77 1.21 1.27 1.23 1.03 1.01 1.12 1.24 1.29 1.42 1.56 1.72 1.49 1.29 1.25 1.17 1.16 1.18 1.18 1.26 1.45 1.56 1.67 1.75 1.76 1.91 1.64 1.51 1.38 1.56 1.75 1.70 1.64 1.53 1.79 1.98 1.62 1.55 1.69
0.01 0.01 0.01 0.01 0.01 0.02 0.04 0.11 0.21 0.36 0.79 1.07 0.98 0.86 0.89 1.10 1.29 1.47 1.83 2.06 2.25 2.36 2.28 2.17 1.93 1.75 1.75 1.61 1.42 1.37 1.40 1.49 1.58 1.69 1.75 1.92 2.01 1.91 1.94 2.08 1.91 1.87 1.91 2.10 2.07 2.28 2.14 1.99 1.86
0.01 0.01 0.01 0.01 0.01 0.02 0.06 0.16 0.29 0.42 0.69 0.67 0.59 0.66 1.05 1.31 1.54 1.86 2.10 2.31 2.53 2.89 3.12 3.54 3.27 2.63 2.26 1.98 1.70 1.40 1.38 1.27 1.25 1.35 1.57 1.74 1.90 2.05 2.16 1.99 1.85 1.62 1.82 2.10 2.21 2.02 2.20 2.19 2.19
0.01 0.01 0.03 0.03 0.02 0.04 0.09 0.14 0.37 0.48 0.58 0.65 0.63 0.92 1.38 1.87 2.07 2.31 2.60 3.00 3.30 3.73 3.75 3.87 4.21 3.56 2.78 2.25 1.91 1.60 1.32 1.33 1.35 1.38 1.40 1.58 1.76 1.85 1.91 1.84 1.78 1.71 1.82 2.02 2.03 2.00 2.24 2.34 2.29
0.01 0.04 0.11 0.10 0.06 0.07 0.12 0.27 0.48 0.62 0.64 0.85 0.91 1.14 1.68 2.32 2.33 2.61 2.92 3.40 3.86 4.31 4.42 4.46 4.67 4.24 3.63 3.05 2.46 1.93 1.64 1.41 1.46 1.52 1.38 1.37 1.52 1.57 1.66 1.69 1.64 1.71 1.70 1.73 1.71 1.77 1.97 1.96 1.92
0.02 0.09 0.25 0.20 0.10 0.10 0.18 0.59 0.76 0.68 0.66 0.94 1.16 1.39 1.85 2.51 2.56 2.88 3.34 3.88 4.57 4.98 5.20 5.21 4.97 4.78 4.25 3.59 3.00 2.57 2.23 1.92 1.69 1.57 1.40 1.24 1.30 1.33 1.41 1.34 1.36 1.37 1.36 1.35 1.45 1.50 1.67 1.81 1.90
0.04 0.09 0.22 0.21 0.15 0.13 0.22 0.66 0.70 0.48 0.64 0.92 1.24 1.53 1.82 2.17 2.66 3.23 3.73 4.31 5.24 6.16 6.57 6.33 5.63 5.12 4.52 3.90 3.37 3.14 2.89 2.46 2.05 1.87 1.67 1.46 1.29 1.23 1.27 1.28 1.29 1.11 1.15 1.17 1.10 1.29 1.51 1.72 1.78
0.03 0.07 0.15 0.23 0.17 0.23 0.33 0.43 0.55 0.61 0.78 1.00 1.21 1.38 1.66 1.96 2.37 3.07 3.65 4.33 5.30 6.50 7.17 7.04 6.35 5.44 4.70 4.24 3.73 3.48 3.15 2.69 2.20 1.96 1.81 1.59 1.45 1.26 1.18 1.10 1.06 0.94 1.06 1.18 1.25 1.52 1.51 1.46 1.50
0.03 0.07 0.14 0.22 0.17 0.25 0.33 0.44 0.59 0.76 0.99 1.02 1.10 1.21 1.43 1.73 2.14 2.81 3.49 4.06 4.73 5.47 6.01 5.87 5.23 4.70 4.09 3.54 2.95 2.79 2.51 2.23 1.97 1.76 1.56 1.53 1.45 1.24 1.19 1.08 1.17 1.00 1.01 1.02 1.04 1.19 1.25 1.20 1.24
0.04 0.08 0.13 0.18 0.15 0.14 0.26 0.53 0.69 0.78 0.95 0.90 0.91 0.94 1.13 1.48 2.09 2.88 3.49 3.69 3.70 3.96 4.20 3.71 3.48 3.43 3.02 2.68 2.55 2.39 2.18 1.92 1.69 1.56 1.49 1.26 1.20 1.14 1.08 1.15 1.08 1.03 1.07 1.02 1.04 1.17 1.23 1.20 1.23
0.07 0.09 0.10 0.16 0.17 0.22 0.36 0.70 0.92 0.85 0.84 0.73 0.71 0.91 1.38 1.77 2.21 2.73 2.89 2.90 2.79 2.77 2.75 2.51 2.43 2.69 2.59 2.51 2.42 2.33 2.24 2.12 1.86 1.52 1.43 1.19 1.04 1.03 1.08 1.08 1.10 1.11 0.94 1.02 1.08 1.06 1.11 1.13 1.10
0.07 0.06 0.04 0.05 0.12 0.35 0.51 0.91 1.09 1.00 0.94 0.67 0.71 1.08 1.59 1.90 2.17 2.17 1.78 1.66 1.81 1.89 1.97 2.19 2.26 2.36 2.26 2.28 2.07 1.85 1.67 1.52 1.40 1.34 1.32 1.30 1.14 1.03 0.96 1.00 1.13 1.12 0.98 1.10 0.86 0.93 1.08 1.12 0.98
0.04 0.04 0.03 0.06 0.15 0.39 0.66 1.08 1.26 1.06 0.87 0.62 0.59 0.67 1.04 1.25 1.23 1.03 0.89 0.97 1.20 1.45 1.67 2.03 2.12 2.12 2.01 1.95 1.95 1.95 1.81 1.72 1.58 1.52 1.56 1.53 1.50 1.30 1.07 0.99 1.11 1.18 1.13 1.16 1.05 1.19 1.06 0.97 0.90
0.03 0.04 0.10 0.20 0.38 0.82 0.86 0.95 1.19 1.01 0.80 0.61 0.42 0.45 0.70 0.74 0.60 0.62 0.70 0.89 1.13 1.29 1.39 1.58 1.74 1.92 1.97 1.99 2.04 1.97 1.90 1.90 1.70 1.54 1.44 1.42 1.43 1.36 1.25 1.16 1.26 1.27 1.22 1.22 1.13 1.18 1.14 1.09 1.05
0.03 0.05 0.25 0.60 0.89 1.01 0.73 0.87 1.17 0.78 0.52 0.41 0.29 0.26 0.30 0.34 0.43 0.60 0.66 0.86 0.97 1.09 1.11 1.20 1.32 1.52 1.64 1.73 1.86 1.89 1.89 1.89 1.68 1.54 1.41 1.36 1.26 1.18 1.25 1.29 1.38 1.30 1.29 1.22 1.20 1.22 1.22 1.28 1.27
0.04 0.03 0.10 0.21 0.33 0.53 0.69 1.07 1.15 0.75 0.41 0.24 0.19 0.19 0.19 0.23 0.30 0.35 0.38 0.48 0.62 0.79 0.98 1.12 1.16 1.18 1.20 1.27 1.46 1.64 1.66 1.67 1.60 1.61 1.39 1.29 1.21 1.20 1.30 1.36 1.26 1.23 1.22 1.15 1.22 1.14 1.10 1.15 1.20
0.03 0.03 0.04 0.05 0.08 0.31 0.73 1.01 0.92 0.58 0.40 0.29 0.24 0.24 0.22 0.22 0.29 0.26 0.25 0.32 0.41 0.46 0.62 0.83 0.92 0.92 0.94 1.01 1.16 1.27 1.32 1.42 1.52 1.48 1.32 1.17 1.19 1.21 1.23 1.16 1.15 1.17 1.17 1.22 1.30 1.23 1.17 1.19 1.09
0.04 0.03 0.03 0.05 0.10 0.23 0.57 1.04 1.18 0.81 0.56 0.40 0.33 0.26 0.22 0.24 0.24 0.26 0.27 0.27 0.30 0.32 0.45 0.62 0.76 0.80 0.83 0.88 0.94 0.94 1.07 1.18 1.30 1.33 1.29 1.16 1.12 1.18 1.21 1.16 1.15 1.14 1.06 1.10 1.24 1.21 1.23 1.29 1.24
0.05 0.04 0.05 0.06 0.07 0.15 0.42 0.67 0.67 0.69 0.56 0.36 0.31 0.28 0.24 0.25 0.26 0.30 0.26 0.30 0.26 0.25 0.33 0.46 0.63 0.72 0.69 0.72 0.79 0.88 0.98 1.15 1.23 1.23 1.26 1.21 1.17 1.19 1.20 1.18 1.19 1.17 1.12 1.13 1.20 1.15 1.23 1.31 1.40
0.07 0.07 0.07 0.08 0.08 0.11 0.20 0.34 0.38 0.41 0.44 0.48 0.40 0.34 0.34 0.37 0.30 0.29 0.25 0.28 0.22 0.23 0.30 0.38 0.46 0.55 0.60 0.67 0.77 0.86 0.94 1.05 1.17 1.15 1.20 1.26 1.23 1.20 1.16 1.15 1.21 1.14 1.13 1.18 1.12 1.12 1.20 1.32 1.38

GEFSSGP_prec_meanprecacc_186.txt.gz
Total_Precipitation_Accumulation
0.03 0.08 0.19 0.37 0.99 1.18 0.99 0.59 0.44 0.35 0.35 0.37 0.44 0.43 0.43 0.49 0.62 1.06 0.58 0.21 0.09 0.07 0.09 0.26 0.46 0.44 0.40 0.40 0.42 0.44 0.47 0.50 0.55 0.51 0.46 0.44 0.43 0.47 0.51 0.61 0.58 0.61 0.60 0.54 0.58 0.60 0.64 0.68 0.70
0.07 0.10 0.24 0.59 1.02 1.06 0.91 0.47 0.35 0.32 0.29 0.41 0.47 0.39 0.34 0.36 0.26 0.24 0.26 0.22 0.10 0.04 0.05 0.11 0.33 0.35 0.30 0.32 0.36 0.38 0.38 0.40 0.45 0.43 0.42 0.41 0.44 0.48 0.53 0.54 0.53 0.58 0.54 0.54 0.60 0.65 0.60 0.56 0.60
0.09 0.14 0.38 0.76 0.65 0.59 0.57 0.33 0.29 0.35 0.43 0.62 0.71 0.48 0.38 0.46 0.30 0.18 0.15 0.13 0.11 0.06 0.04 0.12 0.27 0.29 0.26 0.26 0.33 0.34 0.30 0.36 0.44 0.42 0.40 0.39 0.42 0.45 0.49 0.51 0.55 0.60 0.66 0.65 0.67 0.63 0.53 0.50 0.54
0.09 0.18 0.40 0.47 0.27 0.25 0.32 0.23 0.29 0.39 0.68 0.80 0.82 0.65 0.50 0.44 0.31 0.22 0.12 0.10 0.11 0.08 0.07 0.13 0.22 0.26 0.26 0.24 0.26 0.27 0.29 0.32 0.40 0.47 0.43 0.41 0.42 0.48 0.55 0.57 0.57 0.57 0.65 0.64 0.66 0.56 0.51 0.48 0.52
0.07 0.22 0.45 0.33 0.14 0.13 0.16 0.14 0.21 0.34 0.59 0.79 0.80 0.84 0.74 0.59 0.45 0.30 0.18 0.11 0.08 0.07 0.09 0.12 0.22 0.26 0.28 0.26 0.27 0.27 0.26 0.27 0.33 0.42 0.42 0.44 0.50 0.56 0.65 0.65 0.60 0.53 0.58 0.58 0.57 0.58 0.57 0.58 0.59
0.14 0.24 0.36 0.26 0.14 0.11 0.12 0.13 0.21 0.40 0.62 0.78 0.93 1.01 0.84 0.62 0.47 0.33 0.24 0.22 0.23 0.10 0.09 0.14 0.23 0.27 0.29 0.30 0.30 0.31 0.28 0.27 0.30 0.37 0.42 0.47 0.53 0.58 0.61 0.65 0.65 0.58 0.56 0.52 0.54 0.54 0.53 0.60 0.64
0.12 0.19 0.23 0.18 0.14 0.10 0.11 0.16 0.26 0.41 0.52 0.82 1.09 1.13 0.85 0.75 0.60 0.41 0.41 0.37 0.62 0.32 0.20 0.20 0.22 0.28 0.31 0.37 0.36 0.34 0.29 0.29 0.32 0.37 0.39 0.42 0.46 0.56 0.58 0.67 0.67 0.61 0.56 0.52 0.55 0.50 0.50 0.58 0.61
0.07 0.10 0.13 0.13 0.07 0.07 0.10 0.16 0.27 0.39 0.66 0.93 0.96 1.02 1.01 0.75 0.68 0.65 0.68 0.64 0.77 0.62 0.38 0.32 0.32 0.39 0.41 0.44 0.41 0.41 0.34 0.31 0.34 0.38 0.39 0.47 0.50 0.59 0.66 0.70 0.72 0.64 0.64 0.59 0.62 0.59 0.57 0.63 0.64
0.04 0.09 0.13 0.11 0.04 0.06 0.12 0.21 0.28 0.34 0.55 0.73 0.81 0.77 0.61 0.59 0.74 0.84 0.90 0.95 1.01 0.96 0.81 0.73 0.62 0.54 0.58 0.54 0.46 0.55 0.52 0.50 0.53 0.59 0.64 0.77 0.97 1.00 1.09 0.93 0.90 0.80 0.84 0.90 0.88 0.87 0.83 0.83 0.77
0.03 0.08 0.07 0.03 0.02 0.05 0.10 0.19 0.32 0.41 0.70 1.06 1.09 1.12 0.78 0.80 0.96 1.02 1.03 1.01 1.16 1.27 1.18 1.20 0.97 0.75 0.68 0.62 0.81 1.04 0.99 1.03 1.10 1.17 1.18 1.38 1.48 1.56 1.26 1.27 1.31 1.28 1.40 1.43 1.46 1.56 1.32 1.05 0.90
0.02 0.03 0.02 0.01 0.01 0.02 0.05 0.11 0.15 0.35 0.77 1.21 1.27 1.23 1.03 1.01 1.12 1.24 1.30 1.43 1.56 1.72 1.49 1.29 1.26 1.17 1.17 1.18 1.18 1.26 1.46 1.57 1.68 1.76 1.77 1.93 1.67 1.57 1.45 1.61 1.78 1.74 1.68 1.56 1.82 2.01 1.63 1.56 1.70
0.01 0.01 0.01 0.01 0.01 0.02 0.04 0.11 0.21 0.36 0.79 1.07 0.98 0.86 0.89 1.10 1.29 1.47 1.84 2.06 2.25 2.37 2.29 2.18 1.94 1.76 1.76 1.62 1.43 1.38 1.41 1.50 1.59 1.71 1.76 1.93 2.02 1.94 1.98 2.10 1.92 1.88 1.92 2.11 2.08 2.29 2.16 2.01 1.88
0.01 0.01 0.01 0.01 0.01 0.02 0.06 0.16 0.29 0.42 0.69 0.67 0.59 0.66 1.05 1.31 1.54 1.86 2.10 2.31 2.54 2.89 3.14 3.56 3.29 2.64 2.27 1.99 1.71 1.41 1.39 1.29 1.26 1.37 1.58 1.74 1.91 2.06 2.18 1.99 1.86 1.62 1.83 2.11 2.22 2.03 2.22 2.21 2.22
0.01 0.01 0.03 0.03 0.02 0.04 0.09 0.14 0.37 0.48 0.58 0.65 0.63 0.92 1.38 1.87 2.07 2.31 2.60 3.01 3.30 3.73 3.76 3.88 4.22 3.57 2.79 2.26 1.92 1.61 1.35 1.36 1.37 1.40 1.42 1.60 1.77 1.86 1.92 1.85 1.79 1.72 1.82 2.03 2.03 2.02 2.26 2.36 2.31
0.01 0.04 0.11 0.11 0.07 0.07 0.12 0.27 0.48 0.62 0.64 0.85 0.91 1.14 1.69 2.32 2.33 2.61 2.92 3.41 3.87 4.32 4.43 4.48 4.68 4.25 3.65 3.06 2.47 1.94 1.67 1.45 1.49 1.55 1.41 1.40 1.54 1.59 1.69 1.71 1.66 1.72 1.71 1.74 1.72 1.79 1.99 1.99 1.95
0.02 0.09 0.25 0.20 0.10 0.10 0.18 0.59 0.76 0.68 0.66 0.94 1.16 1.39 1.86 2.51 2.56 2.88 3.34 3.88 4.57 4.99 5.20 5.22 4.98 4.79 4.27 3.60 3.01 2.58 2.27 1.95 1.71 1.60 1.44 1.27 1.33 1.38 1.45 1.37 1.37 1.38 1.37 1.37 1.47 1.53 1.69 1.85 1.94
0.04 0.09 0.22 0.21 0.15 0.13 0.22 0.66 0.71 0.48 0.64 0.92 1.24 1.53 1.83 2.17 2.66 3.23 3.73 4.31 5.24 6.17 6.57 6.33 5.64 5.13 4.54 3.91 3.39 3.18 2.93 2.50 2.08 1.90 1.70 1.49 1.33 1.27 1.31 1.32 1.31 1.13 1.17 1.19 1.13 1.33 1.53 1.76 1.81
0.03 0.07 0.15 0.23 0.17 0.23 0.33 0.43 0.55 0.61 0.78 1.00 1.21 1.38 1.66 1.96 2.38 3.08 3.66 4.34 5.32 6.51 7.20 7.06 6.36 5.45 4.72 4.26 3.76 3.52 3.21 2.74 2.24 2.00 1.85 1.63 1.48 1.29 1.22 1.13 1.08 0.96 1.09 1.21 1.27 1.55 1.54 1.50 1.53
0.03 0.07 0.14 0.22 0.17 0.25 0.33 0.44 0.59 0.76 0.99 1.02 1.10 1.21 1.43 1.73 2.14 2.82 3.51 4.08 4.74 5.50 6.07 5.90 5.25 4.73 4.11 3.55 2.98 2.83 2.56 2.29 2.03 1.81 1.60 1.56 1.48 1.27 1.23 1.12 1.20 1.03 1.04 1.05 1.06 1.22 1.29 1.24 1.29
0.04 0.08 0.13 0.18 0.15 0.15 0.26 0.53 0.69 0.78 0.95 0.91 0.91 0.94 1.13 1.48 2.09 2.88 3.50 3.70 3.71 3.98 4.23 3.73 3.50 3.46 3.04 2.70 2.58 2.43 2.22 1.99 1.76 1.62 1.53 1.28 1.24 1.17 1.10 1.18 1.11 1.06 1.10 1.05 1.07 1.20 1.25 1.25 1.28
0.07 0.09 0.10 0.16 0.17 0.22 0.36 0.70 0.92 0.85 0.84 0.73 0.71 0.91 1.38 1.77 2.21 2.73 2.90 2.91 2.80 2.78 2.77 2.53 2.46 2.73 2.63 2.55 2.46 2.36 2.28 2.18 1.91 1.58 1.48 1.23 1.08 1.06 1.10 1.10 1.12 1.15 0.98 1.04 1.10 1.08 1.13 1.16 1.14
0.07 0.06 0.04 0.05 0.12 0.35 0.51 0.91 1.09 1.00 0.94 0.67 0.71 1.08 1.59 1.91 2.17 2.17 1.78 1.66 1.81 1.90 1.99 2.23 2.30 2.40 2.30 2.33 2.11 1.87 1.70 1.56 1.45 1.39 1.37 1.35 1.19 1.08 1.00 1.03 1.17 1.16 1.02 1.12 0.88 0.95 1.11 1.15 1.01
0.04 0.04 0.03 0.06 0.15 0.39 0.66 1.08 1.26 1.06 0.87 0.62 0.59 0.67 1.04 1.26 1.23 1.03 0.89 0.97 1.21 1.45 1.69 2.06 2.14 2.15 2.04 1.98 1.98 1.98 1.85 1.76 1.62 1.56 1.60 1.59 1.56 1.38 1.12 1.05 1.17 1.23 1.17 1.20 1.08 1.22 1.10 1.01 0.94
0.03 0.04 0.10 0.20 0.38 0.82 0.86 0.95 1.19 1.01 0.80 0.61 0.42 0.45 0.70 0.74 0.60 0.62 0.70 0.89 1.13 1.30 1.40 1.60 1.76 1.94 1.98 2.00 2.06 2.00 1.93 1.93 1.74 1.57 1.47 1.46 1.49 1.44 1.34 1.24 1.34 1.35 1.29 1.27 1.19 1.23 1.19 1.14 1.10
0.03 0.05 0.26 0.60 0.89 1.01 0.73 0.87 1.17 0.78 0.52 0.41 0.29 0.26 0.30 0.34 0.43 0.60 0.66 0.86 0.98 1.09 1.11 1.20 1.32 1.52 1.65 1.73 1.86 1.91 1.91 1.92 1.71 1.58 1.44 1.39 1.30 1.26 1.35 1.39 1.45 1.38 1.36 1.29 1.28 1.29 1.29 1.34 1.32
0.04 0.04 0.10 0.21 0.33 0.53 0.69 1.07 1.15 0.75 0.41 0.25 0.20 0.19 0.19 0.23 0.30 0.35 0.39 0.48 0.62 0.79 0.98 1.12 1.17 1.18 1.21 1.27 1.47 1.65 1.67 1.69 1.62 1.64 1.43 1.32 1.25 1.26 1.38 1.43 1.32 1.29 1.30 1.22 1.28 1.21 1.18 1.21 1.24
0.03 0.03 0.04 0.05 0.08 0.31 0.73 1.01 0.92 0.58 0.40 0.29 0.24 0.25 0.22 0.22 0.30 0.26 0.25 0.32 0.41 0.47 0.62 0.83 0.92 0.93 0.94 1.01 1.16 1.27 1.32 1.43 1.54 1.51 1.35 1.20 1.23 1.25 1.27 1.21 1.20 1.22 1.21 1.27 1.36 1.28 1.22 1.24 1.14
0.04 0.03 0.03 0.05 0.10 0.23 0.57 1.04 1.18 0.81 0.56 0.40 0.33 0.26 0.23 0.24 0.25 0.27 0.27 0.28 0.30 0.32 0.45 0.62 0.77 0.80 0.83 0.88 0.94 0.94 1.07 1.18 1.32 1.34 1.30 1.18 1.15 1.21 1.25 1.20 1.19 1.19 1.10 1.14 1.29 1.25 1.28 1.35 1.31
0.05 0.04 0.05 0.06 0.07 0.15 0.42 0.67 0.67 0.69 0.56 0.36 0.31 0.28 0.24 0.25 0.26 0.31 0.27 0.31 0.27 0.26 0.34 0.46 0.64 0.72 0.69 0.73 0.79 0.88 0.98 1.15 1.23 1.23 1.27 1.23 1.20 1.22 1.23 1.22 1.25 1.23 1.16 1.17 1.24 1.20 1.27 1.35 1.45
0.07 0.07 0.07 0.08 0.08 0.11 0.20 0.34 0.38 0.41 0.44 0.48 0.40 0.34 0.35 0.37 0.30 0.30 0.26 0.30 0.25 0.26 0.31 0.39 0.47 0.56 0.60 0.68 0.77 0.86 0.94 1.06 1.18 1.16 1.21 1.29 1.25 1.23 1.20 1.21 1.28 1.21 1.20 1.23 1.18 1.17 1.24 1.35 1.42

GEFSSGP_prec_meanprecacc_192.txt.gz
Total_Precipitation_Accumulation
0.03 0.08 0.19 0.37 0.99 1.18 0.99 0.59 0.44 0.35 0.35 0.38 0.44 0.43 0.43 0.50 0.63 1.07 0.59 0.21 0.10 0.08 0.14 0.40 0.56 0.52 0.49 0.52 0.55 0.55 0.57 0.59 0.67 0.64 0.58 0.53 0.53 0.59 0.68 0.75 0.71 0.78 0.78 0.69 0.72 0.71 0.72 0.77 0.78
0.07 0.10 0.24 0.59 1.02 1.06 0.91 0.47 0.35 0.32 0.30 0.41 0.47 0.39 0.34 0.36 0.27 0.24 0.26 0.22 0.11 0.06 0.09 0.26 0.48 0.46 0.39 0.43 0.47 0.48 0.47 0.48 0.57 0.58 0.55 0.52 0.54 0.62 0.69 0.69 0.66 0.75 0.70 0.68 0.72 0.74 0.69 0.65 0.69
0.09 0.14 0.38 0.76 0.65 0.59 0.57 0.33 0.29 0.35 0.43 0.62 0.72 0.48 0.39 0.46 0.31 0.18 0.15 0.13 0.12 0.08 0.08 0.21 0.38 0.40 0.35 0.36 0.44 0.43 0.38 0.44 0.56 0.58 0.53 0.51 0.56 0.62 0.66 0.67 0.71 0.77 0.80 0.77 0.77 0.74 0.65 0.62 0.64
0.09 0.18 0.40 0.47 0.27 0.25 0.32 0.23 0.29 0.39 0.68 0.80 0.82 0.65 0.50 0.45 0.32 0.22 0.12 0.11 0.11 0.09 0.10 0.18 0.29 0.32 0.33 0.33 0.39 0.39 0.40 0.44 0.55 0.64 0.56 0.53 0.58 0.67 0.75 0.76 0.75 0.71 0.78 0.74 0.74 0.65 0.61 0.57 0.59
0.07 0.22 0.45 0.33 0.14 0.13 0.16 0.14 0.21 0.34 0.59 0.80 0.80 0.85 0.76 0.61 0.45 0.30 0.18 0.12 0.09 0.09 0.12 0.16 0.28 0.35 0.40 0.41 0.41 0.42 0.41 0.40 0.48 0.57 0.54 0.54 0.63 0.73 0.82 0.80 0.73 0.64 0.69 0.68 0.65 0.66 0.66 0.64 0.65
0.14 0.24 0.36 0.26 0.14 0.11 0.12 0.13 0.21 0.40 0.62 0.79 0.94 1.02 0.85 0.63 0.47 0.33 0.24 0.22 0.23 0.11 0.11 0.18 0.29 0.34 0.38 0.43 0.44 0.46 0.44 0.42 0.44 0.53 0.58 0.60 0.65 0.70 0.72 0.76 0.74 0.67 0.64 0.59 0.61 0.62 0.61 0.66 0.70
0.12 0.19 0.23 0.18 0.14 0.10 0.11 0.16 0.26 0.41 0.53 0.82 1.09 1.13 0.85 0.75 0.60 0.41 0.41 0.37 0.62 0.34 0.21 0.22 0.26 0.33 0.39 0.50 0.52 0.49 0.46 0.45 0.46 0.55 0.59 0.57 0.58 0.67 0.68 0.76 0.75 0.70 0.65 0.59 0.61 0.57 0.57 0.64 0.67
0.07 0.10 0.13 0.13 0.07 0.07 0.10 0.16 0.27 0.39 0.66 0.93 0.96 1.03 1.01 0.76 0.68 0.65 0.69 0.64 0.78 0.64 0.40 0.34 0.35 0.45 0.49 0.52 0.50 0.49 0.45 0.44 0.46 0.56 0.58 0.66 0.65 0.71 0.74 0.77 0.79 0.72 0.72 0.66 0.68 0.65 0.64 0.69 0.71
0.04 0.09 0.13 0.11 0.04 0.06 0.12 0.21 0.28 0.34 0.55 0.73 0.81 0.77 0.61 0.59 0.74 0.85 0.92 0.97 1.02 0.97 0.82 0.74 0.64 0.58 0.64 0.60 0.53 0.62 0.59 0.59 0.62 0.72 0.83 0.98 1.12 1.10 1.17 1.00 0.98 0.88 0.92 0.98 0.96 0.93 0.87 0.87 0.82
0.03 0.08 0.07 0.03 0.02 0.05 0.10 0.19 0.32 0.41 0.70 1.06 1.09 1.12 0.78 0.80 0.97 1.04 1.04 1.01 1.16 1.27 1.18 1.21 0.98 0.76 0.70 0.65 0.86 1.10 1.05 1.11 1.19 1.27 1.33 1.58 1.62 1.66 1.34 1.35 1.40 1.37 1.51 1.51 1.53 1.62 1.36 1.08 0.93
0.02 0.03 0.02 0.01 0.01 0.02 0.05 0.11 0.15 0.35 0.77 1.21 1.27 1.23 1.03 1.01 1.13 1.24 1.30 1.43 1.56 1.73 1.50 1.30 1.26 1.18 1.19 1.20 1.21 1.31 1.51 1.62 1.73 1.81 1.86 2.07 1.79 1.65 1.53 1.72 1.89 1.83 1.78 1.64 1.88 2.06 1.68 1.60 1.75
0.01 0.01 0.01 0.01 0.01 0.02 0.04 0.11 0.21 0.36 0.79 1.07 0.98 0.86 0.89 1.10 1.29 1.48 1.84 2.07 2.25 2.37 2.30 2.19 1.95 1.77 1.80 1.65 1.46 1.40 1.44 1.52 1.62 1.75 1.81 2.03 2.14 2.02 2.07 2.21 2.01 1.96 1.99 2.19 2.15 2.36 2.23 2.08 1.92
0.01 0.01 0.01 0.01 0.01 0.02 0.06 0.16 0.29 0.42 0.69 0.67 0.59 0.66 1.05 1.31 1.54 1.86 2.10 2.32 2.54 2.89 3.14 3.57 3.30 2.67 2.31 2.03 1.75 1.44 1.42 1.32 1.29 1.41 1.64 1.81 1.99 2.12 2.24 2.09 1.95 1.70 1.89 2.17 2.28 2.09 2.30 2.28 2.26
0.01 0.01 0.03 0.03 0.03 0.04 0.09 0.14 0.37 0.48 0.58 0.65 0.63 0.92 1.38 1.87 2.07 2.31 2.61 3.01 3.31 3.74 3.77 3.89 4.24 3.59 2.82 2.29 1.95 1.65 1.38 1.40 1.41 1.47 1.49 1.65 1.83 1.90 1.96 1.91 1.86 1.78 1.88 2.07 2.08 2.08 2.34 2.43 2.37
0.01 0.04 0.11 0.11 0.07 0.07 0.12 0.28 0.48 0.62 0.64 0.85 0.91 1.14 1.69 2.32 2.33 2.62 2.92 3.41 3.87 4.32 4.44 4.49 4.69 4.26 3.66 3.09 2.49 1.97 1.71 1.49 1.55 1.63 1.46 1.44 1.59 1.64 1.74 1.76 1.70 1.76 1.75 1.78 1.76 1.84 2.06 2.06 2.01
0.02 0.09 0.25 0.20 0.10 0.10 0.18 0.59 0.76 0.68 0.66 0.94 1.16 1.39 1.86 2.51 2.56 2.88 3.34 3.88 4.57 4.99 5.22 5.24 4.99 4.80 4.28 3.63 3.05 2.61 2.30 1.99 1.77 1.66 1.48 1.30 1.37 1.41 1.50 1.42 1.42 1.43 1.40 1.40 1.52 1.59 1.77 1.92 2.00
0.04 0.09 0.22 0.21 0.15 0.13 0.22 0.66 0.71 0.48 0.64 0.92 1.24 1.53 1.83 2.17 2.66 3.23 3.73 4.32 5.24 6.18 6.59 6.35 5.65 5.13 4.55 3.94 3.43 3.21 2.98 2.54 2.11 1.94 1.73 1.52 1.37 1.32 1.36 1.38 1.38 1.17 1.21 1.24 1.19 1.41 1.62 1.84 1.90
0.03 0.07 0.15 0.23 0.17 0.23 0.33 0.43 0.55 0.61 0.78 1.00 1.21 1.38 1.66 1.96 2.38 3.08 3.66 4.35 5.32 6.52 7.21 7.08 6.38 5.47 4.73 4.28 3.80 3.56 3.26 2.78 2.27 2.04 1.90 1.68 1.54 1.35 1.29 1.20 1.14 1.01 1.13 1.27 1.35 1.65 1.65 1.59 1.63
0.03 0.07 0.14 0.22 0.17 0.25 0.33 0.44 0.59 0.76 0.99 1.02 1.10 1.21 1.43 1.73 2.14 2.82 3.51 4.08 4.74 5.50 6.08 5.92 5.27 4.75 4.13 3.57 3.01 2.86 2.62 2.35 2.09 1.88 1.65 1.63 1.55 1.35 1.31 1.19 1.27 1.09 1.09 1.11 1.12 1.29 1.37 1.31 1.38
0.04 0.08 0.13 0.18 0.15 0.15 0.26 0.53 0.69 0.78 0.95 0.91 0.91 0.94 1.13 1.48 2.09 2.88 3.50 3.70 3.71 3.99 4.24 3.74 3.52 3.49 3.06 2.72 2.62 2.46 2.25 2.03 1.81 1.68 1.59 1.33 1.29 1.22 1.15 1.26 1.19 1.12 1.16 1.10 1.12 1.26 1.33 1.31 1.36
0.07 0.09 0.10 0.16 0.17 0.22 0.36 0.70 0.92 0.85 0.84 0.73 0.71 0.91 1.38 1.77 2.21 2.73 2.90 2.91 2.80 2.79 2.77 2.55 2.47 2.75 2.66 2.59 2.49 2.39 2.32 2.23 1.96 1.63 1.53 1.27 1.13 1.10 1.16 1.16 1.19 1.22 1.03 1.11 1.19 1.17 1.22 1.26 1.24
0.07 0.06 0.04 0.05 0.12 0.35 0.51 0.91 1.09 1.00 0.94 0.67 0.71 1.08 1.59 1.91 2.17 2.17 1.78 1.66 1.81 1.90 1.99 2.24 2.30 2.41 2.32 2.35 2.13 1.90 1.75 1.62 1.52 1.45 1.43 1.42 1.24 1.13 1.05 1.08 1.24 1.25 1.08 1.20 0.96 1.02 1.21 1.26 1.11
0.04 0.04 0.03 0.06 0.15 0.39 0.66 1.08 1.26 1.06 0.87 0.62 0.59 0.67 1.04 1.26 1.23 1.03 0.89 0.97 1.21 1.46 1.70 2.07 2.15 2.16 2.05 2.00 2.00 2.01 1.88 1.82 1.68 1.61 1.67 1.66 1.63 1.43 1.15 1.08 1.22 1.30 1.24 1.27 1.16 1.31 1.20 1.11 1.05
0.03 0.04 0.10 0.20 0.38 0.82 0.86 0.95 1.19 1.01 0.80 0.61 0.42 0.45 0.70 0.74 0.60 0.62 0.70 0.89 1.13 1.30 1.41 1.61 1.78 1.95 1.99 2.01 2.07 2.02 1.96 1.98 1.79 1.62 1.53 1.52 1.54 1.50 1.39 1.29 1.39 1.42 1.35 1.34 1.27 1.31 1.27 1.23 1.20
0.03 0.05 0.26 0.60 0.89 1.01 0.73 0.87 1.17 0.78 0.52 0.41 0.29 0.26 0.30 0.34 0.43 0.60 0.66 0.86 0.98 1.09 1.11 1.21 1.33 1.54 1.66 1.74 1.87 1.92 1.94 1.95 1.76 1.63 1.49 1.45 1.37 1.33 1.43 1.46 1.55 1.45 1.42 1.36 1.35 1.36 1.37 1.40 1.39
0.04 0.04 0.10 0.21 0.33 0.53 0.69 1.07 1.15 0.75 0.41 0.25 0.20 0.19 0.19 0.23 0.30 0.35 0.39 0.48 0.62 0.79 0.98 1.13 1.17 1.19 1.22 1.28 1.48 1.66 1.69 1.70 1.64 1.67 1.46 1.36 1.30 1.31 1.43 1.49 1.40 1.36 1.35 1.27 1.35 1.27 1.23 1.26 1.31
0.04 0.03 0.04 0.05 0.08 0.31 0.73 1.01 0.92 0.58 0.40 0.29 0.24 0.25 0.22 0.22 0.30 0.26 0.25 0.32 0.41 0.47 0.62 0.84 0.92 0.93 0.96 1.03 1.18 1.28 1.33 1.45 1.55 1.52 1.37 1.22 1.26 1.29 1.32 1.26 1.25 1.27 1.27 1.34 1.43 1.34 1.26 1.29 1.21
0.04 0.03 0.03 0.05 0.10 0.23 0.57 1.04 1.18 0.81 0.56 0.40 0.33 0.26 0.23 0.24 0.25 0.27 0.27 0.28 0.30 0.32 0.45 0.62 0.77 0.81 0.84 0.89 0.96 0.95 1.09 1.20 1.33 1.36 1.32 1.20 1.17 1.25 1.29 1.23 1.23 1.23 1.16 1.20 1.36 1.30 1.32 1.40 1.37
0.05 0.04 0.05 0.06 0.07 0.15 0.42 0.67 0.67 0.69 0.56 0.36 0.31 0.28 0.24 0.25 0.26 0.31 0.27 0.31 0.27 0.27 0.34 0.46 0.64 0.73 0.69 0.73 0.80 0.90 0.99 1.16 1.24 1.24 1.29 1.25 1.23 1.25 1.27 1.27 1.30 1.27 1.22 1.23 1.30 1.25 1.33 1.41 1.50
0.07 0.07 0.07 0.08 0.08 0.11 0.20 0.34 0.38 0.41 0.44 0.48 0.40 0.34 0.35 0.37 0.31 0.30 0.27 0.30 0.25 0.26 0.32 0.40 0.47 0.56 0.61 0.69 0.77 0.87 0.96 1.06 1.18 1.16 1.22 1.31 1.28 1.26 1.24 1.26 1.33 1.25 1.24 1.28 1.21 1.22 1.29 1.41 1.47

GEFSSGP_prec_meanprecacc_198.txt.gz
Total_Precipitation_Accumulation
0.04 0.08 0.19 0.37 1.02 1.20 0.99 0.59 0.44 0.35 0.35 0.38 0.44 0.43 0.43 0.51 0.66 1.13 0.62 0.22 0.11 0.10 0.16 0.45 0.63 0.61 0.61 0.65 0.66 0.65 0.67 0.68 0.76 0.75 0.69 0.62 0.62 0.72 0.81 0.86 0.83 0.93 0.92 0.83 0.85 0.81 0.80 0.83 0.86
0.07 0.10 0.24 0.60 1.04 1.06 0.91 0.47 0.35 0.32 0.30 0.41 0.47 0.39 0.34 0.36 0.27 0.25 0.27 0.23 0.13 0.08 0.12 0.31 0.54 0.55 0.50 0.53 0.57 0.58 0.57 0.56 0.66 0.69 0.67 0.62 0.64 0.75 0.85 0.82 0.79 0.92 0.86 0.84 0.85 0.84 0.76 0.72 0.77
0.09 0.14 0.38 0.76 0.65 0.60 0.57 0.33 0.29 0.35 0.44 0.62 0.72 0.48 0.39 0.46 0.31 0.19 0.15 0.14 0.14 0.10 0.11 0.24 0.43 0.45 0.41 0.42 0.52 0.54 0.47 0.51 0.66 0.72 0.69 0.65 0.71 0.78 0.83 0.81 0.85 0.94 0.97 0.93 0.91 0.86 0.74 0.71 0.73
0.09 0.18 0.40 0.48 0.27 0.25 0.32 0.23 0.29 0.39 0.68 0.80 0.82 0.65 0.50 0.45 0.33 0.23 0.13 0.11 0.12 0.11 0.12 0.21 0.34 0.35 0.38 0.40 0.48 0.48 0.50 0.54 0.66 0.78 0.72 0.66 0.71 0.84 0.91 0.90 0.91 0.86 0.92 0.88 0.87 0.77 0.72 0.66 0.66
0.08 0.22 0.45 0.33 0.14 0.13 0.16 0.14 0.21 0.34 0.59 0.80 0.80 0.85 0.76 0.61 0.45 0.30 0.19 0.12 0.10 0.10 0.14 0.18 0.37 0.43 0.47 0.49 0.48 0.50 0.50 0.50 0.62 0.71 0.64 0.67 0.81 0.96 1.05 1.00 0.93 0.79 0.83 0.79 0.75 0.75 0.74 0.70 0.70
0.14 0.25 0.36 0.26 0.14 0.11 0.12 0.13 0.21 0.41 0.62 0.79 0.94 1.02 0.86 0.64 0.48 0.33 0.24 0.22 0.24 0.12 0.14 0.21 0.34 0.42 0.48 0.52 0.52 0.54 0.52 0.52 0.61 0.74 0.69 0.72 0.88 0.99 1.00 1.01 0.94 0.81 0.76 0.69 0.69 0.68 0.67 0.69 0.73
0.12 0.19 0.23 0.18 0.14 0.10 0.11 0.16 0.26 0.41 0.53 0.82 1.09 1.13 0.86 0.76 0.60 0.41 0.41 0.37 0.63 0.35 0.26 0.26 0.34 0.49 0.58 0.66 0.66 0.62 0.59 0.57 0.67 0.81 0.74 0.70 0.72 0.83 0.86 0.93 0.88 0.81 0.76 0.68 0.69 0.63 0.62 0.68 0.70
0.08 0.10 0.13 0.13 0.08 0.07 0.10 0.16 0.27 0.39 0.66 0.93 0.96 1.03 1.02 0.76 0.68 0.65 0.69 0.65 0.79 0.66 0.42 0.37 0.40 0.55 0.63 0.67 0.66 0.66 0.61 0.62 0.65 0.74 0.75 0.79 0.77 0.82 0.85 0.87 0.88 0.82 0.81 0.73 0.74 0.70 0.67 0.73 0.74
0.05 0.09 0.14 0.11 0.04 0.06 0.12 0.21 0.28 0.34 0.55 0.73 0.81 0.77 0.61 0.59 0.74 0.85 0.92 0.97 1.03 0.98 0.84 0.76 0.67 0.62 0.72 0.72 0.68 0.79 0.79 0.82 0.83 0.89 1.01 1.14 1.30 1.24 1.29 1.09 1.05 0.95 0.99 1.04 1.00 0.97 0.91 0.91 0.85
0.03 0.09 0.07 0.03 0.02 0.05 0.10 0.19 0.32 0.41 0.70 1.06 1.09 1.12 0.78 0.80 0.97 1.04 1.05 1.02 1.17 1.28 1.21 1.23 1.00 0.78 0.76 0.73 0.97 1.28 1.26 1.34 1.39 1.46 1.52 1.77 1.81 1.86 1.47 1.44 1.46 1.44 1.57 1.56 1.58 1.66 1.40 1.13 0.96
0.02 0.03 0.02 0.01 0.01 0.02 0.05 0.11 0.15 0.35 0.77 1.21 1.27 1.23 1.03 1.01 1.13 1.25 1.31 1.43 1.56 1.73 1.51 1.32 1.29 1.21 1.23 1.26 1.28 1.41 1.67 1.82 1.89 1.96 2.02 2.21 1.93 1.80 1.65 1.82 2.00 1.96 1.85 1.70 1.93 2.11 1.74 1.65 1.81
0.01 0.01 0.01 0.01 0.01 0.02 0.04 0.11 0.21 0.36 0.79 1.07 0.98 0.86 0.89 1.10 1.29 1.48 1.84 2.07 2.25 2.37 2.30 2.19 1.97 1.82 1.85 1.70 1.51 1.46 1.52 1.62 1.71 1.85 1.94 2.12 2.26 2.15 2.19 2.35 2.15 2.08 2.09 2.30 2.24 2.43 2.28 2.11 1.96
0.01 0.01 0.01 0.01 0.01 0.02 0.06 0.16 0.29 0.42 0.69 0.67 0.59 0.66 1.05 1.31 1.54 1.86 2.10 2.32 2.54 2.90 3.15 3.58 3.33 2.71 2.36 2.09 1.81 1.48 1.48 1.37 1.33 1.46 1.73 1.89 2.07 2.21 2.34 2.19 2.07 1.80 1.97 2.24 2.36 2.13 2.34 2.31 2.30
0.01 0.01 0.03 0.03 0.03 0.04 0.09 0.14 0.37 0.48 0.58 0.65 0.63 0.92 1.38 1.87 2.07 2.31 2.61 3.01 3.31 3.74 3.77 3.91 4.27 3.62 2.86 2.35 2.01 1.69 1.42 1.43 1.44 1.55 1.53 1.71 1.91 1.98 2.04 1.98 1.96 1.87 1.94 2.12 2.14 2.13 2.39 2.49 2.43
0.01 0.04 0.11 0.11 0.07 0.07 0.12 0.28 0.48 0.62 0.64 0.85 0.91 1.14 1.69 2.32 2.33 2.62 2.92 3.41 3.87 4.33 4.45 4.51 4.71 4.28 3.70 3.13 2.53 1.99 1.73 1.50 1.57 1.68 1.49 1.49 1.65 1.71 1.79 1.82 1.77 1.84 1.80 1.82 1.81 1.89 2.11 2.12 2.07
0.02 0.09 0.25 0.20 0.10 0.10 0.18 0.59 0.77 0.68 0.66 0.94 1.16 1.39 1.86 2.51 2.56 2.88 3.34 3.88 4.58 5.00 5.23 5.25 5.00 4.81 4.31 3.67 3.08 2.63 2.32 2.01 1.81 1.70 1.52 1.34 1.41 1.46 1.57 1.50 1.49 1.47 1.44 1.45 1.58 1.66 1.84 2.00 2.06
0.04 0.09 0.23 0.23 0.16 0.13 0.22 0.67 0.71 0.48 0.64 0.92 1.24 1.53 1.83 2.17 2.66 3.23 3.73 4.32 5.24 6.18 6.60 6.36 5.68 5.16 4.58 3.97 3.47 3.25 3.02 2.59 2.15 1.99 1.78 1.58 1.40 1.35 1.44 1.46 1.46 1.22 1.26 1.29 1.25 1.49 1.69 1.93 1.97
0.04 0.08 0.17 0.26 0.19 0.23 0.33 0.44 0.55 0.61 0.78 1.00 1.21 1.38 1.66 1.96 2.38 3.08 3.66 4.35 5.32 6.52 7.21 7.09 6.39 5.50 4.77 4.31 3.84 3.60 3.29 2.83 2.31 2.09 1.96 1.72 1.58 1.37 1.33 1.27 1.20 1.06 1.19 1.35 1.44 1.77 1.74 1.68 1.70
0.04 0.07 0.15 0.23 0.19 0.26 0.34 0.45 0.60 0.76 0.99 1.02 1.10 1.21 1.43 1.73 2.14 2.82 3.51 4.08 4.74 5.50 6.08 5.93 5.30 4.79 4.18 3.62 3.06 2.91 2.68 2.41 2.15 1.92 1.68 1.65 1.58 1.38 1.35 1.26 1.36 1.15 1.16 1.19 1.19 1.39 1.49 1.41 1.45
0.04 0.08 0.13 0.19 0.16 0.16 0.28 0.55 0.70 0.79 0.95 0.91 0.91 0.94 1.13 1.48 2.09 2.88 3.50 3.70 3.71 3.99 4.25 3.75 3.54 3.51 3.09 2.76 2.67 2.51 2.31 2.08 1.87 1.73 1.65 1.37 1.33 1.26 1.19 1.33 1.27 1.21 1.26 1.19 1.21 1.37 1.47 1.44 1.47
0.07 0.09 0.10 0.16 0.17 0.23 0.37 0.71 0.93 0.86 0.85 0.73 0.71 0.91 1.38 1.77 2.21 2.73 2.90 2.91 2.80 2.79 2.77 2.55 2.48 2.77 2.68 2.62 2.53 2.43 2.38 2.29 2.03 1.69 1.61 1.32 1.16 1.13 1.21 1.21 1.27 1.31 1.11 1.23 1.33 1.30 1.36 1.40 1.35
0.07 0.06 0.04 0.05 0.12 0.35 0.52 0.93 1.10 1.01 0.95 0.68 0.72 1.09 1.59 1.91 2.17 2.17 1.78 1.66 1.81 1.90 1.99 2.24 2.31 2.42 2.33 2.37 2.16 1.95 1.81 1.69 1.59 1.51 1.52 1.49 1.29 1.16 1.09 1.13 1.31 1.34 1.17 1.34 1.07 1.16 1.36 1.41 1.25
0.04 0.04 0.03 0.06 0.15 0.39 0.66 1.08 1.27 1.07 0.88 0.63 0.60 0.68 1.05 1.26 1.23 1.03 0.89 0.97 1.21 1.46 1.70 2.07 2.15 2.18 2.07 2.02 2.02 2.05 1.93 1.89 1.75 1.67 1.77 1.74 1.69 1.47 1.18 1.13 1.30 1.39 1.33 1.36 1.26 1.48 1.33 1.23 1.17
0.03 0.04 0.10 0.20 0.38 0.83 0.88 0.96 1.19 1.02 0.81 0.64 0.48 0.47 0.71 0.75 0.60 0.62 0.70 0.89 1.13 1.30 1.41 1.62 1.79 1.98 2.02 2.03 2.09 2.04 2.00 2.04 1.86 1.69 1.59 1.57 1.60 1.54 1.42 1.33 1.47 1.50 1.43 1.42 1.36 1.43 1.38 1.35 1.33
0.03 0.05 0.26 0.60 0.90 1.02 0.75 0.88 1.17 0.78 0.53 0.43 0.32 0.28 0.31 0.35 0.44 0.60 0.66 0.86 0.98 1.09 1.11 1.21 1.34 1.55 1.68 1.77 1.89 1.94 1.97 2.00 1.81 1.68 1.54 1.50 1.41 1.37 1.47 1.51 1.61 1.51 1.48 1.42 1.42 1.44 1.47 1.51 1.52
0.04 0.04 0.10 0.22 0.34 0.54 0.70 1.08 1.16 0.75 0.41 0.25 0.20 0.21 0.20 0.24 0.30 0.35 0.39 0.48 0.62 0.79 0.98 1.13 1.18 1.21 1.24 1.30 1.49 1.68 1.72 1.73 1.66 1.71 1.50 1.41 1.33 1.34 1.47 1.52 1.43 1.40 1.39 1.32 1.43 1.34 1.30 1.34 1.41
0.04 0.03 0.04 0.05 0.08 0.31 0.74 1.02 0.93 0.59 0.40 0.29 0.24 0.25 0.22 0.23 0.30 0.26 0.25 0.32 0.41 0.47 0.62 0.84 0.93 0.95 0.97 1.05 1.20 1.30 1.36 1.47 1.59 1.56 1.39 1.24 1.28 1.31 1.34 1.28 1.27 1.29 1.30 1.39 1.50 1.42 1.35 1.39 1.31
0.04 0.03 0.03 0.05 0.10 0.23 0.57 1.05 1.20 0.83 0.57 0.40 0.33 0.26 0.23 0.24 0.25 0.27 0.28 0.29 0.32 0.33 0.45 0.62 0.77 0.82 0.86 0.93 1.01 0.99 1.13 1.24 1.38 1.41 1.35 1.23 1.19 1.27 1.31 1.26 1.26 1.26 1.18 1.24 1.41 1.37 1.41 1.48 1.46
0.05 0.04 0.05 0.06 0.07 0.15 0.42 0.67 0.68 0.72 0.59 0.40 0.33 0.28 0.24 0.25 0.26 0.31 0.27 0.31 0.28 0.28 0.35 0.46 0.64 0.74 0.73 0.79 0.87 0.96 1.07 1.23 1.30 1.29 1.33 1.29 1.26 1.28 1.31 1.32 1.34 1.31 1.26 1.28 1.36 1.31 1.40 1.48 1.58
0.07 0.07 0.07 0.08 0.08 0.11 0.20 0.34 0.38 0.42 0.49 0.55 0.42 0.34 0.35 0.38 0.31 0.30 0.27 0.31 0.25 0.27 0.32 0.40 0.48 0.57 0.62 0.71 0.80 0.91 1.00 1.10 1.21 1.19 1.25 1.34 1.32 1.30 1.28 1.31 1.39 1.31 1.30 1.33 1.26 1.27 1.35 1.46 1.53

GEFSSGP_prec_meanprecacc_204.txt.gz
Total_Precipitation_Accumulation
0.04 0.09 0.23 0.47 1.10 1.27 1.00 0.59 0.44 0.36 0.36 0.39 0.45 0.44 0.44 0.52 0.68 1.16 0.69 0.32 0.16 0.12 0.18 0.47 0.66 0.66 0.67 0.72 0.71 0.70 0.72 0.73 0.81 0.80 0.77 0.71 0.71 0.80 0.90 0.97 0.95 1.04 1.04 0.93 0.93 0.87 0.84 0.88 0.90
0.08 0.13 0.29 0.68 1.12 1.08 0.91 0.47 0.35 0.32 0.30 0.41 0.47 0.39 0.34 0.37 0.27 0.27 0.34 0.31 0.16 0.10 0.13 0.34 0.61 0.64 0.64 0.63 0.63 0.63 0.62 0.60 0.70 0.75 0.74 0.71 0.72 0.83 0.95 0.92 0.88 1.04 0.98 0.93 0.93 0.90 0.82 0.76 0.80
0.11 0.17 0.43 0.84 0.70 0.60 0.58 0.33 0.29 0.35 0.44 0.62 0.72 0.48 0.39 0.47 0.32 0.21 0.19 0.16 0.15 0.11 0.11 0.25 0.47 0.54 0.54 0.56 0.61 0.59 0.52 0.55 0.70 0.77 0.75 0.71 0.77 0.86 0.92 0.89 0.95 1.06 1.09 1.03 0.99 0.93 0.79 0.75 0.75
0.12 0.22 0.44 0.52 0.29 0.25 0.32 0.23 0.29 0.39 0.68 0.80 0.82 0.66 0.51 0.45 0.33 0.24 0.15 0.13 0.14 0.12 0.13 0.21 0.35 0.37 0.41 0.45 0.53 0.52 0.53 0.57 0.70 0.82 0.76 0.71 0.76 0.92 1.02 0.99 0.99 0.97 1.04 1.00 0.95 0.84 0.76 0.70 0.69
0.11 0.25 0.49 0.35 0.14 0.14 0.16 0.14 0.21 0.34 0.59 0.80 0.80 0.86 0.78 0.62 0.46 0.32 0.21 0.14 0.12 0.14 0.18 0.21 0.40 0.45 0.50 0.51 0.51 0.53 0.52 0.52 0.64 0.74 0.68 0.72 0.87 1.04 1.18 1.11 1.01 0.90 0.97 0.91 0.83 0.81 0.79 0.74 0.73
0.18 0.27 0.38 0.26 0.15 0.11 0.12 0.13 0.21 0.41 0.63 0.79 0.94 1.02 0.87 0.65 0.49 0.36 0.27 0.25 0.26 0.17 0.21 0.27 0.39 0.45 0.51 0.54 0.54 0.56 0.54 0.55 0.65 0.79 0.73 0.78 0.99 1.12 1.18 1.17 1.08 0.94 0.90 0.80 0.76 0.72 0.70 0.72 0.76
0.17 0.22 0.24 0.18 0.14 0.10 0.11 0.16 0.26 0.41 0.53 0.82 1.09 1.14 0.87 0.77 0.61 0.42 0.42 0.39 0.65 0.37 0.29 0.30 0.40 0.54 0.62 0.70 0.68 0.65 0.63 0.62 0.74 0.91 0.83 0.87 0.97 1.10 1.12 1.11 1.02 0.94 0.88 0.78 0.76 0.68 0.64 0.70 0.72
0.11 0.11 0.14 0.13 0.08 0.07 0.10 0.16 0.27 0.39 0.66 0.93 0.96 1.03 1.02 0.76 0.69 0.66 0.70 0.65 0.81 0.67 0.45 0.41 0.47 0.62 0.70 0.73 0.71 0.72 0.66 0.68 0.74 0.84 0.86 1.00 1.01 1.04 1.02 0.99 0.98 0.93 0.92 0.81 0.80 0.74 0.70 0.75 0.76
0.06 0.11 0.15 0.12 0.04 0.06 0.12 0.21 0.28 0.34 0.55 0.73 0.81 0.77 0.61 0.59 0.74 0.85 0.93 0.97 1.04 1.00 0.86 0.79 0.71 0.68 0.81 0.81 0.77 0.88 0.87 0.90 0.92 0.97 1.11 1.26 1.42 1.34 1.36 1.15 1.12 1.03 1.05 1.10 1.06 1.02 0.95 0.93 0.87
0.04 0.10 0.08 0.04 0.02 0.05 0.10 0.19 0.32 0.41 0.70 1.06 1.09 1.12 0.78 0.80 0.97 1.05 1.05 1.02 1.17 1.30 1.23 1.25 1.05 0.86 0.84 0.81 1.07 1.38 1.37 1.46 1.50 1.56 1.61 1.84 1.89 1.93 1.53 1.52 1.54 1.53 1.65 1.63 1.64 1.71 1.43 1.14 0.97
0.03 0.04 0.02 0.02 0.01 0.02 0.05 0.11 0.15 0.35 0.77 1.21 1.27 1.23 1.03 1.01 1.13 1.25 1.32 1.43 1.57 1.74 1.52 1.34 1.32 1.26 1.27 1.34 1.39 1.53 1.82 1.98 2.01 2.05 2.08 2.26 2.02 1.91 1.72 1.89 2.07 2.03 1.92 1.74 1.98 2.15 1.77 1.68 1.83
0.02 0.02 0.02 0.01 0.01 0.02 0.04 0.12 0.21 0.36 0.79 1.07 0.98 0.86 0.89 1.10 1.29 1.48 1.84 2.07 2.25 2.38 2.31 2.21 1.98 1.85 1.88 1.77 1.60 1.57 1.65 1.73 1.80 1.91 1.99 2.17 2.36 2.28 2.27 2.42 2.19 2.12 2.12 2.32 2.26 2.45 2.32 2.17 2.01
0.01 0.01 0.02 0.02 0.02 0.03 0.07 0.16 0.29 0.42 0.69 0.67 0.59 0.66 1.05 1.31 1.54 1.86 2.10 2.32 2.54 2.90 3.15 3.59 3.34 2.72 2.38 2.13 1.87 1.57 1.58 1.45 1.39 1.52 1.78 1.92 2.12 2.29 2.42 2.24 2.11 1.83 1.99 2.26 2.38 2.17 2.38 2.37 2.35
0.01 0.02 0.03 0.04 0.03 0.05 0.09 0.15 0.37 0.48 0.58 0.65 0.63 0.92 1.38 1.87 2.07 2.31 2.61 3.01 3.31 3.74 3.78 3.92 4.28 3.63 2.87 2.36 2.04 1.76 1.50 1.51 1.50 1.62 1.58 1.76 1.96 2.04 2.10 2.02 1.99 1.90 1.98 2.16 2.17 2.16 2.43 2.53 2.47
0.01 0.05 0.12 0.12 0.08 0.08 0.13 0.29 0.48 0.62 0.64 0.85 0.91 1.14 1.69 2.33 2.33 2.62 2.92 3.41 3.87 4.33 4.45 4.51 4.71 4.29 3.71 3.13 2.54 2.02 1.78 1.57 1.63 1.75 1.54 1.56 1.71 1.76 1.85 1.86 1.81 1.87 1.83 1.85 1.84 1.92 2.15 2.15 2.11
0.03 0.10 0.26 0.22 0.11 0.11 0.19 0.61 0.78 0.69 0.66 0.95 1.17 1.39 1.86 2.51 2.57 2.88 3.34 3.88 4.58 5.00 5.23 5.25 5.00 4.82 4.31 3.67 3.09 2.65 2.36 2.05 1.85 1.75 1.58 1.40 1.47 1.52 1.63 1.55 1.53 1.52 1.48 1.48 1.64 1.72 1.90 2.05 2.11
0.08 0.13 0.24 0.25 0.18 0.15 0.23 0.68 0.72 0.49 0.65 0.93 1.24 1.53 1.83 2.18 2.66 3.23 3.73 4.32 5.24 6.18 6.60 6.37 5.68 5.16 4.58 3.97 3.47 3.27 3.06 2.62 2.18 2.03 1.83 1.63 1.45 1.41 1.50 1.50 1.50 1.27 1.30 1.33 1.31 1.57 1.75 1.99 2.01
0.05 0.09 0.19 0.28 0.21 0.25 0.35 0.45 0.57 0.63 0.80 1.01 1.22 1.39 1.67 1.97 2.38 3.08 3.66 4.35 5.32 6.52 7.21 7.10 6.40 5.50 4.77 4.32 3.85 3.61 3.31 2.85 2.34 2.15 2.00 1.75 1.62 1.43 1.39 1.31 1.24 1.10 1.24 1.40 1.51 1.85 1.79 1.72 1.73
0.04 0.07 0.16 0.24 0.20 0.29 0.37 0.47 0.62 0.78 1.00 1.03 1.12 1.21 1.44 1.74 2.15 2.82 3.52 4.08 4.75 5.51 6.09 5.93 5.30 4.79 4.18 3.63 3.07 2.92 2.69 2.43 2.17 1.96 1.72 1.68 1.61 1.43 1.40 1.30 1.40 1.19 1.20 1.22 1.25 1.44 1.53 1.45 1.49
0.05 0.08 0.14 0.19 0.17 0.17 0.30 0.57 0.72 0.81 0.97 0.92 0.93 0.95 1.14 1.49 2.10 2.89 3.50 3.70 3.71 3.99 4.25 3.75 3.54 3.52 3.10 2.77 2.68 2.52 2.33 2.10 1.88 1.75 1.68 1.39 1.36 1.29 1.22 1.37 1.30 1.24 1.29 1.22 1.25 1.42 1.52 1.48 1.52
0.07 0.09 0.10 0.17 0.18 0.24 0.38 0.74 0.95 0.87 0.87 0.75 0.72 0.94 1.40 1.80 2.23 2.74 2.90 2.91 2.80 2.79 2.78 2.55 2.48 2.77 2.69 2.62 2.53 2.45 2.39 2.30 2.04 1.71 1.64 1.34 1.18 1.15 1.23 1.23 1.29 1.34 1.12 1.25 1.36 1.35 1.41 1.45 1.41
0.07 0.06 0.04 0.05 0.13 0.36 0.53 0.95 1.12 1.03 0.97 0.70 0.74 1.13 1.64 1.94 2.20 2.18 1.78 1.67 1.81 1.90 2.00 2.24 2.31 2.42 2.34 2.38 2.17 1.96 1.81 1.70 1.60 1.52 1.54 1.51 1.32 1.19 1.11 1.14 1.33 1.36 1.19 1.35 1.09 1.19 1.40 1.45 1.29
0.05 0.04 0.03 0.06 0.15 0.40 0.68 1.11 1.31 1.09 0.90 0.66 0.65 0.76 1.15 1.32 1.27 1.05 0.90 0.98 1.21 1.46 1.70 2.08 2.16 2.18 2.08 2.02 2.03 2.05 1.94 1.90 1.76 1.68 1.78 1.76 1.72 1.50 1.21 1.15 1.31 1.40 1.35 1.37 1.28 1.50 1.36 1.27 1.22
0.04 0.04 0.10 0.21 0.38 0.83 0.90 1.00 1.25 1.05 0.84 0.68 0.54 0.54 0.76 0.79 0.64 0.67 0.72 0.91 1.14 1.31 1.42 1.63 1.80 1.98 2.03 2.04 2.09 2.05 2.00 2.05 1.87 1.71 1.61 1.59 1.62 1.55 1.45 1.35 1.48 1.51 1.45 1.45 1.39 1.45 1.40 1.38 1.36
0.04 0.05 0.26 0.61 0.90 1.03 0.76 0.89 1.19 0.81 0.56 0.46 0.35 0.31 0.34 0.38 0.48 0.66 0.73 0.90 1.00 1.10 1.12 1.21 1.34 1.56 1.68 1.78 1.90 1.95 1.98 2.01 1.82 1.70 1.58 1.53 1.44 1.38 1.48 1.52 1.63 1.53 1.50 1.45 1.46 1.48 1.50 1.54 1.55
0.04 0.04 0.11 0.22 0.34 0.54 0.70 1.08 1.17 0.76 0.44 0.27 0.23 0.24 0.23 0.28 0.35 0.40 0.47 0.53 0.65 0.81 0.99 1.13 1.18 1.21 1.24 1.30 1.50 1.69 1.73 1.74 1.67 1.73 1.53 1.43 1.35 1.35 1.48 1.55 1.46 1.42 1.42 1.35 1.47 1.38 1.34 1.38 1.45
0.04 0.03 0.04 0.06 0.09 0.32 0.74 1.02 0.94 0.60 0.43 0.31 0.29 0.33 0.31 0.29 0.34 0.29 0.29 0.35 0.43 0.49 0.63 0.85 0.94 0.96 0.98 1.06 1.21 1.31 1.37 1.48 1.60 1.58 1.40 1.26 1.29 1.33 1.36 1.31 1.29 1.32 1.33 1.43 1.54 1.45 1.39 1.45 1.37
0.04 0.03 0.03 0.06 0.10 0.24 0.57 1.06 1.22 0.84 0.59 0.47 0.47 0.42 0.36 0.32 0.31 0.32 0.32 0.33 0.35 0.36 0.48 0.65 0.79 0.85 0.88 0.95 1.03 1.00 1.15 1.25 1.40 1.43 1.37 1.24 1.21 1.29 1.35 1.31 1.30 1.30 1.22 1.28 1.46 1.41 1.45 1.53 1.53
0.05 0.05 0.05 0.07 0.07 0.16 0.42 0.69 0.70 0.74 0.60 0.44 0.43 0.41 0.38 0.33 0.33 0.38 0.34 0.38 0.34 0.32 0.39 0.51 0.68 0.79 0.76 0.82 0.89 0.99 1.09 1.26 1.32 1.30 1.34 1.30 1.27 1.31 1.34 1.36 1.39 1.35 1.31 1.33 1.41 1.35 1.45 1.53 1.62
0.07 0.07 0.08 0.08 0.08 0.11 0.21 0.36 0.40 0.44 0.53 0.64 0.52 0.49 0.51 0.46 0.38 0.38 0.36 0.37 0.31 0.32 0.38 0.47 0.56 0.64 0.68 0.75 0.84 0.95 1.04 1.14 1.24 1.21 1.27 1.37 1.35 1.34 1.33 1.36 1.44 1.36 1.36 1.40 1.32 1.35 1.44 1.53 1.57

GEFSSGP_prec_meanprecacc_210.txt.gz
Total_Precipitation_Accumulation
0.04 0.10 0.25 0.48 1.12 1.27 1.00 0.60 0.44 0.36 0.37 0.41 0.47 0.45 0.45 0.53 0.69 1.16 0.70 0.33 0.18 0.14 0.21 0.53 0.72 0.71 0.73 0.79 0.79 0.81 0.82 0.81 0.89 0.88 0.88 0.85 0.81 0.89 1.00 1.08 1.10 1.23 1.21 1.08 1.06 0.97 0.92 0.95 0.94
0.08 0.14 0.30 0.70 1.13 1.08 0.91 0.48 0.35 0.33 0.30 0.42 0.48 0.39 0.34 0.37 0.28 0.28 0.35 0.32 0.18 0.12 0.17 0.39 0.66 0.70 0.71 0.72 0.71 0.72 0.70 0.66 0.76 0.80 0.81 0.83 0.82 0.91 1.04 1.02 1.04 1.22 1.13 1.06 1.02 1.00 0.90 0.82 0.84
0.12 0.19 0.46 0.86 0.71 0.60 0.58 0.33 0.30 0.35 0.44 0.62 0.72 0.49 0.39 0.48 0.33 0.22 0.19 0.17 0.16 0.13 0.14 0.30 0.55 0.66 0.67 0.64 0.68 0.65 0.57 0.60 0.75 0.81 0.80 0.80 0.86 0.96 1.01 1.00 1.11 1.27 1.26 1.16 1.08 1.02 0.87 0.82 0.82
0.12 0.23 0.46 0.53 0.29 0.25 0.32 0.23 0.29 0.39 0.68 0.80 0.82 0.66 0.52 0.46 0.33 0.25 0.15 0.13 0.14 0.14 0.15 0.25 0.41 0.47 0.51 0.51 0.59 0.57 0.57 0.62 0.74 0.86 0.80 0.77 0.84 1.03 1.12 1.10 1.17 1.21 1.21 1.12 1.05 0.93 0.85 0.78 0.77
0.12 0.25 0.50 0.35 0.14 0.14 0.16 0.14 0.21 0.34 0.59 0.80 0.80 0.86 0.79 0.63 0.46 0.32 0.21 0.15 0.12 0.15 0.20 0.24 0.43 0.49 0.54 0.56 0.56 0.58 0.56 0.56 0.69 0.78 0.72 0.76 0.93 1.13 1.27 1.23 1.21 1.13 1.10 1.01 0.92 0.88 0.85 0.80 0.80
0.18 0.27 0.39 0.26 0.15 0.11 0.12 0.13 0.21 0.41 0.63 0.79 0.94 1.02 0.88 0.66 0.49 0.37 0.28 0.26 0.27 0.19 0.24 0.30 0.44 0.51 0.55 0.58 0.58 0.61 0.59 0.60 0.70 0.83 0.79 0.84 1.05 1.20 1.28 1.32 1.30 1.17 1.07 0.91 0.84 0.78 0.75 0.77 0.81
0.17 0.22 0.24 0.18 0.14 0.10 0.11 0.16 0.26 0.41 0.53 0.82 1.09 1.14 0.87 0.77 0.61 0.43 0.44 0.40 0.66 0.38 0.31 0.33 0.43 0.59 0.66 0.73 0.71 0.69 0.69 0.69 0.80 0.96 0.89 0.94 1.06 1.21 1.28 1.31 1.21 1.13 1.07 0.92 0.83 0.72 0.68 0.75 0.78
0.11 0.11 0.14 0.13 0.08 0.07 0.10 0.16 0.27 0.39 0.66 0.93 0.96 1.03 1.02 0.76 0.69 0.67 0.70 0.66 0.81 0.68 0.47 0.44 0.50 0.64 0.72 0.75 0.74 0.76 0.72 0.74 0.81 0.91 0.95 1.13 1.18 1.23 1.26 1.23 1.17 1.10 1.07 0.93 0.86 0.78 0.74 0.80 0.81
0.06 0.11 0.15 0.12 0.04 0.06 0.12 0.21 0.28 0.34 0.55 0.73 0.81 0.77 0.61 0.59 0.75 0.85 0.93 0.98 1.05 1.01 0.88 0.83 0.74 0.70 0.83 0.83 0.80 0.93 0.93 0.96 0.98 1.04 1.21 1.41 1.63 1.60 1.58 1.32 1.30 1.24 1.20 1.20 1.13 1.07 0.98 0.97 0.92
0.05 0.10 0.08 0.04 0.02 0.05 0.11 0.19 0.32 0.41 0.70 1.06 1.09 1.12 0.78 0.80 0.97 1.05 1.05 1.03 1.18 1.30 1.25 1.28 1.07 0.89 0.87 0.84 1.10 1.42 1.42 1.51 1.54 1.61 1.70 1.99 2.07 2.10 1.65 1.65 1.73 1.75 1.80 1.73 1.72 1.77 1.47 1.17 1.00
0.03 0.04 0.03 0.02 0.01 0.02 0.05 0.11 0.15 0.35 0.77 1.21 1.27 1.23 1.03 1.01 1.13 1.25 1.32 1.44 1.57 1.75 1.53 1.34 1.34 1.31 1.32 1.39 1.44 1.57 1.87 2.03 2.05 2.10 2.13 2.32 2.10 2.00 1.80 1.98 2.20 2.16 2.01 1.81 2.04 2.20 1.79 1.69 1.85
0.02 0.02 0.02 0.01 0.01 0.02 0.04 0.12 0.21 0.36 0.79 1.07 0.98 0.86 0.89 1.10 1.29 1.48 1.84 2.07 2.26 2.38 2.31 2.21 2.00 1.89 1.95 1.83 1.66 1.62 1.72 1.81 1.85 1.94 2.03 2.20 2.40 2.31 2.29 2.44 2.23 2.17 2.17 2.37 2.29 2.47 2.34 2.19 2.03
0.02 0.02 0.02 0.02 0.02 0.03 0.07 0.16 0.29 0.42 0.69 0.67 0.59 0.66 1.05 1.31 1.54 1.86 2.10 2.32 2.54 2.90 3.15 3.59 3.34 2.75 2.46 2.22 1.94 1.62 1.66 1.53 1.43 1.55 1.82 1.95 2.14 2.31 2.43 2.26 2.12 1.85 2.02 2.29 2.40 2.19 2.41 2.39 2.37
0.01 0.02 0.04 0.04 0.03 0.05 0.10 0.15 0.37 0.48 0.58 0.65 0.63 0.92 1.38 1.87 2.07 2.31 2.61 3.01 3.31 3.75 3.78 3.92 4.28 3.65 2.95 2.46 2.11 1.83 1.60 1.60 1.55 1.66 1.62 1.80 1.99 2.07 2.13 2.04 2.00 1.91 1.98 2.17 2.18 2.18 2.45 2.55 2.49
0.02 0.05 0.12 0.12 0.08 0.09 0.14 0.29 0.49 0.62 0.64 0.85 0.91 1.14 1.69 2.33 2.33 2.62 2.92 3.41 3.87 4.33 4.45 4.51 4.71 4.30 3.75 3.20 2.60 2.10 1.88 1.66 1.69 1.79 1.59 1.60 1.75 1.80 1.88 1.89 1.83 1.89 1.84 1.87 1.87 1.95 2.18 2.17 2.14
0.03 0.10 0.26 0.22 0.11 0.12 0.19 0.61 0.78 0.69 0.66 0.95 1.17 1.39 1.86 2.51 2.57 2.88 3.34 3.88 4.58 5.01 5.23 5.25 5.00 4.82 4.32 3.70 3.14 2.71 2.44 2.14 1.91 1.80 1.63 1.44 1.51 1.55 1.66 1.58 1.56 1.55 1.50 1.50 1.67 1.77 1.95 2.09 2.13
0.08 0.13 0.24 0.25 0.18 0.15 0.23 0.68 0.72 0.50 0.65 0.93 1.24 1.53 1.83 2.18 2.66 3.24 3.73 4.32 5.24 6.18 6.60 6.37 5.69 5.17 4.59 3.99 3.51 3.33 3.12 2.70 2.24 2.07 1.87 1.68 1.50 1.45 1.53 1.54 1.54 1.31 1.34 1.37 1.35 1.63 1.80 2.02 2.04
0.05 0.09 0.19 0.28 0.21 0.26 0.35 0.46 0.57 0.63 0.81 1.01 1.22 1.39 1.67 1.97 2.38 3.08 3.66 4.35 5.32 6.52 7.22 7.10 6.42 5.53 4.79 4.34 3.89 3.67 3.35 2.90 2.39 2.19 2.07 1.81 1.68 1.47 1.42 1.35 1.29 1.15 1.28 1.43 1.56 1.93 1.85 1.77 1.78
0.04 0.07 0.16 0.24 0.20 0.30 0.37 0.47 0.62 0.79 1.01 1.04 1.12 1.22 1.44 1.74 2.15 2.83 3.52 4.08 4.75 5.51 6.10 5.96 5.33 4.81 4.20 3.65 3.09 2.97 2.72 2.45 2.21 2.00 1.76 1.72 1.68 1.49 1.45 1.36 1.46 1.24 1.24 1.26 1.30 1.49 1.59 1.51 1.54
0.05 0.08 0.14 0.19 0.17 0.17 0.30 0.57 0.73 0.81 0.97 0.92 0.93 0.95 1.14 1.50 2.10 2.89 3.50 3.71 3.71 3.99 4.25 3.75 3.54 3.52 3.11 2.78 2.70 2.54 2.35 2.11 1.90 1.78 1.71 1.43 1.42 1.37 1.29 1.45 1.38 1.30 1.34 1.27 1.28 1.46 1.57 1.53 1.57
0.07 0.09 0.10 0.17 0.18 0.24 0.38 0.74 0.95 0.88 0.87 0.75 0.72 0.94 1.40 1.80 2.24 2.74 2.90 2.91 2.80 2.79 2.78 2.56 2.49 2.78 2.70 2.64 2.55 2.47 2.41 2.32 2.06 1.72 1.66 1.39 1.23 1.23 1.32 1.32 1.39 1.42 1.19 1.30 1.39 1.38 1.45 1.50 1.45
0.08 0.06 0.04 0.05 0.13 0.36 0.53 0.95 1.12 1.03 0.97 0.70 0.74 1.13 1.64 1.94 2.20 2.18 1.78 1.67 1.81 1.90 2.00 2.25 2.32 2.43 2.35 2.39 2.18 1.97 1.83 1.71 1.60 1.52 1.55 1.55 1.36 1.25 1.18 1.21 1.41 1.45 1.26 1.40 1.12 1.23 1.43 1.49 1.33
0.05 0.04 0.03 0.06 0.15 0.40 0.68 1.11 1.31 1.10 0.90 0.66 0.65 0.76 1.15 1.32 1.27 1.05 0.91 0.98 1.21 1.46 1.70 2.09 2.16 2.19 2.08 2.04 2.04 2.06 1.94 1.90 1.77 1.68 1.80 1.78 1.75 1.55 1.27 1.22 1.39 1.50 1.44 1.44 1.32 1.53 1.38 1.30 1.26
0.04 0.05 0.10 0.21 0.38 0.83 0.90 1.00 1.25 1.05 0.84 0.68 0.54 0.54 0.77 0.79 0.64 0.67 0.72 0.91 1.14 1.31 1.42 1.63 1.81 1.99 2.04 2.05 2.10 2.06 2.01 2.06 1.88 1.72 1.62 1.60 1.64 1.58 1.48 1.41 1.56 1.60 1.53 1.52 1.44 1.49 1.42 1.40 1.40
0.04 0.06 0.26 0.61 0.90 1.03 0.76 0.89 1.19 0.81 0.56 0.46 0.35 0.31 0.34 0.39 0.49 0.66 0.74 0.92 1.01 1.11 1.13 1.22 1.35 1.56 1.69 1.79 1.91 1.96 1.99 2.02 1.84 1.72 1.59 1.54 1.45 1.40 1.50 1.57 1.70 1.60 1.56 1.51 1.51 1.52 1.53 1.57 1.59
0.04 0.04 0.11 0.22 0.34 0.55 0.70 1.09 1.17 0.76 0.44 0.27 0.23 0.24 0.24 0.28 0.35 0.41 0.50 0.56 0.67 0.81 1.00 1.14 1.19 1.22 1.25 1.31 1.50 1.70 1.74 1.76 1.69 1.75 1.55 1.44 1.36 1.36 1.49 1.58 1.51 1.48 1.48 1.40 1.51 1.43 1.40 1.45 1.50
0.04 0.03 0.04 0.06 0.09 0.32 0.74 1.02 0.94 0.60 0.43 0.31 0.30 0.33 0.32 0.30 0.35 0.31 0.33 0.41 0.49 0.52 0.65 0.86 0.94 0.97 1.00 1.08 1.22 1.32 1.39 1.50 1.63 1.61 1.43 1.27 1.31 1.34 1.38 1.33 1.33 1.36 1.39 1.48 1.59 1.51 1.45 1.52 1.43
0.04 0.04 0.04 0.06 0.10 0.24 0.58 1.06 1.22 0.85 0.59 0.47 0.48 0.42 0.36 0.32 0.31 0.33 0.35 0.37 0.40 0.42 0.52 0.67 0.81 0.87 0.91 0.98 1.05 1.02 1.17 1.27 1.42 1.46 1.39 1.26 1.23 1.31 1.37 1.33 1.33 1.33 1.27 1.33 1.50 1.44 1.49 1.58 1.58
0.05 0.05 0.05 0.07 0.08 0.16 0.42 0.69 0.70 0.74 0.60 0.44 0.44 0.41 0.38 0.34 0.34 0.39 0.37 0.42 0.38 0.36 0.43 0.54 0.71 0.82 0.80 0.86 0.93 1.02 1.12 1.28 1.34 1.33 1.36 1.33 1.30 1.33 1.37 1.39 1.42 1.39 1.35 1.37 1.45 1.40 1.50 1.58 1.67
0.07 0.08 0.08 0.08 0.08 0.11 0.21 0.36 0.40 0.44 0.54 0.65 0.53 0.49 0.51 0.47 0.39 0.40 0.39 0.41 0.34 0.36 0.43 0.50 0.59 0.70 0.75 0.81 0.89 0.99 1.08 1.19 1.28 1.25 1.33 1.43 1.41 1.42 1.41 1.44 1.50 1.42 1.44 1.49 1.40 1.41 1.49 1.56 1.60

GEFSSGP_prec_meanprecacc_216.txt.gz
Total_Precipitation_Accumulation
0.04 0.10 0.25 0.48 1.12 1.28 1.01 0.60 0.44 0.36 0.38 0.42 0.47 0.46 0.46 0.54 0.70 1.19 0.72 0.35 0.21 0.19 0.29 0.63 0.83 0.86 0.90 0.95 0.92 0.95 0.96 0.93 1.02 1.02 1.06 1.02 0.99 1.11 1.20 1.29 1.31 1.44 1.44 1.30 1.25 1.12 1.03 1.03 1.01
0.08 0.14 0.30 0.70 1.14 1.08 0.91 0.48 0.36 0.33 0.31 0.42 0.48 0.39 0.34 0.38 0.28 0.28 0.36 0.34 0.21 0.15 0.21 0.46 0.75 0.81 0.83 0.82 0.84 0.86 0.82 0.77 0.86 0.92 0.97 1.01 0.98 1.08 1.20 1.21 1.24 1.43 1.35 1.25 1.18 1.15 0.99 0.90 0.91
0.12 0.19 0.46 0.86 0.71 0.60 0.58 0.33 0.30 0.36 0.44 0.62 0.72 0.49 0.39 0.49 0.33 0.22 0.20 0.18 0.18 0.16 0.20 0.38 0.65 0.77 0.78 0.74 0.81 0.78 0.68 0.71 0.85 0.91 0.91 0.97 1.04 1.12 1.17 1.17 1.30 1.46 1.45 1.34 1.23 1.15 0.98 0.91 0.90
0.12 0.23 0.46 0.53 0.29 0.25 0.32 0.23 0.30 0.39 0.68 0.80 0.82 0.66 0.52 0.46 0.33 0.25 0.15 0.14 0.16 0.16 0.21 0.35 0.57 0.63 0.66 0.62 0.71 0.70 0.69 0.72 0.83 0.95 0.89 0.91 0.99 1.18 1.26 1.25 1.37 1.45 1.41 1.29 1.20 1.06 0.95 0.87 0.85
0.12 0.25 0.50 0.35 0.14 0.14 0.16 0.14 0.21 0.34 0.59 0.80 0.80 0.86 0.80 0.64 0.47 0.33 0.22 0.15 0.14 0.18 0.27 0.31 0.54 0.60 0.66 0.69 0.70 0.71 0.67 0.65 0.77 0.86 0.82 0.88 1.05 1.26 1.39 1.38 1.43 1.42 1.35 1.18 1.08 1.01 0.95 0.89 0.89
0.18 0.27 0.39 0.26 0.15 0.11 0.12 0.13 0.21 0.41 0.63 0.79 0.94 1.02 0.88 0.68 0.50 0.37 0.28 0.27 0.29 0.22 0.30 0.37 0.52 0.60 0.67 0.73 0.70 0.74 0.70 0.68 0.78 0.92 0.89 0.94 1.17 1.34 1.43 1.52 1.57 1.47 1.32 1.09 0.99 0.88 0.82 0.84 0.90
0.17 0.22 0.24 0.18 0.14 0.10 0.11 0.16 0.26 0.41 0.53 0.82 1.09 1.14 0.87 0.78 0.62 0.44 0.44 0.41 0.68 0.40 0.36 0.38 0.47 0.64 0.73 0.81 0.80 0.80 0.80 0.79 0.89 1.06 1.02 1.05 1.18 1.35 1.45 1.54 1.53 1.44 1.29 1.08 0.95 0.82 0.75 0.82 0.85
0.11 0.11 0.14 0.13 0.08 0.07 0.10 0.16 0.27 0.39 0.66 0.93 0.96 1.03 1.02 0.77 0.69 0.68 0.71 0.68 0.83 0.70 0.51 0.49 0.53 0.69 0.78 0.82 0.83 0.87 0.83 0.85 0.91 1.02 1.07 1.25 1.32 1.39 1.44 1.56 1.54 1.42 1.29 1.05 0.95 0.87 0.80 0.86 0.87
0.06 0.11 0.15 0.12 0.04 0.06 0.12 0.21 0.28 0.34 0.55 0.73 0.81 0.77 0.61 0.59 0.75 0.86 0.94 1.00 1.06 1.02 0.91 0.86 0.76 0.73 0.87 0.88 0.85 1.01 1.04 1.07 1.09 1.13 1.31 1.53 1.80 1.82 1.88 1.81 1.70 1.56 1.41 1.31 1.23 1.14 1.03 1.02 0.97
0.05 0.10 0.08 0.04 0.02 0.05 0.11 0.19 0.32 0.41 0.70 1.06 1.09 1.12 0.78 0.80 0.97 1.05 1.06 1.04 1.19 1.31 1.25 1.31 1.11 0.91 0.90 0.87 1.15 1.49 1.49 1.59 1.64 1.71 1.80 2.13 2.30 2.43 2.03 2.11 2.10 2.03 1.99 1.86 1.82 1.83 1.53 1.20 1.04
0.03 0.04 0.03 0.02 0.01 0.02 0.05 0.11 0.15 0.35 0.77 1.21 1.27 1.23 1.03 1.01 1.13 1.25 1.32 1.44 1.58 1.75 1.53 1.37 1.40 1.35 1.35 1.42 1.47 1.61 1.91 2.08 2.12 2.17 2.22 2.43 2.28 2.23 2.06 2.27 2.53 2.41 2.18 1.96 2.15 2.27 1.84 1.72 1.89
0.02 0.02 0.02 0.01 0.01 0.02 0.04 0.12 0.21 0.36 0.79 1.07 0.98 0.86 0.89 1.10 1.29 1.48 1.84 2.07 2.26 2.39 2.32 2.22 2.04 1.96 1.99 1.86 1.68 1.65 1.75 1.84 1.89 2.01 2.10 2.28 2.51 2.46 2.45 2.64 2.50 2.37 2.31 2.49 2.39 2.56 2.40 2.22 2.05
0.02 0.02 0.02 0.02 0.02 0.03 0.07 0.16 0.29 0.42 0.69 0.67 0.59 0.66 1.05 1.31 1.55 1.86 2.10 2.32 2.54 2.90 3.16 3.60 3.38 2.81 2.52 2.27 1.98 1.65 1.71 1.58 1.47 1.60 1.89 2.02 2.21 2.39 2.52 2.37 2.25 1.98 2.12 2.38 2.48 2.24 2.46 2.44 2.41
0.01 0.02 0.04 0.04 0.03 0.05 0.10 0.15 0.37 0.48 0.58 0.65 0.63 0.92 1.38 1.87 2.07 2.31 2.61 3.01 3.31 3.75 3.79 3.93 4.31 3.73 3.05 2.54 2.18 1.90 1.68 1.67 1.60 1.71 1.67 1.86 2.05 2.13 2.19 2.12 2.10 1.99 2.05 2.23 2.23 2.20 2.49 2.59 2.53
0.02 0.05 0.12 0.12 0.08 0.09 0.14 0.29 0.49 0.62 0.64 0.85 0.91 1.14 1.69 2.33 2.33 2.62 2.92 3.41 3.87 4.34 4.46 4.52 4.73 4.37 3.88 3.31 2.70 2.20 2.00 1.74 1.77 1.86 1.64 1.67 1.82 1.87 1.96 1.96 1.91 1.96 1.91 1.94 1.92 1.98 2.21 2.20 2.17
0.03 0.11 0.26 0.22 0.11 0.12 0.19 0.61 0.78 0.69 0.66 0.95 1.17 1.39 1.86 2.51 2.57 2.88 3.34 3.88 4.58 5.01 5.24 5.26 5.01 4.87 4.45 3.81 3.24 2.83 2.56 2.23 1.99 1.87 1.68 1.51 1.58 1.63 1.74 1.64 1.63 1.62 1.57 1.58 1.77 1.84 2.01 2.15 2.19
0.08 0.13 0.24 0.25 0.18 0.15 0.23 0.68 0.72 0.50 0.65 0.93 1.24 1.53 1.83 2.18 2.66 3.24 3.73 4.32 5.25 6.18 6.61 6.38 5.70 5.19 4.67 4.08 3.59 3.43 3.25 2.81 2.33 2.15 1.96 1.76 1.56 1.52 1.61 1.62 1.62 1.37 1.42 1.47 1.44 1.71 1.87 2.11 2.13
0.05 0.09 0.19 0.28 0.21 0.26 0.35 0.46 0.57 0.63 0.81 1.01 1.22 1.39 1.67 1.97 2.39 3.08 3.66 4.35 5.32 6.52 7.22 7.11 6.43 5.54 4.82 4.39 3.94 3.76 3.49 3.03 2.49 2.28 2.17 1.87 1.73 1.52 1.51 1.42 1.37 1.21 1.36 1.55 1.68 2.04 1.96 1.88 1.88
0.04 0.07 0.16 0.24 0.20 0.30 0.37 0.47 0.62 0.79 1.01 1.04 1.12 1.22 1.44 1.74 2.15 2.83 3.52 4.08 4.75 5.51 6.10 5.97 5.34 4.82 4.21 3.68 3.12 3.03 2.88 2.60 2.33 2.09 1.83 1.78 1.74 1.55 1.55 1.45 1.56 1.33 1.33 1.39 1.43 1.61 1.70 1.61 1.64
0.05 0.08 0.14 0.19 0.17 0.17 0.30 0.57 0.73 0.81 0.97 0.92 0.93 0.95 1.14 1.50 2.10 2.89 3.50 3.71 3.71 4.00 4.25 3.76 3.55 3.53 3.12 2.80 2.72 2.59 2.47 2.21 1.98 1.85 1.79 1.48 1.48 1.46 1.38 1.57 1.48 1.39 1.45 1.40 1.41 1.57 1.66 1.61 1.66
0.07 0.09 0.10 0.17 0.18 0.24 0.38 0.74 0.95 0.88 0.87 0.75 0.72 0.94 1.40 1.80 2.24 2.74 2.90 2.91 2.80 2.79 2.78 2.56 2.49 2.78 2.70 2.65 2.57 2.51 2.49 2.37 2.10 1.76 1.72 1.44 1.29 1.32 1.44 1.43 1.50 1.54 1.30 1.44 1.52 1.49 1.53 1.58 1.53
0.08 0.07 0.04 0.05 0.13 0.36 0.53 0.95 1.12 1.03 0.97 0.70 0.74 1.13 1.64 1.94 2.20 2.18 1.78 1.67 1.81 1.90 2.00 2.25 2.32 2.44 2.36 2.40 2.19 1.99 1.84 1.73 1.63 1.55 1.59 1.60 1.41 1.32 1.29 1.32 1.53 1.59 1.37 1.53 1.22 1.30 1.51 1.58 1.43
0.05 0.05 0.03 0.06 0.15 0.40 0.68 1.11 1.31 1.10 0.90 0.67 0.65 0.76 1.15 1.32 1.27 1.05 0.91 0.98 1.21 1.46 1.71 2.10 2.18 2.22 2.13 2.07 2.06 2.08 1.95 1.92 1.79 1.71 1.83 1.83 1.80 1.61 1.36 1.35 1.53 1.63 1.54 1.54 1.42 1.62 1.46 1.36 1.33
0.04 0.05 0.11 0.21 0.38 0.83 0.90 1.00 1.25 1.05 0.84 0.68 0.54 0.54 0.77 0.79 0.64 0.67 0.72 0.92 1.14 1.31 1.42 1.64 1.82 2.01 2.06 2.07 2.12 2.07 2.02 2.07 1.89 1.73 1.65 1.63 1.68 1.63 1.55 1.52 1.70 1.72 1.62 1.60 1.52 1.57 1.49 1.46 1.46
0.04 0.06 0.27 0.61 0.90 1.03 0.76 0.89 1.19 0.81 0.56 0.46 0.35 0.31 0.34 0.39 0.49 0.66 0.74 0.92 1.01 1.11 1.13 1.23 1.36 1.58 1.73 1.81 1.92 1.97 2.01 2.04 1.85 1.74 1.62 1.57 1.47 1.43 1.55 1.64 1.82 1.71 1.64 1.57 1.58 1.59 1.60 1.63 1.65
0.04 0.04 0.11 0.23 0.34 0.55 0.70 1.09 1.17 0.76 0.44 0.27 0.23 0.24 0.24 0.28 0.36 0.42 0.50 0.56 0.68 0.82 1.01 1.15 1.20 1.24 1.28 1.33 1.52 1.71 1.76 1.78 1.71 1.77 1.57 1.47 1.38 1.39 1.53 1.62 1.57 1.54 1.53 1.45 1.59 1.51 1.48 1.52 1.56
0.04 0.03 0.04 0.06 0.09 0.32 0.74 1.02 0.94 0.60 0.43 0.32 0.30 0.33 0.32 0.30 0.35 0.32 0.33 0.41 0.49 0.52 0.66 0.88 0.97 0.99 1.02 1.10 1.24 1.34 1.40 1.52 1.65 1.63 1.46 1.30 1.34 1.37 1.40 1.36 1.37 1.41 1.44 1.53 1.67 1.58 1.52 1.59 1.49
0.05 0.04 0.04 0.06 0.11 0.24 0.58 1.06 1.22 0.85 0.59 0.47 0.48 0.42 0.37 0.33 0.32 0.34 0.36 0.38 0.41 0.44 0.54 0.71 0.86 0.90 0.93 0.99 1.06 1.03 1.18 1.30 1.44 1.48 1.42 1.28 1.25 1.34 1.39 1.36 1.37 1.38 1.31 1.38 1.54 1.48 1.55 1.63 1.62
0.05 0.05 0.06 0.07 0.08 0.16 0.42 0.69 0.70 0.74 0.61 0.44 0.44 0.42 0.40 0.35 0.35 0.41 0.38 0.43 0.39 0.37 0.44 0.55 0.72 0.83 0.81 0.87 0.95 1.04 1.14 1.31 1.37 1.35 1.39 1.35 1.32 1.37 1.40 1.42 1.45 1.43 1.39 1.42 1.50 1.43 1.54 1.61 1.72
0.07 0.08 0.08 0.09 0.09 0.11 0.21 0.36 0.40 0.44 0.54 0.65 0.54 0.51 0.53 0.49 0.40 0.42 0.40 0.42 0.35 0.37 0.44 0.51 0.60 0.71 0.77 0.84 0.94 1.04 1.12 1.21 1.31 1.27 1.35 1.46 1.45 1.47 1.46 1.47 1.53 1.46 1.48 1.53 1.44 1.45 1.52 1.59 1.63

GEFSSGP_prec_meanprecacc_222.txt.gz
Total_Precipitation_Accumulation
0.04 0.10 0.25 0.51 1.19 1.33 1.02 0.60 0.44 0.36 0.38 0.42 0.47 0.46 0.47 0.57 0.74 1.26 0.80 0.40 0.25 0.24 0.36 0.76 1.03 1.08 1.09 1.12 1.08 1.09 1.11 1.08 1.18 1.21 1.27 1.21 1.16 1.29 1.38 1.50 1.54 1.68 1.66 1.47 1.41 1.23 1.11 1.10 1.05
0.08 0.14 0.32 0.75 1.22 1.12 0.93 0.48 0.36 0.33 0.31 0.42 0.48 0.39 0.34 0.39 0.29 0.31 0.41 0.37 0.23 0.18 0.26 0.52 0.87 0.94 0.94 0.94 0.95 0.97 0.92 0.87 1.00 1.07 1.13 1.19 1.19 1.31 1.43 1.45 1.47 1.67 1.57 1.44 1.35 1.26 1.08 0.97 0.96
0.12 0.19 0.48 0.93 0.74 0.61 0.58 0.33 0.30 0.36 0.44 0.62 0.72 0.49 0.39 0.51 0.35 0.25 0.22 0.19 0.19 0.19 0.23 0.42 0.71 0.83 0.85 0.83 0.92 0.89 0.77 0.80 0.95 1.02 1.02 1.13 1.22 1.30 1.38 1.36 1.47 1.66 1.65 1.53 1.40 1.27 1.06 0.98 0.94
0.12 0.24 0.48 0.57 0.31 0.25 0.32 0.23 0.30 0.39 0.68 0.80 0.82 0.66 0.53 0.47 0.34 0.26 0.15 0.14 0.18 0.20 0.24 0.37 0.62 0.67 0.71 0.70 0.88 0.84 0.79 0.81 0.93 1.02 0.96 1.00 1.10 1.29 1.41 1.39 1.52 1.61 1.56 1.43 1.33 1.18 1.03 0.93 0.91
0.13 0.28 0.54 0.38 0.15 0.14 0.16 0.14 0.21 0.34 0.59 0.80 0.81 0.86 0.82 0.65 0.47 0.33 0.22 0.16 0.15 0.20 0.29 0.34 0.58 0.63 0.70 0.76 0.86 0.85 0.77 0.75 0.86 0.93 0.88 0.96 1.15 1.37 1.51 1.51 1.58 1.58 1.50 1.30 1.17 1.09 1.01 0.92 0.93
0.20 0.29 0.42 0.27 0.15 0.11 0.12 0.13 0.21 0.41 0.63 0.79 0.94 1.03 0.90 0.69 0.51 0.38 0.29 0.29 0.30 0.23 0.33 0.40 0.57 0.65 0.72 0.80 0.82 0.86 0.81 0.78 0.85 0.98 0.96 1.03 1.25 1.45 1.56 1.66 1.73 1.63 1.48 1.23 1.10 0.97 0.88 0.88 0.94
0.17 0.23 0.26 0.19 0.14 0.10 0.11 0.16 0.26 0.41 0.53 0.82 1.09 1.14 0.88 0.79 0.63 0.45 0.47 0.44 0.68 0.42 0.39 0.42 0.52 0.70 0.79 0.90 0.92 0.90 0.90 0.88 0.96 1.14 1.09 1.13 1.25 1.45 1.57 1.68 1.70 1.61 1.47 1.22 1.06 0.91 0.82 0.86 0.88
0.11 0.14 0.16 0.14 0.08 0.07 0.10 0.16 0.27 0.39 0.66 0.93 0.96 1.03 1.03 0.77 0.70 0.69 0.74 0.70 0.84 0.73 0.54 0.52 0.57 0.74 0.87 0.91 0.92 0.97 0.93 0.94 1.00 1.13 1.19 1.38 1.44 1.51 1.57 1.71 1.70 1.59 1.44 1.19 1.06 0.94 0.87 0.90 0.89
0.06 0.13 0.17 0.12 0.04 0.06 0.12 0.21 0.28 0.34 0.55 0.73 0.81 0.77 0.61 0.59 0.75 0.86 0.95 1.02 1.08 1.05 0.95 0.90 0.80 0.77 0.92 0.93 0.93 1.10 1.13 1.16 1.18 1.23 1.43 1.69 2.02 2.05 2.08 2.02 1.90 1.74 1.58 1.44 1.32 1.22 1.09 1.06 1.00
0.05 0.11 0.09 0.04 0.02 0.05 0.11 0.19 0.32 0.41 0.70 1.06 1.09 1.12 0.78 0.80 0.98 1.05 1.06 1.05 1.20 1.33 1.29 1.36 1.14 0.94 0.93 0.92 1.27 1.66 1.62 1.69 1.75 1.81 1.90 2.27 2.52 2.78 2.37 2.46 2.38 2.28 2.18 1.99 1.91 1.90 1.57 1.23 1.08
0.03 0.04 0.03 0.02 0.01 0.02 0.05 0.11 0.15 0.35 0.78 1.21 1.27 1.24 1.03 1.01 1.13 1.26 1.32 1.44 1.58 1.76 1.56 1.41 1.44 1.39 1.40 1.50 1.57 1.72 2.01 2.17 2.22 2.26 2.31 2.55 2.43 2.51 2.45 2.63 2.88 2.73 2.39 2.12 2.26 2.35 1.90 1.76 1.96
0.02 0.02 0.02 0.01 0.01 0.02 0.04 0.12 0.21 0.36 0.79 1.07 0.98 0.86 0.89 1.10 1.30 1.48 1.85 2.07 2.26 2.39 2.33 2.29 2.11 2.01 2.05 1.92 1.74 1.69 1.81 1.91 1.97 2.08 2.18 2.37 2.63 2.62 2.68 2.88 2.74 2.59 2.49 2.65 2.50 2.65 2.46 2.27 2.11
0.02 0.02 0.02 0.02 0.02 0.03 0.07 0.16 0.29 0.42 0.69 0.67 0.59 0.66 1.06 1.31 1.55 1.86 2.10 2.32 2.55 2.91 3.17 3.67 3.48 2.89 2.59 2.34 2.06 1.69 1.75 1.62 1.51 1.68 1.98 2.12 2.29 2.49 2.64 2.50 2.39 2.10 2.22 2.48 2.57 2.32 2.52 2.51 2.47
0.02 0.02 0.04 0.04 0.03 0.05 0.10 0.15 0.38 0.48 0.58 0.65 0.63 0.92 1.38 1.87 2.07 2.31 2.61 3.01 3.32 3.76 3.81 3.98 4.44 3.83 3.12 2.60 2.25 1.95 1.70 1.71 1.62 1.75 1.75 1.95 2.13 2.21 2.28 2.19 2.19 2.07 2.10 2.27 2.27 2.25 2.54 2.66 2.59
0.02 0.05 0.12 0.12 0.08 0.09 0.14 0.30 0.49 0.62 0.64 0.85 0.91 1.14 1.69 2.33 2.33 2.62 2.92 3.41 3.88 4.34 4.47 4.54 4.80 4.48 3.98 3.39 2.78 2.26 2.03 1.77 1.79 1.90 1.69 1.73 1.90 1.97 2.05 2.06 2.01 2.04 1.96 1.98 1.97 2.03 2.24 2.26 2.22
0.03 0.11 0.26 0.22 0.12 0.12 0.19 0.62 0.79 0.69 0.67 0.95 1.17 1.39 1.86 2.51 2.57 2.88 3.34 3.88 4.58 5.01 5.25 5.27 5.02 4.92 4.56 3.91 3.32 2.89 2.62 2.27 2.02 1.90 1.72 1.56 1.64 1.72 1.83 1.74 1.72 1.71 1.65 1.65 1.84 1.90 2.06 2.22 2.26
0.08 0.13 0.25 0.25 0.18 0.15 0.24 0.69 0.73 0.50 0.66 0.93 1.24 1.53 1.83 2.18 2.66 3.24 3.73 4.32 5.25 6.19 6.62 6.40 5.71 5.23 4.77 4.19 3.68 3.50 3.32 2.86 2.37 2.20 2.00 1.81 1.63 1.59 1.68 1.71 1.73 1.47 1.51 1.56 1.50 1.79 1.96 2.21 2.24
0.05 0.09 0.20 0.29 0.21 0.26 0.35 0.46 0.57 0.63 0.81 1.01 1.22 1.39 1.67 1.97 2.39 3.08 3.66 4.35 5.32 6.52 7.23 7.12 6.44 5.57 4.87 4.48 4.05 3.87 3.57 3.09 2.54 2.33 2.22 1.94 1.80 1.59 1.60 1.52 1.46 1.31 1.47 1.66 1.78 2.15 2.08 2.01 2.00
0.04 0.08 0.16 0.25 0.20 0.30 0.37 0.48 0.63 0.79 1.01 1.04 1.12 1.22 1.44 1.74 2.15 2.83 3.52 4.08 4.75 5.52 6.11 5.97 5.35 4.85 4.26 3.74 3.22 3.15 2.98 2.68 2.40 2.14 1.87 1.82 1.78 1.61 1.67 1.59 1.68 1.43 1.46 1.51 1.52 1.72 1.83 1.74 1.74
0.06 0.09 0.15 0.20 0.17 0.17 0.30 0.57 0.73 0.81 0.97 0.92 0.93 0.95 1.15 1.50 2.10 2.89 3.50 3.71 3.71 4.00 4.26 3.76 3.56 3.55 3.15 2.83 2.76 2.67 2.57 2.29 2.06 1.92 1.87 1.52 1.52 1.52 1.46 1.68 1.58 1.49 1.59 1.54 1.52 1.68 1.79 1.72 1.77
0.08 0.10 0.12 0.17 0.18 0.24 0.39 0.74 0.96 0.88 0.87 0.75 0.73 0.94 1.41 1.81 2.24 2.74 2.90 2.92 2.81 2.79 2.78 2.56 2.50 2.81 2.74 2.68 2.60 2.55 2.56 2.45 2.19 1.86 1.82 1.50 1.33 1.35 1.48 1.52 1.59 1.64 1.38 1.55 1.63 1.57 1.62 1.70 1.65
0.08 0.07 0.05 0.05 0.13 0.36 0.54 0.96 1.13 1.04 0.99 0.73 0.75 1.13 1.64 1.95 2.21 2.19 1.79 1.67 1.82 1.90 2.00 2.26 2.33 2.47 2.39 2.44 2.24 2.02 1.88 1.78 1.70 1.63 1.66 1.66 1.44 1.34 1.31 1.38 1.61 1.69 1.46 1.64 1.30 1.39 1.61 1.70 1.57
0.05 0.05 0.03 0.06 0.16 0.40 0.69 1.12 1.31 1.10 0.93 0.71 0.67 0.77 1.15 1.32 1.28 1.06 0.91 0.98 1.22 1.47 1.71 2.10 2.20 2.25 2.20 2.13 2.10 2.10 1.98 1.97 1.84 1.77 1.91 1.90 1.85 1.64 1.39 1.40 1.59 1.71 1.64 1.65 1.52 1.74 1.54 1.44 1.43
0.05 0.05 0.11 0.21 0.39 0.84 0.91 1.01 1.26 1.06 0.86 0.71 0.55 0.54 0.77 0.79 0.64 0.68 0.73 0.92 1.15 1.32 1.43 1.65 1.83 2.03 2.08 2.10 2.15 2.09 2.06 2.13 1.96 1.81 1.73 1.70 1.75 1.68 1.60 1.58 1.77 1.77 1.71 1.70 1.63 1.67 1.58 1.55 1.55
0.04 0.07 0.28 0.62 0.91 1.04 0.77 0.90 1.20 0.82 0.57 0.47 0.36 0.31 0.34 0.39 0.49 0.67 0.75 0.93 1.02 1.12 1.15 1.24 1.37 1.60 1.78 1.89 1.97 2.00 2.03 2.08 1.90 1.80 1.69 1.64 1.54 1.49 1.60 1.69 1.88 1.79 1.74 1.66 1.69 1.68 1.68 1.72 1.75
0.04 0.04 0.12 0.24 0.36 0.57 0.71 1.09 1.18 0.78 0.45 0.28 0.23 0.25 0.24 0.29 0.36 0.43 0.53 0.57 0.69 0.83 1.02 1.16 1.21 1.25 1.31 1.38 1.59 1.76 1.79 1.83 1.78 1.84 1.64 1.53 1.43 1.43 1.57 1.67 1.62 1.60 1.61 1.51 1.68 1.58 1.54 1.60 1.65
0.04 0.04 0.05 0.07 0.11 0.35 0.77 1.04 0.96 0.64 0.46 0.35 0.31 0.34 0.33 0.31 0.36 0.32 0.34 0.43 0.52 0.54 0.67 0.88 0.97 1.01 1.04 1.12 1.26 1.37 1.44 1.57 1.73 1.70 1.50 1.34 1.37 1.39 1.43 1.41 1.42 1.47 1.49 1.59 1.73 1.65 1.59 1.65 1.55
0.05 0.04 0.04 0.06 0.12 0.26 0.61 1.09 1.27 0.92 0.66 0.52 0.51 0.43 0.38 0.35 0.34 0.35 0.37 0.40 0.47 0.50 0.56 0.71 0.87 0.93 0.96 1.02 1.09 1.05 1.22 1.33 1.49 1.53 1.47 1.32 1.29 1.38 1.43 1.41 1.42 1.43 1.37 1.44 1.61 1.54 1.61 1.69 1.67
0.06 0.05 0.06 0.08 0.09 0.17 0.44 0.72 0.73 0.78 0.64 0.46 0.47 0.44 0.40 0.36 0.36 0.41 0.39 0.44 0.42 0.42 0.52 0.59 0.74 0.86 0.85 0.91 0.97 1.06 1.16 1.33 1.39 1.38 1.41 1.38 1.37 1.42 1.45 1.48 1.51 1.48 1.44 1.48 1.56 1.48 1.59 1.67 1.77
0.08 0.09 0.09 0.10 0.10 0.12 0.22 0.38 0.43 0.48 0.57 0.67 0.56 0.54 0.55 0.49 0.41 0.42 0.40 0.43 0.38 0.40 0.50 0.56 0.62 0.73 0.79 0.86 0.95 1.06 1.14 1.24 1.33 1.30 1.37 1.49 1.49 1.53 1.52 1.55 1.61 1.52 1.53 1.58 1.49 1.49 1.57 1.65 1.69

GEFSSGP_prec_meanprecacc_228.txt.gz
Total_Precipitation_Accumulation
0.05 0.14 0.34 0.61 1.29 1.42 1.06 0.60 0.44 0.36 0.38 0.42 0.47 0.46 0.48 0.57 0.75 1.31 0.92 0.50 0.33 0.30 0.43 0.87 1.18 1.25 1.25 1.27 1.22 1.25 1.28 1.27 1.36 1.38 1.42 1.36 1.33 1.46 1.53 1.65 1.66 1.82 1.79 1.59 1.50 1.29 1.15 1.14 1.11
0.11 0.21 0.46 0.89 1.34 1.18 0.94 0.48 0.36 0.33 0.31 0.42 0.48 0.39 0.35 0.39 0.29 0.33 0.48 0.43 0.26 0.22 0.32 0.61 0.99 1.08 1.05 1.06 1.08 1.09 1.05 1.01 1.16 1.23 1.30 1.35 1.35 1.46 1.57 1.58 1.60 1.81 1.69 1.55 1.43 1.32 1.12 1.00 0.99
0.18 0.31 0.63 1.07 0.83 0.64 0.59 0.34 0.30 0.36 0.44 0.62 0.72 0.49 0.40 0.52 0.36 0.28 0.27 0.21 0.21 0.21 0.27 0.47 0.77 0.91 0.93 0.91 1.01 0.97 0.84 0.88 1.06 1.19 1.22 1.32 1.40 1.47 1.54 1.52 1.61 1.80 1.78 1.63 1.47 1.32 1.11 1.01 0.97
0.22 0.39 0.66 0.71 0.35 0.26 0.32 0.24 0.30 0.40 0.68 0.80 0.82 0.66 0.54 0.49 0.35 0.29 0.19 0.16 0.19 0.21 0.26 0.40 0.65 0.72 0.77 0.76 0.94 0.90 0.84 0.87 1.01 1.15 1.12 1.17 1.28 1.49 1.59 1.55 1.67 1.74 1.66 1.51 1.39 1.21 1.06 0.95 0.94
0.23 0.47 0.77 0.49 0.16 0.14 0.16 0.14 0.21 0.34 0.59 0.80 0.81 0.87 0.85 0.68 0.49 0.36 0.24 0.18 0.17 0.21 0.31 0.35 0.59 0.67 0.74 0.81 0.92 0.92 0.83 0.79 0.90 1.00 0.97 1.05 1.27 1.49 1.65 1.67 1.72 1.71 1.62 1.38 1.22 1.13 1.03 0.94 0.96
0.26 0.48 0.55 0.31 0.16 0.11 0.12 0.13 0.22 0.41 0.63 0.79 0.94 1.03 0.93 0.72 0.53 0.41 0.31 0.30 0.31 0.24 0.36 0.42 0.59 0.67 0.75 0.82 0.88 0.92 0.85 0.82 0.89 1.02 1.00 1.08 1.32 1.54 1.67 1.77 1.86 1.75 1.59 1.31 1.15 1.00 0.91 0.90 0.96
0.20 0.34 0.32 0.21 0.15 0.11 0.11 0.16 0.26 0.41 0.53 0.82 1.09 1.15 0.91 0.82 0.66 0.48 0.48 0.45 0.70 0.43 0.40 0.44 0.53 0.72 0.82 0.92 0.99 0.98 0.95 0.91 1.01 1.19 1.13 1.17 1.31 1.52 1.64 1.78 1.86 1.72 1.56 1.30 1.11 0.94 0.85 0.88 0.90
0.14 0.19 0.19 0.15 0.09 0.07 0.10 0.16 0.27 0.39 0.66 0.93 0.96 1.03 1.04 0.79 0.73 0.71 0.75 0.71 0.86 0.75 0.56 0.53 0.58 0.77 0.89 0.94 0.98 1.07 0.99 0.98 1.06 1.20 1.24 1.43 1.49 1.57 1.63 1.84 1.85 1.69 1.53 1.25 1.11 0.98 0.89 0.91 0.91
0.11 0.20 0.20 0.13 0.05 0.07 0.12 0.21 0.28 0.34 0.55 0.73 0.81 0.77 0.61 0.59 0.76 0.87 0.96 1.04 1.10 1.07 0.98 0.93 0.82 0.80 0.94 0.95 0.97 1.20 1.21 1.20 1.23 1.30 1.50 1.74 2.06 2.09 2.16 2.18 2.02 1.85 1.67 1.51 1.37 1.26 1.11 1.08 1.02
0.09 0.15 0.10 0.05 0.03 0.05 0.11 0.19 0.32 0.41 0.71 1.06 1.09 1.12 0.78 0.80 0.98 1.06 1.07 1.06 1.21 1.35 1.30 1.39 1.17 0.97 0.97 0.95 1.29 1.70 1.66 1.72 1.78 1.84 1.94 2.33 2.57 2.84 2.49 2.62 2.51 2.41 2.30 2.07 1.98 1.95 1.60 1.26 1.09
0.03 0.05 0.03 0.02 0.02 0.02 0.05 0.11 0.16 0.36 0.78 1.22 1.27 1.24 1.03 1.02 1.13 1.26 1.32 1.45 1.58 1.77 1.57 1.43 1.49 1.43 1.43 1.51 1.58 1.74 2.03 2.19 2.25 2.28 2.33 2.58 2.49 2.60 2.58 2.78 3.03 2.88 2.52 2.21 2.33 2.39 1.91 1.78 1.97
0.02 0.02 0.02 0.02 0.01 0.02 0.05 0.12 0.21 0.37 0.80 1.08 0.98 0.86 0.90 1.11 1.30 1.48 1.85 2.08 2.26 2.39 2.34 2.30 2.15 2.05 2.06 1.94 1.76 1.71 1.82 1.93 1.99 2.10 2.20 2.40 2.69 2.74 2.82 3.02 2.88 2.72 2.58 2.73 2.56 2.69 2.48 2.29 2.13
0.02 0.02 0.03 0.02 0.02 0.03 0.07 0.16 0.30 0.42 0.69 0.68 0.59 0.66 1.06 1.32 1.55 1.87 2.11 2.32 2.55 2.91 3.18 3.68 3.51 2.92 2.61 2.36 2.09 1.71 1.77 1.64 1.53 1.69 2.01 2.17 2.37 2.61 2.75 2.59 2.48 2.17 2.28 2.53 2.62 2.36 2.55 2.53 2.49
0.02 0.02 0.04 0.05 0.04 0.05 0.10 0.15 0.39 0.49 0.59 0.67 0.64 0.93 1.38 1.87 2.07 2.32 2.62 3.02 3.32 3.76 3.81 4.00 4.49 3.87 3.15 2.63 2.28 1.99 1.73 1.73 1.65 1.77 1.77 1.99 2.18 2.27 2.34 2.23 2.22 2.10 2.15 2.31 2.30 2.28 2.58 2.69 2.61
0.02 0.05 0.13 0.12 0.09 0.09 0.14 0.30 0.50 0.63 0.65 0.86 0.93 1.15 1.69 2.33 2.33 2.62 2.93 3.41 3.88 4.34 4.47 4.55 4.86 4.54 4.02 3.42 2.82 2.31 2.06 1.81 1.83 1.94 1.72 1.76 1.94 2.01 2.08 2.09 2.04 2.08 1.98 2.01 2.00 2.07 2.27 2.28 2.25
0.04 0.12 0.27 0.22 0.12 0.12 0.20 0.63 0.80 0.69 0.67 0.97 1.19 1.40 1.86 2.52 2.57 2.88 3.34 3.88 4.58 5.01 5.25 5.27 5.04 4.99 4.63 3.96 3.37 2.95 2.67 2.32 2.06 1.94 1.77 1.59 1.68 1.76 1.86 1.77 1.75 1.74 1.67 1.67 1.87 1.94 2.10 2.25 2.29
0.09 0.14 0.26 0.26 0.19 0.16 0.24 0.69 0.73 0.50 0.66 0.95 1.25 1.55 1.84 2.18 2.67 3.24 3.73 4.32 5.25 6.19 6.62 6.40 5.72 5.28 4.85 4.26 3.73 3.57 3.37 2.92 2.41 2.23 2.03 1.85 1.67 1.64 1.72 1.74 1.77 1.51 1.54 1.58 1.53 1.82 1.99 2.25 2.29
0.06 0.10 0.21 0.30 0.22 0.26 0.36 0.46 0.58 0.64 0.81 1.02 1.23 1.41 1.68 1.99 2.40 3.09 3.66 4.35 5.32 6.52 7.23 7.12 6.45 5.59 4.91 4.56 4.11 3.93 3.61 3.15 2.59 2.37 2.25 1.98 1.84 1.63 1.65 1.56 1.50 1.35 1.50 1.69 1.82 2.20 2.13 2.05 2.04
0.05 0.08 0.17 0.26 0.22 0.31 0.39 0.49 0.64 0.80 1.01 1.04 1.13 1.23 1.48 1.78 2.17 2.83 3.52 4.08 4.75 5.52 6.11 5.97 5.35 4.86 4.29 3.79 3.28 3.20 3.02 2.72 2.45 2.19 1.91 1.86 1.81 1.64 1.71 1.64 1.73 1.47 1.50 1.56 1.57 1.76 1.88 1.79 1.79
0.06 0.09 0.15 0.21 0.18 0.19 0.32 0.58 0.74 0.81 0.97 0.93 0.94 1.00 1.20 1.54 2.14 2.90 3.51 3.71 3.71 4.00 4.26 3.76 3.57 3.56 3.16 2.85 2.80 2.73 2.61 2.33 2.11 1.97 1.91 1.55 1.55 1.54 1.49 1.72 1.63 1.54 1.64 1.60 1.60 1.74 1.84 1.78 1.83
0.09 0.11 0.12 0.19 0.19 0.25 0.39 0.75 0.97 0.89 0.89 0.77 0.74 0.95 1.42 1.84 2.26 2.76 2.91 2.92 2.81 2.79 2.78 2.56 2.50 2.81 2.74 2.69 2.63 2.62 2.61 2.49 2.23 1.90 1.85 1.53 1.37 1.39 1.53 1.56 1.64 1.70 1.42 1.60 1.69 1.63 1.68 1.75 1.70
0.08 0.07 0.05 0.07 0.14 0.37 0.55 0.97 1.14 1.06 1.02 0.77 0.80 1.17 1.67 1.98 2.23 2.21 1.80 1.67 1.82 1.91 2.01 2.26 2.35 2.49 2.40 2.46 2.28 2.09 1.92 1.82 1.73 1.67 1.71 1.70 1.50 1.39 1.35 1.42 1.65 1.74 1.50 1.68 1.35 1.44 1.67 1.76 1.63
0.05 0.05 0.04 0.07 0.17 0.42 0.71 1.13 1.35 1.14 0.96 0.75 0.74 0.81 1.18 1.34 1.30 1.13 0.96 1.00 1.24 1.50 1.73 2.12 2.22 2.28 2.22 2.15 2.13 2.12 2.00 1.99 1.88 1.81 1.96 1.94 1.91 1.71 1.41 1.43 1.63 1.75 1.68 1.69 1.56 1.77 1.59 1.50 1.49
0.05 0.06 0.12 0.21 0.40 0.87 0.94 1.02 1.30 1.11 0.90 0.75 0.62 0.58 0.80 0.82 0.67 0.71 0.77 0.95 1.19 1.36 1.45 1.67 1.85 2.04 2.10 2.11 2.16 2.10 2.07 2.14 2.00 1.85 1.77 1.73 1.79 1.74 1.64 1.62 1.81 1.81 1.75 1.75 1.67 1.71 1.63 1.61 1.60
0.04 0.07 0.28 0.63 0.93 1.07 0.80 0.94 1.23 0.86 0.62 0.53 0.43 0.37 0.40 0.48 0.55 0.71 0.79 0.97 1.07 1.17 1.19 1.30 1.40 1.62 1.80 1.91 1.98 2.00 2.04 2.09 1.92 1.82 1.70 1.65 1.56 1.52 1.64 1.73 1.92 1.83 1.77 1.71 1.74 1.73 1.74 1.78 1.80
0.05 0.05 0.13 0.25 0.37 0.58 0.74 1.13 1.21 0.83 0.52 0.38 0.31 0.31 0.31 0.38 0.44 0.49 0.59 0.64 0.74 0.90 1.13 1.30 1.27 1.28 1.33 1.40 1.60 1.76 1.80 1.84 1.79 1.86 1.67 1.54 1.45 1.45 1.60 1.70 1.66 1.64 1.64 1.56 1.73 1.64 1.60 1.65 1.69
0.05 0.04 0.05 0.07 0.11 0.36 0.79 1.06 0.99 0.68 0.50 0.41 0.40 0.42 0.40 0.42 0.48 0.41 0.42 0.54 0.62 0.66 0.79 1.01 1.05 1.05 1.07 1.15 1.29 1.39 1.45 1.58 1.76 1.72 1.53 1.36 1.38 1.41 1.45 1.43 1.45 1.50 1.53 1.63 1.78 1.70 1.64 1.70 1.59
0.05 0.05 0.05 0.07 0.13 0.27 0.63 1.13 1.29 0.95 0.68 0.55 0.59 0.53 0.46 0.41 0.42 0.47 0.48 0.51 0.58 0.59 0.70 0.85 0.98 1.01 1.01 1.06 1.12 1.08 1.24 1.35 1.51 1.55 1.50 1.39 1.31 1.40 1.45 1.43 1.45 1.45 1.40 1.48 1.66 1.59 1.66 1.74 1.71
0.06 0.06 0.07 0.09 0.10 0.18 0.46 0.74 0.75 0.79 0.66 0.50 0.53 0.53 0.47 0.41 0.42 0.52 0.50 0.51 0.48 0.48 0.59 0.72 0.89 0.96 0.92 0.97 1.02 1.11 1.20 1.36 1.41 1.40 1.43 1.41 1.39 1.45 1.48 1.50 1.55 1.51 1.48 1.52 1.61 1.52 1.64 1.71 1.82
0.08 0.09 0.10 0.11 0.12 0.13 0.24 0.41 0.46 0.51 0.60 0.70 0.63 0.61 0.61 0.55 0.47 0.52 0.54 0.50 0.43 0.48 0.58 0.68 0.83 0.91 0.93 0.96 1.05 1.15 1.22 1.30 1.38 1.33 1.40 1.52 1.53 1.56 1.56 1.59 1.68 1.60 1.63 1.67 1.56 1.55 1.63 1.70 1.73

GEFSSGP_prec_meanprecacc_234.txt.gz
Total_Precipitation_Accumulation
0.05 0.16 0.40 0.66 1.32 1.44 1.07 0.61 0.45 0.37 0.38 0.42 0.48 0.46 0.48 0.58 0.76 1.33 0.98 0.57 0.42 0.40 0.59 1.15 1.46 1.44 1.42 1.43 1.39 1.44 1.45 1.43 1.53 1.56 1.62 1.53 1.48 1.61 1.69 1.77 1.77 1.94 1.92 1.69 1.58 1.40 1.27 1.26 1.22
0.12 0.23 0.51 0.91 1.35 1.19 0.95 0.49 0.36 0.33 0.31 0.42 0.48 0.39 0.35 0.40 0.30 0.35 0.52 0.51 0.35 0.30 0.44 0.78 1.16 1.24 1.22 1.21 1.25 1.26 1.21 1.16 1.29 1.39 1.46 1.50 1.47 1.61 1.71 1.71 1.72 1.92 1.81 1.66 1.51 1.39 1.20 1.09 1.07
0.19 0.32 0.66 1.09 0.84 0.65 0.59 0.34 0.31 0.36 0.44 0.62 0.72 0.49 0.40 0.53 0.36 0.29 0.30 0.28 0.29 0.28 0.34 0.58 0.90 1.03 1.06 1.05 1.18 1.14 1.01 1.03 1.19 1.34 1.37 1.47 1.52 1.60 1.69 1.65 1.73 1.92 1.91 1.74 1.55 1.39 1.17 1.07 1.02
0.23 0.39 0.67 0.72 0.36 0.26 0.32 0.24 0.30 0.40 0.68 0.80 0.83 0.67 0.54 0.49 0.36 0.30 0.21 0.21 0.27 0.28 0.34 0.51 0.77 0.83 0.87 0.87 1.07 1.06 1.00 1.01 1.14 1.29 1.26 1.31 1.41 1.62 1.73 1.69 1.80 1.86 1.81 1.62 1.47 1.29 1.12 1.00 0.98
0.24 0.48 0.78 0.49 0.16 0.14 0.16 0.14 0.21 0.34 0.59 0.80 0.81 0.87 0.86 0.70 0.49 0.36 0.25 0.23 0.24 0.27 0.36 0.43 0.69 0.77 0.85 0.92 1.05 1.06 0.98 0.94 1.05 1.14 1.11 1.22 1.44 1.64 1.79 1.81 1.87 1.85 1.76 1.49 1.32 1.21 1.09 0.98 0.99
0.26 0.49 0.55 0.31 0.16 0.11 0.12 0.13 0.22 0.41 0.63 0.79 0.94 1.04 0.94 0.74 0.54 0.42 0.31 0.33 0.36 0.27 0.37 0.46 0.65 0.75 0.83 0.92 1.00 1.05 1.00 0.97 1.05 1.18 1.15 1.25 1.49 1.69 1.83 1.93 2.02 1.90 1.74 1.42 1.24 1.08 0.96 0.93 0.99
0.21 0.34 0.33 0.21 0.15 0.11 0.11 0.17 0.26 0.41 0.53 0.82 1.09 1.15 0.92 0.83 0.68 0.49 0.49 0.46 0.73 0.46 0.42 0.45 0.56 0.76 0.87 0.99 1.06 1.08 1.06 1.03 1.15 1.33 1.25 1.33 1.52 1.72 1.82 1.96 2.03 1.88 1.68 1.39 1.18 0.99 0.89 0.92 0.94
0.14 0.19 0.19 0.16 0.09 0.08 0.10 0.17 0.27 0.39 0.66 0.93 0.96 1.04 1.04 0.79 0.73 0.71 0.75 0.72 0.89 0.77 0.59 0.56 0.60 0.80 0.94 0.99 1.05 1.16 1.09 1.07 1.17 1.32 1.36 1.60 1.70 1.76 1.82 2.02 2.04 1.86 1.65 1.35 1.18 1.03 0.93 0.95 0.94
0.12 0.20 0.21 0.13 0.05 0.07 0.12 0.21 0.28 0.34 0.55 0.73 0.81 0.78 0.61 0.59 0.76 0.88 0.97 1.05 1.12 1.10 1.00 0.95 0.84 0.81 0.97 0.99 1.05 1.36 1.37 1.30 1.31 1.39 1.61 1.88 2.18 2.23 2.34 2.34 2.22 2.05 1.81 1.61 1.45 1.31 1.15 1.11 1.05
0.09 0.15 0.11 0.05 0.03 0.06 0.11 0.20 0.32 0.41 0.71 1.06 1.09 1.12 0.78 0.80 0.98 1.06 1.07 1.07 1.23 1.36 1.32 1.41 1.18 0.98 0.98 0.97 1.39 1.94 1.88 1.81 1.82 1.88 2.00 2.38 2.62 2.91 2.58 2.79 2.75 2.63 2.45 2.19 2.08 2.02 1.65 1.28 1.11
0.04 0.05 0.03 0.02 0.02 0.03 0.05 0.11 0.16 0.36 0.78 1.22 1.27 1.24 1.03 1.02 1.13 1.26 1.33 1.45 1.59 1.77 1.58 1.46 1.50 1.44 1.43 1.53 1.64 1.88 2.21 2.27 2.27 2.31 2.34 2.60 2.52 2.65 2.66 2.95 3.28 3.09 2.66 2.31 2.42 2.44 1.93 1.79 1.98
0.02 0.02 0.02 0.02 0.02 0.03 0.05 0.12 0.22 0.37 0.80 1.08 0.98 0.86 0.90 1.11 1.30 1.48 1.85 2.08 2.27 2.40 2.35 2.34 2.18 2.06 2.07 1.95 1.79 1.77 1.92 1.97 2.01 2.12 2.22 2.42 2.73 2.79 2.91 3.17 3.09 2.85 2.66 2.79 2.61 2.72 2.49 2.30 2.14
0.02 0.02 0.03 0.02 0.02 0.03 0.07 0.17 0.30 0.42 0.69 0.68 0.59 0.66 1.06 1.32 1.55 1.87 2.11 2.32 2.55 2.91 3.18 3.70 3.56 2.94 2.62 2.38 2.11 1.74 1.80 1.67 1.56 1.73 2.05 2.21 2.42 2.67 2.82 2.71 2.59 2.23 2.33 2.57 2.64 2.37 2.56 2.53 2.51
0.02 0.02 0.04 0.05 0.04 0.06 0.10 0.15 0.39 0.49 0.59 0.67 0.64 0.93 1.38 1.87 2.07 2.32 2.62 3.02 3.33 3.77 3.81 4.00 4.52 3.89 3.17 2.64 2.31 2.02 1.77 1.79 1.71 1.84 1.84 2.06 2.25 2.33 2.40 2.31 2.28 2.14 2.19 2.34 2.32 2.29 2.59 2.70 2.63
0.02 0.05 0.13 0.12 0.09 0.09 0.14 0.30 0.50 0.63 0.65 0.86 0.93 1.15 1.69 2.33 2.33 2.62 2.93 3.41 3.88 4.34 4.48 4.56 4.88 4.56 4.04 3.44 2.85 2.35 2.12 1.88 1.90 2.00 1.78 1.82 2.00 2.04 2.11 2.13 2.07 2.10 2.00 2.03 2.02 2.08 2.29 2.30 2.27
0.04 0.12 0.27 0.23 0.12 0.13 0.20 0.63 0.80 0.69 0.67 0.97 1.19 1.40 1.86 2.52 2.57 2.89 3.34 3.88 4.58 5.01 5.25 5.28 5.06 5.01 4.65 3.98 3.39 2.97 2.70 2.36 2.09 1.96 1.80 1.63 1.72 1.79 1.89 1.80 1.78 1.77 1.69 1.69 1.90 1.97 2.13 2.27 2.31
0.09 0.15 0.26 0.26 0.19 0.16 0.24 0.70 0.74 0.50 0.66 0.95 1.25 1.55 1.85 2.19 2.67 3.25 3.74 4.32 5.25 6.19 6.62 6.40 5.74 5.30 4.86 4.28 3.76 3.60 3.41 2.97 2.44 2.25 2.07 1.88 1.70 1.66 1.74 1.76 1.79 1.53 1.56 1.60 1.55 1.85 2.02 2.28 2.32
0.06 0.10 0.21 0.30 0.23 0.27 0.36 0.47 0.59 0.64 0.81 1.02 1.23 1.41 1.68 1.99 2.40 3.09 3.67 4.35 5.33 6.53 7.23 7.12 6.46 5.61 4.95 4.60 4.16 3.99 3.66 3.19 2.62 2.38 2.28 2.01 1.87 1.66 1.68 1.58 1.52 1.37 1.52 1.72 1.83 2.22 2.15 2.08 2.08
0.05 0.08 0.17 0.26 0.22 0.31 0.39 0.49 0.64 0.80 1.02 1.04 1.13 1.23 1.48 1.78 2.17 2.84 3.53 4.09 4.77 5.53 6.11 5.98 5.37 4.88 4.35 3.88 3.35 3.28 3.09 2.78 2.49 2.21 1.94 1.90 1.85 1.68 1.74 1.66 1.75 1.49 1.53 1.59 1.59 1.80 1.92 1.83 1.83
0.06 0.09 0.15 0.21 0.18 0.19 0.32 0.59 0.74 0.81 0.97 0.93 0.94 1.00 1.20 1.55 2.16 2.92 3.52 3.73 3.74 4.02 4.28 3.77 3.57 3.57 3.24 2.96 2.89 2.82 2.69 2.39 2.16 2.01 1.95 1.61 1.60 1.59 1.53 1.74 1.65 1.57 1.68 1.66 1.65 1.79 1.89 1.83 1.87
0.09 0.11 0.12 0.19 0.19 0.25 0.40 0.75 0.97 0.89 0.89 0.77 0.74 0.96 1.43 1.85 2.28 2.79 2.96 2.96 2.84 2.82 2.81 2.57 2.51 2.83 2.82 2.77 2.72 2.69 2.68 2.54 2.28 1.96 1.92 1.59 1.43 1.45 1.56 1.59 1.67 1.74 1.47 1.67 1.78 1.71 1.75 1.80 1.75
0.08 0.07 0.05 0.07 0.14 0.37 0.55 0.97 1.14 1.06 1.02 0.77 0.81 1.18 1.69 2.00 2.26 2.24 1.83 1.69 1.84 1.93 2.04 2.28 2.36 2.50 2.43 2.49 2.33 2.14 1.97 1.86 1.78 1.73 1.78 1.77 1.56 1.45 1.40 1.46 1.70 1.81 1.58 1.76 1.44 1.53 1.75 1.83 1.69
0.05 0.05 0.04 0.07 0.17 0.42 0.71 1.14 1.35 1.15 0.97 0.76 0.75 0.82 1.20 1.36 1.32 1.15 0.98 1.01 1.25 1.52 1.77 2.16 2.25 2.29 2.23 2.19 2.21 2.19 2.05 2.04 1.93 1.87 2.03 2.01 1.98 1.78 1.48 1.48 1.69 1.82 1.76 1.79 1.67 1.87 1.68 1.57 1.55
0.05 0.06 0.12 0.22 0.40 0.87 0.94 1.03 1.30 1.12 0.90 0.76 0.63 0.59 0.81 0.84 0.68 0.72 0.78 0.95 1.20 1.38 1.49 1.74 1.89 2.06 2.11 2.15 2.23 2.14 2.10 2.18 2.03 1.91 1.85 1.80 1.85 1.79 1.68 1.67 1.87 1.87 1.81 1.84 1.77 1.80 1.71 1.68 1.68
0.04 0.07 0.28 0.63 0.93 1.07 0.80 0.94 1.24 0.87 0.62 0.54 0.44 0.37 0.41 0.49 0.56 0.72 0.80 0.98 1.08 1.19 1.22 1.37 1.45 1.64 1.83 1.94 2.01 2.03 2.06 2.13 1.97 1.89 1.78 1.73 1.62 1.57 1.67 1.76 1.96 1.87 1.81 1.77 1.82 1.81 1.79 1.83 1.87
0.05 0.05 0.13 0.25 0.37 0.58 0.75 1.13 1.22 0.83 0.52 0.38 0.32 0.32 0.32 0.39 0.45 0.50 0.60 0.66 0.77 0.92 1.16 1.34 1.31 1.32 1.38 1.45 1.63 1.80 1.83 1.88 1.85 1.92 1.73 1.59 1.50 1.50 1.64 1.73 1.68 1.66 1.68 1.60 1.80 1.71 1.68 1.72 1.77
0.05 0.04 0.05 0.07 0.11 0.36 0.80 1.07 0.99 0.69 0.51 0.41 0.41 0.43 0.42 0.43 0.49 0.43 0.44 0.56 0.65 0.69 0.83 1.05 1.11 1.12 1.17 1.22 1.36 1.44 1.49 1.62 1.81 1.77 1.57 1.39 1.42 1.44 1.48 1.46 1.48 1.52 1.56 1.67 1.83 1.76 1.71 1.79 1.66
0.05 0.05 0.05 0.07 0.13 0.28 0.63 1.13 1.29 0.95 0.69 0.55 0.59 0.54 0.47 0.42 0.43 0.48 0.50 0.54 0.62 0.63 0.75 0.91 1.06 1.13 1.14 1.15 1.19 1.14 1.29 1.41 1.57 1.59 1.52 1.42 1.33 1.43 1.48 1.46 1.48 1.50 1.44 1.53 1.71 1.63 1.71 1.79 1.75
0.06 0.06 0.07 0.09 0.10 0.18 0.46 0.74 0.75 0.80 0.66 0.50 0.54 0.53 0.49 0.42 0.43 0.54 0.52 0.54 0.52 0.52 0.62 0.76 0.95 1.06 1.01 1.04 1.08 1.16 1.25 1.42 1.47 1.43 1.46 1.44 1.42 1.47 1.51 1.54 1.61 1.58 1.54 1.59 1.67 1.58 1.69 1.75 1.84
0.08 0.09 0.10 0.11 0.12 0.13 0.24 0.41 0.46 0.51 0.60 0.71 0.63 0.62 0.62 0.57 0.48 0.53 0.55 0.52 0.45 0.50 0.60 0.69 0.86 0.99 1.04 1.05 1.12 1.21 1.27 1.35 1.42 1.36 1.43 1.56 1.58 1.62 1.61 1.64 1.73 1.66 1.69 1.74 1.63 1.61 1.68 1.74 1.76

GEFSSGP_prec_meanprecacc_240.txt.gz
Total_Precipitation_Accumulation
0.06 0.16 0.40 0.66 1.33 1.44 1.07 0.61 0.45 0.37 0.38 0.42 0.48 0.46 0.48 0.59 0.77 1.37 1.06 0.66 0.57 0.66 0.89 1.43 1.70 1.65 1.63 1.63 1.59 1.65 1.66 1.63 1.76 1.81 1.84 1.72 1.65 1.78 1.84 1.91 1.89 2.06 2.03 1.78 1.66 1.46 1.32 1.33 1.34
0.12 0.23 0.51 0.92 1.36 1.20 0.95 0.49 0.36 0.33 0.31 0.42 0.48 0.40 0.35 0.40 0.31 0.38 0.57 0.60 0.53 0.54 0.65 1.01 1.40 1.45 1.42 1.39 1.40 1.43 1.40 1.38 1.54 1.64 1.68 1.68 1.64 1.79 1.87 1.85 1.86 2.07 1.92 1.76 1.59 1.46 1.28 1.19 1.20
0.19 0.32 0.66 1.09 0.85 0.65 0.59 0.34 0.31 0.36 0.44 0.62 0.72 0.49 0.40 0.53 0.38 0.33 0.35 0.36 0.42 0.45 0.50 0.76 1.11 1.21 1.27 1.27 1.37 1.31 1.19 1.23 1.41 1.53 1.59 1.64 1.69 1.81 1.88 1.83 1.88 2.04 2.04 1.86 1.64 1.49 1.27 1.20 1.16
0.23 0.39 0.67 0.72 0.36 0.26 0.32 0.24 0.30 0.40 0.68 0.80 0.83 0.68 0.54 0.50 0.38 0.33 0.26 0.30 0.38 0.43 0.49 0.67 0.93 1.00 1.10 1.15 1.33 1.27 1.20 1.20 1.32 1.46 1.47 1.51 1.60 1.83 1.92 1.86 1.94 1.97 1.93 1.74 1.57 1.40 1.22 1.11 1.10
0.24 0.48 0.78 0.49 0.16 0.14 0.16 0.14 0.21 0.34 0.59 0.80 0.81 0.88 0.87 0.72 0.51 0.38 0.30 0.33 0.37 0.43 0.52 0.56 0.82 0.93 1.08 1.21 1.32 1.32 1.21 1.12 1.21 1.30 1.29 1.41 1.63 1.87 2.02 2.01 2.00 1.95 1.88 1.62 1.43 1.31 1.16 1.06 1.10
0.26 0.49 0.55 0.31 0.16 0.11 0.12 0.13 0.22 0.41 0.63 0.79 0.94 1.04 0.95 0.76 0.56 0.44 0.36 0.41 0.46 0.40 0.51 0.58 0.77 0.86 0.97 1.15 1.28 1.36 1.22 1.14 1.22 1.37 1.35 1.44 1.66 1.88 2.04 2.13 2.16 2.03 1.88 1.56 1.36 1.18 1.03 1.01 1.08
0.21 0.34 0.33 0.21 0.15 0.11 0.11 0.17 0.26 0.41 0.53 0.82 1.10 1.15 0.93 0.85 0.70 0.50 0.52 0.51 0.81 0.54 0.52 0.57 0.67 0.85 0.96 1.14 1.29 1.35 1.32 1.26 1.37 1.53 1.45 1.51 1.69 1.91 2.02 2.17 2.20 2.02 1.86 1.57 1.33 1.11 0.97 1.01 1.03
0.14 0.19 0.19 0.16 0.09 0.08 0.10 0.17 0.27 0.39 0.66 0.93 0.96 1.04 1.05 0.80 0.74 0.73 0.77 0.75 0.93 0.83 0.66 0.64 0.66 0.88 1.03 1.09 1.20 1.36 1.34 1.32 1.39 1.52 1.55 1.79 1.91 1.98 2.04 2.23 2.26 2.03 1.81 1.49 1.34 1.16 1.01 1.02 1.01
0.12 0.21 0.21 0.13 0.05 0.07 0.12 0.21 0.28 0.34 0.55 0.73 0.81 0.78 0.61 0.60 0.76 0.88 0.98 1.06 1.14 1.12 1.03 0.98 0.87 0.86 1.03 1.06 1.15 1.49 1.55 1.53 1.57 1.64 1.89 2.19 2.47 2.50 2.59 2.55 2.48 2.28 1.96 1.75 1.60 1.43 1.23 1.17 1.10
0.09 0.15 0.11 0.05 0.03 0.06 0.11 0.20 0.32 0.41 0.71 1.06 1.09 1.12 0.78 0.81 0.98 1.06 1.08 1.08 1.24 1.37 1.33 1.45 1.22 1.02 1.02 1.02 1.48 2.05 2.03 2.00 2.06 2.20 2.32 2.65 2.88 3.16 2.76 2.99 3.03 2.91 2.68 2.39 2.25 2.16 1.73 1.33 1.15
0.04 0.05 0.03 0.02 0.02 0.03 0.05 0.11 0.16 0.36 0.78 1.22 1.27 1.24 1.03 1.02 1.14 1.26 1.33 1.45 1.59 1.78 1.59 1.47 1.53 1.47 1.47 1.58 1.70 1.96 2.34 2.43 2.45 2.49 2.51 2.77 2.69 2.83 2.83 3.17 3.56 3.46 2.95 2.54 2.61 2.58 2.00 1.82 2.00
0.02 0.02 0.02 0.02 0.02 0.03 0.05 0.12 0.22 0.37 0.80 1.08 0.98 0.86 0.90 1.11 1.30 1.49 1.85 2.08 2.27 2.40 2.35 2.35 2.20 2.11 2.13 2.00 1.83 1.85 2.05 2.09 2.10 2.22 2.31 2.51 2.84 2.92 3.05 3.34 3.30 3.15 2.92 3.00 2.76 2.81 2.55 2.34 2.16
0.02 0.02 0.03 0.02 0.02 0.03 0.07 0.17 0.30 0.42 0.70 0.68 0.59 0.66 1.06 1.32 1.55 1.87 2.11 2.33 2.55 2.92 3.18 3.71 3.59 3.01 2.69 2.43 2.15 1.82 1.95 1.80 1.62 1.79 2.11 2.28 2.51 2.78 2.94 2.84 2.81 2.48 2.53 2.71 2.75 2.44 2.61 2.57 2.53
0.02 0.02 0.04 0.05 0.04 0.06 0.10 0.15 0.39 0.49 0.59 0.67 0.64 0.93 1.39 1.87 2.07 2.32 2.62 3.02 3.33 3.77 3.82 4.02 4.56 3.93 3.20 2.68 2.36 2.10 1.89 1.92 1.78 1.91 1.91 2.14 2.35 2.42 2.48 2.42 2.48 2.32 2.36 2.44 2.39 2.34 2.63 2.74 2.66
0.02 0.05 0.13 0.12 0.09 0.09 0.14 0.30 0.50 0.63 0.65 0.86 0.93 1.15 1.69 2.33 2.33 2.62 2.93 3.42 3.88 4.35 4.48 4.57 4.90 4.60 4.07 3.47 2.89 2.42 2.23 1.99 1.99 2.09 1.87 1.93 2.09 2.13 2.20 2.24 2.22 2.24 2.15 2.13 2.07 2.12 2.33 2.33 2.30
0.04 0.12 0.27 0.23 0.12 0.13 0.20 0.63 0.80 0.69 0.67 0.97 1.19 1.40 1.87 2.52 2.58 2.89 3.34 3.88 4.59 5.02 5.26 5.29 5.07 5.07 4.69 4.01 3.41 3.01 2.75 2.42 2.15 2.03 1.89 1.73 1.81 1.87 1.98 1.90 1.88 1.86 1.78 1.76 1.95 2.01 2.16 2.31 2.36
0.09 0.15 0.26 0.26 0.19 0.16 0.24 0.70 0.74 0.50 0.66 0.95 1.25 1.55 1.85 2.19 2.67 3.25 3.74 4.32 5.25 6.19 6.62 6.41 5.76 5.36 4.89 4.30 3.78 3.63 3.44 3.01 2.49 2.30 2.12 1.94 1.75 1.71 1.82 1.85 1.89 1.60 1.60 1.64 1.58 1.90 2.06 2.33 2.39
0.06 0.10 0.21 0.30 0.23 0.27 0.36 0.47 0.59 0.64 0.81 1.02 1.23 1.41 1.68 1.99 2.40 3.09 3.67 4.36 5.33 6.53 7.23 7.13 6.48 5.67 4.98 4.63 4.19 4.02 3.69 3.22 2.65 2.42 2.32 2.04 1.90 1.70 1.73 1.65 1.60 1.41 1.55 1.75 1.87 2.28 2.21 2.15 2.17
0.05 0.08 0.17 0.26 0.22 0.31 0.39 0.49 0.64 0.80 1.02 1.04 1.13 1.23 1.48 1.78 2.17 2.84 3.53 4.10 4.77 5.54 6.12 5.99 5.39 4.92 4.38 3.91 3.38 3.31 3.12 2.81 2.52 2.24 1.98 1.94 1.88 1.72 1.80 1.71 1.82 1.54 1.57 1.63 1.63 1.86 2.00 1.91 1.91
0.06 0.09 0.15 0.21 0.18 0.19 0.32 0.59 0.74 0.81 0.97 0.93 0.94 1.00 1.20 1.55 2.17 2.92 3.52 3.73 3.74 4.03 4.28 3.78 3.58 3.59 3.27 2.99 2.92 2.85 2.72 2.42 2.20 2.05 1.99 1.64 1.64 1.63 1.58 1.80 1.71 1.63 1.74 1.72 1.72 1.88 2.00 1.93 1.97
0.09 0.11 0.12 0.19 0.19 0.25 0.40 0.75 0.97 0.89 0.89 0.77 0.74 0.96 1.43 1.86 2.29 2.80 2.97 2.96 2.84 2.83 2.81 2.58 2.52 2.85 2.86 2.81 2.77 2.75 2.73 2.59 2.34 2.03 1.98 1.65 1.48 1.50 1.61 1.64 1.74 1.81 1.54 1.73 1.86 1.82 1.89 1.94 1.87
0.08 0.07 0.05 0.07 0.14 0.37 0.55 0.97 1.14 1.06 1.02 0.77 0.81 1.18 1.69 2.01 2.27 2.24 1.83 1.70 1.85 1.94 2.05 2.30 2.38 2.52 2.47 2.56 2.41 2.23 2.04 1.92 1.84 1.80 1.86 1.86 1.63 1.51 1.44 1.51 1.76 1.88 1.64 1.83 1.50 1.61 1.86 1.97 1.81
0.05 0.05 0.04 0.07 0.17 0.42 0.71 1.14 1.35 1.15 0.97 0.76 0.75 0.82 1.20 1.36 1.32 1.15 0.98 1.02 1.26 1.53 1.78 2.18 2.27 2.31 2.25 2.22 2.26 2.29 2.13 2.09 1.99 1.94 2.11 2.09 2.07 1.84 1.52 1.53 1.75 1.89 1.83 1.87 1.74 1.95 1.79 1.71 1.68
0.05 0.06 0.12 0.22 0.40 0.87 0.94 1.03 1.30 1.12 0.90 0.76 0.63 0.59 0.81 0.84 0.68 0.72 0.78 0.96 1.21 1.39 1.50 1.76 1.91 2.08 2.14 2.19 2.28 2.24 2.20 2.26 2.11 1.99 1.93 1.88 1.93 1.86 1.73 1.72 1.92 1.92 1.87 1.91 1.86 1.89 1.79 1.76 1.77
0.04 0.07 0.28 0.63 0.93 1.07 0.80 0.94 1.24 0.87 0.62 0.54 0.44 0.37 0.41 0.49 0.56 0.72 0.80 0.98 1.08 1.19 1.23 1.38 1.47 1.66 1.85 1.97 2.05 2.09 2.15 2.21 2.07 1.98 1.87 1.81 1.69 1.64 1.73 1.82 2.01 1.91 1.87 1.82 1.89 1.88 1.85 1.90 1.95
0.05 0.05 0.13 0.25 0.37 0.58 0.75 1.13 1.22 0.83 0.52 0.38 0.32 0.32 0.32 0.39 0.46 0.51 0.60 0.66 0.77 0.92 1.16 1.35 1.33 1.34 1.40 1.48 1.66 1.82 1.86 1.92 1.89 1.98 1.80 1.68 1.57 1.56 1.71 1.80 1.74 1.72 1.75 1.65 1.86 1.78 1.74 1.81 1.86
0.05 0.04 0.05 0.07 0.11 0.36 0.80 1.07 0.99 0.69 0.51 0.41 0.41 0.43 0.42 0.44 0.49 0.43 0.44 0.56 0.65 0.70 0.83 1.05 1.11 1.14 1.19 1.25 1.38 1.46 1.51 1.64 1.83 1.80 1.62 1.47 1.50 1.52 1.55 1.53 1.55 1.59 1.63 1.74 1.90 1.81 1.78 1.88 1.78
0.05 0.05 0.05 0.07 0.13 0.28 0.63 1.13 1.29 0.95 0.69 0.55 0.59 0.54 0.47 0.43 0.43 0.49 0.50 0.54 0.62 0.63 0.75 0.92 1.07 1.14 1.16 1.17 1.21 1.16 1.31 1.42 1.58 1.61 1.56 1.47 1.40 1.50 1.55 1.53 1.55 1.57 1.51 1.59 1.77 1.69 1.79 1.87 1.84
0.06 0.06 0.07 0.09 0.10 0.18 0.46 0.75 0.75 0.80 0.67 0.50 0.54 0.54 0.49 0.42 0.43 0.54 0.53 0.54 0.52 0.52 0.62 0.76 0.95 1.06 1.01 1.05 1.09 1.17 1.26 1.43 1.49 1.45 1.47 1.46 1.45 1.52 1.56 1.59 1.67 1.63 1.59 1.64 1.73 1.63 1.76 1.82 1.92
0.08 0.09 0.10 0.11 0.12 0.14 0.24 0.41 0.46 0.51 0.60 0.71 0.63 0.62 0.62 0.57 0.48 0.54 0.56 0.53 0.45 0.50 0.60 0.69 0.86 0.99 1.05 1.05 1.12 1.23 1.28 1.36 1.43 1.38 1.45 1.58 1.59 1.64 1.63 1.67 1.77 1.70 1.72 1.79 1.69 1.66 1.73 1.80 1.83

GEFSSGP_prec_meanprecacc_246.txt.gz
Total_Precipitation_Accumulation
0.06 0.16 0.41 0.67 1.39 1.52 1.10 0.61 0.45 0.37 0.38 0.42 0.48 0.47 0.49 0.60 0.81 1.44 1.21 0.85 0.71 0.84 1.12 1.68 1.90 1.80 1.76 1.79 1.72 1.77 1.79 1.76 1.92 1.95 1.92 1.80 1.73 1.93 2.02 2.06 2.01 2.15 2.12 1.85 1.74 1.53 1.36 1.36 1.38
0.12 0.24 0.52 0.96 1.47 1.24 0.95 0.49 0.36 0.34 0.31 0.42 0.48 0.40 0.35 0.41 0.33 0.43 0.68 0.78 0.70 0.76 0.88 1.22 1.59 1.60 1.54 1.53 1.56 1.59 1.56 1.55 1.71 1.75 1.76 1.75 1.71 1.92 2.08 2.03 1.98 2.16 2.00 1.83 1.66 1.53 1.33 1.22 1.24
0.19 0.33 0.67 1.14 0.89 0.65 0.59 0.34 0.31 0.36 0.44 0.62 0.72 0.49 0.41 0.55 0.41 0.40 0.47 0.52 0.58 0.65 0.71 1.00 1.31 1.37 1.40 1.42 1.54 1.51 1.37 1.39 1.57 1.66 1.68 1.71 1.78 1.92 2.07 2.00 2.00 2.14 2.14 1.95 1.72 1.56 1.34 1.26 1.21
0.24 0.42 0.70 0.76 0.37 0.26 0.32 0.24 0.30 0.40 0.68 0.80 0.83 0.69 0.55 0.53 0.41 0.38 0.36 0.44 0.55 0.64 0.70 0.87 1.13 1.18 1.27 1.32 1.50 1.46 1.37 1.36 1.47 1.59 1.59 1.63 1.72 1.97 2.11 2.04 2.06 2.08 2.03 1.84 1.66 1.48 1.29 1.20 1.18
0.25 0.52 0.81 0.51 0.17 0.14 0.16 0.14 0.21 0.34 0.59 0.80 0.82 0.91 0.89 0.77 0.56 0.43 0.38 0.46 0.58 0.63 0.71 0.74 1.01 1.11 1.26 1.40 1.52 1.47 1.36 1.28 1.34 1.42 1.41 1.54 1.79 2.04 2.17 2.18 2.14 2.06 1.98 1.73 1.53 1.38 1.24 1.17 1.21
0.30 0.55 0.59 0.32 0.16 0.11 0.12 0.13 0.22 0.41 0.63 0.79 0.95 1.07 0.99 0.81 0.59 0.48 0.42 0.50 0.63 0.60 0.73 0.81 0.99 1.05 1.15 1.33 1.55 1.60 1.41 1.31 1.36 1.48 1.47 1.56 1.81 2.05 2.18 2.29 2.32 2.15 1.99 1.68 1.49 1.28 1.15 1.14 1.22
0.23 0.38 0.35 0.22 0.16 0.12 0.11 0.17 0.27 0.41 0.53 0.82 1.10 1.16 0.97 0.90 0.72 0.53 0.56 0.57 0.92 0.70 0.72 0.84 0.91 1.04 1.12 1.29 1.56 1.63 1.56 1.45 1.53 1.68 1.59 1.65 1.84 2.05 2.16 2.29 2.33 2.16 2.00 1.71 1.47 1.23 1.08 1.11 1.16
0.17 0.24 0.22 0.17 0.09 0.08 0.10 0.17 0.27 0.39 0.66 0.93 0.96 1.04 1.08 0.83 0.76 0.75 0.82 0.82 1.03 0.96 0.82 0.85 0.86 1.07 1.21 1.25 1.43 1.65 1.60 1.53 1.58 1.68 1.70 1.95 2.08 2.13 2.18 2.33 2.37 2.20 1.99 1.67 1.51 1.29 1.12 1.11 1.12
0.14 0.24 0.22 0.14 0.06 0.07 0.13 0.21 0.28 0.34 0.55 0.73 0.81 0.78 0.61 0.60 0.77 0.90 1.02 1.12 1.21 1.21 1.15 1.12 1.02 1.02 1.18 1.21 1.33 1.76 1.81 1.77 1.78 1.84 2.09 2.40 2.70 2.69 2.73 2.64 2.60 2.46 2.16 1.93 1.77 1.59 1.35 1.25 1.16
0.09 0.17 0.12 0.05 0.03 0.06 0.11 0.20 0.32 0.42 0.71 1.06 1.09 1.12 0.79 0.81 0.99 1.07 1.09 1.10 1.29 1.45 1.42 1.55 1.34 1.13 1.11 1.12 1.64 2.28 2.24 2.23 2.33 2.46 2.58 2.93 3.15 3.39 2.93 3.14 3.17 3.08 2.87 2.56 2.40 2.31 1.86 1.41 1.20
0.04 0.05 0.03 0.03 0.02 0.03 0.05 0.11 0.16 0.36 0.78 1.22 1.27 1.24 1.03 1.02 1.14 1.27 1.33 1.46 1.62 1.82 1.64 1.54 1.60 1.55 1.55 1.66 1.80 2.10 2.51 2.69 2.77 2.78 2.78 3.04 2.95 3.05 3.02 3.34 3.75 3.67 3.13 2.68 2.76 2.72 2.13 1.91 2.07
0.03 0.02 0.02 0.02 0.02 0.03 0.05 0.12 0.22 0.37 0.80 1.08 0.98 0.86 0.90 1.11 1.31 1.49 1.85 2.08 2.28 2.43 2.38 2.38 2.26 2.20 2.21 2.07 1.91 1.95 2.18 2.28 2.34 2.44 2.50 2.71 3.03 3.11 3.24 3.52 3.47 3.36 3.08 3.13 2.92 2.96 2.68 2.43 2.23
0.02 0.02 0.03 0.02 0.02 0.03 0.07 0.17 0.30 0.42 0.70 0.68 0.59 0.66 1.06 1.32 1.56 1.88 2.11 2.33 2.57 2.94 3.20 3.74 3.65 3.11 2.79 2.53 2.25 1.91 2.05 1.93 1.74 1.93 2.26 2.40 2.62 2.92 3.09 2.97 2.96 2.63 2.64 2.85 2.92 2.61 2.75 2.65 2.60
0.02 0.02 0.04 0.05 0.04 0.06 0.10 0.16 0.39 0.49 0.59 0.67 0.64 0.93 1.39 1.87 2.07 2.33 2.62 3.02 3.34 3.79 3.84 4.05 4.60 3.97 3.28 2.78 2.47 2.22 2.03 2.07 1.89 2.00 1.98 2.22 2.42 2.51 2.59 2.53 2.61 2.44 2.46 2.54 2.52 2.48 2.76 2.82 2.72
0.02 0.05 0.13 0.12 0.09 0.09 0.15 0.34 0.52 0.63 0.65 0.87 0.93 1.15 1.69 2.33 2.34 2.63 2.94 3.42 3.89 4.36 4.50 4.60 4.93 4.63 4.12 3.58 3.01 2.54 2.34 2.16 2.13 2.18 1.93 1.98 2.15 2.20 2.29 2.32 2.30 2.34 2.26 2.24 2.18 2.23 2.44 2.41 2.36
0.04 0.12 0.27 0.23 0.12 0.13 0.22 0.70 0.83 0.70 0.68 0.97 1.19 1.40 1.87 2.52 2.58 2.89 3.35 3.89 4.59 5.03 5.27 5.31 5.09 5.09 4.73 4.10 3.53 3.12 2.87 2.58 2.32 2.13 1.96 1.78 1.88 1.94 2.08 2.00 1.99 2.00 1.94 1.92 2.07 2.10 2.24 2.36 2.41
0.09 0.15 0.26 0.26 0.19 0.16 0.25 0.73 0.76 0.51 0.67 0.95 1.25 1.55 1.85 2.19 2.67 3.25 3.74 4.32 5.25 6.20 6.64 6.42 5.79 5.39 4.93 4.37 3.89 3.73 3.55 3.12 2.62 2.38 2.19 2.02 1.84 1.81 1.93 2.00 2.05 1.76 1.78 1.83 1.72 2.01 2.15 2.39 2.44
0.06 0.11 0.21 0.30 0.23 0.27 0.36 0.47 0.60 0.64 0.82 1.02 1.23 1.41 1.69 2.00 2.40 3.09 3.67 4.36 5.33 6.53 7.25 7.15 6.51 5.71 5.04 4.69 4.27 4.11 3.79 3.31 2.74 2.48 2.39 2.12 2.00 1.80 1.86 1.78 1.72 1.53 1.69 1.90 2.00 2.40 2.31 2.21 2.22
0.05 0.09 0.17 0.26 0.22 0.31 0.39 0.49 0.64 0.80 1.02 1.04 1.13 1.24 1.48 1.79 2.18 2.84 3.53 4.10 4.78 5.55 6.14 6.02 5.42 4.97 4.47 4.00 3.46 3.39 3.19 2.88 2.58 2.30 2.04 2.01 1.96 1.81 1.89 1.80 1.92 1.65 1.69 1.75 1.72 1.96 2.08 1.98 1.97
0.06 0.09 0.15 0.21 0.18 0.19 0.32 0.59 0.74 0.82 0.98 0.93 0.94 1.00 1.20 1.55 2.17 2.93 3.53 3.76 3.80 4.06 4.32 3.81 3.61 3.63 3.34 3.12 3.04 2.95 2.79 2.48 2.25 2.09 2.07 1.72 1.72 1.70 1.63 1.88 1.78 1.70 1.85 1.84 1.82 1.97 2.07 2.00 2.05
0.09 0.11 0.12 0.19 0.20 0.25 0.40 0.76 0.97 0.89 0.89 0.78 0.74 0.96 1.43 1.86 2.29 2.80 2.98 3.00 2.91 2.87 2.85 2.62 2.55 2.88 2.90 2.91 2.91 2.85 2.81 2.65 2.39 2.08 2.05 1.70 1.55 1.57 1.67 1.69 1.80 1.87 1.60 1.82 1.94 1.90 1.97 2.04 1.97
0.08 0.07 0.05 0.08 0.15 0.37 0.55 0.99 1.17 1.09 1.04 0.78 0.81 1.18 1.69 2.01 2.27 2.25 1.84 1.72 1.86 1.95 2.07 2.33 2.41 2.55 2.50 2.62 2.54 2.38 2.15 2.01 1.91 1.85 1.91 1.90 1.68 1.56 1.48 1.56 1.81 1.92 1.69 1.90 1.55 1.66 1.93 2.05 1.91
0.05 0.05 0.04 0.07 0.17 0.42 0.71 1.14 1.36 1.17 1.00 0.77 0.75 0.82 1.20 1.37 1.32 1.15 0.98 1.02 1.26 1.53 1.78 2.19 2.29 2.33 2.27 2.25 2.31 2.42 2.30 2.24 2.08 2.01 2.19 2.16 2.13 1.91 1.57 1.57 1.79 1.93 1.88 1.93 1.80 2.02 1.85 1.77 1.75
0.05 0.06 0.12 0.22 0.40 0.87 0.94 1.03 1.31 1.15 0.95 0.81 0.67 0.60 0.81 0.84 0.69 0.72 0.78 0.96 1.21 1.39 1.50 1.76 1.92 2.09 2.15 2.20 2.30 2.28 2.29 2.40 2.22 2.08 2.01 1.95 2.00 1.96 1.83 1.79 1.99 1.98 1.93 1.98 1.92 1.96 1.84 1.82 1.83
0.04 0.07 0.28 0.63 0.93 1.08 0.81 0.95 1.26 0.92 0.68 0.58 0.46 0.38 0.41 0.49 0.57 0.72 0.80 0.98 1.08 1.19 1.23 1.38 1.48 1.67 1.86 1.98 2.07 2.12 2.20 2.30 2.18 2.08 1.96 1.89 1.77 1.73 1.84 1.93 2.12 2.02 1.97 1.90 1.96 1.95 1.92 1.95 2.01
0.05 0.05 0.13 0.25 0.38 0.59 0.76 1.16 1.25 0.87 0.55 0.40 0.35 0.33 0.32 0.40 0.46 0.51 0.61 0.66 0.77 0.92 1.16 1.35 1.34 1.35 1.42 1.49 1.67 1.84 1.89 1.96 1.96 2.09 1.91 1.78 1.66 1.64 1.79 1.89 1.83 1.82 1.84 1.72 1.94 1.85 1.81 1.88 1.92
0.05 0.04 0.05 0.07 0.11 0.37 0.81 1.08 1.02 0.69 0.51 0.42 0.42 0.44 0.43 0.44 0.50 0.44 0.45 0.57 0.65 0.70 0.83 1.05 1.13 1.15 1.20 1.26 1.39 1.47 1.53 1.67 1.87 1.85 1.68 1.54 1.59 1.61 1.63 1.61 1.65 1.69 1.72 1.82 1.99 1.89 1.87 2.00 1.86
0.05 0.05 0.05 0.07 0.13 0.28 0.64 1.14 1.35 0.99 0.70 0.55 0.59 0.55 0.49 0.44 0.45 0.51 0.52 0.56 0.62 0.63 0.75 0.92 1.08 1.15 1.17 1.18 1.22 1.17 1.32 1.45 1.61 1.65 1.60 1.51 1.44 1.57 1.66 1.62 1.64 1.66 1.62 1.69 1.88 1.79 1.90 2.00 1.95
0.06 0.06 0.07 0.09 0.10 0.18 0.47 0.77 0.82 0.86 0.69 0.51 0.55 0.56 0.51 0.44 0.45 0.56 0.55 0.56 0.52 0.52 0.62 0.76 0.96 1.07 1.02 1.06 1.10 1.18 1.27 1.45 1.51 1.48 1.51 1.50 1.49 1.58 1.64 1.70 1.77 1.72 1.69 1.76 1.85 1.75 1.89 1.93 2.04
0.08 0.09 0.10 0.11 0.12 0.14 0.24 0.43 0.48 0.52 0.61 0.72 0.65 0.63 0.63 0.59 0.50 0.55 0.57 0.54 0.46 0.50 0.60 0.70 0.86 0.99 1.05 1.06 1.13 1.24 1.30 1.37 1.46 1.40 1.48 1.62 1.63 1.68 1.70 1.75 1.87 1.81 1.84 1.90 1.80 1.77 1.86 1.92 1.95

GEFSSGP_prec_meanprecacc_252.txt.gz
Total_Precipitation_Accumulation
0.06 0.20 0.52 0.82 1.52 1.63 1.13 0.62 0.46 0.37 0.38 0.42 0.48 0.47 0.50 0.61 0.84 1.48 1.28 0.94 0.80 0.95 1.28 1.85 2.06 1.95 1.90 1.89 1.77 1.82 1.83 1.80 1.98 2.01 1.98 1.86 1.80 1.99 2.10 2.12 2.09 2.21 2.16 1.90 1.79 1.58 1.40 1.40 1.42
0.16 0.34 0.66 1.09 1.60 1.29 0.97 0.49 0.37 0.34 0.31 0.42 0.48 0.40 0.35 0.42 0.35 0.48 0.76 0.86 0.78 0.84 0.99 1.34 1.70 1.73 1.67 1.64 1.64 1.66 1.63 1.64 1.79 1.81 1.83 1.81 1.77 1.98 2.15 2.10 2.06 2.23 2.06 1.87 1.70 1.55 1.35 1.25 1.27
0.28 0.45 0.83 1.30 1.01 0.68 0.61 0.35 0.31 0.36 0.45 0.63 0.72 0.49 0.41 0.58 0.45 0.45 0.54 0.59 0.66 0.73 0.81 1.13 1.44 1.48 1.49 1.50 1.64 1.62 1.49 1.48 1.63 1.72 1.74 1.77 1.83 1.98 2.14 2.09 2.08 2.22 2.20 2.00 1.76 1.59 1.36 1.29 1.24
0.33 0.56 0.86 0.89 0.42 0.27 0.33 0.25 0.31 0.40 0.68 0.81 0.83 0.69 0.57 0.57 0.45 0.43 0.42 0.49 0.62 0.71 0.80 1.07 1.31 1.29 1.36 1.40 1.61 1.57 1.48 1.43 1.53 1.65 1.65 1.70 1.80 2.04 2.21 2.14 2.14 2.16 2.10 1.89 1.70 1.51 1.32 1.23 1.21
0.37 0.70 0.98 0.61 0.19 0.16 0.17 0.15 0.21 0.34 0.60 0.81 0.82 0.92 0.92 0.81 0.59 0.48 0.44 0.54 0.65 0.73 0.88 0.98 1.23 1.29 1.40 1.54 1.67 1.59 1.45 1.35 1.41 1.48 1.45 1.60 1.86 2.11 2.29 2.32 2.26 2.18 2.08 1.80 1.60 1.44 1.27 1.20 1.25
0.52 0.83 0.72 0.39 0.19 0.13 0.13 0.13 0.22 0.41 0.63 0.79 0.95 1.08 1.02 0.85 0.62 0.52 0.49 0.59 0.71 0.70 0.90 0.99 1.23 1.32 1.39 1.53 1.70 1.70 1.49 1.40 1.43 1.54 1.51 1.62 1.88 2.13 2.29 2.47 2.47 2.30 2.12 1.78 1.57 1.34 1.19 1.19 1.28
0.39 0.54 0.42 0.26 0.18 0.13 0.12 0.17 0.27 0.41 0.53 0.82 1.10 1.17 0.99 0.93 0.74 0.55 0.60 0.66 1.00 0.78 0.84 0.96 1.06 1.26 1.35 1.49 1.70 1.73 1.64 1.55 1.61 1.75 1.63 1.70 1.92 2.12 2.25 2.47 2.44 2.28 2.12 1.82 1.57 1.30 1.13 1.18 1.26
0.25 0.33 0.27 0.19 0.11 0.09 0.11 0.17 0.27 0.39 0.66 0.93 0.96 1.04 1.09 0.84 0.77 0.77 0.84 0.86 1.10 1.04 0.90 0.92 0.93 1.18 1.32 1.37 1.57 1.80 1.71 1.64 1.67 1.75 1.76 2.03 2.18 2.21 2.27 2.44 2.45 2.30 2.10 1.78 1.63 1.38 1.19 1.24 1.27
0.25 0.31 0.25 0.15 0.07 0.08 0.13 0.22 0.29 0.35 0.55 0.73 0.81 0.78 0.61 0.60 0.78 0.91 1.04 1.14 1.25 1.24 1.19 1.18 1.09 1.09 1.25 1.30 1.50 1.98 1.98 1.90 1.89 1.95 2.18 2.49 2.78 2.76 2.81 2.71 2.69 2.60 2.32 2.08 1.91 1.73 1.45 1.36 1.29
0.20 0.23 0.14 0.07 0.04 0.06 0.11 0.20 0.32 0.42 0.71 1.06 1.09 1.12 0.79 0.81 0.99 1.08 1.11 1.12 1.32 1.48 1.45 1.60 1.39 1.19 1.21 1.27 1.85 2.51 2.40 2.34 2.43 2.55 2.66 2.99 3.19 3.45 3.01 3.24 3.29 3.26 3.08 2.78 2.58 2.48 2.01 1.50 1.27
0.06 0.07 0.04 0.03 0.03 0.03 0.06 0.12 0.16 0.36 0.78 1.22 1.27 1.24 1.03 1.02 1.15 1.27 1.35 1.49 1.67 1.87 1.68 1.57 1.64 1.59 1.63 1.80 1.98 2.29 2.63 2.76 2.84 2.86 2.85 3.11 3.02 3.12 3.10 3.44 3.89 3.85 3.29 2.83 2.90 2.84 2.26 1.99 2.12
0.04 0.03 0.02 0.03 0.02 0.03 0.06 0.12 0.22 0.37 0.80 1.08 0.98 0.86 0.90 1.11 1.31 1.49 1.86 2.10 2.31 2.45 2.40 2.40 2.28 2.23 2.27 2.17 2.04 2.11 2.29 2.36 2.43 2.55 2.60 2.82 3.14 3.21 3.32 3.56 3.51 3.42 3.13 3.21 2.98 3.01 2.74 2.49 2.29
0.03 0.03 0.03 0.03 0.03 0.04 0.08 0.17 0.30 0.43 0.70 0.68 0.60 0.66 1.06 1.32 1.56 1.88 2.12 2.33 2.57 2.94 3.21 3.74 3.66 3.13 2.84 2.59 2.33 2.03 2.19 2.06 1.87 2.04 2.36 2.52 2.72 2.99 3.13 3.00 2.99 2.65 2.68 2.91 2.98 2.65 2.79 2.71 2.65
0.02 0.03 0.04 0.05 0.04 0.06 0.11 0.16 0.41 0.51 0.60 0.68 0.65 0.94 1.39 1.88 2.07 2.33 2.62 3.03 3.34 3.79 3.84 4.05 4.61 3.99 3.32 2.83 2.54 2.31 2.16 2.21 2.01 2.09 2.09 2.34 2.51 2.58 2.63 2.57 2.65 2.47 2.50 2.59 2.58 2.53 2.80 2.87 2.75
0.03 0.06 0.13 0.13 0.09 0.10 0.15 0.35 0.54 0.64 0.66 0.88 0.94 1.16 1.70 2.34 2.34 2.64 2.94 3.43 3.89 4.36 4.51 4.61 4.94 4.65 4.17 3.62 3.05 2.57 2.39 2.23 2.20 2.26 2.03 2.08 2.22 2.24 2.32 2.35 2.35 2.39 2.30 2.29 2.25 2.29 2.50 2.49 2.40
0.05 0.12 0.28 0.23 0.13 0.13 0.22 0.71 0.84 0.72 0.69 0.98 1.20 1.41 1.89 2.53 2.59 2.91 3.37 3.90 4.59 5.03 5.28 5.32 5.10 5.11 4.76 4.13 3.56 3.17 2.93 2.67 2.41 2.21 2.04 1.86 1.94 1.97 2.10 2.02 2.02 2.05 1.99 1.98 2.15 2.19 2.32 2.44 2.47
0.10 0.16 0.27 0.27 0.19 0.17 0.25 0.74 0.78 0.52 0.68 0.96 1.29 1.59 1.89 2.22 2.69 3.27 3.77 4.34 5.26 6.21 6.64 6.43 5.80 5.42 4.97 4.41 3.93 3.78 3.60 3.20 2.75 2.49 2.28 2.08 1.89 1.83 1.94 2.02 2.08 1.80 1.85 1.92 1.81 2.09 2.22 2.46 2.50
0.07 0.12 0.22 0.31 0.23 0.28 0.38 0.49 0.61 0.65 0.83 1.04 1.25 1.43 1.76 2.03 2.42 3.12 3.70 4.38 5.35 6.54 7.26 7.17 6.53 5.73 5.07 4.73 4.32 4.16 3.83 3.37 2.85 2.62 2.48 2.19 2.03 1.83 1.89 1.81 1.76 1.57 1.76 2.01 2.11 2.50 2.41 2.31 2.30
0.05 0.09 0.18 0.27 0.22 0.32 0.42 0.51 0.65 0.82 1.04 1.08 1.15 1.25 1.50 1.80 2.21 2.93 3.56 4.12 4.80 5.57 6.15 6.04 5.44 4.98 4.48 4.02 3.51 3.45 3.24 2.93 2.65 2.38 2.12 2.07 1.99 1.84 1.93 1.84 1.95 1.69 1.75 1.82 1.81 2.06 2.19 2.09 2.08
0.06 0.10 0.16 0.22 0.19 0.20 0.35 0.60 0.76 0.84 1.01 0.97 0.97 1.02 1.22 1.58 2.20 2.95 3.54 3.76 3.81 4.08 4.33 3.82 3.62 3.64 3.34 3.13 3.09 3.03 2.85 2.53 2.29 2.13 2.10 1.75 1.75 1.74 1.67 1.92 1.80 1.73 1.89 1.89 1.90 2.06 2.16 2.08 2.13
0.09 0.11 0.13 0.20 0.21 0.27 0.42 0.79 1.00 0.93 0.95 0.81 0.79 1.01 1.48 1.90 2.31 2.82 2.99 3.01 2.92 2.88 2.86 2.62 2.57 2.89 2.91 2.92 2.95 2.96 2.92 2.73 2.45 2.11 2.07 1.73 1.58 1.62 1.71 1.72 1.81 1.89 1.62 1.84 1.98 1.96 2.05 2.12 2.07
0.08 0.07 0.06 0.08 0.16 0.40 0.57 1.02 1.23 1.16 1.09 0.82 0.87 1.27 1.76 2.06 2.31 2.28 1.85 1.72 1.87 1.96 2.08 2.34 2.42 2.56 2.51 2.63 2.55 2.46 2.28 2.11 1.98 1.89 1.93 1.92 1.71 1.63 1.55 1.59 1.83 1.95 1.71 1.91 1.56 1.68 1.96 2.11 1.97
0.05 0.05 0.04 0.07 0.18 0.43 0.72 1.16 1.42 1.31 1.08 0.85 0.82 0.88 1.26 1.41 1.36 1.18 1.00 1.03 1.27 1.53 1.78 2.19 2.29 2.34 2.28 2.26 2.32 2.44 2.38 2.37 2.20 2.08 2.23 2.20 2.18 1.95 1.61 1.60 1.82 1.97 1.92 1.98 1.84 2.04 1.87 1.79 1.78
0.05 0.06 0.12 0.22 0.40 0.88 0.95 1.04 1.35 1.25 1.03 0.89 0.76 0.67 0.87 0.91 0.74 0.75 0.81 0.98 1.22 1.39 1.50 1.77 1.93 2.11 2.16 2.21 2.31 2.29 2.31 2.46 2.35 2.20 2.09 2.00 2.04 1.99 1.85 1.82 2.03 2.02 1.99 2.08 2.03 2.03 1.90 1.86 1.86
0.04 0.07 0.28 0.63 0.94 1.08 0.82 0.96 1.29 0.96 0.76 0.65 0.53 0.46 0.46 0.55 0.62 0.77 0.85 1.03 1.12 1.23 1.26 1.40 1.49 1.69 1.88 1.99 2.08 2.13 2.21 2.32 2.26 2.22 2.09 2.00 1.85 1.78 1.87 1.96 2.16 2.06 2.01 1.97 2.05 2.05 2.01 2.02 2.06
0.05 0.05 0.13 0.25 0.38 0.60 0.77 1.18 1.28 0.90 0.59 0.44 0.39 0.38 0.38 0.46 0.54 0.59 0.70 0.77 0.82 0.97 1.20 1.37 1.35 1.37 1.43 1.50 1.68 1.85 1.90 1.97 1.99 2.16 2.00 1.89 1.79 1.74 1.84 1.93 1.87 1.85 1.89 1.78 2.00 1.92 1.88 1.95 1.98
0.05 0.04 0.05 0.08 0.11 0.37 0.81 1.11 1.07 0.74 0.56 0.51 0.48 0.50 0.51 0.51 0.61 0.57 0.58 0.73 0.78 0.74 0.87 1.07 1.14 1.17 1.22 1.28 1.41 1.49 1.54 1.68 1.87 1.85 1.69 1.56 1.64 1.72 1.74 1.68 1.70 1.73 1.76 1.87 2.06 1.97 1.95 2.08 1.93
0.05 0.05 0.05 0.07 0.13 0.28 0.66 1.17 1.42 1.12 0.80 0.63 0.67 0.59 0.53 0.47 0.53 0.63 0.62 0.68 0.73 0.69 0.81 0.95 1.09 1.16 1.18 1.19 1.24 1.19 1.33 1.45 1.62 1.66 1.61 1.52 1.46 1.60 1.73 1.73 1.73 1.72 1.66 1.75 1.95 1.86 1.98 2.08 2.04
0.06 0.06 0.07 0.09 0.10 0.19 0.49 0.80 0.86 0.95 0.80 0.60 0.64 0.60 0.53 0.47 0.48 0.60 0.62 0.64 0.62 0.59 0.68 0.83 1.00 1.10 1.04 1.07 1.12 1.20 1.29 1.46 1.53 1.49 1.52 1.51 1.51 1.61 1.68 1.74 1.82 1.79 1.76 1.84 1.93 1.83 1.98 2.03 2.13
0.08 0.09 0.10 0.11 0.13 0.14 0.25 0.44 0.49 0.54 0.65 0.85 0.81 0.67 0.66 0.62 0.54 0.58 0.61 0.61 0.53 0.55 0.65 0.75 0.93 1.07 1.10 1.09 1.16 1.26 1.32 1.41 1.48 1.42 1.49 1.63 1.66 1.71 1.73 1.79 1.91 1.86 1.90 1.99 1.89 1.87 1.96 2.02 2.04

GEFSSGP_prec_meanprecacc_258.txt.gz
Total_Precipitation_Accumulation
0.07 0.21 0.55 0.84 1.54 1.65 1.14 0.63 0.46 0.38 0.39 0.44 0.49 0.47 0.51 0.62 0.85 1.51 1.33 1.01 0.87 1.03 1.41 2.01 2.19 2.09 2.03 2.00 1.86 1.90 1.89 1.87 2.05 2.10 2.04 1.91 1.87 2.09 2.21 2.21 2.18 2.28 2.23 1.96 1.84 1.62 1.43 1.44 1.46
0.17 0.35 0.69 1.12 1.61 1.30 0.98 0.50 0.37 0.34 0.31 0.43 0.48 0.40 0.37 0.43 0.36 0.51 0.80 0.93 0.82 0.90 1.11 1.48 1.82 1.84 1.78 1.74 1.73 1.74 1.70 1.72 1.87 1.90 1.91 1.88 1.86 2.08 2.27 2.18 2.14 2.30 2.12 1.92 1.74 1.59 1.39 1.28 1.32
0.28 0.46 0.85 1.32 1.01 0.69 0.61 0.36 0.31 0.37 0.45 0.63 0.73 0.49 0.43 0.59 0.47 0.49 0.59 0.64 0.70 0.80 0.91 1.25 1.57 1.58 1.59 1.61 1.74 1.72 1.58 1.56 1.70 1.81 1.85 1.87 1.92 2.08 2.25 2.15 2.15 2.28 2.26 2.05 1.79 1.62 1.39 1.32 1.28
0.34 0.57 0.88 0.91 0.42 0.28 0.34 0.25 0.31 0.40 0.68 0.81 0.84 0.70 0.59 0.60 0.48 0.46 0.46 0.53 0.67 0.78 0.91 1.18 1.42 1.39 1.47 1.49 1.69 1.66 1.58 1.51 1.59 1.74 1.74 1.81 1.90 2.13 2.31 2.22 2.22 2.23 2.17 1.94 1.74 1.54 1.34 1.26 1.25
0.39 0.72 1.00 0.62 0.19 0.16 0.18 0.15 0.22 0.34 0.60 0.81 0.82 0.92 0.94 0.84 0.62 0.51 0.48 0.59 0.71 0.81 0.98 1.09 1.33 1.41 1.52 1.65 1.78 1.69 1.56 1.42 1.47 1.56 1.55 1.69 1.96 2.22 2.41 2.44 2.37 2.26 2.15 1.86 1.65 1.47 1.30 1.23 1.29
0.53 0.85 0.73 0.40 0.20 0.14 0.14 0.14 0.23 0.41 0.63 0.79 0.95 1.08 1.03 0.87 0.65 0.56 0.52 0.63 0.76 0.78 1.03 1.15 1.38 1.46 1.51 1.63 1.81 1.83 1.61 1.48 1.50 1.62 1.59 1.70 1.96 2.23 2.41 2.59 2.58 2.41 2.20 1.84 1.61 1.38 1.23 1.23 1.33
0.41 0.55 0.42 0.26 0.19 0.14 0.13 0.17 0.27 0.41 0.53 0.82 1.10 1.17 1.01 0.96 0.78 0.58 0.62 0.69 1.06 0.88 1.00 1.15 1.32 1.44 1.49 1.60 1.81 1.83 1.75 1.64 1.69 1.82 1.70 1.79 2.03 2.22 2.36 2.63 2.59 2.40 2.20 1.87 1.61 1.35 1.19 1.24 1.31
0.26 0.34 0.27 0.20 0.12 0.09 0.11 0.17 0.28 0.39 0.66 0.93 0.96 1.05 1.10 0.87 0.81 0.80 0.86 0.89 1.15 1.11 1.02 1.09 1.20 1.42 1.47 1.52 1.72 1.89 1.80 1.73 1.76 1.83 1.84 2.15 2.32 2.34 2.39 2.63 2.66 2.44 2.20 1.85 1.70 1.47 1.27 1.32 1.34
0.26 0.33 0.26 0.16 0.07 0.08 0.13 0.22 0.29 0.36 0.55 0.73 0.81 0.78 0.62 0.63 0.81 0.94 1.06 1.17 1.28 1.30 1.30 1.34 1.27 1.28 1.38 1.42 1.65 2.12 2.09 2.00 1.99 2.06 2.31 2.61 2.87 2.86 2.92 2.88 2.91 2.76 2.43 2.19 2.04 1.86 1.58 1.48 1.39
0.21 0.25 0.15 0.07 0.04 0.06 0.11 0.20 0.33 0.42 0.71 1.06 1.09 1.12 0.79 0.83 1.01 1.10 1.12 1.14 1.34 1.51 1.51 1.68 1.48 1.30 1.33 1.36 1.99 2.69 2.52 2.40 2.49 2.62 2.76 3.09 3.25 3.50 3.08 3.38 3.48 3.42 3.23 2.92 2.75 2.66 2.16 1.64 1.40
0.06 0.07 0.05 0.04 0.03 0.03 0.06 0.12 0.16 0.36 0.78 1.22 1.27 1.24 1.05 1.04 1.16 1.29 1.36 1.50 1.69 1.89 1.71 1.62 1.70 1.68 1.73 1.88 2.12 2.43 2.73 2.81 2.89 2.90 2.91 3.17 3.07 3.17 3.16 3.57 4.16 4.07 3.48 3.00 3.09 3.02 2.38 2.09 2.25
0.04 0.03 0.03 0.03 0.02 0.03 0.06 0.12 0.22 0.37 0.80 1.08 0.98 0.86 0.90 1.12 1.32 1.51 1.88 2.12 2.33 2.46 2.42 2.43 2.31 2.29 2.34 2.23 2.13 2.18 2.34 2.42 2.47 2.59 2.65 2.87 3.19 3.26 3.39 3.65 3.64 3.58 3.32 3.38 3.12 3.11 2.81 2.55 2.37
0.03 0.03 0.03 0.03 0.03 0.04 0.09 0.17 0.31 0.44 0.71 0.68 0.60 0.66 1.06 1.33 1.57 1.89 2.13 2.35 2.59 2.96 3.23 3.76 3.68 3.18 2.88 2.63 2.40 2.08 2.22 2.10 1.91 2.08 2.42 2.58 2.78 3.06 3.20 3.05 3.02 2.69 2.78 3.02 3.08 2.71 2.85 2.76 2.71
0.02 0.03 0.04 0.05 0.05 0.07 0.11 0.17 0.41 0.52 0.61 0.68 0.65 0.94 1.40 1.88 2.08 2.34 2.64 3.05 3.37 3.81 3.86 4.06 4.63 4.03 3.39 2.90 2.62 2.36 2.20 2.25 2.05 2.15 2.16 2.43 2.58 2.65 2.69 2.61 2.67 2.49 2.52 2.63 2.65 2.59 2.87 2.94 2.82
0.03 0.06 0.13 0.13 0.09 0.11 0.16 0.35 0.55 0.66 0.66 0.88 0.95 1.16 1.71 2.36 2.36 2.65 2.96 3.45 3.91 4.38 4.52 4.62 4.96 4.68 4.23 3.69 3.11 2.62 2.42 2.26 2.25 2.34 2.13 2.18 2.29 2.28 2.35 2.38 2.36 2.40 2.31 2.30 2.27 2.33 2.56 2.57 2.47
0.05 0.12 0.29 0.24 0.13 0.13 0.22 0.72 0.85 0.73 0.70 0.99 1.21 1.42 1.89 2.56 2.63 2.93 3.38 3.91 4.61 5.04 5.29 5.32 5.11 5.14 4.81 4.21 3.63 3.21 2.97 2.71 2.46 2.29 2.14 1.95 2.00 2.00 2.12 2.04 2.03 2.07 2.01 2.00 2.17 2.23 2.39 2.52 2.54
0.10 0.16 0.29 0.28 0.20 0.17 0.26 0.74 0.78 0.53 0.69 0.96 1.29 1.59 1.90 2.24 2.71 3.29 3.79 4.36 5.27 6.22 6.66 6.44 5.81 5.44 5.00 4.47 3.99 3.82 3.64 3.25 2.82 2.57 2.35 2.14 1.94 1.86 1.96 2.03 2.09 1.81 1.87 1.96 1.85 2.14 2.29 2.54 2.56
0.07 0.12 0.23 0.32 0.24 0.28 0.38 0.49 0.62 0.66 0.83 1.04 1.25 1.43 1.77 2.04 2.42 3.13 3.71 4.40 5.36 6.56 7.28 7.18 6.53 5.74 5.08 4.76 4.36 4.20 3.88 3.44 2.95 2.74 2.58 2.25 2.08 1.87 1.91 1.82 1.77 1.58 1.77 2.04 2.15 2.55 2.47 2.39 2.38
0.05 0.09 0.18 0.27 0.23 0.33 0.43 0.51 0.66 0.82 1.04 1.09 1.16 1.25 1.50 1.81 2.21 2.93 3.57 4.13 4.82 5.58 6.16 6.06 5.45 4.98 4.49 4.05 3.55 3.49 3.29 2.99 2.73 2.50 2.27 2.17 2.05 1.88 1.96 1.85 1.96 1.70 1.76 1.86 1.87 2.12 2.25 2.16 2.18
0.06 0.10 0.17 0.22 0.19 0.21 0.36 0.60 0.76 0.84 1.02 0.97 0.97 1.02 1.23 1.59 2.21 2.96 3.55 3.77 3.81 4.09 4.34 3.83 3.64 3.65 3.36 3.17 3.12 3.06 2.90 2.58 2.34 2.20 2.23 1.88 1.81 1.78 1.71 1.94 1.81 1.74 1.91 1.92 1.95 2.14 2.25 2.17 2.22
0.09 0.11 0.13 0.20 0.22 0.28 0.43 0.80 1.00 0.93 0.95 0.82 0.80 1.02 1.49 1.91 2.33 2.83 3.00 3.02 2.93 2.89 2.87 2.64 2.58 2.90 2.93 2.99 3.00 2.99 2.97 2.78 2.50 2.18 2.17 1.83 1.64 1.67 1.76 1.76 1.84 1.91 1.65 1.87 2.01 2.02 2.16 2.24 2.19
0.08 0.07 0.06 0.09 0.17 0.41 0.58 1.03 1.24 1.16 1.10 0.82 0.87 1.27 1.77 2.08 2.32 2.29 1.88 1.74 1.90 1.99 2.10 2.36 2.44 2.57 2.53 2.67 2.60 2.50 2.31 2.16 2.04 1.95 2.01 2.00 1.77 1.67 1.60 1.64 1.88 2.00 1.76 1.96 1.60 1.71 2.01 2.18 2.09
0.05 0.05 0.04 0.08 0.18 0.44 0.73 1.16 1.43 1.32 1.09 0.85 0.83 0.89 1.28 1.42 1.37 1.22 1.08 1.12 1.35 1.62 1.84 2.21 2.31 2.35 2.29 2.28 2.37 2.50 2.44 2.42 2.27 2.15 2.30 2.26 2.23 2.01 1.66 1.65 1.87 2.03 1.99 2.04 1.88 2.07 1.90 1.83 1.83
0.05 0.06 0.13 0.22 0.41 0.88 0.95 1.05 1.35 1.25 1.03 0.91 0.78 0.69 0.89 0.92 0.75 0.78 0.88 1.08 1.32 1.46 1.55 1.79 1.94 2.12 2.17 2.23 2.34 2.33 2.36 2.51 2.44 2.32 2.19 2.07 2.11 2.06 1.91 1.85 2.07 2.07 2.04 2.13 2.07 2.07 1.94 1.90 1.89
0.04 0.07 0.28 0.63 0.94 1.08 0.82 0.97 1.29 0.97 0.77 0.65 0.54 0.47 0.48 0.56 0.63 0.78 0.88 1.07 1.16 1.26 1.30 1.45 1.51 1.71 1.90 2.01 2.09 2.15 2.24 2.36 2.34 2.33 2.22 2.11 1.94 1.87 1.94 2.01 2.20 2.10 2.04 2.00 2.08 2.08 2.06 2.08 2.11
0.05 0.05 0.13 0.25 0.38 0.60 0.77 1.18 1.28 0.90 0.59 0.45 0.41 0.41 0.40 0.47 0.55 0.61 0.72 0.81 0.85 1.00 1.22 1.40 1.38 1.40 1.46 1.53 1.70 1.86 1.91 1.99 2.02 2.27 2.15 2.04 1.93 1.86 1.95 2.01 1.92 1.89 1.92 1.80 2.03 1.94 1.91 2.00 2.04
0.05 0.04 0.05 0.08 0.11 0.37 0.81 1.11 1.07 0.74 0.57 0.51 0.50 0.51 0.52 0.52 0.62 0.59 0.60 0.76 0.81 0.77 0.90 1.11 1.17 1.19 1.24 1.29 1.42 1.50 1.55 1.69 1.88 1.88 1.72 1.59 1.69 1.82 1.88 1.80 1.79 1.79 1.80 1.91 2.10 2.01 2.00 2.13 2.00
0.05 0.05 0.05 0.07 0.13 0.28 0.66 1.17 1.42 1.12 0.81 0.63 0.68 0.60 0.54 0.48 0.54 0.64 0.64 0.70 0.76 0.73 0.87 1.01 1.12 1.18 1.20 1.22 1.26 1.21 1.35 1.46 1.64 1.67 1.62 1.53 1.47 1.62 1.77 1.84 1.85 1.83 1.75 1.82 2.02 1.92 2.03 2.14 2.10
0.06 0.06 0.07 0.09 0.10 0.19 0.49 0.80 0.86 0.95 0.80 0.60 0.64 0.60 0.54 0.47 0.49 0.61 0.62 0.66 0.66 0.66 0.77 0.90 1.05 1.14 1.07 1.11 1.15 1.23 1.32 1.50 1.57 1.53 1.55 1.54 1.54 1.63 1.70 1.79 1.87 1.87 1.87 1.95 2.02 1.90 2.03 2.08 2.18
0.08 0.09 0.10 0.11 0.13 0.14 0.25 0.44 0.49 0.54 0.65 0.85 0.81 0.68 0.66 0.62 0.54 0.59 0.62 0.63 0.56 0.59 0.69 0.80 0.98 1.12 1.15 1.13 1.20 1.30 1.37 1.46 1.53 1.47 1.54 1.68 1.70 1.74 1.77 1.83 1.94 1.89 1.96 2.09 2.02 1.99 2.05 2.09 2.09

GEFSSGP_prec_meanprecacc_264.txt.gz
Total_Precipitation_Accumulation
0.07 0.21 0.55 0.85 1.55 1.66 1.14 0.63 0.47 0.38 0.40 0.45 0.50 0.48 0.52 0.64 0.89 1.59 1.41 1.06 0.92 1.10 1.51 2.12 2.31 2.20 2.14 2.11 1.99 2.02 1.99 1.96 2.14 2.20 2.18 2.04 2.00 2.23 2.30 2.27 2.26 2.36 2.30 2.02 1.90 1.66 1.48 1.49 1.50
0.17 0.35 0.69 1.13 1.63 1.31 0.98 0.50 0.37 0.35 0.32 0.43 0.49 0.41 0.39 0.44 0.38 0.56 0.87 1.02 0.92 0.99 1.21 1.57 1.92 1.94 1.87 1.83 1.85 1.85 1.80 1.81 1.95 2.00 2.06 2.05 1.98 2.22 2.40 2.29 2.25 2.39 2.21 2.00 1.81 1.64 1.43 1.32 1.34
0.28 0.46 0.86 1.32 1.02 0.69 0.61 0.36 0.32 0.37 0.45 0.63 0.73 0.50 0.44 0.61 0.51 0.58 0.69 0.73 0.82 0.92 1.02 1.35 1.66 1.68 1.67 1.69 1.84 1.82 1.71 1.69 1.80 1.93 2.01 2.03 2.07 2.21 2.40 2.28 2.28 2.39 2.36 2.12 1.85 1.67 1.44 1.34 1.30
0.34 0.58 0.88 0.91 0.43 0.28 0.34 0.26 0.31 0.40 0.69 0.81 0.84 0.71 0.61 0.63 0.54 0.56 0.53 0.60 0.77 0.91 1.06 1.31 1.53 1.51 1.57 1.60 1.79 1.77 1.72 1.67 1.73 1.87 1.89 1.97 2.07 2.27 2.47 2.37 2.35 2.35 2.26 2.01 1.81 1.59 1.39 1.29 1.28
0.39 0.72 1.00 0.62 0.19 0.16 0.18 0.15 0.22 0.35 0.60 0.81 0.83 0.93 0.96 0.88 0.67 0.56 0.52 0.65 0.80 0.92 1.13 1.22 1.47 1.55 1.66 1.81 1.94 1.83 1.71 1.58 1.60 1.67 1.67 1.83 2.11 2.36 2.54 2.59 2.51 2.39 2.24 1.93 1.72 1.53 1.35 1.26 1.31
0.53 0.85 0.73 0.40 0.20 0.14 0.14 0.14 0.23 0.42 0.63 0.79 0.96 1.10 1.08 0.93 0.70 0.61 0.58 0.71 0.86 0.90 1.15 1.25 1.50 1.59 1.67 1.80 1.96 1.95 1.73 1.61 1.62 1.70 1.67 1.79 2.06 2.35 2.53 2.72 2.73 2.56 2.31 1.91 1.68 1.45 1.29 1.27 1.35
0.41 0.55 0.42 0.26 0.19 0.14 0.13 0.18 0.29 0.43 0.53 0.82 1.10 1.18 1.05 1.01 0.83 0.65 0.72 0.82 1.19 1.00 1.09 1.25 1.45 1.59 1.66 1.77 1.95 1.95 1.87 1.75 1.78 1.89 1.77 1.88 2.13 2.33 2.49 2.78 2.74 2.54 2.32 1.96 1.68 1.42 1.25 1.28 1.35
0.26 0.34 0.27 0.20 0.12 0.09 0.11 0.18 0.29 0.40 0.66 0.93 0.97 1.07 1.14 0.92 0.86 0.85 0.96 1.04 1.31 1.26 1.13 1.19 1.35 1.60 1.66 1.69 1.85 2.01 1.93 1.83 1.85 1.91 1.95 2.26 2.45 2.47 2.51 2.77 2.83 2.61 2.33 1.96 1.79 1.55 1.34 1.38 1.38
0.26 0.33 0.26 0.16 0.07 0.08 0.13 0.23 0.29 0.36 0.55 0.74 0.82 0.80 0.65 0.67 0.84 0.97 1.13 1.30 1.43 1.47 1.44 1.46 1.41 1.43 1.54 1.57 1.79 2.26 2.23 2.12 2.10 2.17 2.43 2.75 3.03 3.00 3.05 3.03 3.11 2.95 2.57 2.33 2.17 1.97 1.68 1.57 1.46
0.21 0.25 0.15 0.07 0.04 0.06 0.11 0.20 0.33 0.43 0.71 1.06 1.09 1.14 0.84 0.88 1.03 1.12 1.17 1.21 1.43 1.62 1.64 1.82 1.63 1.47 1.49 1.50 2.14 2.85 2.67 2.53 2.61 2.74 2.89 3.23 3.39 3.65 3.25 3.57 3.72 3.69 3.40 3.08 2.92 2.81 2.31 1.76 1.48
0.06 0.07 0.05 0.04 0.03 0.03 0.06 0.12 0.16 0.36 0.78 1.22 1.28 1.28 1.10 1.07 1.17 1.30 1.38 1.54 1.74 1.96 1.81 1.73 1.84 1.83 1.86 1.99 2.24 2.56 2.86 2.93 3.00 3.02 3.04 3.28 3.20 3.34 3.36 3.79 4.45 4.41 3.73 3.22 3.32 3.25 2.55 2.23 2.36
0.04 0.03 0.03 0.03 0.02 0.03 0.06 0.12 0.22 0.37 0.80 1.09 1.01 0.90 0.93 1.14 1.33 1.52 1.90 2.15 2.37 2.51 2.49 2.52 2.43 2.41 2.43 2.32 2.23 2.31 2.46 2.52 2.57 2.68 2.75 2.96 3.28 3.38 3.50 3.80 3.85 3.88 3.57 3.64 3.44 3.40 2.98 2.70 2.52
0.03 0.03 0.03 0.03 0.03 0.04 0.09 0.17 0.31 0.44 0.71 0.69 0.61 0.68 1.08 1.34 1.58 1.91 2.15 2.37 2.62 2.99 3.26 3.81 3.74 3.24 2.95 2.70 2.47 2.18 2.33 2.19 1.99 2.14 2.48 2.64 2.86 3.16 3.28 3.13 3.13 2.89 3.00 3.22 3.28 2.93 3.03 2.92 2.90
0.02 0.03 0.04 0.05 0.05 0.07 0.11 0.17 0.42 0.52 0.61 0.69 0.66 0.95 1.41 1.89 2.09 2.35 2.66 3.07 3.38 3.83 3.88 4.10 4.67 4.07 3.44 2.95 2.67 2.44 2.28 2.30 2.10 2.21 2.22 2.48 2.66 2.75 2.78 2.68 2.76 2.62 2.67 2.77 2.77 2.72 3.02 3.09 2.98
0.03 0.06 0.13 0.13 0.10 0.11 0.16 0.35 0.55 0.66 0.66 0.88 0.95 1.17 1.72 2.37 2.37 2.66 2.97 3.47 3.92 4.40 4.56 4.67 4.99 4.72 4.29 3.74 3.17 2.67 2.47 2.29 2.28 2.38 2.18 2.24 2.38 2.39 2.43 2.45 2.44 2.50 2.40 2.38 2.34 2.41 2.68 2.72 2.65
0.05 0.12 0.29 0.24 0.13 0.13 0.22 0.72 0.85 0.73 0.70 0.99 1.21 1.42 1.90 2.56 2.64 2.94 3.40 3.93 4.62 5.07 5.35 5.39 5.14 5.19 4.89 4.29 3.72 3.28 3.02 2.75 2.52 2.34 2.19 2.00 2.09 2.10 2.19 2.10 2.09 2.13 2.06 2.06 2.23 2.28 2.48 2.67 2.72
0.10 0.16 0.29 0.28 0.20 0.17 0.26 0.74 0.78 0.53 0.69 0.96 1.29 1.59 1.91 2.24 2.71 3.30 3.80 4.37 5.28 6.24 6.71 6.50 5.85 5.48 5.08 4.59 4.10 3.89 3.71 3.33 2.91 2.67 2.44 2.22 2.02 1.94 2.03 2.09 2.14 1.86 1.92 2.01 1.90 2.20 2.36 2.64 2.70
0.07 0.12 0.23 0.32 0.24 0.28 0.38 0.49 0.62 0.66 0.84 1.04 1.26 1.43 1.77 2.04 2.43 3.13 3.71 4.40 5.36 6.56 7.30 7.21 6.55 5.76 5.11 4.82 4.45 4.27 3.96 3.54 3.07 2.85 2.70 2.37 2.18 1.94 1.98 1.88 1.82 1.62 1.81 2.11 2.24 2.64 2.56 2.50 2.48
0.05 0.09 0.18 0.27 0.23 0.33 0.43 0.51 0.66 0.82 1.04 1.09 1.16 1.26 1.51 1.81 2.21 2.93 3.57 4.13 4.82 5.59 6.17 6.07 5.46 5.00 4.51 4.09 3.60 3.54 3.35 3.08 2.85 2.61 2.39 2.32 2.18 1.98 2.05 1.91 2.01 1.74 1.81 1.93 1.96 2.22 2.34 2.26 2.27
0.06 0.10 0.17 0.22 0.19 0.21 0.36 0.61 0.76 0.84 1.02 0.98 0.97 1.03 1.23 1.59 2.21 2.96 3.55 3.78 3.82 4.09 4.34 3.84 3.64 3.66 3.37 3.21 3.21 3.13 2.96 2.66 2.43 2.29 2.35 2.02 1.97 1.92 1.82 2.03 1.87 1.79 1.98 1.99 2.03 2.23 2.33 2.26 2.31
0.09 0.11 0.13 0.20 0.22 0.28 0.43 0.80 1.01 0.93 0.95 0.82 0.80 1.02 1.49 1.91 2.33 2.83 3.01 3.02 2.93 2.89 2.87 2.64 2.59 2.91 2.94 3.02 3.08 3.07 3.03 2.85 2.58 2.27 2.26 1.93 1.76 1.80 1.87 1.85 1.92 2.00 1.73 1.95 2.09 2.10 2.25 2.36 2.29
0.08 0.07 0.06 0.09 0.17 0.41 0.58 1.03 1.24 1.16 1.10 0.82 0.88 1.27 1.77 2.08 2.32 2.29 1.88 1.74 1.90 1.99 2.11 2.37 2.46 2.59 2.55 2.71 2.68 2.59 2.37 2.22 2.09 2.01 2.08 2.10 1.90 1.78 1.69 1.73 1.99 2.12 1.86 2.05 1.68 1.80 2.10 2.29 2.23
0.05 0.05 0.04 0.08 0.18 0.44 0.73 1.16 1.43 1.32 1.09 0.86 0.83 0.89 1.28 1.42 1.37 1.22 1.09 1.12 1.36 1.64 1.91 2.27 2.36 2.40 2.33 2.32 2.44 2.60 2.50 2.48 2.32 2.19 2.38 2.38 2.35 2.09 1.74 1.72 1.95 2.15 2.10 2.15 1.97 2.17 1.99 1.90 1.92
0.05 0.06 0.13 0.22 0.41 0.88 0.95 1.05 1.35 1.25 1.04 0.91 0.78 0.69 0.89 0.92 0.75 0.78 0.89 1.09 1.33 1.49 1.66 1.92 2.04 2.20 2.23 2.28 2.39 2.42 2.45 2.58 2.50 2.37 2.25 2.16 2.20 2.13 1.98 1.92 2.14 2.16 2.13 2.23 2.16 2.15 2.01 1.98 1.98
0.04 0.07 0.28 0.63 0.94 1.08 0.82 0.97 1.29 0.97 0.77 0.65 0.54 0.47 0.48 0.56 0.64 0.79 0.88 1.08 1.17 1.28 1.33 1.51 1.57 1.76 1.94 2.06 2.14 2.22 2.34 2.45 2.40 2.39 2.28 2.18 2.02 1.94 2.02 2.08 2.27 2.17 2.12 2.07 2.15 2.14 2.12 2.15 2.17
0.05 0.05 0.13 0.25 0.38 0.60 0.77 1.18 1.28 0.90 0.59 0.45 0.41 0.41 0.40 0.47 0.55 0.61 0.73 0.81 0.86 1.02 1.24 1.41 1.40 1.42 1.49 1.57 1.74 1.91 1.97 2.08 2.12 2.36 2.23 2.13 2.04 1.97 2.06 2.12 2.02 1.97 1.98 1.85 2.09 1.99 1.95 2.05 2.09
0.05 0.04 0.05 0.08 0.11 0.37 0.81 1.11 1.07 0.74 0.57 0.51 0.50 0.51 0.52 0.52 0.62 0.60 0.61 0.77 0.82 0.79 0.91 1.12 1.18 1.21 1.26 1.32 1.45 1.53 1.57 1.73 1.95 1.99 1.83 1.67 1.76 1.89 1.98 1.95 1.97 1.95 1.93 1.97 2.15 2.05 2.04 2.18 2.05
0.05 0.05 0.05 0.07 0.13 0.28 0.66 1.17 1.42 1.12 0.81 0.63 0.68 0.60 0.54 0.48 0.54 0.64 0.65 0.71 0.77 0.75 0.89 1.02 1.13 1.20 1.22 1.23 1.28 1.23 1.38 1.50 1.67 1.73 1.71 1.62 1.55 1.69 1.85 1.92 1.99 2.00 1.92 1.95 2.11 1.98 2.09 2.20 2.16
0.06 0.06 0.07 0.09 0.10 0.19 0.49 0.80 0.86 0.95 0.80 0.60 0.64 0.60 0.54 0.47 0.49 0.61 0.63 0.67 0.67 0.66 0.78 0.92 1.07 1.15 1.09 1.13 1.18 1.26 1.35 1.53 1.59 1.56 1.60 1.62 1.63 1.72 1.78 1.88 1.97 1.98 1.98 2.07 2.15 2.03 2.14 2.16 2.25
0.08 0.09 0.10 0.11 0.13 0.14 0.25 0.44 0.49 0.54 0.65 0.85 0.81 0.68 0.66 0.62 0.54 0.59 0.62 0.64 0.57 0.59 0.69 0.81 0.99 1.12 1.16 1.14 1.22 1.32 1.40 1.48 1.56 1.50 1.58 1.74 1.78 1.83 1.85 1.91 2.02 1.97 2.04 2.17 2.11 2.10 2.18 2.21 2.19